<?xml version="1.0" encoding="utf-8"?>
<gpx xmlns:xsi="http://www.w3.org/2001/XMLSchema-instance" xmlns:xsd="http://www.w3.org/2001/XMLSchema" version="1.1" creator="Shapelink.com" xmlns="http://www.topografix.com/GPX/1/1" xmlns:gpxtpx="http://www.garmin.com/xmlschemas/TrackPointExtension/v1">
  <metadata>
    <name>Löpning 27.61 km, 2018-05-04</name>
    <desc></desc>
    <author><name>Bengt-Åke Forslund</name></author> 
    <time>2018-05-04T16:41:31Z</time>
  </metadata>
  <trk>
    <name>Löpning 27.61 km, 2018-05-04</name>
    <trkseg>
      <trkpt lat="62.638185379317" lon="17.916771500129">
        <ele>32.4</ele>
        <time>2018-05-04T16:41:31Z</time>
      </trkpt>
      <trkpt lat="62.638376067542" lon="17.916632695865">
        <ele>32.2</ele>
        <time>2018-05-04T16:41:51Z</time>
      </trkpt>
      <trkpt lat="62.638400039776" lon="17.916628756372">
        <ele>32.2</ele>
        <time>2018-05-04T16:41:52Z</time>
      </trkpt>
      <trkpt lat="62.638414037549" lon="17.91662473306">
        <ele>32.2</ele>
        <time>2018-05-04T16:41:53Z</time>
      </trkpt>
      <trkpt lat="62.638457036696" lon="17.916607633984">
        <ele>32.4</ele>
        <time>2018-05-04T16:41:54Z</time>
      </trkpt>
      <trkpt lat="62.638493749418" lon="17.916585421949">
        <ele>32.4</ele>
        <time>2018-05-04T16:41:55Z</time>
      </trkpt>
      <trkpt lat="62.638529288674" lon="17.916563880466">
        <ele>32.2</ele>
        <time>2018-05-04T16:41:56Z</time>
      </trkpt>
      <trkpt lat="62.638563067731" lon="17.916546194657">
        <ele>32.2</ele>
        <time>2018-05-04T16:41:57Z</time>
      </trkpt>
      <trkpt lat="62.638601875928" lon="17.916524485536">
        <ele>32.2</ele>
        <time>2018-05-04T16:41:58Z</time>
      </trkpt>
      <trkpt lat="62.638639845935" lon="17.91650738646">
        <ele>32.2</ele>
        <time>2018-05-04T16:41:59Z</time>
      </trkpt>
      <trkpt lat="62.638679492322" lon="17.916486012615">
        <ele>32.2</ele>
        <time>2018-05-04T16:42:00Z</time>
      </trkpt>
      <trkpt lat="62.63871737851" lon="17.916462291838">
        <ele>32.2</ele>
        <time>2018-05-04T16:42:01Z</time>
      </trkpt>
      <trkpt lat="62.638754677965" lon="17.916444438391">
        <ele>32.2</ele>
        <time>2018-05-04T16:42:02Z</time>
      </trkpt>
      <trkpt lat="62.638795833094" lon="17.916426584944">
        <ele>32.4</ele>
        <time>2018-05-04T16:42:03Z</time>
      </trkpt>
      <trkpt lat="62.63883723968" lon="17.916399930502">
        <ele>32.4</ele>
        <time>2018-05-04T16:42:04Z</time>
      </trkpt>
      <trkpt lat="62.638876550791" lon="17.916375371535">
        <ele>32.6</ele>
        <time>2018-05-04T16:42:05Z</time>
      </trkpt>
      <trkpt lat="62.638920555766" lon="17.916351818396">
        <ele>32.8</ele>
        <time>2018-05-04T16:42:06Z</time>
      </trkpt>
      <trkpt lat="62.638960369791" lon="17.916325834506">
        <ele>32.8</ele>
        <time>2018-05-04T16:42:07Z</time>
      </trkpt>
      <trkpt lat="62.639004793861" lon="17.916296246399">
        <ele>32.8</ele>
        <time>2018-05-04T16:42:08Z</time>
      </trkpt>
      <trkpt lat="62.639047541551" lon="17.916270597785">
        <ele>33</ele>
        <time>2018-05-04T16:42:09Z</time>
      </trkpt>
      <trkpt lat="62.639085427739" lon="17.916241177316">
        <ele>32.8</ele>
        <time>2018-05-04T16:42:10Z</time>
      </trkpt>
      <trkpt lat="62.639127672515" lon="17.916217288901">
        <ele>32.8</ele>
        <time>2018-05-04T16:42:11Z</time>
      </trkpt>
      <trkpt lat="62.639167905635" lon="17.916192394658">
        <ele>33</ele>
        <time>2018-05-04T16:42:12Z</time>
      </trkpt>
      <trkpt lat="62.639211491515" lon="17.916156771583">
        <ele>33</ele>
        <time>2018-05-04T16:42:13Z</time>
      </trkpt>
      <trkpt lat="62.639254574481" lon="17.916124920363">
        <ele>33.2</ele>
        <time>2018-05-04T16:42:14Z</time>
      </trkpt>
      <trkpt lat="62.639298663275" lon="17.916093404419">
        <ele>33.2</ele>
        <time>2018-05-04T16:42:15Z</time>
      </trkpt>
      <trkpt lat="62.639341243327" lon="17.916058870991">
        <ele>33.2</ele>
        <time>2018-05-04T16:42:16Z</time>
      </trkpt>
      <trkpt lat="62.639379213334" lon="17.916027355047">
        <ele>33.4</ele>
        <time>2018-05-04T16:42:17Z</time>
      </trkpt>
      <trkpt lat="62.639425984336" lon="17.916000700605">
        <ele>33.2</ele>
        <time>2018-05-04T16:42:18Z</time>
      </trkpt>
      <trkpt lat="62.639468145293" lon="17.916002544623">
        <ele>33.2</ele>
        <time>2018-05-04T16:42:19Z</time>
      </trkpt>
      <trkpt lat="62.639506031481" lon="17.916041269001">
        <ele>33.2</ele>
        <time>2018-05-04T16:42:20Z</time>
      </trkpt>
      <trkpt lat="62.639538134158" lon="17.916099020292">
        <ele>33</ele>
        <time>2018-05-04T16:42:21Z</time>
      </trkpt>
      <trkpt lat="62.639566129704" lon="17.916158447963">
        <ele>32.8</ele>
        <time>2018-05-04T16:42:22Z</time>
      </trkpt>
      <trkpt lat="62.639600495494" lon="17.916218713824">
        <ele>32.8</ele>
        <time>2018-05-04T16:42:23Z</time>
      </trkpt>
      <trkpt lat="62.639637543492" lon="17.916279817875">
        <ele>32.8</ele>
        <time>2018-05-04T16:42:24Z</time>
      </trkpt>
      <trkpt lat="62.639670484359" lon="17.916341089564">
        <ele>32.6</ele>
        <time>2018-05-04T16:42:25Z</time>
      </trkpt>
      <trkpt lat="62.639708035271" lon="17.916416275207">
        <ele>32.6</ele>
        <time>2018-05-04T16:42:26Z</time>
      </trkpt>
      <trkpt lat="62.639743406889" lon="17.916483498045">
        <ele>32.8</ele>
        <time>2018-05-04T16:42:27Z</time>
      </trkpt>
      <trkpt lat="62.639781125439" lon="17.91655767786">
        <ele>33</ele>
        <time>2018-05-04T16:42:28Z</time>
      </trkpt>
      <trkpt lat="62.639816999971" lon="17.916622889042">
        <ele>33</ele>
        <time>2018-05-04T16:42:29Z</time>
      </trkpt>
      <trkpt lat="62.639855305254" lon="17.916696063029">
        <ele>33.2</ele>
        <time>2018-05-04T16:42:30Z</time>
      </trkpt>
      <trkpt lat="62.639889000492" lon="17.916747444076">
        <ele>33.4</ele>
        <time>2018-05-04T16:42:31Z</time>
      </trkpt>
      <trkpt lat="62.639926132309" lon="17.916807039385">
        <ele>33.4</ele>
        <time>2018-05-04T16:42:32Z</time>
      </trkpt>
      <trkpt lat="62.639975334062" lon="17.916904269425">
        <ele>33.6</ele>
        <time>2018-05-04T16:42:33Z</time>
      </trkpt>
      <trkpt lat="62.64001238206" lon="17.916967804227">
        <ele>33.8</ele>
        <time>2018-05-04T16:42:34Z</time>
      </trkpt>
      <trkpt lat="62.640052782818" lon="17.91702706426">
        <ele>34</ele>
        <time>2018-05-04T16:42:35Z</time>
      </trkpt>
      <trkpt lat="62.640098799449" lon="17.917096047297">
        <ele>34</ele>
        <time>2018-05-04T16:42:36Z</time>
      </trkpt>
      <trkpt lat="62.640141798596" lon="17.917160504108">
        <ele>33.8</ele>
        <time>2018-05-04T16:42:37Z</time>
      </trkpt>
      <trkpt lat="62.64019007834" lon="17.917239796882">
        <ele>33.6</ele>
        <time>2018-05-04T16:42:38Z</time>
      </trkpt>
      <trkpt lat="62.640227880709" lon="17.917305762435">
        <ele>33.4</ele>
        <time>2018-05-04T16:42:39Z</time>
      </trkpt>
      <trkpt lat="62.640258307006" lon="17.917356724387">
        <ele>33</ele>
        <time>2018-05-04T16:42:40Z</time>
      </trkpt>
      <trkpt lat="62.640291415511" lon="17.917406093778">
        <ele>32.2</ele>
        <time>2018-05-04T16:42:41Z</time>
      </trkpt>
      <trkpt lat="62.640321422713" lon="17.917453535332">
        <ele>31.6</ele>
        <time>2018-05-04T16:42:42Z</time>
      </trkpt>
      <trkpt lat="62.640349669716" lon="17.917501563619">
        <ele>31.2</ele>
        <time>2018-05-04T16:42:43Z</time>
      </trkpt>
      <trkpt lat="62.640375905063" lon="17.917534420667">
        <ele>30.8</ele>
        <time>2018-05-04T16:42:44Z</time>
      </trkpt>
      <trkpt lat="62.640412533966" lon="17.917540623273">
        <ele>30.6</ele>
        <time>2018-05-04T16:42:45Z</time>
      </trkpt>
      <trkpt lat="62.640443127901" lon="17.917512124813">
        <ele>30.4</ele>
        <time>2018-05-04T16:42:46Z</time>
      </trkpt>
      <trkpt lat="62.640484869763" lon="17.917452110409">
        <ele>30.2</ele>
        <time>2018-05-04T16:42:47Z</time>
      </trkpt>
      <trkpt lat="62.640523594141" lon="17.917375918938">
        <ele>29.8</ele>
        <time>2018-05-04T16:42:48Z</time>
      </trkpt>
      <trkpt lat="62.640555864456" lon="17.917295033603">
        <ele>29.6</ele>
        <time>2018-05-04T16:42:49Z</time>
      </trkpt>
      <trkpt lat="62.640584949649" lon="17.917210460232">
        <ele>29.4</ele>
        <time>2018-05-04T16:42:50Z</time>
      </trkpt>
      <trkpt lat="62.640613112833" lon="17.917121025359">
        <ele>29.4</ele>
        <time>2018-05-04T16:42:51Z</time>
      </trkpt>
      <trkpt lat="62.640638258533" lon="17.917041481128">
        <ele>29.6</ele>
        <time>2018-05-04T16:42:52Z</time>
      </trkpt>
      <trkpt lat="62.640666756993" lon="17.916959254689">
        <ele>29.8</ele>
        <time>2018-05-04T16:42:53Z</time>
      </trkpt>
      <trkpt lat="62.64069466872" lon="17.916873256395">
        <ele>29.8</ele>
        <time>2018-05-04T16:42:54Z</time>
      </trkpt>
      <trkpt lat="62.640722077533" lon="17.916802513159">
        <ele>30</ele>
        <time>2018-05-04T16:42:55Z</time>
      </trkpt>
      <trkpt lat="62.640753677296" lon="17.916725483498">
        <ele>30.2</ele>
        <time>2018-05-04T16:42:56Z</time>
      </trkpt>
      <trkpt lat="62.640779242091" lon="17.916653902072">
        <ele>30.2</ele>
        <time>2018-05-04T16:42:57Z</time>
      </trkpt>
      <trkpt lat="62.640808494922" lon="17.916577542963">
        <ele>30.4</ele>
        <time>2018-05-04T16:42:58Z</time>
      </trkpt>
      <trkpt lat="62.640835652278" lon="17.916511828867">
        <ele>30.6</ele>
        <time>2018-05-04T16:42:59Z</time>
      </trkpt>
      <trkpt lat="62.640865743299" lon="17.916436307948">
        <ele>30.6</ele>
        <time>2018-05-04T16:43:00Z</time>
      </trkpt>
      <trkpt lat="62.640891894827" lon="17.916367660187">
        <ele>30.8</ele>
        <time>2018-05-04T16:43:01Z</time>
      </trkpt>
      <trkpt lat="62.640916537613" lon="17.916301610815">
        <ele>31</ele>
        <time>2018-05-04T16:43:02Z</time>
      </trkpt>
      <trkpt lat="62.640940426028" lon="17.916239500936">
        <ele>31.2</ele>
        <time>2018-05-04T16:43:03Z</time>
      </trkpt>
      <trkpt lat="62.640971187601" lon="17.916164063836">
        <ele>31.4</ele>
        <time>2018-05-04T16:43:04Z</time>
      </trkpt>
      <trkpt lat="62.640996165663" lon="17.916101870138">
        <ele>31.6</ele>
        <time>2018-05-04T16:43:05Z</time>
      </trkpt>
      <trkpt lat="62.641023909752" lon="17.916027690323">
        <ele>32</ele>
        <time>2018-05-04T16:43:06Z</time>
      </trkpt>
      <trkpt lat="62.641048217262" lon="17.915966083358">
        <ele>32.2</ele>
        <time>2018-05-04T16:43:07Z</time>
      </trkpt>
      <trkpt lat="62.641075961351" lon="17.915896681226">
        <ele>32.2</ele>
        <time>2018-05-04T16:43:08Z</time>
      </trkpt>
      <trkpt lat="62.641103537802" lon="17.915833062605">
        <ele>32.4</ele>
        <time>2018-05-04T16:43:09Z</time>
      </trkpt>
      <trkpt lat="62.641125749837" lon="17.915770701269">
        <ele>32.4</ele>
        <time>2018-05-04T16:43:10Z</time>
      </trkpt>
      <trkpt lat="62.641152739555" lon="17.9157077532">
        <ele>32.4</ele>
        <time>2018-05-04T16:43:11Z</time>
      </trkpt>
      <trkpt lat="62.64117914254" lon="17.915645810959">
        <ele>32.6</ele>
        <time>2018-05-04T16:43:12Z</time>
      </trkpt>
      <trkpt lat="62.641207976276" lon="17.915580599777">
        <ele>32.8</ele>
        <time>2018-05-04T16:43:13Z</time>
      </trkpt>
      <trkpt lat="62.641233373433" lon="17.915519076631">
        <ele>32.8</ele>
        <time>2018-05-04T16:43:14Z</time>
      </trkpt>
      <trkpt lat="62.641258686771" lon="17.91545461982">
        <ele>33</ele>
        <time>2018-05-04T16:43:15Z</time>
      </trkpt>
      <trkpt lat="62.641285089756" lon="17.915393599588">
        <ele>33.2</ele>
        <time>2018-05-04T16:43:16Z</time>
      </trkpt>
      <trkpt lat="62.641307804705" lon="17.91533811141">
        <ele>33.2</ele>
        <time>2018-05-04T16:43:17Z</time>
      </trkpt>
      <trkpt lat="62.641336889898" lon="17.915268709278">
        <ele>33.4</ele>
        <time>2018-05-04T16:43:18Z</time>
      </trkpt>
      <trkpt lat="62.641364466349" lon="17.9152132211">
        <ele>33.4</ele>
        <time>2018-05-04T16:43:19Z</time>
      </trkpt>
      <trkpt lat="62.641393216266" lon="17.915156475637">
        <ele>33.6</ele>
        <time>2018-05-04T16:43:20Z</time>
      </trkpt>
      <trkpt lat="62.641421211812" lon="17.915095203948">
        <ele>33.8</ele>
        <time>2018-05-04T16:43:21Z</time>
      </trkpt>
      <trkpt lat="62.641446608969" lon="17.915037704114">
        <ele>34.2</ele>
        <time>2018-05-04T16:43:22Z</time>
      </trkpt>
      <trkpt lat="62.641475945619" lon="17.914979533728">
        <ele>34.4</ele>
        <time>2018-05-04T16:43:23Z</time>
      </trkpt>
      <trkpt lat="62.641505449907" lon="17.914916082745">
        <ele>34.6</ele>
        <time>2018-05-04T16:43:24Z</time>
      </trkpt>
      <trkpt lat="62.64153369691" lon="17.914864617879">
        <ele>34.8</ele>
        <time>2018-05-04T16:43:25Z</time>
      </trkpt>
      <trkpt lat="62.641565045216" lon="17.914805106389">
        <ele>34.8</ele>
        <time>2018-05-04T16:43:26Z</time>
      </trkpt>
      <trkpt lat="62.641592956943" lon="17.914753976799">
        <ele>34.8</ele>
        <time>2018-05-04T16:43:27Z</time>
      </trkpt>
      <trkpt lat="62.641624305249" lon="17.914699159173">
        <ele>34.8</ele>
        <time>2018-05-04T16:43:28Z</time>
      </trkpt>
      <trkpt lat="62.641653390442" lon="17.914644006271">
        <ele>35</ele>
        <time>2018-05-04T16:43:29Z</time>
      </trkpt>
      <trkpt lat="62.641686666585" lon="17.914584662419">
        <ele>34.8</ele>
        <time>2018-05-04T16:43:30Z</time>
      </trkpt>
      <trkpt lat="62.641716925244" lon="17.914530766802">
        <ele>35</ele>
        <time>2018-05-04T16:43:31Z</time>
      </trkpt>
      <trkpt lat="62.641747770636" lon="17.914479218117">
        <ele>35</ele>
        <time>2018-05-04T16:43:32Z</time>
      </trkpt>
      <trkpt lat="62.64178263934" lon="17.914421215369">
        <ele>35.2</ele>
        <time>2018-05-04T16:43:33Z</time>
      </trkpt>
      <trkpt lat="62.641815831664" lon="17.914368744675">
        <ele>35.2</ele>
        <time>2018-05-04T16:43:34Z</time>
      </trkpt>
      <trkpt lat="62.641847766703" lon="17.914317363628">
        <ele>35.2</ele>
        <time>2018-05-04T16:43:35Z</time>
      </trkpt>
      <trkpt lat="62.641882048674" lon="17.914259193242">
        <ele>35.4</ele>
        <time>2018-05-04T16:43:36Z</time>
      </trkpt>
      <trkpt lat="62.641914486627" lon="17.914209656213">
        <ele>35.4</ele>
        <time>2018-05-04T16:43:37Z</time>
      </trkpt>
      <trkpt lat="62.641949774426" lon="17.914153832759">
        <ele>35.6</ele>
        <time>2018-05-04T16:43:38Z</time>
      </trkpt>
      <trkpt lat="62.641984559311" lon="17.914103960454">
        <ele>35.8</ele>
        <time>2018-05-04T16:43:39Z</time>
      </trkpt>
      <trkpt lat="62.642017583997" lon="17.914062553868">
        <ele>36</ele>
        <time>2018-05-04T16:43:40Z</time>
      </trkpt>
      <trkpt lat="62.642053039434" lon="17.914018465074">
        <ele>36</ele>
        <time>2018-05-04T16:43:41Z</time>
      </trkpt>
      <trkpt lat="62.642085561206" lon="17.913966664932">
        <ele>36.4</ele>
        <time>2018-05-04T16:43:42Z</time>
      </trkpt>
      <trkpt lat="62.642122609204" lon="17.913912434039">
        <ele>36.6</ele>
        <time>2018-05-04T16:43:43Z</time>
      </trkpt>
      <trkpt lat="62.642157058813" lon="17.913863148467">
        <ele>36.8</ele>
        <time>2018-05-04T16:43:44Z</time>
      </trkpt>
      <trkpt lat="62.642189664404" lon="17.91380925285">
        <ele>37.2</ele>
        <time>2018-05-04T16:43:45Z</time>
      </trkpt>
      <trkpt lat="62.642222353814" lon="17.913755943966">
        <ele>37.4</ele>
        <time>2018-05-04T16:43:46Z</time>
      </trkpt>
      <trkpt lat="62.64225286393" lon="17.913704395281">
        <ele>37.4</ele>
        <time>2018-05-04T16:43:47Z</time>
      </trkpt>
      <trkpt lat="62.642292175041" lon="17.913647901275">
        <ele>37.8</ele>
        <time>2018-05-04T16:43:48Z</time>
      </trkpt>
      <trkpt lat="62.642325451184" lon="17.913591491088">
        <ele>38.2</ele>
        <time>2018-05-04T16:43:49Z</time>
      </trkpt>
      <trkpt lat="62.642359481698" lon="17.913539188032">
        <ele>38</ele>
        <time>2018-05-04T16:43:50Z</time>
      </trkpt>
      <trkpt lat="62.642393093117" lon="17.913487052614">
        <ele>38.2</ele>
        <time>2018-05-04T16:43:51Z</time>
      </trkpt>
      <trkpt lat="62.642423603233" lon="17.913436928852">
        <ele>38.4</ele>
        <time>2018-05-04T16:43:52Z</time>
      </trkpt>
      <trkpt lat="62.642456627919" lon="17.913384458158">
        <ele>38.4</ele>
        <time>2018-05-04T16:43:53Z</time>
      </trkpt>
      <trkpt lat="62.642492250994" lon="17.913329724351">
        <ele>38.4</ele>
        <time>2018-05-04T16:43:54Z</time>
      </trkpt>
      <trkpt lat="62.642522677291" lon="17.91327867858">
        <ele>38.4</ele>
        <time>2018-05-04T16:43:55Z</time>
      </trkpt>
      <trkpt lat="62.642558300366" lon="17.913226207886">
        <ele>38.4</ele>
        <time>2018-05-04T16:43:56Z</time>
      </trkpt>
      <trkpt lat="62.642590403043" lon="17.913180526531">
        <ele>38.6</ele>
        <time>2018-05-04T16:43:57Z</time>
      </trkpt>
      <trkpt lat="62.642623092453" lon="17.913125122172">
        <ele>38.6</ele>
        <time>2018-05-04T16:43:58Z</time>
      </trkpt>
      <trkpt lat="62.64265351875" lon="17.913075920419">
        <ele>38.8</ele>
        <time>2018-05-04T16:43:59Z</time>
      </trkpt>
      <trkpt lat="62.642686627255" lon="17.913021102793">
        <ele>39</ele>
        <time>2018-05-04T16:44:00Z</time>
      </trkpt>
      <trkpt lat="62.642718981389" lon="17.912963351502">
        <ele>39.4</ele>
        <time>2018-05-04T16:44:01Z</time>
      </trkpt>
      <trkpt lat="62.642748904772" lon="17.912918675975">
        <ele>39.6</ele>
        <time>2018-05-04T16:44:02Z</time>
      </trkpt>
      <trkpt lat="62.642783270562" lon="17.912868636032">
        <ele>39.8</ele>
        <time>2018-05-04T16:44:03Z</time>
      </trkpt>
      <trkpt lat="62.642815457058" lon="17.912819099003">
        <ele>40</ele>
        <time>2018-05-04T16:44:04Z</time>
      </trkpt>
      <trkpt lat="62.642845045165" lon="17.912774591114">
        <ele>40.4</ele>
        <time>2018-05-04T16:44:05Z</time>
      </trkpt>
      <trkpt lat="62.64288066824" lon="17.912716169271">
        <ele>40.4</ele>
        <time>2018-05-04T16:44:06Z</time>
      </trkpt>
      <trkpt lat="62.642913022374" lon="17.912669062993">
        <ele>40.6</ele>
        <time>2018-05-04T16:44:07Z</time>
      </trkpt>
      <trkpt lat="62.642948645449" lon="17.912616089385">
        <ele>40.8</ele>
        <time>2018-05-04T16:44:08Z</time>
      </trkpt>
      <trkpt lat="62.642981083402" lon="17.912561774673">
        <ele>41</ele>
        <time>2018-05-04T16:44:09Z</time>
      </trkpt>
      <trkpt lat="62.643008659853" lon="17.912511483273">
        <ele>41.2</ele>
        <time>2018-05-04T16:44:10Z</time>
      </trkpt>
      <trkpt lat="62.643041265444" lon="17.912457336199">
        <ele>41.2</ele>
        <time>2018-05-04T16:44:11Z</time>
      </trkpt>
      <trkpt lat="62.643074038673" lon="17.912403272944">
        <ele>41.2</ele>
        <time>2018-05-04T16:44:12Z</time>
      </trkpt>
      <trkpt lat="62.643108739739" lon="17.912345521653">
        <ele>41.4</ele>
        <time>2018-05-04T16:44:13Z</time>
      </trkpt>
      <trkpt lat="62.643142686434" lon="17.912292296588">
        <ele>41.4</ele>
        <time>2018-05-04T16:44:14Z</time>
      </trkpt>
      <trkpt lat="62.643176884586" lon="17.91224099936">
        <ele>41.4</ele>
        <time>2018-05-04T16:44:15Z</time>
      </trkpt>
      <trkpt lat="62.643211501833" lon="17.912194815091">
        <ele>41.6</ele>
        <time>2018-05-04T16:44:16Z</time>
      </trkpt>
      <trkpt lat="62.643240670845" lon="17.912142512035">
        <ele>41.8</ele>
        <time>2018-05-04T16:44:17Z</time>
      </trkpt>
      <trkpt lat="62.643278976128" lon="17.912080318337">
        <ele>42</ele>
        <time>2018-05-04T16:44:18Z</time>
      </trkpt>
      <trkpt lat="62.64331401247" lon="17.912025500711">
        <ele>42</ele>
        <time>2018-05-04T16:44:19Z</time>
      </trkpt>
      <trkpt lat="62.643349132631" lon="17.911972946198">
        <ele>42.2</ele>
        <time>2018-05-04T16:44:20Z</time>
      </trkpt>
      <trkpt lat="62.643386180629" lon="17.911914356717">
        <ele>42.4</ele>
        <time>2018-05-04T16:44:21Z</time>
      </trkpt>
      <trkpt lat="62.643421803704" lon="17.911864987326">
        <ele>42.6</ele>
        <time>2018-05-04T16:44:22Z</time>
      </trkpt>
      <trkpt lat="62.643459689892" lon="17.911808744777">
        <ele>42.8</ele>
        <time>2018-05-04T16:44:23Z</time>
      </trkpt>
      <trkpt lat="62.643499001003" lon="17.91174227631">
        <ele>42.8</ele>
        <time>2018-05-04T16:44:24Z</time>
      </trkpt>
      <trkpt lat="62.643529594938" lon="17.911681004621">
        <ele>42.8</ele>
        <time>2018-05-04T16:44:25Z</time>
      </trkpt>
      <trkpt lat="62.643568570773" lon="17.911618475647">
        <ele>43</ele>
        <time>2018-05-04T16:44:26Z</time>
      </trkpt>
      <trkpt lat="62.643605618771" lon="17.911568938618">
        <ele>43</ele>
        <time>2018-05-04T16:44:27Z</time>
      </trkpt>
      <trkpt lat="62.643644426968" lon="17.911509427128">
        <ele>43.2</ele>
        <time>2018-05-04T16:44:28Z</time>
      </trkpt>
      <trkpt lat="62.643678206025" lon="17.911452849303">
        <ele>43.2</ele>
        <time>2018-05-04T16:44:29Z</time>
      </trkpt>
      <trkpt lat="62.64371466729" lon="17.911386548474">
        <ele>43.4</ele>
        <time>2018-05-04T16:44:30Z</time>
      </trkpt>
      <trkpt lat="62.643750206546" lon="17.911323600405">
        <ele>43.4</ele>
        <time>2018-05-04T16:44:31Z</time>
      </trkpt>
      <trkpt lat="62.643782309223" lon="17.911264005096">
        <ele>43.6</ele>
        <time>2018-05-04T16:44:32Z</time>
      </trkpt>
      <trkpt lat="62.643817345565" lon="17.911195441154">
        <ele>43.6</ele>
        <time>2018-05-04T16:44:33Z</time>
      </trkpt>
      <trkpt lat="62.643850705527" lon="17.911132995999">
        <ele>43.8</ele>
        <time>2018-05-04T16:44:34Z</time>
      </trkpt>
      <trkpt lat="62.643883227299" lon="17.911077340183">
        <ele>43.8</ele>
        <time>2018-05-04T16:44:35Z</time>
      </trkpt>
      <trkpt lat="62.643918096003" lon="17.911011793725">
        <ele>44</ele>
        <time>2018-05-04T16:44:36Z</time>
      </trkpt>
      <trkpt lat="62.643949444309" lon="17.910955383538">
        <ele>44.2</ele>
        <time>2018-05-04T16:44:37Z</time>
      </trkpt>
      <trkpt lat="62.643981714624" lon="17.910892519288">
        <ele>44.4</ele>
        <time>2018-05-04T16:44:38Z</time>
      </trkpt>
      <trkpt lat="62.644011638007" lon="17.910833594531">
        <ele>44.6</ele>
        <time>2018-05-04T16:44:39Z</time>
      </trkpt>
      <trkpt lat="62.644035610241" lon="17.910774669774">
        <ele>44.6</ele>
        <time>2018-05-04T16:44:40Z</time>
      </trkpt>
      <trkpt lat="62.644062097045" lon="17.910711805524">
        <ele>44.8</ele>
        <time>2018-05-04T16:44:41Z</time>
      </trkpt>
      <trkpt lat="62.644086907469" lon="17.910655311518">
        <ele>45</ele>
        <time>2018-05-04T16:44:42Z</time>
      </trkpt>
      <trkpt lat="62.644113561911" lon="17.910596554399">
        <ele>45</ele>
        <time>2018-05-04T16:44:43Z</time>
      </trkpt>
      <trkpt lat="62.644137282688" lon="17.910538300194">
        <ele>45</ele>
        <time>2018-05-04T16:44:44Z</time>
      </trkpt>
      <trkpt lat="62.64416561351" lon="17.910469233338">
        <ele>45.2</ele>
        <time>2018-05-04T16:44:45Z</time>
      </trkpt>
      <trkpt lat="62.644199560205" lon="17.910396897541">
        <ele>45.2</ele>
        <time>2018-05-04T16:44:46Z</time>
      </trkpt>
      <trkpt lat="62.644229399769" lon="17.910338559517">
        <ele>45.4</ele>
        <time>2018-05-04T16:44:47Z</time>
      </trkpt>
      <trkpt lat="62.644265525758" lon="17.910262787141">
        <ele>45.4</ele>
        <time>2018-05-04T16:44:48Z</time>
      </trkpt>
      <trkpt lat="62.644304417774" lon="17.91020671223">
        <ele>45.4</ele>
        <time>2018-05-04T16:44:49Z</time>
      </trkpt>
      <trkpt lat="62.644343561247" lon="17.910153487165">
        <ele>45.4</ele>
        <time>2018-05-04T16:44:50Z</time>
      </trkpt>
      <trkpt lat="62.644373903725" lon="17.91007595459">
        <ele>45.4</ele>
        <time>2018-05-04T16:44:51Z</time>
      </trkpt>
      <trkpt lat="62.644394104104" lon="17.909995572169">
        <ele>45.4</ele>
        <time>2018-05-04T16:44:52Z</time>
      </trkpt>
      <trkpt lat="62.644415477949" lon="17.909913429549">
        <ele>45.2</ele>
        <time>2018-05-04T16:44:53Z</time>
      </trkpt>
      <trkpt lat="62.644435929785" lon="17.90982868854">
        <ele>45</ele>
        <time>2018-05-04T16:44:54Z</time>
      </trkpt>
      <trkpt lat="62.644453280318" lon="17.909753670535">
        <ele>45</ele>
        <time>2018-05-04T16:44:55Z</time>
      </trkpt>
      <trkpt lat="62.644468786833" lon="17.909665325309">
        <ele>45</ele>
        <time>2018-05-04T16:44:56Z</time>
      </trkpt>
      <trkpt lat="62.644482030235" lon="17.909581925404">
        <ele>45</ele>
        <time>2018-05-04T16:44:57Z</time>
      </trkpt>
      <trkpt lat="62.644497452931" lon="17.909489053952">
        <ele>45.2</ele>
        <time>2018-05-04T16:44:58Z</time>
      </trkpt>
      <trkpt lat="62.644508768496" lon="17.909399451441">
        <ele>45.6</ele>
        <time>2018-05-04T16:44:59Z</time>
      </trkpt>
      <trkpt lat="62.6445184915" lon="17.909292666035">
        <ele>46</ele>
        <time>2018-05-04T16:45:00Z</time>
      </trkpt>
      <trkpt lat="62.644527041038" lon="17.909187640828">
        <ele>46.2</ele>
        <time>2018-05-04T16:45:01Z</time>
      </trkpt>
      <trkpt lat="62.6445352553" lon="17.909087141847">
        <ele>46.6</ele>
        <time>2018-05-04T16:45:02Z</time>
      </trkpt>
      <trkpt lat="62.644539949164" lon="17.90896786741">
        <ele>46.8</ele>
        <time>2018-05-04T16:45:03Z</time>
      </trkpt>
      <trkpt lat="62.644541374087" lon="17.908848760611">
        <ele>47</ele>
        <time>2018-05-04T16:45:04Z</time>
      </trkpt>
      <trkpt lat="62.644540703535" lon="17.908726887785">
        <ele>47</ele>
        <time>2018-05-04T16:45:05Z</time>
      </trkpt>
      <trkpt lat="62.644532153997" lon="17.908599650543">
        <ele>47</ele>
        <time>2018-05-04T16:45:06Z</time>
      </trkpt>
      <trkpt lat="62.644517904767" lon="17.908465540143">
        <ele>47</ele>
        <time>2018-05-04T16:45:07Z</time>
      </trkpt>
      <trkpt lat="62.644500386596" lon="17.908326316784">
        <ele>46.6</ele>
        <time>2018-05-04T16:45:08Z</time>
      </trkpt>
      <trkpt lat="62.644477504009" lon="17.908174520575">
        <ele>46.4</ele>
        <time>2018-05-04T16:45:09Z</time>
      </trkpt>
      <trkpt lat="62.644448754092" lon="17.908047786247">
        <ele>46.2</ele>
        <time>2018-05-04T16:45:10Z</time>
      </trkpt>
      <trkpt lat="62.644413969207" lon="17.907908562888">
        <ele>46</ele>
        <time>2018-05-04T16:45:11Z</time>
      </trkpt>
      <trkpt lat="62.644377172666" lon="17.907774201031">
        <ele>45.6</ele>
        <time>2018-05-04T16:45:12Z</time>
      </trkpt>
      <trkpt lat="62.644333083872" lon="17.907632379283">
        <ele>45.4</ele>
        <time>2018-05-04T16:45:13Z</time>
      </trkpt>
      <trkpt lat="62.644286229051" lon="17.907489132612">
        <ele>45.4</ele>
        <time>2018-05-04T16:45:14Z</time>
      </trkpt>
      <trkpt lat="62.644248678139" lon="17.907361476275">
        <ele>45.2</ele>
        <time>2018-05-04T16:45:15Z</time>
      </trkpt>
      <trkpt lat="62.644203415879" lon="17.907259720009">
        <ele>44.8</ele>
        <time>2018-05-04T16:45:16Z</time>
      </trkpt>
      <trkpt lat="62.644171564659" lon="17.907159472485">
        <ele>44.6</ele>
        <time>2018-05-04T16:45:17Z</time>
      </trkpt>
      <trkpt lat="62.644134181385" lon="17.907030558863">
        <ele>44.6</ele>
        <time>2018-05-04T16:45:18Z</time>
      </trkpt>
      <trkpt lat="62.644096965749" lon="17.90692100743">
        <ele>44.4</ele>
        <time>2018-05-04T16:45:19Z</time>
      </trkpt>
      <trkpt lat="62.644055726801" lon="17.90681120454">
        <ele>44.4</ele>
        <time>2018-05-04T16:45:20Z</time>
      </trkpt>
      <trkpt lat="62.644018175889" lon="17.906705760238">
        <ele>44.6</ele>
        <time>2018-05-04T16:45:21Z</time>
      </trkpt>
      <trkpt lat="62.643984145375" lon="17.90661171532">
        <ele>44.8</ele>
        <time>2018-05-04T16:45:22Z</time>
      </trkpt>
      <trkpt lat="62.643945588635" lon="17.906499314041">
        <ele>45</ele>
        <time>2018-05-04T16:45:23Z</time>
      </trkpt>
      <trkpt lat="62.643908121542" lon="17.90639043316">
        <ele>45</ele>
        <time>2018-05-04T16:45:24Z</time>
      </trkpt>
      <trkpt lat="62.643876689417" lon="17.906294460405">
        <ele>45</ele>
        <time>2018-05-04T16:45:25Z</time>
      </trkpt>
      <trkpt lat="62.643838467953" lon="17.906190441026">
        <ele>45.2</ele>
        <time>2018-05-04T16:45:26Z</time>
      </trkpt>
      <trkpt lat="62.643806952009" lon="17.906099665049">
        <ele>45.4</ele>
        <time>2018-05-04T16:45:27Z</time>
      </trkpt>
      <trkpt lat="62.64376998783" lon="17.905993047281">
        <ele>45.6</ele>
        <time>2018-05-04T16:45:28Z</time>
      </trkpt>
      <trkpt lat="62.643736376411" lon="17.905895733422">
        <ele>45.6</ele>
        <time>2018-05-04T16:45:29Z</time>
      </trkpt>
      <trkpt lat="62.6436970653" lon="17.905796659364">
        <ele>45.8</ele>
        <time>2018-05-04T16:45:30Z</time>
      </trkpt>
      <trkpt lat="62.643657167456" lon="17.905694903098">
        <ele>45.8</ele>
        <time>2018-05-04T16:45:31Z</time>
      </trkpt>
      <trkpt lat="62.643620203277" lon="17.9055991818">
        <ele>45.8</ele>
        <time>2018-05-04T16:45:32Z</time>
      </trkpt>
      <trkpt lat="62.643580892166" lon="17.905483930675">
        <ele>45.8</ele>
        <time>2018-05-04T16:45:33Z</time>
      </trkpt>
      <trkpt lat="62.643543173616" lon="17.905378570192">
        <ele>45.8</ele>
        <time>2018-05-04T16:45:34Z</time>
      </trkpt>
      <trkpt lat="62.64350763436" lon="17.905272455338">
        <ele>45.6</ele>
        <time>2018-05-04T16:45:35Z</time>
      </trkpt>
      <trkpt lat="62.643466982145" lon="17.905163993552">
        <ele>45.6</ele>
        <time>2018-05-04T16:45:36Z</time>
      </trkpt>
      <trkpt lat="62.643428760681" lon="17.905062991657">
        <ele>45.6</ele>
        <time>2018-05-04T16:45:37Z</time>
      </trkpt>
      <trkpt lat="62.643386767362" lon="17.904944639229">
        <ele>45.6</ele>
        <time>2018-05-04T16:45:38Z</time>
      </trkpt>
      <trkpt lat="62.643343935853" lon="17.904833662873">
        <ele>45.4</ele>
        <time>2018-05-04T16:45:39Z</time>
      </trkpt>
      <trkpt lat="62.64330730695" lon="17.904730314046">
        <ele>45.2</ele>
        <time>2018-05-04T16:45:40Z</time>
      </trkpt>
      <trkpt lat="62.643271013323" lon="17.904612129256">
        <ele>44.8</ele>
        <time>2018-05-04T16:45:41Z</time>
      </trkpt>
      <trkpt lat="62.643246454356" lon="17.904495369389">
        <ele>44.6</ele>
        <time>2018-05-04T16:45:42Z</time>
      </trkpt>
      <trkpt lat="62.643224409959" lon="17.904370981993">
        <ele>44.6</ele>
        <time>2018-05-04T16:45:43Z</time>
      </trkpt>
      <trkpt lat="62.643200605363" lon="17.904258496895">
        <ele>44.4</ele>
        <time>2018-05-04T16:45:44Z</time>
      </trkpt>
      <trkpt lat="62.643177219862" lon="17.90414240758">
        <ele>44.4</ele>
        <time>2018-05-04T16:45:45Z</time>
      </trkpt>
      <trkpt lat="62.643161964804" lon="17.90405020668">
        <ele>44.4</ele>
        <time>2018-05-04T16:45:46Z</time>
      </trkpt>
      <trkpt lat="62.643143776081" lon="17.903910312769">
        <ele>44.4</ele>
        <time>2018-05-04T16:45:47Z</time>
      </trkpt>
      <trkpt lat="62.64312961067" lon="17.90375684018">
        <ele>44.4</ele>
        <time>2018-05-04T16:45:48Z</time>
      </trkpt>
      <trkpt lat="62.643119300933" lon="17.903623819427">
        <ele>44.4</ele>
        <time>2018-05-04T16:45:49Z</time>
      </trkpt>
      <trkpt lat="62.643107566273" lon="17.903483338783">
        <ele>44.4</ele>
        <time>2018-05-04T16:45:50Z</time>
      </trkpt>
      <trkpt lat="62.643097005079" lon="17.903336571714">
        <ele>44.2</ele>
        <time>2018-05-04T16:45:51Z</time>
      </trkpt>
      <trkpt lat="62.64309105393" lon="17.903199360011">
        <ele>44.4</ele>
        <time>2018-05-04T16:45:52Z</time>
      </trkpt>
      <trkpt lat="62.643087533532" lon="17.903039936273">
        <ele>44.4</ele>
        <time>2018-05-04T16:45:53Z</time>
      </trkpt>
      <trkpt lat="62.643089629007" lon="17.902881099268">
        <ele>44.4</ele>
        <time>2018-05-04T16:45:54Z</time>
      </trkpt>
      <trkpt lat="62.643094741966" lon="17.902749084343">
        <ele>44.4</ele>
        <time>2018-05-04T16:45:55Z</time>
      </trkpt>
      <trkpt lat="62.643095831613" lon="17.902586056388">
        <ele>44.2</ele>
        <time>2018-05-04T16:45:56Z</time>
      </trkpt>
      <trkpt lat="62.643099100554" lon="17.902446833029">
        <ele>44</ele>
        <time>2018-05-04T16:45:57Z</time>
      </trkpt>
      <trkpt lat="62.643101279848" lon="17.902297383752">
        <ele>43.8</ele>
        <time>2018-05-04T16:45:58Z</time>
      </trkpt>
      <trkpt lat="62.643103207685" lon="17.902163357171">
        <ele>43.6</ele>
        <time>2018-05-04T16:45:59Z</time>
      </trkpt>
      <trkpt lat="62.643106560445" lon="17.902024133812">
        <ele>43.2</ele>
        <time>2018-05-04T16:46:00Z</time>
      </trkpt>
      <trkpt lat="62.643108907377" lon="17.901891532154">
        <ele>43.4</ele>
        <time>2018-05-04T16:46:01Z</time>
      </trkpt>
      <trkpt lat="62.64311200868" lon="17.901772173898">
        <ele>43.4</ele>
        <time>2018-05-04T16:46:02Z</time>
      </trkpt>
      <trkpt lat="62.643115193802" lon="17.901636470937">
        <ele>43.4</ele>
        <time>2018-05-04T16:46:03Z</time>
      </trkpt>
      <trkpt lat="62.643116954001" lon="17.901509820428">
        <ele>43.6</ele>
        <time>2018-05-04T16:46:04Z</time>
      </trkpt>
      <trkpt lat="62.643119720028" lon="17.901386857955">
        <ele>43.6</ele>
        <time>2018-05-04T16:46:05Z</time>
      </trkpt>
      <trkpt lat="62.643123240426" lon="17.901259704532">
        <ele>43.6</ele>
        <time>2018-05-04T16:46:06Z</time>
      </trkpt>
      <trkpt lat="62.643130029765" lon="17.901148141443">
        <ele>43.4</ele>
        <time>2018-05-04T16:46:07Z</time>
      </trkpt>
      <trkpt lat="62.643135478" lon="17.90102434078">
        <ele>43.6</ele>
        <time>2018-05-04T16:46:08Z</time>
      </trkpt>
      <trkpt lat="62.64314218352" lon="17.900910179302">
        <ele>43.4</ele>
        <time>2018-05-04T16:46:09Z</time>
      </trkpt>
      <trkpt lat="62.643147883212" lon="17.900801801335">
        <ele>43.4</ele>
        <time>2018-05-04T16:46:10Z</time>
      </trkpt>
      <trkpt lat="62.643153163809" lon="17.900675402283">
        <ele>43.6</ele>
        <time>2018-05-04T16:46:11Z</time>
      </trkpt>
      <trkpt lat="62.643157773854" lon="17.900550344335">
        <ele>43.4</ele>
        <time>2018-05-04T16:46:12Z</time>
      </trkpt>
      <trkpt lat="62.643163389727" lon="17.900412881175">
        <ele>43.4</ele>
        <time>2018-05-04T16:46:13Z</time>
      </trkpt>
      <trkpt lat="62.64317152017" lon="17.900274496006">
        <ele>43.4</ele>
        <time>2018-05-04T16:46:14Z</time>
      </trkpt>
      <trkpt lat="62.643178728604" lon="17.900132171344">
        <ele>43.4</ele>
        <time>2018-05-04T16:46:15Z</time>
      </trkpt>
      <trkpt lat="62.643177303681" lon="17.900022787549">
        <ele>43.2</ele>
        <time>2018-05-04T16:46:16Z</time>
      </trkpt>
      <trkpt lat="62.643177890414" lon="17.899906111501">
        <ele>43</ele>
        <time>2018-05-04T16:46:17Z</time>
      </trkpt>
      <trkpt lat="62.643180824079" lon="17.899738305863">
        <ele>42.8</ele>
        <time>2018-05-04T16:46:18Z</time>
      </trkpt>
      <trkpt lat="62.643183003373" lon="17.899639567081">
        <ele>42.4</ele>
        <time>2018-05-04T16:46:19Z</time>
      </trkpt>
      <trkpt lat="62.6431857694" lon="17.899506211052">
        <ele>42.4</ele>
        <time>2018-05-04T16:46:20Z</time>
      </trkpt>
      <trkpt lat="62.643191133816" lon="17.899391127565">
        <ele>42.4</ele>
        <time>2018-05-04T16:46:21Z</time>
      </trkpt>
      <trkpt lat="62.643195492404" lon="17.899282162865">
        <ele>42.4</ele>
        <time>2018-05-04T16:46:22Z</time>
      </trkpt>
      <trkpt lat="62.643200689182" lon="17.899164900084">
        <ele>42.4</ele>
        <time>2018-05-04T16:46:23Z</time>
      </trkpt>
      <trkpt lat="62.643205131589" lon="17.899046463837">
        <ele>42.6</ele>
        <time>2018-05-04T16:46:24Z</time>
      </trkpt>
      <trkpt lat="62.643210328367" lon="17.89893389492">
        <ele>42.8</ele>
        <time>2018-05-04T16:46:25Z</time>
      </trkpt>
      <trkpt lat="62.643218877905" lon="17.898803221099">
        <ele>43</ele>
        <time>2018-05-04T16:46:26Z</time>
      </trkpt>
      <trkpt lat="62.643223068855" lon="17.898685958318">
        <ele>43</ele>
        <time>2018-05-04T16:46:27Z</time>
      </trkpt>
      <trkpt lat="62.64322516433" lon="17.898552434651">
        <ele>43.2</ele>
        <time>2018-05-04T16:46:28Z</time>
      </trkpt>
      <trkpt lat="62.643230277289" lon="17.898431986748">
        <ele>43.2</ele>
        <time>2018-05-04T16:46:29Z</time>
      </trkpt>
      <trkpt lat="62.64323773718" lon="17.898298630719">
        <ele>43.2</ele>
        <time>2018-05-04T16:46:30Z</time>
      </trkpt>
      <trkpt lat="62.643241341397" lon="17.898175752065">
        <ele>43.4</ele>
        <time>2018-05-04T16:46:31Z</time>
      </trkpt>
      <trkpt lat="62.643244526519" lon="17.898059998026">
        <ele>43.4</ele>
        <time>2018-05-04T16:46:32Z</time>
      </trkpt>
      <trkpt lat="62.643250896763" lon="17.897931084404">
        <ele>43.4</ele>
        <time>2018-05-04T16:46:33Z</time>
      </trkpt>
      <trkpt lat="62.643250477668" lon="17.897807786655">
        <ele>43.4</ele>
        <time>2018-05-04T16:46:34Z</time>
      </trkpt>
      <trkpt lat="62.64324779546" lon="17.897690523874">
        <ele>43.6</ele>
        <time>2018-05-04T16:46:35Z</time>
      </trkpt>
      <trkpt lat="62.643250142392" lon="17.897558844225">
        <ele>43.6</ele>
        <time>2018-05-04T16:46:36Z</time>
      </trkpt>
      <trkpt lat="62.643251902591" lon="17.897444012195">
        <ele>43.8</ele>
        <time>2018-05-04T16:46:37Z</time>
      </trkpt>
      <trkpt lat="62.643254836256" lon="17.897321468817">
        <ele>43.6</ele>
        <time>2018-05-04T16:46:38Z</time>
      </trkpt>
      <trkpt lat="62.643258189016" lon="17.897207139701">
        <ele>43.4</ele>
        <time>2018-05-04T16:46:39Z</time>
      </trkpt>
      <trkpt lat="62.643261625595" lon="17.897105634892">
        <ele>43.4</ele>
        <time>2018-05-04T16:46:40Z</time>
      </trkpt>
      <trkpt lat="62.643267157649" lon="17.896984013523">
        <ele>43.6</ele>
        <time>2018-05-04T16:46:41Z</time>
      </trkpt>
      <trkpt lat="62.64327210297" lon="17.896866415466">
        <ele>43.4</ele>
        <time>2018-05-04T16:46:42Z</time>
      </trkpt>
      <trkpt lat="62.643273863169" lon="17.896740603147">
        <ele>43.4</ele>
        <time>2018-05-04T16:46:43Z</time>
      </trkpt>
      <trkpt lat="62.643276042463" lon="17.896616634846">
        <ele>43.6</ele>
        <time>2018-05-04T16:46:44Z</time>
      </trkpt>
      <trkpt lat="62.643272354427" lon="17.896490235794">
        <ele>43.6</ele>
        <time>2018-05-04T16:46:45Z</time>
      </trkpt>
      <trkpt lat="62.643265816545" lon="17.896364423475">
        <ele>43.6</ele>
        <time>2018-05-04T16:46:46Z</time>
      </trkpt>
      <trkpt lat="62.643261960871" lon="17.89625001054">
        <ele>43.6</ele>
        <time>2018-05-04T16:46:47Z</time>
      </trkpt>
      <trkpt lat="62.643254920075" lon="17.896100142168">
        <ele>43.6</ele>
        <time>2018-05-04T16:46:48Z</time>
      </trkpt>
      <trkpt lat="62.643245197071" lon="17.895966869958">
        <ele>43.8</ele>
        <time>2018-05-04T16:46:49Z</time>
      </trkpt>
      <trkpt lat="62.643236563714" lon="17.895841392915">
        <ele>43.6</ele>
        <time>2018-05-04T16:46:50Z</time>
      </trkpt>
      <trkpt lat="62.643235725524" lon="17.89572111265">
        <ele>43.6</ele>
        <time>2018-05-04T16:46:51Z</time>
      </trkpt>
      <trkpt lat="62.643232540402" lon="17.895611225941">
        <ele>43.6</ele>
        <time>2018-05-04T16:46:52Z</time>
      </trkpt>
      <trkpt lat="62.643228684728" lon="17.895489520753">
        <ele>43.4</ele>
        <time>2018-05-04T16:46:53Z</time>
      </trkpt>
      <trkpt lat="62.643222398303" lon="17.895363540796">
        <ele>43.2</ele>
        <time>2018-05-04T16:46:54Z</time>
      </trkpt>
      <trkpt lat="62.643216614792" lon="17.895253570268">
        <ele>43.2</ele>
        <time>2018-05-04T16:46:55Z</time>
      </trkpt>
      <trkpt lat="62.643209741634" lon="17.895128177044">
        <ele>43.2</ele>
        <time>2018-05-04T16:46:56Z</time>
      </trkpt>
      <trkpt lat="62.643204712494" lon="17.895016446317">
        <ele>43.4</ele>
        <time>2018-05-04T16:46:57Z</time>
      </trkpt>
      <trkpt lat="62.643197336422" lon="17.894890717817">
        <ele>43.6</ele>
        <time>2018-05-04T16:46:58Z</time>
      </trkpt>
      <trkpt lat="62.643193983662" lon="17.894777226891">
        <ele>43.6</ele>
        <time>2018-05-04T16:46:59Z</time>
      </trkpt>
      <trkpt lat="62.643192726377" lon="17.894655354065">
        <ele>43.8</ele>
        <time>2018-05-04T16:47:00Z</time>
      </trkpt>
      <trkpt lat="62.643196498232" lon="17.894543371881">
        <ele>43.8</ele>
        <time>2018-05-04T16:47:01Z</time>
      </trkpt>
      <trkpt lat="62.643210328367" lon="17.894449159325">
        <ele>43.8</ele>
        <time>2018-05-04T16:47:02Z</time>
      </trkpt>
      <trkpt lat="62.643231450755" lon="17.894358131891">
        <ele>43.8</ele>
        <time>2018-05-04T16:47:03Z</time>
      </trkpt>
      <trkpt lat="62.643260200672" lon="17.894290154682">
        <ele>44</ele>
        <time>2018-05-04T16:47:04Z</time>
      </trkpt>
      <trkpt lat="62.643289788779" lon="17.894242294033">
        <ele>44</ele>
        <time>2018-05-04T16:47:05Z</time>
      </trkpt>
      <trkpt lat="62.64332658532" lon="17.894198791972">
        <ele>44.2</ele>
        <time>2018-05-04T16:47:06Z</time>
      </trkpt>
      <trkpt lat="62.643361118748" lon="17.894163252716">
        <ele>44.4</ele>
        <time>2018-05-04T16:47:07Z</time>
      </trkpt>
      <trkpt lat="62.643404285533" lon="17.894133832247">
        <ele>44.6</ele>
        <time>2018-05-04T16:47:08Z</time>
      </trkpt>
      <trkpt lat="62.643447619956" lon="17.89410675871">
        <ele>44.8</ele>
        <time>2018-05-04T16:47:09Z</time>
      </trkpt>
      <trkpt lat="62.643492127845" lon="17.89407993663">
        <ele>44.8</ele>
        <time>2018-05-04T16:47:10Z</time>
      </trkpt>
      <trkpt lat="62.643531858051" lon="17.894047833953">
        <ele>44.6</ele>
        <time>2018-05-04T16:47:11Z</time>
      </trkpt>
      <trkpt lat="62.643574186646" lon="17.894019251674">
        <ele>44.4</ele>
        <time>2018-05-04T16:47:12Z</time>
      </trkpt>
      <trkpt lat="62.643613078662" lon="17.893978264183">
        <ele>44.2</ele>
        <time>2018-05-04T16:47:13Z</time>
      </trkpt>
      <trkpt lat="62.643639565466" lon="17.893921602539">
        <ele>43.8</ele>
        <time>2018-05-04T16:47:14Z</time>
      </trkpt>
      <trkpt lat="62.643654149972" lon="17.89384859619">
        <ele>43.6</ele>
        <time>2018-05-04T16:47:15Z</time>
      </trkpt>
      <trkpt lat="62.643661274587" lon="17.893767207941">
        <ele>43.4</ele>
        <time>2018-05-04T16:47:16Z</time>
      </trkpt>
      <trkpt lat="62.64365431761" lon="17.893685316778">
        <ele>43.4</ele>
        <time>2018-05-04T16:47:17Z</time>
      </trkpt>
      <trkpt lat="62.643649707565" lon="17.893579369562">
        <ele>43.4</ele>
        <time>2018-05-04T16:47:18Z</time>
      </trkpt>
      <trkpt lat="62.643644091692" lon="17.89347643983">
        <ele>43.6</ele>
        <time>2018-05-04T16:47:19Z</time>
      </trkpt>
      <trkpt lat="62.643635123059" lon="17.893382478731">
        <ele>43.6</ele>
        <time>2018-05-04T16:47:20Z</time>
      </trkpt>
      <trkpt lat="62.643624310408" lon="17.893279884275">
        <ele>43.8</ele>
        <time>2018-05-04T16:47:21Z</time>
      </trkpt>
      <trkpt lat="62.643618023983" lon="17.893186677547">
        <ele>43.8</ele>
        <time>2018-05-04T16:47:22Z</time>
      </trkpt>
      <trkpt lat="62.643610815549" lon="17.893081149426">
        <ele>43.8</ele>
        <time>2018-05-04T16:47:23Z</time>
      </trkpt>
      <trkpt lat="62.643605954047" lon="17.892975621305">
        <ele>43.8</ele>
        <time>2018-05-04T16:47:24Z</time>
      </trkpt>
      <trkpt lat="62.643599667622" lon="17.892881073473">
        <ele>43.8</ele>
        <time>2018-05-04T16:47:25Z</time>
      </trkpt>
      <trkpt lat="62.643601176364" lon="17.892774623343">
        <ele>43.8</ele>
        <time>2018-05-04T16:47:26Z</time>
      </trkpt>
      <trkpt lat="62.643601679278" lon="17.892681416615">
        <ele>44</ele>
        <time>2018-05-04T16:47:27Z</time>
      </trkpt>
      <trkpt lat="62.643600170536" lon="17.892576559046">
        <ele>44.2</ele>
        <time>2018-05-04T16:47:28Z</time>
      </trkpt>
      <trkpt lat="62.643594387025" lon="17.892481005386">
        <ele>44.2</ele>
        <time>2018-05-04T16:47:29Z</time>
      </trkpt>
      <trkpt lat="62.643585166935" lon="17.892378997663">
        <ele>44.6</ele>
        <time>2018-05-04T16:47:30Z</time>
      </trkpt>
      <trkpt lat="62.643574857198" lon="17.892280929433">
        <ele>44.8</ele>
        <time>2018-05-04T16:47:31Z</time>
      </trkpt>
      <trkpt lat="62.643565301832" lon="17.892185962506">
        <ele>44.8</ele>
        <time>2018-05-04T16:47:32Z</time>
      </trkpt>
      <trkpt lat="62.643556919932" lon="17.892075656702">
        <ele>45</ele>
        <time>2018-05-04T16:47:33Z</time>
      </trkpt>
      <trkpt lat="62.643550298231" lon="17.891971469685">
        <ele>45.2</ele>
        <time>2018-05-04T16:47:34Z</time>
      </trkpt>
      <trkpt lat="62.643541413417" lon="17.89187130598">
        <ele>45.2</ele>
        <time>2018-05-04T16:47:35Z</time>
      </trkpt>
      <trkpt lat="62.643528421472" lon="17.891757898873">
        <ele>45.4</ele>
        <time>2018-05-04T16:47:36Z</time>
      </trkpt>
      <trkpt lat="62.643516938269" lon="17.891655974969">
        <ele>45.6</ele>
        <time>2018-05-04T16:47:37Z</time>
      </trkpt>
      <trkpt lat="62.643503862505" lon="17.891539801835">
        <ele>45.6</ele>
        <time>2018-05-04T16:47:38Z</time>
      </trkpt>
      <trkpt lat="62.643487685438" lon="17.891428154927">
        <ele>45.6</ele>
        <time>2018-05-04T16:47:39Z</time>
      </trkpt>
      <trkpt lat="62.64347326857" lon="17.891324135548">
        <ele>45.8</ele>
        <time>2018-05-04T16:47:40Z</time>
      </trkpt>
      <trkpt lat="62.643456169494" lon="17.891208632966">
        <ele>45.8</ele>
        <time>2018-05-04T16:47:41Z</time>
      </trkpt>
      <trkpt lat="62.643439908608" lon="17.891095058221">
        <ele>45.8</ele>
        <time>2018-05-04T16:47:42Z</time>
      </trkpt>
      <trkpt lat="62.643423731541" lon="17.890972011929">
        <ele>45.8</ele>
        <time>2018-05-04T16:47:43Z</time>
      </trkpt>
      <trkpt lat="62.643407219198" lon="17.890854916786">
        <ele>45.8</ele>
        <time>2018-05-04T16:47:44Z</time>
      </trkpt>
      <trkpt lat="62.643392131778" lon="17.89073388215">
        <ele>45.8</ele>
        <time>2018-05-04T16:47:45Z</time>
      </trkpt>
      <trkpt lat="62.643377882548" lon="17.890616451731">
        <ele>46</ele>
        <time>2018-05-04T16:47:46Z</time>
      </trkpt>
      <trkpt lat="62.643367991906" lon="17.890508744316">
        <ele>46</ele>
        <time>2018-05-04T16:47:47Z</time>
      </trkpt>
      <trkpt lat="62.643357095436" lon="17.890373879545">
        <ele>46.2</ele>
        <time>2018-05-04T16:47:48Z</time>
      </trkpt>
      <trkpt lat="62.643341924197" lon="17.890255443298">
        <ele>46.4</ele>
        <time>2018-05-04T16:47:49Z</time>
      </trkpt>
      <trkpt lat="62.643329854261" lon="17.890136168861">
        <ele>46.6</ele>
        <time>2018-05-04T16:47:50Z</time>
      </trkpt>
      <trkpt lat="62.643321220904" lon="17.890023348487">
        <ele>46.6</ele>
        <time>2018-05-04T16:47:51Z</time>
      </trkpt>
      <trkpt lat="62.643316275583" lon="17.889924525886">
        <ele>46.8</ele>
        <time>2018-05-04T16:47:52Z</time>
      </trkpt>
      <trkpt lat="62.643308815692" lon="17.88982025505">
        <ele>46.8</ele>
        <time>2018-05-04T16:47:53Z</time>
      </trkpt>
      <trkpt lat="62.64329641048" lon="17.889719001698">
        <ele>46.6</ele>
        <time>2018-05-04T16:47:54Z</time>
      </trkpt>
      <trkpt lat="62.643287441847" lon="17.889629902101">
        <ele>46.6</ele>
        <time>2018-05-04T16:47:55Z</time>
      </trkpt>
      <trkpt lat="62.643269001667" lon="17.889538036477">
        <ele>46.4</ele>
        <time>2018-05-04T16:47:56Z</time>
      </trkpt>
      <trkpt lat="62.643253578971" lon="17.889451367631">
        <ele>46.4</ele>
        <time>2018-05-04T16:47:57Z</time>
      </trkpt>
      <trkpt lat="62.64323522261" lon="17.889362770948">
        <ele>46.4</ele>
        <time>2018-05-04T16:47:58Z</time>
      </trkpt>
      <trkpt lat="62.643211501833" lon="17.889294290825">
        <ele>46.6</ele>
        <time>2018-05-04T16:47:59Z</time>
      </trkpt>
      <trkpt lat="62.643181997545" lon="17.889222793218">
        <ele>46.6</ele>
        <time>2018-05-04T16:48:00Z</time>
      </trkpt>
      <trkpt lat="62.643151738886" lon="17.889160096606">
        <ele>46.6</ele>
        <time>2018-05-04T16:48:01Z</time>
      </trkpt>
      <trkpt lat="62.643118127467" lon="17.889110140482">
        <ele>46.6</ele>
        <time>2018-05-04T16:48:02Z</time>
      </trkpt>
      <trkpt lat="62.643076134148" lon="17.889063704756">
        <ele>46.6</ele>
        <time>2018-05-04T16:48:03Z</time>
      </trkpt>
      <trkpt lat="62.643030788069" lon="17.889037050314">
        <ele>46.6</ele>
        <time>2018-05-04T16:48:04Z</time>
      </trkpt>
      <trkpt lat="62.642983514153" lon="17.889043588196">
        <ele>46.6</ele>
        <time>2018-05-04T16:48:05Z</time>
      </trkpt>
      <trkpt lat="62.642930456726" lon="17.889065381136">
        <ele>46.6</ele>
        <time>2018-05-04T16:48:06Z</time>
      </trkpt>
      <trkpt lat="62.642882763715" lon="17.88910108803">
        <ele>46.4</ele>
        <time>2018-05-04T16:48:07Z</time>
      </trkpt>
      <trkpt lat="62.642826688804" lon="17.889141488788">
        <ele>46.2</ele>
        <time>2018-05-04T16:48:08Z</time>
      </trkpt>
      <trkpt lat="62.642772122635" lon="17.889172920913">
        <ele>46</ele>
        <time>2018-05-04T16:48:09Z</time>
      </trkpt>
      <trkpt lat="62.642736164284" lon="17.889197731337">
        <ele>45.8</ele>
        <time>2018-05-04T16:48:10Z</time>
      </trkpt>
      <trkpt lat="62.642686543436" lon="17.889226732711">
        <ele>45.4</ele>
        <time>2018-05-04T16:48:11Z</time>
      </trkpt>
      <trkpt lat="62.642632061086" lon="17.889249112384">
        <ele>45</ele>
        <time>2018-05-04T16:48:12Z</time>
      </trkpt>
      <trkpt lat="62.64259233088" lon="17.889253890067">
        <ele>44.8</ele>
        <time>2018-05-04T16:48:13Z</time>
      </trkpt>
      <trkpt lat="62.642555366701" lon="17.889245843443">
        <ele>44.6</ele>
        <time>2018-05-04T16:48:14Z</time>
      </trkpt>
      <trkpt lat="62.642521420006" lon="17.889209465997">
        <ele>44.4</ele>
        <time>2018-05-04T16:48:15Z</time>
      </trkpt>
      <trkpt lat="62.6424984536" lon="17.889169484334">
        <ele>44.4</ele>
        <time>2018-05-04T16:48:16Z</time>
      </trkpt>
      <trkpt lat="62.642469787502" lon="17.889116762183">
        <ele>44.4</ele>
        <time>2018-05-04T16:48:17Z</time>
      </trkpt>
      <trkpt lat="62.64242888383" lon="17.889013161899">
        <ele>44.4</ele>
        <time>2018-05-04T16:48:18Z</time>
      </trkpt>
      <trkpt lat="62.642408012899" lon="17.888908220511">
        <ele>44.4</ele>
        <time>2018-05-04T16:48:19Z</time>
      </trkpt>
      <trkpt lat="62.642387644882" lon="17.888796741241">
        <ele>44.4</ele>
        <time>2018-05-04T16:48:20Z</time>
      </trkpt>
      <trkpt lat="62.642367193046" lon="17.88867696389">
        <ele>44.4</ele>
        <time>2018-05-04T16:48:21Z</time>
      </trkpt>
      <trkpt lat="62.642344729554" lon="17.888560706937">
        <ele>44.4</ele>
        <time>2018-05-04T16:48:22Z</time>
      </trkpt>
      <trkpt lat="62.642320589682" lon="17.888431960953">
        <ele>44.4</ele>
        <time>2018-05-04T16:48:23Z</time>
      </trkpt>
      <trkpt lat="62.642293767602" lon="17.888294330155">
        <ele>44.4</ele>
        <time>2018-05-04T16:48:24Z</time>
      </trkpt>
      <trkpt lat="62.642269376273" lon="17.888169272207">
        <ele>44.4</ele>
        <time>2018-05-04T16:48:25Z</time>
      </trkpt>
      <trkpt lat="62.642239369071" lon="17.888032647237">
        <ele>44.4</ele>
        <time>2018-05-04T16:48:26Z</time>
      </trkpt>
      <trkpt lat="62.64221095443" lon="17.887910690592">
        <ele>44.2</ele>
        <time>2018-05-04T16:48:27Z</time>
      </trkpt>
      <trkpt lat="62.642178181201" lon="17.887772305423">
        <ele>44.2</ele>
        <time>2018-05-04T16:48:28Z</time>
      </trkpt>
      <trkpt lat="62.642148173999" lon="17.887650013502">
        <ele>44.2</ele>
        <time>2018-05-04T16:48:29Z</time>
      </trkpt>
      <trkpt lat="62.642113137657" lon="17.887517914758">
        <ele>44</ele>
        <time>2018-05-04T16:48:30Z</time>
      </trkpt>
      <trkpt lat="62.64207684403" lon="17.887394617009">
        <ele>43.8</ele>
        <time>2018-05-04T16:48:31Z</time>
      </trkpt>
      <trkpt lat="62.642042729697" lon="17.887281209902">
        <ele>43.6</ele>
        <time>2018-05-04T16:48:32Z</time>
      </trkpt>
      <trkpt lat="62.642002999491" lon="17.887152044823">
        <ele>43.4</ele>
        <time>2018-05-04T16:48:33Z</time>
      </trkpt>
      <trkpt lat="62.641965532398" lon="17.887031513101">
        <ele>43.4</ele>
        <time>2018-05-04T16:48:34Z</time>
      </trkpt>
      <trkpt lat="62.641928400581" lon="17.886920620564">
        <ele>43.6</ele>
        <time>2018-05-04T16:48:35Z</time>
      </trkpt>
      <trkpt lat="62.641883976511" lon="17.886799585928">
        <ele>43.6</ele>
        <time>2018-05-04T16:48:36Z</time>
      </trkpt>
      <trkpt lat="62.641844078667" lon="17.886699003128">
        <ele>43.8</ele>
        <time>2018-05-04T16:48:37Z</time>
      </trkpt>
      <trkpt lat="62.641800492787" lon="17.886586015116">
        <ele>43.8</ele>
        <time>2018-05-04T16:48:38Z</time>
      </trkpt>
      <trkpt lat="62.641754727613" lon="17.886484761764">
        <ele>44</ele>
        <time>2018-05-04T16:48:39Z</time>
      </trkpt>
      <trkpt lat="62.641723463126" lon="17.886414102347">
        <ele>43.8</ele>
        <time>2018-05-04T16:48:40Z</time>
      </trkpt>
      <trkpt lat="62.641677362676" lon="17.886315447384">
        <ele>43.8</ele>
        <time>2018-05-04T16:48:41Z</time>
      </trkpt>
      <trkpt lat="62.641619359928" lon="17.886201369725">
        <ele>43.6</ele>
        <time>2018-05-04T16:48:42Z</time>
      </trkpt>
      <trkpt lat="62.641568984709" lon="17.886106821893">
        <ele>43.6</ele>
        <time>2018-05-04T16:48:43Z</time>
      </trkpt>
      <trkpt lat="62.64152196225" lon="17.886017051744">
        <ele>43.8</ele>
        <time>2018-05-04T16:48:44Z</time>
      </trkpt>
      <trkpt lat="62.641475107429" lon="17.88593356802">
        <ele>44</ele>
        <time>2018-05-04T16:48:45Z</time>
      </trkpt>
      <trkpt lat="62.641427917332" lon="17.88585813092">
        <ele>44.2</ele>
        <time>2018-05-04T16:48:46Z</time>
      </trkpt>
      <trkpt lat="62.641387348936" lon="17.885788142055">
        <ele>44.4</ele>
        <time>2018-05-04T16:48:47Z</time>
      </trkpt>
      <trkpt lat="62.64133756045" lon="17.88569971301">
        <ele>45.2</ele>
        <time>2018-05-04T16:48:48Z</time>
      </trkpt>
      <trkpt lat="62.641289867439" lon="17.885631987258">
        <ele>45.6</ele>
        <time>2018-05-04T16:48:49Z</time>
      </trkpt>
      <trkpt lat="62.641241336238" lon="17.885572056673">
        <ele>45.8</ele>
        <time>2018-05-04T16:48:50Z</time>
      </trkpt>
      <trkpt lat="62.64119171539" lon="17.885503828007">
        <ele>46.2</ele>
        <time>2018-05-04T16:48:51Z</time>
      </trkpt>
      <trkpt lat="62.641148380967" lon="17.885443729784">
        <ele>46.6</ele>
        <time>2018-05-04T16:48:52Z</time>
      </trkpt>
      <trkpt lat="62.641103034888" lon="17.885378518602">
        <ele>46.6</ele>
        <time>2018-05-04T16:48:53Z</time>
      </trkpt>
      <trkpt lat="62.641054000773" lon="17.885310625212">
        <ele>46.8</ele>
        <time>2018-05-04T16:48:54Z</time>
      </trkpt>
      <trkpt lat="62.641008822332" lon="17.88525463412">
        <ele>46.8</ele>
        <time>2018-05-04T16:48:55Z</time>
      </trkpt>
      <trkpt lat="62.640958279475" lon="17.885194032983">
        <ele>47</ele>
        <time>2018-05-04T16:48:56Z</time>
      </trkpt>
      <trkpt lat="62.640912514301" lon="17.885140221185">
        <ele>47.2</ele>
        <time>2018-05-04T16:48:57Z</time>
      </trkpt>
      <trkpt lat="62.640863731643" lon="17.885078027487">
        <ele>47.2</ele>
        <time>2018-05-04T16:48:58Z</time>
      </trkpt>
      <trkpt lat="62.640820648677" lon="17.885018180721">
        <ele>47.4</ele>
        <time>2018-05-04T16:48:59Z</time>
      </trkpt>
      <trkpt lat="62.640771949838" lon="17.884960513249">
        <ele>47.6</ele>
        <time>2018-05-04T16:49:00Z</time>
      </trkpt>
      <trkpt lat="62.640725430293" lon="17.884902259044">
        <ele>47.6</ele>
        <time>2018-05-04T16:49:01Z</time>
      </trkpt>
      <trkpt lat="62.640683101698" lon="17.884841825545">
        <ele>47.8</ele>
        <time>2018-05-04T16:49:02Z</time>
      </trkpt>
      <trkpt lat="62.640634570497" lon="17.884776195268">
        <ele>47.8</ele>
        <time>2018-05-04T16:49:03Z</time>
      </trkpt>
      <trkpt lat="62.640591822807" lon="17.884714504484">
        <ele>48</ele>
        <time>2018-05-04T16:49:04Z</time>
      </trkpt>
      <trkpt lat="62.640545387081" lon="17.884655831184">
        <ele>48</ele>
        <time>2018-05-04T16:49:05Z</time>
      </trkpt>
      <trkpt lat="62.640491407645" lon="17.884581399912">
        <ele>48.2</ele>
        <time>2018-05-04T16:49:06Z</time>
      </trkpt>
      <trkpt lat="62.640446983575" lon="17.884504286432">
        <ele>48.4</ele>
        <time>2018-05-04T16:49:07Z</time>
      </trkpt>
      <trkpt lat="62.640402643324" lon="17.88443236973">
        <ele>48.8</ele>
        <time>2018-05-04T16:49:08Z</time>
      </trkpt>
      <trkpt lat="62.640358219254" lon="17.8843594472">
        <ele>48.8</ele>
        <time>2018-05-04T16:49:09Z</time>
      </trkpt>
      <trkpt lat="62.640321422713" lon="17.884292140543">
        <ele>49</ele>
        <time>2018-05-04T16:49:10Z</time>
      </trkpt>
      <trkpt lat="62.640276663367" lon="17.884212177217">
        <ele>49.4</ele>
        <time>2018-05-04T16:49:11Z</time>
      </trkpt>
      <trkpt lat="62.640235005324" lon="17.884129531683">
        <ele>49.8</ele>
        <time>2018-05-04T16:49:12Z</time>
      </trkpt>
      <trkpt lat="62.640194353109" lon="17.88404428776">
        <ele>50</ele>
        <time>2018-05-04T16:49:13Z</time>
      </trkpt>
      <trkpt lat="62.640155377274" lon="17.883960971674">
        <ele>49.8</ele>
        <time>2018-05-04T16:49:14Z</time>
      </trkpt>
      <trkpt lat="62.640113048679" lon="17.883873799914">
        <ele>49.8</ele>
        <time>2018-05-04T16:49:15Z</time>
      </trkpt>
      <trkpt lat="62.640074827215" lon="17.883788053077">
        <ele>49.8</ele>
        <time>2018-05-04T16:49:16Z</time>
      </trkpt>
      <trkpt lat="62.640040712882" lon="17.883709179398">
        <ele>49.8</ele>
        <time>2018-05-04T16:49:17Z</time>
      </trkpt>
      <trkpt lat="62.639997210821" lon="17.8836050762">
        <ele>49.8</ele>
        <time>2018-05-04T16:49:18Z</time>
      </trkpt>
      <trkpt lat="62.639959827547" lon="17.883510696006">
        <ele>49.8</ele>
        <time>2018-05-04T16:49:19Z</time>
      </trkpt>
      <trkpt lat="62.639923450101" lon="17.883411286672">
        <ele>49.8</ele>
        <time>2018-05-04T16:49:20Z</time>
      </trkpt>
      <trkpt lat="62.639887156474" lon="17.883309278949">
        <ele>50</ele>
        <time>2018-05-04T16:49:21Z</time>
      </trkpt>
      <trkpt lat="62.639853209779" lon="17.883210540167">
        <ele>50</ele>
        <time>2018-05-04T16:49:22Z</time>
      </trkpt>
      <trkpt lat="62.639816999971" lon="17.883099144716">
        <ele>50</ele>
        <time>2018-05-04T16:49:23Z</time>
      </trkpt>
      <trkpt lat="62.639779449059" lon="17.882979870279">
        <ele>50.2</ele>
        <time>2018-05-04T16:49:24Z</time>
      </trkpt>
      <trkpt lat="62.6397491904" lon="17.882873001054">
        <ele>50.2</ele>
        <time>2018-05-04T16:49:25Z</time>
      </trkpt>
      <trkpt lat="62.639715998076" lon="17.882755738273">
        <ele>50.2</ele>
        <time>2018-05-04T16:49:26Z</time>
      </trkpt>
      <trkpt lat="62.639684482132" lon="17.882636882931">
        <ele>50</ele>
        <time>2018-05-04T16:49:27Z</time>
      </trkpt>
      <trkpt lat="62.639654139654" lon="17.882511070612">
        <ele>50</ele>
        <time>2018-05-04T16:49:28Z</time>
      </trkpt>
      <trkpt lat="62.639623964814" lon="17.882388191958">
        <ele>50</ele>
        <time>2018-05-04T16:49:29Z</time>
      </trkpt>
      <trkpt lat="62.639591275404" lon="17.882251902264">
        <ele>50</ele>
        <time>2018-05-04T16:49:30Z</time>
      </trkpt>
      <trkpt lat="62.639563615134" lon="17.882118713873">
        <ele>50</ele>
        <time>2018-05-04T16:49:31Z</time>
      </trkpt>
      <trkpt lat="62.639541151642" lon="17.881992063364">
        <ele>50</ele>
        <time>2018-05-04T16:49:32Z</time>
      </trkpt>
      <trkpt lat="62.639516760313" lon="17.881850576892">
        <ele>50</ele>
        <time>2018-05-04T16:49:33Z</time>
      </trkpt>
      <trkpt lat="62.63949270426" lon="17.881705653841">
        <ele>49.8</ele>
        <time>2018-05-04T16:49:34Z</time>
      </trkpt>
      <trkpt lat="62.639473258252" lon="17.881567855405">
        <ele>49.8</ele>
        <time>2018-05-04T16:49:35Z</time>
      </trkpt>
      <trkpt lat="62.639452890235" lon="17.881413125531">
        <ele>49.6</ele>
        <time>2018-05-04T16:49:36Z</time>
      </trkpt>
      <trkpt lat="62.63943319277" lon="17.881273985991">
        <ele>49.6</ele>
        <time>2018-05-04T16:49:37Z</time>
      </trkpt>
      <trkpt lat="62.639416093694" lon="17.881114394615">
        <ele>49.6</ele>
        <time>2018-05-04T16:49:38Z</time>
      </trkpt>
      <trkpt lat="62.639402012102" lon="17.880958994189">
        <ele>49.4</ele>
        <time>2018-05-04T16:49:39Z</time>
      </trkpt>
      <trkpt lat="62.639389439252" lon="17.880812310939">
        <ele>49.4</ele>
        <time>2018-05-04T16:49:40Z</time>
      </trkpt>
      <trkpt lat="62.639377369316" lon="17.880654228305">
        <ele>49.4</ele>
        <time>2018-05-04T16:49:41Z</time>
      </trkpt>
      <trkpt lat="62.639366808122" lon="17.880493798739">
        <ele>49.2</ele>
        <time>2018-05-04T16:49:42Z</time>
      </trkpt>
      <trkpt lat="62.63935440291" lon="17.880324232902">
        <ele>49</ele>
        <time>2018-05-04T16:49:43Z</time>
      </trkpt>
      <trkpt lat="62.639341913879" lon="17.880158774196">
        <ele>48.8</ele>
        <time>2018-05-04T16:49:44Z</time>
      </trkpt>
      <trkpt lat="62.639326239726" lon="17.879999937191">
        <ele>48.6</ele>
        <time>2018-05-04T16:49:45Z</time>
      </trkpt>
      <trkpt lat="62.63931584617" lon="17.879850739371">
        <ele>48.4</ele>
        <time>2018-05-04T16:49:46Z</time>
      </trkpt>
      <trkpt lat="62.639304865881" lon="17.879708498528">
        <ele>48.4</ele>
        <time>2018-05-04T16:49:47Z</time>
      </trkpt>
      <trkpt lat="62.639290616651" lon="17.87952812004">
        <ele>48</ele>
        <time>2018-05-04T16:49:48Z</time>
      </trkpt>
      <trkpt lat="62.639276954154" lon="17.879367103741">
        <ele>48</ele>
        <time>2018-05-04T16:49:49Z</time>
      </trkpt>
      <trkpt lat="62.639263543114" lon="17.87920709327">
        <ele>47.8</ele>
        <time>2018-05-04T16:49:50Z</time>
      </trkpt>
      <trkpt lat="62.639248036599" lon="17.879044149134">
        <ele>47.6</ele>
        <time>2018-05-04T16:49:51Z</time>
      </trkpt>
      <trkpt lat="62.639233116817" lon="17.878891850011">
        <ele>47.6</ele>
        <time>2018-05-04T16:49:52Z</time>
      </trkpt>
      <trkpt lat="62.639215850103" lon="17.878723709097">
        <ele>47.6</ele>
        <time>2018-05-04T16:49:53Z</time>
      </trkpt>
      <trkpt lat="62.639197326104" lon="17.878551377233">
        <ele>47.6</ele>
        <time>2018-05-04T16:49:54Z</time>
      </trkpt>
      <trkpt lat="62.63917838301" lon="17.878403604336">
        <ele>47.6</ele>
        <time>2018-05-04T16:49:55Z</time>
      </trkpt>
      <trkpt lat="62.639156673889" lon="17.878232613576">
        <ele>47.4</ele>
        <time>2018-05-04T16:49:56Z</time>
      </trkpt>
      <trkpt lat="62.639137646976" lon="17.878081990833">
        <ele>47.6</ele>
        <time>2018-05-04T16:49:57Z</time>
      </trkpt>
      <trkpt lat="62.639114932027" lon="17.877914855747">
        <ele>47.4</ele>
        <time>2018-05-04T16:49:58Z</time>
      </trkpt>
      <trkpt lat="62.639094312553" lon="17.877763897728">
        <ele>47.2</ele>
        <time>2018-05-04T16:49:59Z</time>
      </trkpt>
      <trkpt lat="62.639069585948" lon="17.877591565864">
        <ele>46.8</ele>
        <time>2018-05-04T16:50:00Z</time>
      </trkpt>
      <trkpt lat="62.639043853515" lon="17.877429459918">
        <ele>46.4</ele>
        <time>2018-05-04T16:50:01Z</time>
      </trkpt>
      <trkpt lat="62.639015606512" lon="17.877279507727">
        <ele>45.8</ele>
        <time>2018-05-04T16:50:02Z</time>
      </trkpt>
      <trkpt lat="62.638984090568" lon="17.877110277166">
        <ele>45.4</ele>
        <time>2018-05-04T16:50:03Z</time>
      </trkpt>
      <trkpt lat="62.638954753918" lon="17.876945824288">
        <ele>45</ele>
        <time>2018-05-04T16:50:04Z</time>
      </trkpt>
      <trkpt lat="62.638925501087" lon="17.87679310607">
        <ele>44.8</ele>
        <time>2018-05-04T16:50:05Z</time>
      </trkpt>
      <trkpt lat="62.638890716202" lon="17.876623288776">
        <ele>44.6</ele>
        <time>2018-05-04T16:50:06Z</time>
      </trkpt>
      <trkpt lat="62.638857859154" lon="17.876474677689">
        <ele>44.4</ele>
        <time>2018-05-04T16:50:07Z</time>
      </trkpt>
      <trkpt lat="62.638820056785" lon="17.876299328341">
        <ele>44</ele>
        <time>2018-05-04T16:50:08Z</time>
      </trkpt>
      <trkpt lat="62.638786613004" lon="17.876145101381">
        <ele>43.8</ele>
        <time>2018-05-04T16:50:09Z</time>
      </trkpt>
      <trkpt lat="62.638754594146" lon="17.875998082855">
        <ele>43.6</ele>
        <time>2018-05-04T16:50:10Z</time>
      </trkpt>
      <trkpt lat="62.638718719614" lon="17.875838072384">
        <ele>43.6</ele>
        <time>2018-05-04T16:50:11Z</time>
      </trkpt>
      <trkpt lat="62.638682509806" lon="17.875676972266">
        <ele>43.6</ele>
        <time>2018-05-04T16:50:12Z</time>
      </trkpt>
      <trkpt lat="62.638641773772" lon="17.875504724221">
        <ele>43.6</ele>
        <time>2018-05-04T16:50:13Z</time>
      </trkpt>
      <trkpt lat="62.638601792109" lon="17.875342031542">
        <ele>43.4</ele>
        <time>2018-05-04T16:50:14Z</time>
      </trkpt>
      <trkpt lat="62.638566336672" lon="17.875195013016">
        <ele>43.4</ele>
        <time>2018-05-04T16:50:15Z</time>
      </trkpt>
      <trkpt lat="62.638526019733" lon="17.875026117731">
        <ele>43.2</ele>
        <time>2018-05-04T16:50:16Z</time>
      </trkpt>
      <trkpt lat="62.638491402486" lon="17.874879350662">
        <ele>43</ele>
        <time>2018-05-04T16:50:17Z</time>
      </trkpt>
      <trkpt lat="62.6384499959" lon="17.874696541423">
        <ele>42.8</ele>
        <time>2018-05-04T16:50:18Z</time>
      </trkpt>
      <trkpt lat="62.638411606798" lon="17.874535944219">
        <ele>42.6</ele>
        <time>2018-05-04T16:50:19Z</time>
      </trkpt>
      <trkpt lat="62.638371792773" lon="17.874373419178">
        <ele>42.2</ele>
        <time>2018-05-04T16:50:20Z</time>
      </trkpt>
      <trkpt lat="62.638335582965" lon="17.874208211929">
        <ele>42</ele>
        <time>2018-05-04T16:50:21Z</time>
      </trkpt>
      <trkpt lat="62.638302558279" lon="17.874054152607">
        <ele>41.6</ele>
        <time>2018-05-04T16:50:22Z</time>
      </trkpt>
      <trkpt lat="62.63826056496" lon="17.873854495749">
        <ele>40.8</ele>
        <time>2018-05-04T16:50:23Z</time>
      </trkpt>
      <trkpt lat="62.638226282989" lon="17.873686187197">
        <ele>40.6</ele>
        <time>2018-05-04T16:50:24Z</time>
      </trkpt>
      <trkpt lat="62.638192420113" lon="17.873508993831">
        <ele>40.2</ele>
        <time>2018-05-04T16:50:25Z</time>
      </trkpt>
      <trkpt lat="62.638159227789" lon="17.873336242872">
        <ele>40</ele>
        <time>2018-05-04T16:50:26Z</time>
      </trkpt>
      <trkpt lat="62.638126789836" lon="17.873156786393">
        <ele>39.6</ele>
        <time>2018-05-04T16:50:27Z</time>
      </trkpt>
      <trkpt lat="62.638095944444" lon="17.872981939959">
        <ele>39.6</ele>
        <time>2018-05-04T16:50:28Z</time>
      </trkpt>
      <trkpt lat="62.638063674129" lon="17.872791670829">
        <ele>39.2</ele>
        <time>2018-05-04T16:50:29Z</time>
      </trkpt>
      <trkpt lat="62.63803425366" lon="17.872606682296">
        <ele>39.2</ele>
        <time>2018-05-04T16:50:30Z</time>
      </trkpt>
      <trkpt lat="62.638005336105" lon="17.872421693763">
        <ele>39</ele>
        <time>2018-05-04T16:50:31Z</time>
      </trkpt>
      <trkpt lat="62.637979268396" lon="17.872231089357">
        <ele>38.8</ele>
        <time>2018-05-04T16:50:32Z</time>
      </trkpt>
      <trkpt lat="62.637954038877" lon="17.872040904046">
        <ele>38.6</ele>
        <time>2018-05-04T16:50:33Z</time>
      </trkpt>
      <trkpt lat="62.637930401919" lon="17.871853987676">
        <ele>38.4</ele>
        <time>2018-05-04T16:50:34Z</time>
      </trkpt>
      <trkpt lat="62.637906764961" lon="17.871650223687">
        <ele>37.8</ele>
        <time>2018-05-04T16:50:35Z</time>
      </trkpt>
      <trkpt lat="62.637885223478" lon="17.871455595969">
        <ele>37.2</ele>
        <time>2018-05-04T16:50:36Z</time>
      </trkpt>
      <trkpt lat="62.637868040583" lon="17.871254011274">
        <ele>36.6</ele>
        <time>2018-05-04T16:50:37Z</time>
      </trkpt>
      <trkpt lat="62.637851192964" lon="17.871051336932">
        <ele>36.2</ele>
        <time>2018-05-04T16:50:38Z</time>
      </trkpt>
      <trkpt lat="62.637837614286" lon="17.87086291182">
        <ele>35.6</ele>
        <time>2018-05-04T16:50:39Z</time>
      </trkpt>
      <trkpt lat="62.637823616513" lon="17.870660656573">
        <ele>35.2</ele>
        <time>2018-05-04T16:50:40Z</time>
      </trkpt>
      <trkpt lat="62.637815234613" lon="17.870454461833">
        <ele>35</ele>
        <time>2018-05-04T16:50:41Z</time>
      </trkpt>
      <trkpt lat="62.637806349799" lon="17.870245333428">
        <ele>34.6</ele>
        <time>2018-05-04T16:50:42Z</time>
      </trkpt>
      <trkpt lat="62.637800231012" lon="17.870034863919">
        <ele>34.2</ele>
        <time>2018-05-04T16:50:43Z</time>
      </trkpt>
      <trkpt lat="62.6377962077" lon="17.869827328075">
        <ele>33.6</ele>
        <time>2018-05-04T16:50:44Z</time>
      </trkpt>
      <trkpt lat="62.637793190216" lon="17.869623480267">
        <ele>33.2</ele>
        <time>2018-05-04T16:50:45Z</time>
      </trkpt>
      <trkpt lat="62.637790256551" lon="17.869417536984">
        <ele>32.8</ele>
        <time>2018-05-04T16:50:46Z</time>
      </trkpt>
      <trkpt lat="62.637794112225" lon="17.869207151294">
        <ele>32.2</ele>
        <time>2018-05-04T16:50:47Z</time>
      </trkpt>
      <trkpt lat="62.63779788408" lon="17.868996514147">
        <ele>31.8</ele>
        <time>2018-05-04T16:50:48Z</time>
      </trkpt>
      <trkpt lat="62.637805092514" lon="17.86878503881">
        <ele>31.2</ele>
        <time>2018-05-04T16:50:49Z</time>
      </trkpt>
      <trkpt lat="62.637814312604" lon="17.868573228197">
        <ele>30.6</ele>
        <time>2018-05-04T16:50:50Z</time>
      </trkpt>
      <trkpt lat="62.637823700332" lon="17.868371308226">
        <ele>29.8</ele>
        <time>2018-05-04T16:50:51Z</time>
      </trkpt>
      <trkpt lat="62.637833339517" lon="17.868160838717">
        <ele>29.4</ele>
        <time>2018-05-04T16:50:52Z</time>
      </trkpt>
      <trkpt lat="62.637845157996" lon="17.867940813842">
        <ele>28.8</ele>
        <time>2018-05-04T16:50:53Z</time>
      </trkpt>
      <trkpt lat="62.637855803009" lon="17.867730931066">
        <ele>28.6</ele>
        <time>2018-05-04T16:50:54Z</time>
      </trkpt>
      <trkpt lat="62.637868040583" lon="17.867515600055">
        <ele>28.2</ele>
        <time>2018-05-04T16:50:55Z</time>
      </trkpt>
      <trkpt lat="62.63787918851" lon="17.867316027016">
        <ele>28</ele>
        <time>2018-05-04T16:50:56Z</time>
      </trkpt>
      <trkpt lat="62.637891342265" lon="17.867108155896">
        <ele>27.8</ele>
        <time>2018-05-04T16:50:57Z</time>
      </trkpt>
      <trkpt lat="62.637903747477" lon="17.866901961156">
        <ele>27.4</ele>
        <time>2018-05-04T16:50:58Z</time>
      </trkpt>
      <trkpt lat="62.637915482137" lon="17.866689899086">
        <ele>27</ele>
        <time>2018-05-04T16:50:59Z</time>
      </trkpt>
      <trkpt lat="62.637925875693" lon="17.866488817305">
        <ele>26.8</ele>
        <time>2018-05-04T16:51:00Z</time>
      </trkpt>
      <trkpt lat="62.637935850154" lon="17.866291004465">
        <ele>26.6</ele>
        <time>2018-05-04T16:51:01Z</time>
      </trkpt>
      <trkpt lat="62.637945656977" lon="17.86611959461">
        <ele>26.6</ele>
        <time>2018-05-04T16:51:02Z</time>
      </trkpt>
      <trkpt lat="62.637957726913" lon="17.865930582765">
        <ele>26.4</ele>
        <time>2018-05-04T16:51:03Z</time>
      </trkpt>
      <trkpt lat="62.637968288107" lon="17.865739810721">
        <ele>26.4</ele>
        <time>2018-05-04T16:51:04Z</time>
      </trkpt>
      <trkpt lat="62.637976670007" lon="17.865559516052">
        <ele>26</ele>
        <time>2018-05-04T16:51:05Z</time>
      </trkpt>
      <trkpt lat="62.637986057735" lon="17.865370504207">
        <ele>26</ele>
        <time>2018-05-04T16:51:06Z</time>
      </trkpt>
      <trkpt lat="62.637996032196" lon="17.865208146804">
        <ele>26</ele>
        <time>2018-05-04T16:51:07Z</time>
      </trkpt>
      <trkpt lat="62.638008018313" lon="17.865026427212">
        <ele>25.6</ele>
        <time>2018-05-04T16:51:08Z</time>
      </trkpt>
      <trkpt lat="62.638017573679" lon="17.864856358461">
        <ele>25.6</ele>
        <time>2018-05-04T16:51:09Z</time>
      </trkpt>
      <trkpt lat="62.638025787941" lon="17.864706573908">
        <ele>25.4</ele>
        <time>2018-05-04T16:51:10Z</time>
      </trkpt>
      <trkpt lat="62.638034924212" lon="17.864548072179">
        <ele>25.2</ele>
        <time>2018-05-04T16:51:11Z</time>
      </trkpt>
      <trkpt lat="62.638043725207" lon="17.864392001201">
        <ele>25.2</ele>
        <time>2018-05-04T16:51:12Z</time>
      </trkpt>
      <trkpt lat="62.638052610021" lon="17.864228973246">
        <ele>25.2</ele>
        <time>2018-05-04T16:51:13Z</time>
      </trkpt>
      <trkpt lat="62.638060991921" lon="17.864081032711">
        <ele>25.2</ele>
        <time>2018-05-04T16:51:14Z</time>
      </trkpt>
      <trkpt lat="62.638070128192" lon="17.863933511271">
        <ele>25</ele>
        <time>2018-05-04T16:51:15Z</time>
      </trkpt>
      <trkpt lat="62.638077252807" lon="17.863792360075">
        <ele>25</ele>
        <time>2018-05-04T16:51:16Z</time>
      </trkpt>
      <trkpt lat="62.638082952499" lon="17.863666966851">
        <ele>25</ele>
        <time>2018-05-04T16:51:17Z</time>
      </trkpt>
      <trkpt lat="62.638090580028" lon="17.863509303312">
        <ele>25</ele>
        <time>2018-05-04T16:51:18Z</time>
      </trkpt>
      <trkpt lat="62.638097620824" lon="17.863369996134">
        <ele>25</ele>
        <time>2018-05-04T16:51:19Z</time>
      </trkpt>
      <trkpt lat="62.638105918905" lon="17.863233957897">
        <ele>25</ele>
        <time>2018-05-04T16:51:20Z</time>
      </trkpt>
      <trkpt lat="62.638112037692" lon="17.863095069814">
        <ele>25</ele>
        <time>2018-05-04T16:51:21Z</time>
      </trkpt>
      <trkpt lat="62.638117737384" lon="17.862968419305">
        <ele>24.8</ele>
        <time>2018-05-04T16:51:22Z</time>
      </trkpt>
      <trkpt lat="62.638122934162" lon="17.862829950317">
        <ele>24.8</ele>
        <time>2018-05-04T16:51:23Z</time>
      </trkpt>
      <trkpt lat="62.63812813094" lon="17.862688128569">
        <ele>24.8</ele>
        <time>2018-05-04T16:51:24Z</time>
      </trkpt>
      <trkpt lat="62.638132238071" lon="17.862563322078">
        <ele>24.6</ele>
        <time>2018-05-04T16:51:25Z</time>
      </trkpt>
      <trkpt lat="62.638136345202" lon="17.862420410683">
        <ele>24.8</ele>
        <time>2018-05-04T16:51:26Z</time>
      </trkpt>
      <trkpt lat="62.638139781781" lon="17.862294263088">
        <ele>24.8</ele>
        <time>2018-05-04T16:51:27Z</time>
      </trkpt>
      <trkpt lat="62.638141039066" lon="17.862153447168">
        <ele>25</ele>
        <time>2018-05-04T16:51:28Z</time>
      </trkpt>
      <trkpt lat="62.638141458161" lon="17.862023024804">
        <ele>25</ele>
        <time>2018-05-04T16:51:29Z</time>
      </trkpt>
      <trkpt lat="62.63814238017" lon="17.861878604667">
        <ele>24.8</ele>
        <time>2018-05-04T16:51:30Z</time>
      </trkpt>
      <trkpt lat="62.638142212532" lon="17.86174172824">
        <ele>24.8</ele>
        <time>2018-05-04T16:51:31Z</time>
      </trkpt>
      <trkpt lat="62.638142128713" lon="17.861612227885">
        <ele>24.8</ele>
        <time>2018-05-04T16:51:32Z</time>
      </trkpt>
      <trkpt lat="62.638141877256" lon="17.861465879911">
        <ele>24.8</ele>
        <time>2018-05-04T16:51:33Z</time>
      </trkpt>
      <trkpt lat="62.638139362686" lon="17.861327913837">
        <ele>24.8</ele>
        <time>2018-05-04T16:51:34Z</time>
      </trkpt>
      <trkpt lat="62.638136848116" lon="17.861196485645">
        <ele>24.6</ele>
        <time>2018-05-04T16:51:35Z</time>
      </trkpt>
      <trkpt lat="62.638134752641" lon="17.861052149327">
        <ele>24.8</ele>
        <time>2018-05-04T16:51:36Z</time>
      </trkpt>
      <trkpt lat="62.638131818976" lon="17.860922397515">
        <ele>24.6</ele>
        <time>2018-05-04T16:51:37Z</time>
      </trkpt>
      <trkpt lat="62.638128466216" lon="17.860778480292">
        <ele>24.6</ele>
        <time>2018-05-04T16:51:38Z</time>
      </trkpt>
      <trkpt lat="62.638121760696" lon="17.86064286115">
        <ele>24.4</ele>
        <time>2018-05-04T16:51:39Z</time>
      </trkpt>
      <trkpt lat="62.638114971357" lon="17.860516462098">
        <ele>24.2</ele>
        <time>2018-05-04T16:51:40Z</time>
      </trkpt>
      <trkpt lat="62.638110948045" lon="17.86040900614">
        <ele>24.4</ele>
        <time>2018-05-04T16:51:41Z</time>
      </trkpt>
      <trkpt lat="62.638105080715" lon="17.860246313461">
        <ele>24.4</ele>
        <time>2018-05-04T16:51:42Z</time>
      </trkpt>
      <trkpt lat="62.638098291376" lon="17.860106251912">
        <ele>24.6</ele>
        <time>2018-05-04T16:51:43Z</time>
      </trkpt>
      <trkpt lat="62.638090915304" lon="17.859976248643">
        <ele>24.6</ele>
        <time>2018-05-04T16:51:44Z</time>
      </trkpt>
      <trkpt lat="62.638081527576" lon="17.859846161555">
        <ele>24.8</ele>
        <time>2018-05-04T16:51:45Z</time>
      </trkpt>
      <trkpt lat="62.63807532497" lon="17.859746249307">
        <ele>24.8</ele>
        <time>2018-05-04T16:51:46Z</time>
      </trkpt>
      <trkpt lat="62.638068367993" lon="17.859631333458">
        <ele>24.8</ele>
        <time>2018-05-04T16:51:47Z</time>
      </trkpt>
      <trkpt lat="62.638054789315" lon="17.859458666318">
        <ele>24.8</ele>
        <time>2018-05-04T16:51:48Z</time>
      </trkpt>
      <trkpt lat="62.638043389931" lon="17.859333021637">
        <ele>24.8</ele>
        <time>2018-05-04T16:51:49Z</time>
      </trkpt>
      <trkpt lat="62.638033331651" lon="17.859205784395">
        <ele>24.8</ele>
        <time>2018-05-04T16:51:50Z</time>
      </trkpt>
      <trkpt lat="62.638021596991" lon="17.85908131318">
        <ele>25</ele>
        <time>2018-05-04T16:51:51Z</time>
      </trkpt>
      <trkpt lat="62.638008856503" lon="17.858965894417">
        <ele>24.8</ele>
        <time>2018-05-04T16:51:52Z</time>
      </trkpt>
      <trkpt lat="62.637994104359" lon="17.858840249736">
        <ele>25</ele>
        <time>2018-05-04T16:51:53Z</time>
      </trkpt>
      <trkpt lat="62.637980944776" lon="17.858705552603">
        <ele>25</ele>
        <time>2018-05-04T16:51:54Z</time>
      </trkpt>
      <trkpt lat="62.637966695546" lon="17.858587535451">
        <ele>24.8</ele>
        <time>2018-05-04T16:51:55Z</time>
      </trkpt>
      <trkpt lat="62.63795127285" lon="17.858454766155">
        <ele>24.6</ele>
        <time>2018-05-04T16:51:56Z</time>
      </trkpt>
      <trkpt lat="62.637937526534" lon="17.85833448589">
        <ele>24.8</ele>
        <time>2018-05-04T16:51:57Z</time>
      </trkpt>
      <trkpt lat="62.63792109801" lon="17.858201548956">
        <ele>24.8</ele>
        <time>2018-05-04T16:51:58Z</time>
      </trkpt>
      <trkpt lat="62.637906429685" lon="17.858077413017">
        <ele>24.8</ele>
        <time>2018-05-04T16:51:59Z</time>
      </trkpt>
      <trkpt lat="62.637890252618" lon="17.857948415576">
        <ele>24.8</ele>
        <time>2018-05-04T16:52:00Z</time>
      </trkpt>
      <trkpt lat="62.637874913741" lon="17.857819921049">
        <ele>25</ele>
        <time>2018-05-04T16:52:01Z</time>
      </trkpt>
      <trkpt lat="62.637857730846" lon="17.857697629128">
        <ele>24.8</ele>
        <time>2018-05-04T16:52:02Z</time>
      </trkpt>
      <trkpt lat="62.637838787752" lon="17.857559243959">
        <ele>24.8</ele>
        <time>2018-05-04T16:52:03Z</time>
      </trkpt>
      <trkpt lat="62.63782386797" lon="17.857425971749">
        <ele>24.6</ele>
        <time>2018-05-04T16:52:04Z</time>
      </trkpt>
      <trkpt lat="62.637807523265" lon="17.857300578525">
        <ele>24.4</ele>
        <time>2018-05-04T16:52:05Z</time>
      </trkpt>
      <trkpt lat="62.637791597655" lon="17.85715934351">
        <ele>24.2</ele>
        <time>2018-05-04T16:52:06Z</time>
      </trkpt>
      <trkpt lat="62.637776594054" lon="17.85703193863">
        <ele>24.4</ele>
        <time>2018-05-04T16:52:07Z</time>
      </trkpt>
      <trkpt lat="62.637761674272" lon="17.856887099398">
        <ele>24.2</ele>
        <time>2018-05-04T16:52:08Z</time>
      </trkpt>
      <trkpt lat="62.63774423992" lon="17.856745696745">
        <ele>24.2</ele>
        <time>2018-05-04T16:52:09Z</time>
      </trkpt>
      <trkpt lat="62.637729320138" lon="17.856618375684">
        <ele>24.2</ele>
        <time>2018-05-04T16:52:10Z</time>
      </trkpt>
      <trkpt lat="62.637713478347" lon="17.856487366587">
        <ele>24.4</ele>
        <time>2018-05-04T16:52:11Z</time>
      </trkpt>
      <trkpt lat="62.637695792538" lon="17.856348227047">
        <ele>24.4</ele>
        <time>2018-05-04T16:52:12Z</time>
      </trkpt>
      <trkpt lat="62.637677100901" lon="17.856204477462">
        <ele>24.4</ele>
        <time>2018-05-04T16:52:13Z</time>
      </trkpt>
      <trkpt lat="62.63765958273" lon="17.856068690682">
        <ele>24.2</ele>
        <time>2018-05-04T16:52:14Z</time>
      </trkpt>
      <trkpt lat="62.637641729283" lon="17.855931311341">
        <ele>24.2</ele>
        <time>2018-05-04T16:52:15Z</time>
      </trkpt>
      <trkpt lat="62.637627815329" lon="17.855798039131">
        <ele>24.2</ele>
        <time>2018-05-04T16:52:16Z</time>
      </trkpt>
      <trkpt lat="62.637614488108" lon="17.85568161454">
        <ele>24</ele>
        <time>2018-05-04T16:52:17Z</time>
      </trkpt>
      <trkpt lat="62.637595796471" lon="17.855533590186">
        <ele>23.8</ele>
        <time>2018-05-04T16:52:18Z</time>
      </trkpt>
      <trkpt lat="62.637579451766" lon="17.855400737071">
        <ele>23.8</ele>
        <time>2018-05-04T16:52:19Z</time>
      </trkpt>
      <trkpt lat="62.63756738183" lon="17.855267632499">
        <ele>23.6</ele>
        <time>2018-05-04T16:52:20Z</time>
      </trkpt>
      <trkpt lat="62.637556652998" lon="17.855143580379">
        <ele>23.8</ele>
        <time>2018-05-04T16:52:21Z</time>
      </trkpt>
      <trkpt lat="62.6375447507" lon="17.855024222123">
        <ele>23.8</ele>
        <time>2018-05-04T16:52:22Z</time>
      </trkpt>
      <trkpt lat="62.637531926393" lon="17.854894386492">
        <ele>24</ele>
        <time>2018-05-04T16:52:23Z</time>
      </trkpt>
      <trkpt lat="62.637520024095" lon="17.854765305232">
        <ele>24</ele>
        <time>2018-05-04T16:52:24Z</time>
      </trkpt>
      <trkpt lat="62.637511977471" lon="17.854653742143">
        <ele>24.2</ele>
        <time>2018-05-04T16:52:25Z</time>
      </trkpt>
      <trkpt lat="62.637501835372" lon="17.854528097462">
        <ele>24.2</ele>
        <time>2018-05-04T16:52:26Z</time>
      </trkpt>
      <trkpt lat="62.637491777092" lon="17.854418210753">
        <ele>24.2</ele>
        <time>2018-05-04T16:52:27Z</time>
      </trkpt>
      <trkpt lat="62.637482640821" lon="17.854297427574">
        <ele>24.2</ele>
        <time>2018-05-04T16:52:28Z</time>
      </trkpt>
      <trkpt lat="62.637473672188" lon="17.854191983272">
        <ele>24.2</ele>
        <time>2018-05-04T16:52:29Z</time>
      </trkpt>
      <trkpt lat="62.637464535917" lon="17.854077402699">
        <ele>24.4</ele>
        <time>2018-05-04T16:52:30Z</time>
      </trkpt>
      <trkpt lat="62.637459171501" lon="17.8539666778">
        <ele>24.6</ele>
        <time>2018-05-04T16:52:31Z</time>
      </trkpt>
      <trkpt lat="62.637454729094" lon="17.853866681733">
        <ele>24.8</ele>
        <time>2018-05-04T16:52:32Z</time>
      </trkpt>
      <trkpt lat="62.637448777945" lon="17.853757800852">
        <ele>25</ele>
        <time>2018-05-04T16:52:33Z</time>
      </trkpt>
      <trkpt lat="62.63744332971" lon="17.853659816441">
        <ele>25.2</ele>
        <time>2018-05-04T16:52:34Z</time>
      </trkpt>
      <trkpt lat="62.637438719665" lon="17.853566609713">
        <ele>25.4</ele>
        <time>2018-05-04T16:52:35Z</time>
      </trkpt>
      <trkpt lat="62.637435450724" lon="17.853466865103">
        <ele>25.4</ele>
        <time>2018-05-04T16:52:36Z</time>
      </trkpt>
      <trkpt lat="62.637431427412" lon="17.853379525705">
        <ele>25.8</ele>
        <time>2018-05-04T16:52:37Z</time>
      </trkpt>
      <trkpt lat="62.63742656591" lon="17.85328020019">
        <ele>26.2</ele>
        <time>2018-05-04T16:52:38Z</time>
      </trkpt>
      <trkpt lat="62.637420111847" lon="17.853185652358">
        <ele>26.6</ele>
        <time>2018-05-04T16:52:39Z</time>
      </trkpt>
      <trkpt lat="62.637418603105" lon="17.853102755367">
        <ele>26.8</ele>
        <time>2018-05-04T16:52:40Z</time>
      </trkpt>
      <trkpt lat="62.63741483125" lon="17.853009883915">
        <ele>27.4</ele>
        <time>2018-05-04T16:52:41Z</time>
      </trkpt>
      <trkpt lat="62.637411729947" lon="17.852918185929">
        <ele>27.4</ele>
        <time>2018-05-04T16:52:42Z</time>
      </trkpt>
      <trkpt lat="62.637408377187" lon="17.852824979201">
        <ele>27.4</ele>
        <time>2018-05-04T16:52:43Z</time>
      </trkpt>
      <trkpt lat="62.63740644935" lon="17.852736047242">
        <ele>27.6</ele>
        <time>2018-05-04T16:52:44Z</time>
      </trkpt>
      <trkpt lat="62.637401923124" lon="17.852647031464">
        <ele>27.6</ele>
        <time>2018-05-04T16:52:45Z</time>
      </trkpt>
      <trkpt lat="62.637394547052" lon="17.852554830564">
        <ele>27.8</ele>
        <time>2018-05-04T16:52:46Z</time>
      </trkpt>
      <trkpt lat="62.637390859016" lon="17.852476292161">
        <ele>27.8</ele>
        <time>2018-05-04T16:52:47Z</time>
      </trkpt>
      <trkpt lat="62.637389853188" lon="17.8523741168">
        <ele>27.8</ele>
        <time>2018-05-04T16:52:48Z</time>
      </trkpt>
      <trkpt lat="62.637387338618" lon="17.852284598108">
        <ele>28</ele>
        <time>2018-05-04T16:52:49Z</time>
      </trkpt>
      <trkpt lat="62.637384069677" lon="17.852194492683">
        <ele>28</ele>
        <time>2018-05-04T16:52:50Z</time>
      </trkpt>
      <trkpt lat="62.637381219831" lon="17.852106063638">
        <ele>28.2</ele>
        <time>2018-05-04T16:52:51Z</time>
      </trkpt>
      <trkpt lat="62.637377783252" lon="17.852024088656">
        <ele>28.2</ele>
        <time>2018-05-04T16:52:52Z</time>
      </trkpt>
      <trkpt lat="62.637373676121" lon="17.85193239067">
        <ele>28.4</ele>
        <time>2018-05-04T16:52:53Z</time>
      </trkpt>
      <trkpt lat="62.637371077732" lon="17.851836920829">
        <ele>28.6</ele>
        <time>2018-05-04T16:52:54Z</time>
      </trkpt>
      <trkpt lat="62.637368898438" lon="17.851753520924">
        <ele>28.8</ele>
        <time>2018-05-04T16:52:55Z</time>
      </trkpt>
      <trkpt lat="62.637366300049" lon="17.851659308368">
        <ele>28.8</ele>
        <time>2018-05-04T16:52:56Z</time>
      </trkpt>
      <trkpt lat="62.637363534022" lon="17.851575154092">
        <ele>29</ele>
        <time>2018-05-04T16:52:57Z</time>
      </trkpt>
      <trkpt lat="62.63736118709" lon="17.851482785554">
        <ele>29.2</ele>
        <time>2018-05-04T16:52:58Z</time>
      </trkpt>
      <trkpt lat="62.637357750511" lon="17.851397960726">
        <ele>29.4</ele>
        <time>2018-05-04T16:52:59Z</time>
      </trkpt>
      <trkpt lat="62.637355152122" lon="17.85130374817">
        <ele>29.4</ele>
        <time>2018-05-04T16:53:00Z</time>
      </trkpt>
      <trkpt lat="62.637350961172" lon="17.851212553098">
        <ele>29.8</ele>
        <time>2018-05-04T16:53:01Z</time>
      </trkpt>
      <trkpt lat="62.637348530421" lon="17.85113024284">
        <ele>29.8</ele>
        <time>2018-05-04T16:53:02Z</time>
      </trkpt>
      <trkpt lat="62.637344842385" lon="17.851035024456">
        <ele>30.2</ele>
        <time>2018-05-04T16:53:03Z</time>
      </trkpt>
      <trkpt lat="62.637340651435" lon="17.850946176316">
        <ele>30.6</ele>
        <time>2018-05-04T16:53:04Z</time>
      </trkpt>
      <trkpt lat="62.637336963399" lon="17.850864033696">
        <ele>30.6</ele>
        <time>2018-05-04T16:53:05Z</time>
      </trkpt>
      <trkpt lat="62.637333107725" lon="17.850769988778">
        <ele>30.8</ele>
        <time>2018-05-04T16:53:06Z</time>
      </trkpt>
      <trkpt lat="62.637332604811" lon="17.850687929977">
        <ele>31</ele>
        <time>2018-05-04T16:53:07Z</time>
      </trkpt>
      <trkpt lat="62.637330090241" lon="17.850598159828">
        <ele>31.2</ele>
        <time>2018-05-04T16:53:08Z</time>
      </trkpt>
      <trkpt lat="62.637325647834" lon="17.850513670276">
        <ele>31.4</ele>
        <time>2018-05-04T16:53:09Z</time>
      </trkpt>
      <trkpt lat="62.637322378893" lon="17.850432701122">
        <ele>31.6</ele>
        <time>2018-05-04T16:53:10Z</time>
      </trkpt>
      <trkpt lat="62.637319193771" lon="17.850343852982">
        <ele>31.6</ele>
        <time>2018-05-04T16:53:11Z</time>
      </trkpt>
      <trkpt lat="62.637316679201" lon="17.85026020162">
        <ele>31.8</ele>
        <time>2018-05-04T16:53:12Z</time>
      </trkpt>
      <trkpt lat="62.637313074984" lon="17.850171521118">
        <ele>31.8</ele>
        <time>2018-05-04T16:53:13Z</time>
      </trkpt>
      <trkpt lat="62.637308632577" lon="17.85008418172">
        <ele>32</ele>
        <time>2018-05-04T16:53:14Z</time>
      </trkpt>
      <trkpt lat="62.637303184342" lon="17.849996339408">
        <ele>32.2</ele>
        <time>2018-05-04T16:53:15Z</time>
      </trkpt>
      <trkpt lat="62.637301005048" lon="17.849913442417">
        <ele>32.2</ele>
        <time>2018-05-04T16:53:16Z</time>
      </trkpt>
      <trkpt lat="62.637297065555" lon="17.849835574566">
        <ele>32.2</ele>
        <time>2018-05-04T16:53:17Z</time>
      </trkpt>
      <trkpt lat="62.63729245551" lon="17.849741864924">
        <ele>32.4</ele>
        <time>2018-05-04T16:53:18Z</time>
      </trkpt>
      <trkpt lat="62.637288516017" lon="17.849654609345">
        <ele>32.4</ele>
        <time>2018-05-04T16:53:19Z</time>
      </trkpt>
      <trkpt lat="62.63728407361" lon="17.849569616879">
        <ele>32.4</ele>
        <time>2018-05-04T16:53:20Z</time>
      </trkpt>
      <trkpt lat="62.637279631203" lon="17.849479343816">
        <ele>32.4</ele>
        <time>2018-05-04T16:53:21Z</time>
      </trkpt>
      <trkpt lat="62.637275859348" lon="17.849397452653">
        <ele>32.6</ele>
        <time>2018-05-04T16:53:22Z</time>
      </trkpt>
      <trkpt lat="62.637273596235" lon="17.849305670848">
        <ele>32.8</ele>
        <time>2018-05-04T16:53:23Z</time>
      </trkpt>
      <trkpt lat="62.637266974534" lon="17.849212128844">
        <ele>33</ele>
        <time>2018-05-04T16:53:24Z</time>
      </trkpt>
      <trkpt lat="62.63726395705" lon="17.849127471654">
        <ele>33</ele>
        <time>2018-05-04T16:53:25Z</time>
      </trkpt>
      <trkpt lat="62.637261191023" lon="17.849033510555">
        <ele>33.2</ele>
        <time>2018-05-04T16:53:26Z</time>
      </trkpt>
      <trkpt lat="62.637256245702" lon="17.848946422614">
        <ele>33.4</ele>
        <time>2018-05-04T16:53:27Z</time>
      </trkpt>
      <trkpt lat="62.637252306209" lon="17.848848941117">
        <ele>33.4</ele>
        <time>2018-05-04T16:53:28Z</time>
      </trkpt>
      <trkpt lat="62.63724803144" lon="17.848758919511">
        <ele>33.4</ele>
        <time>2018-05-04T16:53:29Z</time>
      </trkpt>
      <trkpt lat="62.637246690336" lon="17.8486609351">
        <ele>33.6</ele>
        <time>2018-05-04T16:53:30Z</time>
      </trkpt>
      <trkpt lat="62.637241745015" lon="17.848566806363">
        <ele>33.8</ele>
        <time>2018-05-04T16:53:31Z</time>
      </trkpt>
      <trkpt lat="62.637240236273" lon="17.848473515816">
        <ele>34</ele>
        <time>2018-05-04T16:53:32Z</time>
      </trkpt>
      <trkpt lat="62.637236799694" lon="17.848369580256">
        <ele>34.2</ele>
        <time>2018-05-04T16:53:33Z</time>
      </trkpt>
      <trkpt lat="62.6372346204" lon="17.848273272225">
        <ele>34.2</ele>
        <time>2018-05-04T16:53:34Z</time>
      </trkpt>
      <trkpt lat="62.637232357287" lon="17.848176126004">
        <ele>34.2</ele>
        <time>2018-05-04T16:53:35Z</time>
      </trkpt>
      <trkpt lat="62.637225232672" lon="17.847977558793">
        <ele>34.2</ele>
        <time>2018-05-04T16:53:37Z</time>
      </trkpt>
      <trkpt lat="62.637222550464" lon="17.847870270473">
        <ele>34.2</ele>
        <time>2018-05-04T16:53:38Z</time>
      </trkpt>
      <trkpt lat="62.637219030066" lon="17.847773040433">
        <ele>34.4</ele>
        <time>2018-05-04T16:53:39Z</time>
      </trkpt>
      <trkpt lat="62.637215090573" lon="17.847675391298">
        <ele>34.6</ele>
        <time>2018-05-04T16:53:40Z</time>
      </trkpt>
      <trkpt lat="62.637211905451" lon="17.847569024987">
        <ele>35</ele>
        <time>2018-05-04T16:53:41Z</time>
      </trkpt>
      <trkpt lat="62.637209977614" lon="17.847520745243">
        <ele>35.2</ele>
        <time>2018-05-04T16:53:42Z</time>
      </trkpt>
      <trkpt lat="62.637202014809" lon="17.847359477487">
        <ele>35.4</ele>
        <time>2018-05-04T16:53:43Z</time>
      </trkpt>
      <trkpt lat="62.637198997325" lon="17.847244394">
        <ele>35.6</ele>
        <time>2018-05-04T16:53:44Z</time>
      </trkpt>
      <trkpt lat="62.637196398936" lon="17.847134172015">
        <ele>35.8</ele>
        <time>2018-05-04T16:53:45Z</time>
      </trkpt>
      <trkpt lat="62.637193046176" lon="17.847026632238">
        <ele>35.8</ele>
        <time>2018-05-04T16:53:46Z</time>
      </trkpt>
      <trkpt lat="62.637190112511" lon="17.846930240388">
        <ele>36</ele>
        <time>2018-05-04T16:53:47Z</time>
      </trkpt>
      <trkpt lat="62.637185418647" lon="17.846808116105">
        <ele>36</ele>
        <time>2018-05-04T16:53:48Z</time>
      </trkpt>
      <trkpt lat="62.637180221869" lon="17.846695882464">
        <ele>36.2</ele>
        <time>2018-05-04T16:53:49Z</time>
      </trkpt>
      <trkpt lat="62.63717510891" lon="17.846585911936">
        <ele>36.2</ele>
        <time>2018-05-04T16:53:50Z</time>
      </trkpt>
      <trkpt lat="62.637171169417" lon="17.84647409739">
        <ele>36.4</ele>
        <time>2018-05-04T16:53:51Z</time>
      </trkpt>
      <trkpt lat="62.637167313743" lon="17.846371670572">
        <ele>36.8</ele>
        <time>2018-05-04T16:53:52Z</time>
      </trkpt>
      <trkpt lat="62.637164380078" lon="17.846258850198">
        <ele>36.8</ele>
        <time>2018-05-04T16:53:53Z</time>
      </trkpt>
      <trkpt lat="62.637158764205" lon="17.846139324304">
        <ele>36.6</ele>
        <time>2018-05-04T16:53:54Z</time>
      </trkpt>
      <trkpt lat="62.637153735065" lon="17.846035053468">
        <ele>36.8</ele>
        <time>2018-05-04T16:53:55Z</time>
      </trkpt>
      <trkpt lat="62.637147197183" lon="17.845918293601">
        <ele>36.6</ele>
        <time>2018-05-04T16:53:56Z</time>
      </trkpt>
      <trkpt lat="62.637143006233" lon="17.845812011109">
        <ele>36.6</ele>
        <time>2018-05-04T16:53:57Z</time>
      </trkpt>
      <trkpt lat="62.637137725636" lon="17.845695167423">
        <ele>36.6</ele>
        <time>2018-05-04T16:53:58Z</time>
      </trkpt>
      <trkpt lat="62.637132193582" lon="17.845589471664">
        <ele>36.8</ele>
        <time>2018-05-04T16:53:59Z</time>
      </trkpt>
      <trkpt lat="62.637125320424" lon="17.845477908575">
        <ele>36.8</ele>
        <time>2018-05-04T16:54:00Z</time>
      </trkpt>
      <trkpt lat="62.637122135302" lon="17.845366596943">
        <ele>36.8</ele>
        <time>2018-05-04T16:54:01Z</time>
      </trkpt>
      <trkpt lat="62.637120878017" lon="17.845262409926">
        <ele>37</ele>
        <time>2018-05-04T16:54:02Z</time>
      </trkpt>
      <trkpt lat="62.637118531085" lon="17.845146152973">
        <ele>37.2</ele>
        <time>2018-05-04T16:54:03Z</time>
      </trkpt>
      <trkpt lat="62.637111825565" lon="17.845033751694">
        <ele>37.2</ele>
        <time>2018-05-04T16:54:04Z</time>
      </trkpt>
      <trkpt lat="62.637105958235" lon="17.844927050107">
        <ele>37.4</ele>
        <time>2018-05-04T16:54:05Z</time>
      </trkpt>
      <trkpt lat="62.637100677638" lon="17.844804758186">
        <ele>37.6</ele>
        <time>2018-05-04T16:54:06Z</time>
      </trkpt>
      <trkpt lat="62.637098917439" lon="17.84470132554">
        <ele>37.8</ele>
        <time>2018-05-04T16:54:07Z</time>
      </trkpt>
      <trkpt lat="62.637092798652" lon="17.844579704171">
        <ele>37.8</ele>
        <time>2018-05-04T16:54:08Z</time>
      </trkpt>
      <trkpt lat="62.637085674037" lon="17.84446495596">
        <ele>38</ele>
        <time>2018-05-04T16:54:09Z</time>
      </trkpt>
      <trkpt lat="62.637081902182" lon="17.844366636273">
        <ele>38</ele>
        <time>2018-05-04T16:54:10Z</time>
      </trkpt>
      <trkpt lat="62.637077292137" lon="17.844251049872">
        <ele>37.8</ele>
        <time>2018-05-04T16:54:11Z</time>
      </trkpt>
      <trkpt lat="62.637073604101" lon="17.844140157335">
        <ele>37.8</ele>
        <time>2018-05-04T16:54:12Z</time>
      </trkpt>
      <trkpt lat="62.637070502798" lon="17.844026079676">
        <ele>37.6</ele>
        <time>2018-05-04T16:54:13Z</time>
      </trkpt>
      <trkpt lat="62.637067736771" lon="17.843911499103">
        <ele>37.6</ele>
        <time>2018-05-04T16:54:14Z</time>
      </trkpt>
      <trkpt lat="62.637065976572" lon="17.843802115308">
        <ele>37.6</ele>
        <time>2018-05-04T16:54:15Z</time>
      </trkpt>
      <trkpt lat="62.637062959088" lon="17.843689965486">
        <ele>37.8</ele>
        <time>2018-05-04T16:54:16Z</time>
      </trkpt>
      <trkpt lat="62.63706111507" lon="17.843592483989">
        <ele>37.8</ele>
        <time>2018-05-04T16:54:17Z</time>
      </trkpt>
      <trkpt lat="62.637057846129" lon="17.843464240919">
        <ele>38</ele>
        <time>2018-05-04T16:54:18Z</time>
      </trkpt>
      <trkpt lat="62.637057846129" lon="17.843349241251">
        <ele>38</ele>
        <time>2018-05-04T16:54:19Z</time>
      </trkpt>
      <trkpt lat="62.637059103414" lon="17.843234576859">
        <ele>38</ele>
        <time>2018-05-04T16:54:20Z</time>
      </trkpt>
      <trkpt lat="62.637057678491" lon="17.843119325734">
        <ele>38.2</ele>
        <time>2018-05-04T16:54:21Z</time>
      </trkpt>
      <trkpt lat="62.637056840301" lon="17.843014132889">
        <ele>38.2</ele>
        <time>2018-05-04T16:54:22Z</time>
      </trkpt>
      <trkpt lat="62.637055163921" lon="17.8428941879">
        <ele>38.4</ele>
        <time>2018-05-04T16:54:23Z</time>
      </trkpt>
      <trkpt lat="62.637055666835" lon="17.842769632866">
        <ele>38.6</ele>
        <time>2018-05-04T16:54:24Z</time>
      </trkpt>
      <trkpt lat="62.637057091758" lon="17.842657063949">
        <ele>38.6</ele>
        <time>2018-05-04T16:54:25Z</time>
      </trkpt>
      <trkpt lat="62.637057259396" lon="17.842525635757">
        <ele>38.6</ele>
        <time>2018-05-04T16:54:26Z</time>
      </trkpt>
      <trkpt lat="62.637057091758" lon="17.842412312469">
        <ele>38.6</ele>
        <time>2018-05-04T16:54:27Z</time>
      </trkpt>
      <trkpt lat="62.637057175577" lon="17.842284320856">
        <ele>38.6</ele>
        <time>2018-05-04T16:54:28Z</time>
      </trkpt>
      <trkpt lat="62.637060863613" lon="17.842169656464">
        <ele>38.6</ele>
        <time>2018-05-04T16:54:29Z</time>
      </trkpt>
      <trkpt lat="62.637060360699" lon="17.842039317919">
        <ele>38.4</ele>
        <time>2018-05-04T16:54:30Z</time>
      </trkpt>
      <trkpt lat="62.637063294364" lon="17.841913337962">
        <ele>38.4</ele>
        <time>2018-05-04T16:54:31Z</time>
      </trkpt>
      <trkpt lat="62.637068239685" lon="17.84179783538">
        <ele>38.4</ele>
        <time>2018-05-04T16:54:32Z</time>
      </trkpt>
      <trkpt lat="62.637071760083" lon="17.841658863478">
        <ele>38.4</ele>
        <time>2018-05-04T16:54:33Z</time>
      </trkpt>
      <trkpt lat="62.637074777567" lon="17.84154889295">
        <ele>38.6</ele>
        <time>2018-05-04T16:54:34Z</time>
      </trkpt>
      <trkpt lat="62.637078381784" lon="17.841435821119">
        <ele>38.8</ele>
        <time>2018-05-04T16:54:35Z</time>
      </trkpt>
      <trkpt lat="62.637083243286" lon="17.841319647985">
        <ele>39</ele>
        <time>2018-05-04T16:54:36Z</time>
      </trkpt>
      <trkpt lat="62.637086847503" lon="17.841204732136">
        <ele>39.2</ele>
        <time>2018-05-04T16:54:37Z</time>
      </trkpt>
      <trkpt lat="62.637090870815" lon="17.841082440215">
        <ele>39.2</ele>
        <time>2018-05-04T16:54:38Z</time>
      </trkpt>
      <trkpt lat="62.63709380448" lon="17.84096718909">
        <ele>39.2</ele>
        <time>2018-05-04T16:54:39Z</time>
      </trkpt>
      <trkpt lat="62.637097827792" lon="17.840861493331">
        <ele>39.2</ele>
        <time>2018-05-04T16:54:40Z</time>
      </trkpt>
      <trkpt lat="62.637103276027" lon="17.840744482007">
        <ele>39.2</ele>
        <time>2018-05-04T16:54:41Z</time>
      </trkpt>
      <trkpt lat="62.637107718434" lon="17.840632667461">
        <ele>39.2</ele>
        <time>2018-05-04T16:54:42Z</time>
      </trkpt>
      <trkpt lat="62.637113418126" lon="17.840516410508">
        <ele>39.2</ele>
        <time>2018-05-04T16:54:43Z</time>
      </trkpt>
      <trkpt lat="62.637119956008" lon="17.840409038369">
        <ele>39.4</ele>
        <time>2018-05-04T16:54:44Z</time>
      </trkpt>
      <trkpt lat="62.637125739519" lon="17.840299738393">
        <ele>39.4</ele>
        <time>2018-05-04T16:54:45Z</time>
      </trkpt>
      <trkpt lat="62.637131858306" lon="17.840191695702">
        <ele>39.6</ele>
        <time>2018-05-04T16:54:46Z</time>
      </trkpt>
      <trkpt lat="62.637136719808" lon="17.8401030152">
        <ele>39.8</ele>
        <time>2018-05-04T16:54:47Z</time>
      </trkpt>
      <trkpt lat="62.637145017889" lon="17.839967563696">
        <ele>40.2</ele>
        <time>2018-05-04T16:54:48Z</time>
      </trkpt>
      <trkpt lat="62.637151052857" lon="17.83985742553">
        <ele>40.4</ele>
        <time>2018-05-04T16:54:49Z</time>
      </trkpt>
      <trkpt lat="62.637158764205" lon="17.839746532993">
        <ele>40.6</ele>
        <time>2018-05-04T16:54:50Z</time>
      </trkpt>
      <trkpt lat="62.63716505063" lon="17.839636562465">
        <ele>41</ele>
        <time>2018-05-04T16:54:51Z</time>
      </trkpt>
      <trkpt lat="62.637170331227" lon="17.83953556057">
        <ele>41.2</ele>
        <time>2018-05-04T16:54:52Z</time>
      </trkpt>
      <trkpt lat="62.637175611824" lon="17.839425673861">
        <ele>41.2</ele>
        <time>2018-05-04T16:54:53Z</time>
      </trkpt>
      <trkpt lat="62.63718349081" lon="17.8393151166">
        <ele>41.2</ele>
        <time>2018-05-04T16:54:54Z</time>
      </trkpt>
      <trkpt lat="62.637191202158" lon="17.839218557112">
        <ele>41.6</ele>
        <time>2018-05-04T16:54:55Z</time>
      </trkpt>
      <trkpt lat="62.637199500239" lon="17.839107329299">
        <ele>41.6</ele>
        <time>2018-05-04T16:54:56Z</time>
      </trkpt>
      <trkpt lat="62.637209307062" lon="17.839016050408">
        <ele>41.8</ele>
        <time>2018-05-04T16:54:57Z</time>
      </trkpt>
      <trkpt lat="62.637218610971" lon="17.838910606106">
        <ele>42</ele>
        <time>2018-05-04T16:54:58Z</time>
      </trkpt>
      <trkpt lat="62.637225484129" lon="17.838814214256">
        <ele>42</ele>
        <time>2018-05-04T16:54:59Z</time>
      </trkpt>
      <trkpt lat="62.637230848545" lon="17.8387116198">
        <ele>42</ele>
        <time>2018-05-04T16:55:00Z</time>
      </trkpt>
      <trkpt lat="62.637237721703" lon="17.838614054484">
        <ele>42.2</ele>
        <time>2018-05-04T16:55:01Z</time>
      </trkpt>
      <trkpt lat="62.637247444707" lon="17.838522272679">
        <ele>42.2</ele>
        <time>2018-05-04T16:55:02Z</time>
      </trkpt>
      <trkpt lat="62.637257502987" lon="17.838417498929">
        <ele>42.4</ele>
        <time>2018-05-04T16:55:03Z</time>
      </trkpt>
      <trkpt lat="62.637263035041" lon="17.838324711296">
        <ele>42.4</ele>
        <time>2018-05-04T16:55:04Z</time>
      </trkpt>
      <trkpt lat="62.637270075837" lon="17.838229325274">
        <ele>42.6</ele>
        <time>2018-05-04T16:55:05Z</time>
      </trkpt>
      <trkpt lat="62.637282061954" lon="17.838129580664">
        <ele>42.8</ele>
        <time>2018-05-04T16:55:06Z</time>
      </trkpt>
      <trkpt lat="62.637291784958" lon="17.83803855323">
        <ele>42.8</ele>
        <time>2018-05-04T16:55:07Z</time>
      </trkpt>
      <trkpt lat="62.637303603437" lon="17.837933192747">
        <ele>43</ele>
        <time>2018-05-04T16:55:08Z</time>
      </trkpt>
      <trkpt lat="62.637311398604" lon="17.837835375974">
        <ele>43.4</ele>
        <time>2018-05-04T16:55:09Z</time>
      </trkpt>
      <trkpt lat="62.637321037789" lon="17.837744767635">
        <ele>43.6</ele>
        <time>2018-05-04T16:55:10Z</time>
      </trkpt>
      <trkpt lat="62.637329168232" lon="17.837643179007">
        <ele>43.8</ele>
        <time>2018-05-04T16:55:11Z</time>
      </trkpt>
      <trkpt lat="62.63733939415" lon="17.837545110777">
        <ele>44</ele>
        <time>2018-05-04T16:55:12Z</time>
      </trkpt>
      <trkpt lat="62.63735029062" lon="17.837440001751">
        <ele>44.2</ele>
        <time>2018-05-04T16:55:13Z</time>
      </trkpt>
      <trkpt lat="62.637362192918" lon="17.837343023168">
        <ele>44.4</ele>
        <time>2018-05-04T16:55:14Z</time>
      </trkpt>
      <trkpt lat="62.63737292175" lon="17.837245876947">
        <ele>44.4</ele>
        <time>2018-05-04T16:55:15Z</time>
      </trkpt>
      <trkpt lat="62.637380884555" lon="17.83716851201">
        <ele>44.4</ele>
        <time>2018-05-04T16:55:16Z</time>
      </trkpt>
      <trkpt lat="62.637392283939" lon="17.837057787111">
        <ele>44.8</ele>
        <time>2018-05-04T16:55:17Z</time>
      </trkpt>
      <trkpt lat="62.637403264228" lon="17.836949073868">
        <ele>44.8</ele>
        <time>2018-05-04T16:55:18Z</time>
      </trkpt>
      <trkpt lat="62.637413238689" lon="17.836852011466">
        <ele>45</ele>
        <time>2018-05-04T16:55:19Z</time>
      </trkpt>
      <trkpt lat="62.637425057168" lon="17.836756457806">
        <ele>45.2</ele>
        <time>2018-05-04T16:55:20Z</time>
      </trkpt>
      <trkpt lat="62.637435450724" lon="17.836660065956">
        <ele>45.2</ele>
        <time>2018-05-04T16:55:21Z</time>
      </trkpt>
      <trkpt lat="62.637445760461" lon="17.836567613599">
        <ele>45.4</ele>
        <time>2018-05-04T16:55:22Z</time>
      </trkpt>
      <trkpt lat="62.637456824569" lon="17.836471892301">
        <ele>45.6</ele>
        <time>2018-05-04T16:55:23Z</time>
      </trkpt>
      <trkpt lat="62.637468391591" lon="17.836374494623">
        <ele>45.6</ele>
        <time>2018-05-04T16:55:24Z</time>
      </trkpt>
      <trkpt lat="62.637479623337" lon="17.836286903768">
        <ele>45.8</ele>
        <time>2018-05-04T16:55:25Z</time>
      </trkpt>
      <trkpt lat="62.637490100712" lon="17.836190595737">
        <ele>46</ele>
        <time>2018-05-04T16:55:26Z</time>
      </trkpt>
      <trkpt lat="62.637499236983" lon="17.836104094529">
        <ele>46.2</ele>
        <time>2018-05-04T16:55:27Z</time>
      </trkpt>
      <trkpt lat="62.637510887824" lon="17.836005858661">
        <ele>46.4</ele>
        <time>2018-05-04T16:55:28Z</time>
      </trkpt>
      <trkpt lat="62.637522454846" lon="17.835918267806">
        <ele>46.6</ele>
        <time>2018-05-04T16:55:29Z</time>
      </trkpt>
      <trkpt lat="62.637532345488" lon="17.835817265911">
        <ele>47</ele>
        <time>2018-05-04T16:55:30Z</time>
      </trkpt>
      <trkpt lat="62.637540475931" lon="17.835722885717">
        <ele>47.2</ele>
        <time>2018-05-04T16:55:31Z</time>
      </trkpt>
      <trkpt lat="62.637550366573" lon="17.835632193559">
        <ele>47.2</ele>
        <time>2018-05-04T16:55:32Z</time>
      </trkpt>
      <trkpt lat="62.637562520328" lon="17.835532448949">
        <ele>47.4</ele>
        <time>2018-05-04T16:55:33Z</time>
      </trkpt>
      <trkpt lat="62.637572830065" lon="17.835438739307">
        <ele>47.6</ele>
        <time>2018-05-04T16:55:34Z</time>
      </trkpt>
      <trkpt lat="62.637579451766" lon="17.835345281122">
        <ele>47.8</ele>
        <time>2018-05-04T16:55:35Z</time>
      </trkpt>
      <trkpt lat="62.637590599693" lon="17.835243524856">
        <ele>47.8</ele>
        <time>2018-05-04T16:55:36Z</time>
      </trkpt>
      <trkpt lat="62.637601915258" lon="17.835153754707">
        <ele>48.2</ele>
        <time>2018-05-04T16:55:37Z</time>
      </trkpt>
      <trkpt lat="62.637611973538" lon="17.835051411708">
        <ele>48.4</ele>
        <time>2018-05-04T16:55:38Z</time>
      </trkpt>
      <trkpt lat="62.637622953827" lon="17.834952505288">
        <ele>48.6</ele>
        <time>2018-05-04T16:55:39Z</time>
      </trkpt>
      <trkpt lat="62.637632090098" lon="17.83486181313">
        <ele>48.8</ele>
        <time>2018-05-04T16:55:40Z</time>
      </trkpt>
      <trkpt lat="62.637643321844" lon="17.834758631941">
        <ele>48.8</ele>
        <time>2018-05-04T16:55:41Z</time>
      </trkpt>
      <trkpt lat="62.637655727056" lon="17.834662994462">
        <ele>49</ele>
        <time>2018-05-04T16:55:42Z</time>
      </trkpt>
      <trkpt lat="62.637669724829" lon="17.834558304531">
        <ele>49.2</ele>
        <time>2018-05-04T16:55:43Z</time>
      </trkpt>
      <trkpt lat="62.637679196376" lon="17.834460487758">
        <ele>49.4</ele>
        <time>2018-05-04T16:55:44Z</time>
      </trkpt>
      <trkpt lat="62.637687829733" lon="17.834360826967">
        <ele>49.6</ele>
        <time>2018-05-04T16:55:45Z</time>
      </trkpt>
      <trkpt lat="62.637699312936" lon="17.83426418366">
        <ele>49.8</ele>
        <time>2018-05-04T16:55:46Z</time>
      </trkpt>
      <trkpt lat="62.637710125587" lon="17.834172737131">
        <ele>50</ele>
        <time>2018-05-04T16:55:47Z</time>
      </trkpt>
      <trkpt lat="62.637721357333" lon="17.834062096051">
        <ele>50.4</ele>
        <time>2018-05-04T16:55:48Z</time>
      </trkpt>
      <trkpt lat="62.637733594907" lon="17.833963441088">
        <ele>50.6</ele>
        <time>2018-05-04T16:55:49Z</time>
      </trkpt>
      <trkpt lat="62.637746251576" lon="17.83386269065">
        <ele>51</ele>
        <time>2018-05-04T16:55:50Z</time>
      </trkpt>
      <trkpt lat="62.637757902417" lon="17.833768897189">
        <ele>51.2</ele>
        <time>2018-05-04T16:55:51Z</time>
      </trkpt>
      <trkpt lat="62.637765613765" lon="17.833670577502">
        <ele>51.2</ele>
        <time>2018-05-04T16:55:52Z</time>
      </trkpt>
      <trkpt lat="62.637777264606" lon="17.833565887571">
        <ele>51.2</ele>
        <time>2018-05-04T16:55:53Z</time>
      </trkpt>
      <trkpt lat="62.637792435845" lon="17.833458347794">
        <ele>51.2</ele>
        <time>2018-05-04T16:55:54Z</time>
      </trkpt>
      <trkpt lat="62.637806601256" lon="17.833363632324">
        <ele>51.2</ele>
        <time>2018-05-04T16:55:55Z</time>
      </trkpt>
      <trkpt lat="62.637819174106" lon="17.833254080891">
        <ele>51.2</ele>
        <time>2018-05-04T16:55:56Z</time>
      </trkpt>
      <trkpt lat="62.63782889711" lon="17.833155677385">
        <ele>51.2</ele>
        <time>2018-05-04T16:55:57Z</time>
      </trkpt>
      <trkpt lat="62.637840799408" lon="17.833044198115">
        <ele>51.4</ele>
        <time>2018-05-04T16:55:58Z</time>
      </trkpt>
      <trkpt lat="62.637850857688" lon="17.832947722446">
        <ele>51.4</ele>
        <time>2018-05-04T16:55:59Z</time>
      </trkpt>
      <trkpt lat="62.637862843805" lon="17.832841104678">
        <ele>51.6</ele>
        <time>2018-05-04T16:56:00Z</time>
      </trkpt>
      <trkpt lat="62.637874913741" lon="17.832737923489">
        <ele>51.8</ele>
        <time>2018-05-04T16:56:01Z</time>
      </trkpt>
      <trkpt lat="62.637884888202" lon="17.832639436164">
        <ele>52</ele>
        <time>2018-05-04T16:56:02Z</time>
      </trkpt>
      <trkpt lat="62.637895281758" lon="17.832525861419">
        <ele>52.2</ele>
        <time>2018-05-04T16:56:03Z</time>
      </trkpt>
      <trkpt lat="62.637905004762" lon="17.832417986366">
        <ele>52.4</ele>
        <time>2018-05-04T16:56:04Z</time>
      </trkpt>
      <trkpt lat="62.637917242336" lon="17.832306590915">
        <ele>52.6</ele>
        <time>2018-05-04T16:56:05Z</time>
      </trkpt>
      <trkpt lat="62.637929982824" lon="17.832199386414">
        <ele>52.6</ele>
        <time>2018-05-04T16:56:06Z</time>
      </trkpt>
      <trkpt lat="62.637939957285" lon="17.83209578613">
        <ele>52.8</ele>
        <time>2018-05-04T16:56:07Z</time>
      </trkpt>
      <trkpt lat="62.637949764108" lon="17.831975170589">
        <ele>53</ele>
        <time>2018-05-04T16:56:08Z</time>
      </trkpt>
      <trkpt lat="62.637959151836" lon="17.831863942776">
        <ele>53</ele>
        <time>2018-05-04T16:56:09Z</time>
      </trkpt>
      <trkpt lat="62.637969377754" lon="17.831760677768">
        <ele>53.2</ele>
        <time>2018-05-04T16:56:10Z</time>
      </trkpt>
      <trkpt lat="62.637975077446" lon="17.831673757465">
        <ele>53.2</ele>
        <time>2018-05-04T16:56:11Z</time>
      </trkpt>
      <trkpt lat="62.637985554821" lon="17.831532019536">
        <ele>53.2</ele>
        <time>2018-05-04T16:56:12Z</time>
      </trkpt>
      <trkpt lat="62.637992511798" lon="17.831409476158">
        <ele>53.2</ele>
        <time>2018-05-04T16:56:13Z</time>
      </trkpt>
      <trkpt lat="62.637999720232" lon="17.831298583621">
        <ele>53.2</ele>
        <time>2018-05-04T16:56:14Z</time>
      </trkpt>
      <trkpt lat="62.638008437408" lon="17.831186182342">
        <ele>53.2</ele>
        <time>2018-05-04T16:56:15Z</time>
      </trkpt>
      <trkpt lat="62.638016484032" lon="17.831069590113">
        <ele>53.4</ele>
        <time>2018-05-04T16:56:16Z</time>
      </trkpt>
      <trkpt lat="62.638022267543" lon="17.83096842058">
        <ele>53.4</ele>
        <time>2018-05-04T16:56:17Z</time>
      </trkpt>
      <trkpt lat="62.638029056882" lon="17.830838920225">
        <ele>53.4</ele>
        <time>2018-05-04T16:56:18Z</time>
      </trkpt>
      <trkpt lat="62.638034840393" lon="17.830721405987">
        <ele>53.4</ele>
        <time>2018-05-04T16:56:19Z</time>
      </trkpt>
      <trkpt lat="62.638036516773" lon="17.830607663604">
        <ele>53.4</ele>
        <time>2018-05-04T16:56:20Z</time>
      </trkpt>
      <trkpt lat="62.63804263556" lon="17.830478749982">
        <ele>53.6</ele>
        <time>2018-05-04T16:56:21Z</time>
      </trkpt>
      <trkpt lat="62.638045317768" lon="17.830363750314">
        <ele>53.6</ele>
        <time>2018-05-04T16:56:22Z</time>
      </trkpt>
      <trkpt lat="62.638049927813" lon="17.830245565524">
        <ele>53.8</ele>
        <time>2018-05-04T16:56:23Z</time>
      </trkpt>
      <trkpt lat="62.638055711324" lon="17.830113382961">
        <ele>53.8</ele>
        <time>2018-05-04T16:56:24Z</time>
      </trkpt>
      <trkpt lat="62.638060824283" lon="17.829995952542">
        <ele>54</ele>
        <time>2018-05-04T16:56:25Z</time>
      </trkpt>
      <trkpt lat="62.638067278346" lon="17.829864608169">
        <ele>54</ele>
        <time>2018-05-04T16:56:26Z</time>
      </trkpt>
      <trkpt lat="62.638069290002" lon="17.829744830818">
        <ele>54.2</ele>
        <time>2018-05-04T16:56:27Z</time>
      </trkpt>
      <trkpt lat="62.638073564771" lon="17.829607032382">
        <ele>54.2</ele>
        <time>2018-05-04T16:56:28Z</time>
      </trkpt>
      <trkpt lat="62.638076330798" lon="17.829489937239">
        <ele>54.2</ele>
        <time>2018-05-04T16:56:29Z</time>
      </trkpt>
      <trkpt lat="62.638078761549" lon="17.829356832667">
        <ele>54</ele>
        <time>2018-05-04T16:56:30Z</time>
      </trkpt>
      <trkpt lat="62.638079767377" lon="17.82922749995">
        <ele>54.6</ele>
        <time>2018-05-04T16:56:31Z</time>
      </trkpt>
      <trkpt lat="62.638084042146" lon="17.829104956572">
        <ele>54.6</ele>
        <time>2018-05-04T16:56:32Z</time>
      </trkpt>
      <trkpt lat="62.63808622144" lon="17.828964811204">
        <ele>54.6</ele>
        <time>2018-05-04T16:56:33Z</time>
      </trkpt>
      <trkpt lat="62.638086640535" lon="17.828827012768">
        <ele>54.8</ele>
        <time>2018-05-04T16:56:34Z</time>
      </trkpt>
      <trkpt lat="62.638089155105" lon="17.8286952493">
        <ele>55</ele>
        <time>2018-05-04T16:56:35Z</time>
      </trkpt>
      <trkpt lat="62.638089322743" lon="17.828551164439">
        <ele>55.4</ele>
        <time>2018-05-04T16:56:36Z</time>
      </trkpt>
      <trkpt lat="62.638089825657" lon="17.828421077351">
        <ele>54.8</ele>
        <time>2018-05-04T16:56:37Z</time>
      </trkpt>
      <trkpt lat="62.638089071286" lon="17.828274980834">
        <ele>55</ele>
        <time>2018-05-04T16:56:38Z</time>
      </trkpt>
      <trkpt lat="62.6380895742" lon="17.828131901801">
        <ele>55.2</ele>
        <time>2018-05-04T16:56:39Z</time>
      </trkpt>
      <trkpt lat="62.638089322743" lon="17.827998629591">
        <ele>55</ele>
        <time>2018-05-04T16:56:40Z</time>
      </trkpt>
      <trkpt lat="62.638088233096" lon="17.827852281617">
        <ele>55</ele>
        <time>2018-05-04T16:56:41Z</time>
      </trkpt>
      <trkpt lat="62.638084880336" lon="17.827704173444">
        <ele>55</ele>
        <time>2018-05-04T16:56:42Z</time>
      </trkpt>
      <trkpt lat="62.638082701042" lon="17.827531171028">
        <ele>55</ele>
        <time>2018-05-04T16:56:43Z</time>
      </trkpt>
      <trkpt lat="62.638079935015" lon="17.827383649588">
        <ele>54.8</ele>
        <time>2018-05-04T16:56:44Z</time>
      </trkpt>
      <trkpt lat="62.638075911703" lon="17.827243336582">
        <ele>55</ele>
        <time>2018-05-04T16:56:45Z</time>
      </trkpt>
      <trkpt lat="62.638071469296" lon="17.82710939382">
        <ele>55</ele>
        <time>2018-05-04T16:56:46Z</time>
      </trkpt>
      <trkpt lat="62.638066272518" lon="17.826943096924">
        <ele>55</ele>
        <time>2018-05-04T16:56:47Z</time>
      </trkpt>
      <trkpt lat="62.638060572826" lon="17.826792809457">
        <ele>55</ele>
        <time>2018-05-04T16:56:48Z</time>
      </trkpt>
      <trkpt lat="62.638054118763" lon="17.826639923601">
        <ele>55</ele>
        <time>2018-05-04T16:56:49Z</time>
      </trkpt>
      <trkpt lat="62.638047497062" lon="17.826486870107">
        <ele>54.8</ele>
        <time>2018-05-04T16:56:50Z</time>
      </trkpt>
      <trkpt lat="62.638040623904" lon="17.826338426658">
        <ele>54.8</ele>
        <time>2018-05-04T16:56:51Z</time>
      </trkpt>
      <trkpt lat="62.638035008031" lon="17.826215967099">
        <ele>54.8</ele>
        <time>2018-05-04T16:56:52Z</time>
      </trkpt>
      <trkpt lat="62.638026290855" lon="17.826051765678">
        <ele>55</ele>
        <time>2018-05-04T16:56:53Z</time>
      </trkpt>
      <trkpt lat="62.638017154584" lon="17.825907513179">
        <ele>55</ele>
        <time>2018-05-04T16:56:54Z</time>
      </trkpt>
      <trkpt lat="62.638009359417" lon="17.825761919576">
        <ele>55</ele>
        <time>2018-05-04T16:56:55Z</time>
      </trkpt>
      <trkpt lat="62.638000390784" lon="17.825619259638">
        <ele>55</ele>
        <time>2018-05-04T16:56:56Z</time>
      </trkpt>
      <trkpt lat="62.63799150597" lon="17.825497470631">
        <ele>55</ele>
        <time>2018-05-04T16:56:57Z</time>
      </trkpt>
      <trkpt lat="62.63797977131" lon="17.825358163453">
        <ele>55</ele>
        <time>2018-05-04T16:56:58Z</time>
      </trkpt>
      <trkpt lat="62.637968371926" lon="17.825216174067">
        <ele>55</ele>
        <time>2018-05-04T16:56:59Z</time>
      </trkpt>
      <trkpt lat="62.63795378742" lon="17.825049541895">
        <ele>55</ele>
        <time>2018-05-04T16:57:00Z</time>
      </trkpt>
      <trkpt lat="62.637941298389" lon="17.824907887785">
        <ele>55.2</ele>
        <time>2018-05-04T16:57:01Z</time>
      </trkpt>
      <trkpt lat="62.637932078299" lon="17.824786853149">
        <ele>55.2</ele>
        <time>2018-05-04T16:57:02Z</time>
      </trkpt>
      <trkpt lat="62.637914224852" lon="17.824631368904">
        <ele>55.2</ele>
        <time>2018-05-04T16:57:03Z</time>
      </trkpt>
      <trkpt lat="62.637902490192" lon="17.824500695083">
        <ele>55.2</ele>
        <time>2018-05-04T16:57:04Z</time>
      </trkpt>
      <trkpt lat="62.637888660057" lon="17.824343702096">
        <ele>55.4</ele>
        <time>2018-05-04T16:57:05Z</time>
      </trkpt>
      <trkpt lat="62.637875751931" lon="17.824203556728">
        <ele>55.2</ele>
        <time>2018-05-04T16:57:06Z</time>
      </trkpt>
      <trkpt lat="62.637862592348" lon="17.824084114653">
        <ele>55.4</ele>
        <time>2018-05-04T16:57:07Z</time>
      </trkpt>
      <trkpt lat="62.637846834376" lon="17.823941119439">
        <ele>55.2</ele>
        <time>2018-05-04T16:57:08Z</time>
      </trkpt>
      <trkpt lat="62.637829986757" lon="17.823788233583">
        <ele>55.4</ele>
        <time>2018-05-04T16:57:09Z</time>
      </trkpt>
      <trkpt lat="62.637815988984" lon="17.823669210603">
        <ele>55.2</ele>
        <time>2018-05-04T16:57:10Z</time>
      </trkpt>
      <trkpt lat="62.637797967899" lon="17.823526802122">
        <ele>55.2</ele>
        <time>2018-05-04T16:57:11Z</time>
      </trkpt>
      <trkpt lat="62.637779695357" lon="17.823389171324">
        <ele>55.2</ele>
        <time>2018-05-04T16:57:12Z</time>
      </trkpt>
      <trkpt lat="62.63776184191" lon="17.823240224961">
        <ele>55.4</ele>
        <time>2018-05-04T16:57:13Z</time>
      </trkpt>
      <trkpt lat="62.63774507811" lon="17.823098570851">
        <ele>55.4</ele>
        <time>2018-05-04T16:57:14Z</time>
      </trkpt>
      <trkpt lat="62.637727979034" lon="17.822958006388">
        <ele>55.4</ele>
        <time>2018-05-04T16:57:15Z</time>
      </trkpt>
      <trkpt lat="62.637709957949" lon="17.822818363934">
        <ele>55.4</ele>
        <time>2018-05-04T16:57:16Z</time>
      </trkpt>
      <trkpt lat="62.637687410638" lon="17.822663047327">
        <ele>55.4</ele>
        <time>2018-05-04T16:57:17Z</time>
      </trkpt>
      <trkpt lat="62.637668216087" lon="17.822522650502">
        <ele>55.4</ele>
        <time>2018-05-04T16:57:18Z</time>
      </trkpt>
      <trkpt lat="62.637647931889" lon="17.822379739107">
        <ele>55.4</ele>
        <time>2018-05-04T16:57:19Z</time>
      </trkpt>
      <trkpt lat="62.637629324071" lon="17.822235989522">
        <ele>55.6</ele>
        <time>2018-05-04T16:57:20Z</time>
      </trkpt>
      <trkpt lat="62.637611386805" lon="17.822092239937">
        <ele>55.6</ele>
        <time>2018-05-04T16:57:21Z</time>
      </trkpt>
      <trkpt lat="62.637593449539" lon="17.821973133138">
        <ele>55.8</ele>
        <time>2018-05-04T16:57:22Z</time>
      </trkpt>
      <trkpt lat="62.637570483133" lon="17.821826785164">
        <ele>56</ele>
        <time>2018-05-04T16:57:23Z</time>
      </trkpt>
      <trkpt lat="62.63754894165" lon="17.821675240412">
        <ele>56</ele>
        <time>2018-05-04T16:57:24Z</time>
      </trkpt>
      <trkpt lat="62.637528908909" lon="17.821550014826">
        <ele>56</ele>
        <time>2018-05-04T16:57:25Z</time>
      </trkpt>
      <trkpt lat="62.637504349942" lon="17.821396877513">
        <ele>56</ele>
        <time>2018-05-04T16:57:26Z</time>
      </trkpt>
      <trkpt lat="62.637483646649" lon="17.821262012742">
        <ele>56</ele>
        <time>2018-05-04T16:57:27Z</time>
      </trkpt>
      <trkpt lat="62.637461853709" lon="17.821117676424">
        <ele>56</ele>
        <time>2018-05-04T16:57:28Z</time>
      </trkpt>
      <trkpt lat="62.637443245891" lon="17.820977614875">
        <ele>55.8</ele>
        <time>2018-05-04T16:57:29Z</time>
      </trkpt>
      <trkpt lat="62.637422794055" lon="17.820825902485">
        <ele>56</ele>
        <time>2018-05-04T16:57:30Z</time>
      </trkpt>
      <trkpt lat="62.63740309659" lon="17.82068131471">
        <ele>56</ele>
        <time>2018-05-04T16:57:31Z</time>
      </trkpt>
      <trkpt lat="62.637383231487" lon="17.820547120491">
        <ele>56</ele>
        <time>2018-05-04T16:57:32Z</time>
      </trkpt>
      <trkpt lat="62.637359426891" lon="17.820402448897">
        <ele>56</ele>
        <time>2018-05-04T16:57:33Z</time>
      </trkpt>
      <trkpt lat="62.637339142693" lon="17.820271858895">
        <ele>56</ele>
        <time>2018-05-04T16:57:34Z</time>
      </trkpt>
      <trkpt lat="62.637317852667" lon="17.82013481483">
        <ele>56</ele>
        <time>2018-05-04T16:57:35Z</time>
      </trkpt>
      <trkpt lat="62.637294299528" lon="17.819995172376">
        <ele>55.8</ele>
        <time>2018-05-04T16:57:36Z</time>
      </trkpt>
      <trkpt lat="62.637277871004" lon="17.819876400853">
        <ele>55.8</ele>
        <time>2018-05-04T16:57:37Z</time>
      </trkpt>
      <trkpt lat="62.637258424996" lon="17.819734579105">
        <ele>55.8</ele>
        <time>2018-05-04T16:57:38Z</time>
      </trkpt>
      <trkpt lat="62.637238727531" lon="17.81960424056">
        <ele>55.8</ele>
        <time>2018-05-04T16:57:39Z</time>
      </trkpt>
      <trkpt lat="62.63721953298" lon="17.819483960295">
        <ele>55.8</ele>
        <time>2018-05-04T16:57:40Z</time>
      </trkpt>
      <trkpt lat="62.63719774004" lon="17.819352029189">
        <ele>55.8</ele>
        <time>2018-05-04T16:57:41Z</time>
      </trkpt>
      <trkpt lat="62.637176030919" lon="17.819220433359">
        <ele>55.6</ele>
        <time>2018-05-04T16:57:42Z</time>
      </trkpt>
      <trkpt lat="62.63715331597" lon="17.819090346271">
        <ele>55.4</ele>
        <time>2018-05-04T16:57:43Z</time>
      </trkpt>
      <trkpt lat="62.637131439211" lon="17.818965958875">
        <ele>55</ele>
        <time>2018-05-04T16:57:44Z</time>
      </trkpt>
      <trkpt lat="62.637110903556" lon="17.818835787968">
        <ele>54.8</ele>
        <time>2018-05-04T16:57:45Z</time>
      </trkpt>
      <trkpt lat="62.637092379557" lon="17.818731517132">
        <ele>54.8</ele>
        <time>2018-05-04T16:57:46Z</time>
      </trkpt>
      <trkpt lat="62.637068239685" lon="17.818580391475">
        <ele>54.8</ele>
        <time>2018-05-04T16:57:47Z</time>
      </trkpt>
      <trkpt lat="62.637044854184" lon="17.818432702397">
        <ele>55</ele>
        <time>2018-05-04T16:57:48Z</time>
      </trkpt>
      <trkpt lat="62.637020965769" lon="17.818286354423">
        <ele>55.4</ele>
        <time>2018-05-04T16:57:49Z</time>
      </trkpt>
      <trkpt lat="62.637001435942" lon="17.818172695859">
        <ele>55.4</ele>
        <time>2018-05-04T16:57:50Z</time>
      </trkpt>
      <trkpt lat="62.636975535871" lon="17.818021989297">
        <ele>55.6</ele>
        <time>2018-05-04T16:57:51Z</time>
      </trkpt>
      <trkpt lat="62.636953910569" lon="17.817881173377">
        <ele>55.8</ele>
        <time>2018-05-04T16:57:52Z</time>
      </trkpt>
      <trkpt lat="62.636930273611" lon="17.817754439049">
        <ele>56</ele>
        <time>2018-05-04T16:57:53Z</time>
      </trkpt>
      <trkpt lat="62.636903954445" lon="17.817609683636">
        <ele>56.2</ele>
        <time>2018-05-04T16:57:54Z</time>
      </trkpt>
      <trkpt lat="62.636883083514" lon="17.817478506901">
        <ele>56.4</ele>
        <time>2018-05-04T16:57:55Z</time>
      </trkpt>
      <trkpt lat="62.636859446556" lon="17.817328973805">
        <ele>56.4</ele>
        <time>2018-05-04T16:57:56Z</time>
      </trkpt>
      <trkpt lat="62.636835809598" lon="17.817195450138">
        <ele>56.6</ele>
        <time>2018-05-04T16:57:57Z</time>
      </trkpt>
      <trkpt lat="62.636811921183" lon="17.817050778544">
        <ele>56.8</ele>
        <time>2018-05-04T16:57:58Z</time>
      </trkpt>
      <trkpt lat="62.636788284225" lon="17.816916249049">
        <ele>56.6</ele>
        <time>2018-05-04T16:57:59Z</time>
      </trkpt>
      <trkpt lat="62.636765317819" lon="17.816778282975">
        <ele>56.6</ele>
        <time>2018-05-04T16:58:00Z</time>
      </trkpt>
      <trkpt lat="62.636740507395" lon="17.816635455399">
        <ele>56.4</ele>
        <time>2018-05-04T16:58:01Z</time>
      </trkpt>
      <trkpt lat="62.636714523505" lon="17.816502350827">
        <ele>56.4</ele>
        <time>2018-05-04T16:58:02Z</time>
      </trkpt>
      <trkpt lat="62.636686695597" lon="17.816354075016">
        <ele>56.2</ele>
        <time>2018-05-04T16:58:03Z</time>
      </trkpt>
      <trkpt lat="62.636659202965" lon="17.816210660707">
        <ele>56.2</ele>
        <time>2018-05-04T16:58:04Z</time>
      </trkpt>
      <trkpt lat="62.636630872143" lon="17.816065486199">
        <ele>56.2</ele>
        <time>2018-05-04T16:58:05Z</time>
      </trkpt>
      <trkpt lat="62.636603882425" lon="17.815917545664">
        <ele>56.2</ele>
        <time>2018-05-04T16:58:06Z</time>
      </trkpt>
      <trkpt lat="62.636576222155" lon="17.815780669237">
        <ele>56</ele>
        <time>2018-05-04T16:58:07Z</time>
      </trkpt>
      <trkpt lat="62.636545460582" lon="17.815629040666">
        <ele>56.2</ele>
        <time>2018-05-04T16:58:08Z</time>
      </trkpt>
      <trkpt lat="62.636515872475" lon="17.815485039624">
        <ele>56.2</ele>
        <time>2018-05-04T16:58:09Z</time>
      </trkpt>
      <trkpt lat="62.636485697635" lon="17.815346570636">
        <ele>56</ele>
        <time>2018-05-04T16:58:10Z</time>
      </trkpt>
      <trkpt lat="62.636452505311" lon="17.815191589305">
        <ele>55.8</ele>
        <time>2018-05-04T16:58:11Z</time>
      </trkpt>
      <trkpt lat="62.636422498109" lon="17.815042894399">
        <ele>55.6</ele>
        <time>2018-05-04T16:58:12Z</time>
      </trkpt>
      <trkpt lat="62.636385031016" lon="17.814877770969">
        <ele>55.4</ele>
        <time>2018-05-04T16:58:13Z</time>
      </trkpt>
      <trkpt lat="62.636350162312" lon="17.814727818778">
        <ele>55.2</ele>
        <time>2018-05-04T16:58:14Z</time>
      </trkpt>
      <trkpt lat="62.636315293608" lon="17.814585410297">
        <ele>55.2</ele>
        <time>2018-05-04T16:58:15Z</time>
      </trkpt>
      <trkpt lat="62.636277994153" lon="17.814442163626">
        <ele>55</ele>
        <time>2018-05-04T16:58:16Z</time>
      </trkpt>
      <trkpt lat="62.636240610879" lon="17.814300677154">
        <ele>54.8</ele>
        <time>2018-05-04T16:58:17Z</time>
      </trkpt>
      <trkpt lat="62.636202892329" lon="17.814159861234">
        <ele>54.4</ele>
        <time>2018-05-04T16:58:18Z</time>
      </trkpt>
      <trkpt lat="62.636163329761" lon="17.814019296771">
        <ele>54.4</ele>
        <time>2018-05-04T16:58:19Z</time>
      </trkpt>
      <trkpt lat="62.636126030306" lon="17.813897759221">
        <ele>54.2</ele>
        <time>2018-05-04T16:58:20Z</time>
      </trkpt>
      <trkpt lat="62.636085210453" lon="17.813758284405">
        <ele>54</ele>
        <time>2018-05-04T16:58:21Z</time>
      </trkpt>
      <trkpt lat="62.63604606698" lon="17.813641440719">
        <ele>54</ele>
        <time>2018-05-04T16:58:22Z</time>
      </trkpt>
      <trkpt lat="62.636003151652" lon="17.813501546808">
        <ele>54</ele>
        <time>2018-05-04T16:58:23Z</time>
      </trkpt>
      <trkpt lat="62.635958140849" lon="17.81335972506">
        <ele>54</ele>
        <time>2018-05-04T16:58:24Z</time>
      </trkpt>
      <trkpt lat="62.635915393159" lon="17.813230979076">
        <ele>54</ele>
        <time>2018-05-04T16:58:25Z</time>
      </trkpt>
      <trkpt lat="62.635865688492" lon="17.813090246975">
        <ele>53.8</ele>
        <time>2018-05-04T16:58:26Z</time>
      </trkpt>
      <trkpt lat="62.63582143206" lon="17.812969296158">
        <ele>53.8</ele>
        <time>2018-05-04T16:58:27Z</time>
      </trkpt>
      <trkpt lat="62.635768039357" lon="17.812838622337">
        <ele>53.6</ele>
        <time>2018-05-04T16:58:28Z</time>
      </trkpt>
      <trkpt lat="62.635720765441" lon="17.812718174434">
        <ele>53.4</ele>
        <time>2018-05-04T16:58:29Z</time>
      </trkpt>
      <trkpt lat="62.635667875652" lon="17.81258942845">
        <ele>53.2</ele>
        <time>2018-05-04T16:58:30Z</time>
      </trkpt>
      <trkpt lat="62.63561859008" lon="17.812463867588">
        <ele>53</ele>
        <time>2018-05-04T16:58:31Z</time>
      </trkpt>
      <trkpt lat="62.635571819078" lon="17.812358171829">
        <ele>52.8</ele>
        <time>2018-05-04T16:58:32Z</time>
      </trkpt>
      <trkpt lat="62.635514989796" lon="17.812241495781">
        <ele>52.8</ele>
        <time>2018-05-04T16:58:33Z</time>
      </trkpt>
      <trkpt lat="62.635460675084" lon="17.812138566049">
        <ele>52.6</ele>
        <time>2018-05-04T16:58:34Z</time>
      </trkpt>
      <trkpt lat="62.635406611829" lon="17.81203957581">
        <ele>52.6</ele>
        <time>2018-05-04T16:58:35Z</time>
      </trkpt>
      <trkpt lat="62.635350201642" lon="17.811927509807">
        <ele>52.4</ele>
        <time>2018-05-04T16:58:36Z</time>
      </trkpt>
      <trkpt lat="62.635297311853" lon="17.811828771025">
        <ele>52.4</ele>
        <time>2018-05-04T16:58:37Z</time>
      </trkpt>
      <trkpt lat="62.635238973829" lon="17.811720476877">
        <ele>52.4</ele>
        <time>2018-05-04T16:58:38Z</time>
      </trkpt>
      <trkpt lat="62.635183318013" lon="17.811619894077">
        <ele>52.4</ele>
        <time>2018-05-04T16:58:39Z</time>
      </trkpt>
      <trkpt lat="62.635132691337" lon="17.811525430064">
        <ele>52.4</ele>
        <time>2018-05-04T16:58:40Z</time>
      </trkpt>
      <trkpt lat="62.635076784064" lon="17.811419399029">
        <ele>52.6</ele>
        <time>2018-05-04T16:58:41Z</time>
      </trkpt>
      <trkpt lat="62.63502096061" lon="17.811318397134">
        <ele>52.8</ele>
        <time>2018-05-04T16:58:42Z</time>
      </trkpt>
      <trkpt lat="62.634961113844" lon="17.811211024995">
        <ele>53</ele>
        <time>2018-05-04T16:58:43Z</time>
      </trkpt>
      <trkpt lat="62.634904787476" lon="17.811111112747">
        <ele>53.4</ele>
        <time>2018-05-04T16:58:44Z</time>
      </trkpt>
      <trkpt lat="62.634849550755" lon="17.811017738381">
        <ele>53.6</ele>
        <time>2018-05-04T16:58:45Z</time>
      </trkpt>
      <trkpt lat="62.634795319862" lon="17.81091891578">
        <ele>53.6</ele>
        <time>2018-05-04T16:58:46Z</time>
      </trkpt>
      <trkpt lat="62.634759110054" lon="17.810854794245">
        <ele>53.6</ele>
        <time>2018-05-04T16:58:47Z</time>
      </trkpt>
      <trkpt lat="62.634682918583" lon="17.810730406849">
        <ele>53.8</ele>
        <time>2018-05-04T16:58:48Z</time>
      </trkpt>
      <trkpt lat="62.63462952588" lon="17.810635356103">
        <ele>54</ele>
        <time>2018-05-04T16:58:49Z</time>
      </trkpt>
      <trkpt lat="62.634574708254" lon="17.810539634805">
        <ele>54</ele>
        <time>2018-05-04T16:58:50Z</time>
      </trkpt>
      <trkpt lat="62.634522740474" lon="17.810446008982">
        <ele>53.8</ele>
        <time>2018-05-04T16:58:51Z</time>
      </trkpt>
      <trkpt lat="62.634474544549" lon="17.810357077023">
        <ele>53.8</ele>
        <time>2018-05-04T16:58:52Z</time>
      </trkpt>
      <trkpt lat="62.634421403303" lon="17.810264624666">
        <ele>53.6</ele>
        <time>2018-05-04T16:58:53Z</time>
      </trkpt>
      <trkpt lat="62.634365998944" lon="17.810168232816">
        <ele>53.4</ele>
        <time>2018-05-04T16:58:54Z</time>
      </trkpt>
      <trkpt lat="62.634317300105" lon="17.810080474323">
        <ele>53.2</ele>
        <time>2018-05-04T16:58:55Z</time>
      </trkpt>
      <trkpt lat="62.634262817755" lon="17.809978550419">
        <ele>53.4</ele>
        <time>2018-05-04T16:58:56Z</time>
      </trkpt>
      <trkpt lat="62.634215208563" lon="17.809888864089">
        <ele>53.2</ele>
        <time>2018-05-04T16:58:57Z</time>
      </trkpt>
      <trkpt lat="62.634162234955" lon="17.809788029832">
        <ele>53.4</ele>
        <time>2018-05-04T16:58:58Z</time>
      </trkpt>
      <trkpt lat="62.634114541944" lon="17.809695912751">
        <ele>53.4</ele>
        <time>2018-05-04T16:58:59Z</time>
      </trkpt>
      <trkpt lat="62.634064082906" lon="17.809591809553">
        <ele>53.4</ele>
        <time>2018-05-04T16:59:00Z</time>
      </trkpt>
      <trkpt lat="62.634016892809" lon="17.809487790174">
        <ele>53.4</ele>
        <time>2018-05-04T16:59:01Z</time>
      </trkpt>
      <trkpt lat="62.633973726024" lon="17.809391482143">
        <ele>53.6</ele>
        <time>2018-05-04T16:59:02Z</time>
      </trkpt>
      <trkpt lat="62.633926116832" lon="17.809280086692">
        <ele>53.8</ele>
        <time>2018-05-04T16:59:03Z</time>
      </trkpt>
      <trkpt lat="62.633879262011" lon="17.809176654046">
        <ele>53.8</ele>
        <time>2018-05-04T16:59:04Z</time>
      </trkpt>
      <trkpt lat="62.63383659814" lon="17.809072802305">
        <ele>54</ele>
        <time>2018-05-04T16:59:05Z</time>
      </trkpt>
      <trkpt lat="62.633789994776" lon="17.80895838937">
        <ele>53.8</ele>
        <time>2018-05-04T16:59:06Z</time>
      </trkpt>
      <trkpt lat="62.633773398614" lon="17.808916647508">
        <ele>53.8</ele>
        <time>2018-05-04T16:59:07Z</time>
      </trkpt>
      <trkpt lat="62.633707433061" lon="17.808754038648">
        <ele>53.8</ele>
        <time>2018-05-04T16:59:08Z</time>
      </trkpt>
      <trkpt lat="62.633661164973" lon="17.808635267125">
        <ele>53.6</ele>
        <time>2018-05-04T16:59:09Z</time>
      </trkpt>
      <trkpt lat="62.633640880775" lon="17.808578605481">
        <ele>53.6</ele>
        <time>2018-05-04T16:59:10Z</time>
      </trkpt>
      <trkpt lat="62.633582878027" lon="17.808407447083">
        <ele>53.6</ele>
        <time>2018-05-04T16:59:11Z</time>
      </trkpt>
      <trkpt lat="62.633544321287" lon="17.808287250637">
        <ele>53.6</ele>
        <time>2018-05-04T16:59:12Z</time>
      </trkpt>
      <trkpt lat="62.633502579425" lon="17.80815624154">
        <ele>53.4</ele>
        <time>2018-05-04T16:59:13Z</time>
      </trkpt>
      <trkpt lat="62.633464777056" lon="17.808029171936">
        <ele>53.6</ele>
        <time>2018-05-04T16:59:14Z</time>
      </trkpt>
      <trkpt lat="62.633426220316" lon="17.807903611074">
        <ele>53.4</ele>
        <time>2018-05-04T16:59:15Z</time>
      </trkpt>
      <trkpt lat="62.6333873283" lon="17.807778134031">
        <ele>53.4</ele>
        <time>2018-05-04T16:59:16Z</time>
      </trkpt>
      <trkpt lat="62.633354387433" lon="17.807661457983">
        <ele>53.2</ele>
        <time>2018-05-04T16:59:17Z</time>
      </trkpt>
      <trkpt lat="62.633313483761" lon="17.807510499964">
        <ele>53.2</ele>
        <time>2018-05-04T16:59:18Z</time>
      </trkpt>
      <trkpt lat="62.633277860686" lon="17.807375216098">
        <ele>53</ele>
        <time>2018-05-04T16:59:19Z</time>
      </trkpt>
      <trkpt lat="62.633240058317" lon="17.807235573644">
        <ele>52.8</ele>
        <time>2018-05-04T16:59:20Z</time>
      </trkpt>
      <trkpt lat="62.63320544107" lon="17.807098110484">
        <ele>52.8</ele>
        <time>2018-05-04T16:59:21Z</time>
      </trkpt>
      <trkpt lat="62.63317191347" lon="17.806961736971">
        <ele>52.6</ele>
        <time>2018-05-04T16:59:22Z</time>
      </trkpt>
      <trkpt lat="62.633134697834" lon="17.806811617142">
        <ele>52.6</ele>
        <time>2018-05-04T16:59:23Z</time>
      </trkpt>
      <trkpt lat="62.633097733655" lon="17.806660659123">
        <ele>52.6</ele>
        <time>2018-05-04T16:59:24Z</time>
      </trkpt>
      <trkpt lat="62.633062194399" lon="17.806521519583">
        <ele>52.4</ele>
        <time>2018-05-04T16:59:25Z</time>
      </trkpt>
      <trkpt lat="62.633027493333" lon="17.806377267084">
        <ele>52.4</ele>
        <time>2018-05-04T16:59:26Z</time>
      </trkpt>
      <trkpt lat="62.632993965733" lon="17.806233936594">
        <ele>52.2</ele>
        <time>2018-05-04T16:59:27Z</time>
      </trkpt>
      <trkpt lat="62.63295733683" lon="17.806081218376">
        <ele>52</ele>
        <time>2018-05-04T16:59:28Z</time>
      </trkpt>
      <trkpt lat="62.63292297104" lon="17.805938726076">
        <ele>51.8</ele>
        <time>2018-05-04T16:59:29Z</time>
      </trkpt>
      <trkpt lat="62.63288776706" lon="17.805784750573">
        <ele>51.6</ele>
        <time>2018-05-04T16:59:30Z</time>
      </trkpt>
      <trkpt lat="62.632855412926" lon="17.805647706508">
        <ele>51.2</ele>
        <time>2018-05-04T16:59:31Z</time>
      </trkpt>
      <trkpt lat="62.632824148439" lon="17.805511500633">
        <ele>51.2</ele>
        <time>2018-05-04T16:59:32Z</time>
      </trkpt>
      <trkpt lat="62.632787351898" lon="17.805358530958">
        <ele>51</ele>
        <time>2018-05-04T16:59:33Z</time>
      </trkpt>
      <trkpt lat="62.632755835954" lon="17.805218804685">
        <ele>51</ele>
        <time>2018-05-04T16:59:34Z</time>
      </trkpt>
      <trkpt lat="62.632725325838" lon="17.805082934086">
        <ele>51</ele>
        <time>2018-05-04T16:59:35Z</time>
      </trkpt>
      <trkpt lat="62.632693642256" lon="17.804935580284">
        <ele>51.2</ele>
        <time>2018-05-04T16:59:36Z</time>
      </trkpt>
      <trkpt lat="62.632666903995" lon="17.804809851784">
        <ele>51.2</ele>
        <time>2018-05-04T16:59:37Z</time>
      </trkpt>
      <trkpt lat="62.63263631006" lon="17.804670293149">
        <ele>51.2</ele>
        <time>2018-05-04T16:59:38Z</time>
      </trkpt>
      <trkpt lat="62.632609655618" lon="17.804546576305">
        <ele>51.4</ele>
        <time>2018-05-04T16:59:39Z</time>
      </trkpt>
      <trkpt lat="62.632596831311" lon="17.804487651548">
        <ele>51.6</ele>
        <time>2018-05-04T16:59:40Z</time>
      </trkpt>
      <trkpt lat="62.632559280399" lon="17.804311547829">
        <ele>51.8</ele>
        <time>2018-05-04T16:59:41Z</time>
      </trkpt>
      <trkpt lat="62.632536146355" lon="17.804196045247">
        <ele>51.8</ele>
        <time>2018-05-04T16:59:42Z</time>
      </trkpt>
      <trkpt lat="62.632512509397" lon="17.804077609">
        <ele>52.2</ele>
        <time>2018-05-04T16:59:43Z</time>
      </trkpt>
      <trkpt lat="62.632492309018" lon="17.803963279884">
        <ele>52.4</ele>
        <time>2018-05-04T16:59:44Z</time>
      </trkpt>
      <trkpt lat="62.632481915462" lon="17.803910138638">
        <ele>52.6</ele>
        <time>2018-05-04T16:59:45Z</time>
      </trkpt>
      <trkpt lat="62.632449812785" lon="17.803751050176">
        <ele>52.8</ele>
        <time>2018-05-04T16:59:46Z</time>
      </trkpt>
      <trkpt lat="62.632437742849" lon="17.803671338307">
        <ele>53</ele>
        <time>2018-05-04T16:59:47Z</time>
      </trkpt>
      <trkpt lat="62.632416201366" lon="17.803529097464">
        <ele>53.2</ele>
        <time>2018-05-04T16:59:48Z</time>
      </trkpt>
      <trkpt lat="62.632400862489" lon="17.803422060601">
        <ele>53.4</ele>
        <time>2018-05-04T16:59:49Z</time>
      </trkpt>
      <trkpt lat="62.632383428137" lon="17.803318376498">
        <ele>53.6</ele>
        <time>2018-05-04T16:59:50Z</time>
      </trkpt>
      <trkpt lat="62.632368592174" lon="17.803214524757">
        <ele>53.8</ele>
        <time>2018-05-04T16:59:51Z</time>
      </trkpt>
      <trkpt lat="62.632353923849" lon="17.803119222554">
        <ele>54</ele>
        <time>2018-05-04T16:59:52Z</time>
      </trkpt>
      <trkpt lat="62.632338082058" lon="17.803017969202">
        <ele>54.2</ele>
        <time>2018-05-04T16:59:53Z</time>
      </trkpt>
      <trkpt lat="62.63232450338" lon="17.802910429425">
        <ele>54.6</ele>
        <time>2018-05-04T16:59:54Z</time>
      </trkpt>
      <trkpt lat="62.632314780376" lon="17.802814624308">
        <ele>54.8</ele>
        <time>2018-05-04T16:59:55Z</time>
      </trkpt>
      <trkpt lat="62.63230019587" lon="17.802711024024">
        <ele>55.2</ele>
        <time>2018-05-04T16:59:56Z</time>
      </trkpt>
      <trkpt lat="62.632287287744" lon="17.802615973278">
        <ele>55.4</ele>
        <time>2018-05-04T16:59:57Z</time>
      </trkpt>
      <trkpt lat="62.63227505017" lon="17.802511199528">
        <ele>55.4</ele>
        <time>2018-05-04T16:59:58Z</time>
      </trkpt>
      <trkpt lat="62.632263986062" lon="17.802411035823">
        <ele>55.6</ele>
        <time>2018-05-04T16:59:59Z</time>
      </trkpt>
      <trkpt lat="62.632254849791" lon="17.80230483715">
        <ele>55.8</ele>
        <time>2018-05-04T17:00:00Z</time>
      </trkpt>
      <trkpt lat="62.632243450407" lon="17.802203583798">
        <ele>56</ele>
        <time>2018-05-04T17:00:01Z</time>
      </trkpt>
      <trkpt lat="62.632233056851" lon="17.802108365414">
        <ele>56</ele>
        <time>2018-05-04T17:00:02Z</time>
      </trkpt>
      <trkpt lat="62.632222160381" lon="17.801994958307">
        <ele>56.2</ele>
        <time>2018-05-04T17:00:03Z</time>
      </trkpt>
      <trkpt lat="62.632214029938" lon="17.801893788774">
        <ele>56.2</ele>
        <time>2018-05-04T17:00:04Z</time>
      </trkpt>
      <trkpt lat="62.632207911151" lon="17.801794044164">
        <ele>56.4</ele>
        <time>2018-05-04T17:00:05Z</time>
      </trkpt>
      <trkpt lat="62.632200954174" lon="17.801683654541">
        <ele>56.6</ele>
        <time>2018-05-04T17:00:06Z</time>
      </trkpt>
      <trkpt lat="62.632192320817" lon="17.801582820284">
        <ele>56.6</ele>
        <time>2018-05-04T17:00:07Z</time>
      </trkpt>
      <trkpt lat="62.632186118211" lon="17.801467820616">
        <ele>56.8</ele>
        <time>2018-05-04T17:00:08Z</time>
      </trkpt>
      <trkpt lat="62.632181256709" lon="17.801359526468">
        <ele>57</ele>
        <time>2018-05-04T17:00:09Z</time>
      </trkpt>
      <trkpt lat="62.632174718827" lon="17.801257602564">
        <ele>57.2</ele>
        <time>2018-05-04T17:00:10Z</time>
      </trkpt>
      <trkpt lat="62.632168013307" lon="17.801144698371">
        <ele>57.4</ele>
        <time>2018-05-04T17:00:11Z</time>
      </trkpt>
      <trkpt lat="62.63216021814" lon="17.80103581749">
        <ele>57.4</ele>
        <time>2018-05-04T17:00:12Z</time>
      </trkpt>
      <trkpt lat="62.632154602267" lon="17.8009176327">
        <ele>57.4</ele>
        <time>2018-05-04T17:00:13Z</time>
      </trkpt>
      <trkpt lat="62.632149489308" lon="17.800808919457">
        <ele>57.6</ele>
        <time>2018-05-04T17:00:14Z</time>
      </trkpt>
      <trkpt lat="62.632144795444" lon="17.800696601997">
        <ele>57.8</ele>
        <time>2018-05-04T17:00:15Z</time>
      </trkpt>
      <trkpt lat="62.632140520675" lon="17.800585290365">
        <ele>57.8</ele>
        <time>2018-05-04T17:00:16Z</time>
      </trkpt>
      <trkpt lat="62.632134485707" lon="17.800483031185">
        <ele>58.2</ele>
        <time>2018-05-04T17:00:17Z</time>
      </trkpt>
      <trkpt lat="62.632129372748" lon="17.800355793943">
        <ele>58.4</ele>
        <time>2018-05-04T17:00:18Z</time>
      </trkpt>
      <trkpt lat="62.632124846522" lon="17.800242973569">
        <ele>58.4</ele>
        <time>2018-05-04T17:00:19Z</time>
      </trkpt>
      <trkpt lat="62.632121326124" lon="17.800126800435">
        <ele>58.6</ele>
        <time>2018-05-04T17:00:20Z</time>
      </trkpt>
      <trkpt lat="62.632115710251" lon="17.800009537654">
        <ele>58.6</ele>
        <time>2018-05-04T17:00:21Z</time>
      </trkpt>
      <trkpt lat="62.632114285328" lon="17.799900489135">
        <ele>58.8</ele>
        <time>2018-05-04T17:00:22Z</time>
      </trkpt>
      <trkpt lat="62.632109842921" lon="17.799779789775">
        <ele>58.8</ele>
        <time>2018-05-04T17:00:23Z</time>
      </trkpt>
      <trkpt lat="62.632105651971" lon="17.79965280399">
        <ele>59</ele>
        <time>2018-05-04T17:00:24Z</time>
      </trkpt>
      <trkpt lat="62.632099700822" lon="17.799535625028">
        <ele>59.2</ele>
        <time>2018-05-04T17:00:25Z</time>
      </trkpt>
      <trkpt lat="62.632093498216" lon="17.799405286483">
        <ele>59.4</ele>
        <time>2018-05-04T17:00:26Z</time>
      </trkpt>
      <trkpt lat="62.63208981018" lon="17.799288610435">
        <ele>59.6</ele>
        <time>2018-05-04T17:00:27Z</time>
      </trkpt>
      <trkpt lat="62.632085200135" lon="17.799156763148">
        <ele>59.8</ele>
        <time>2018-05-04T17:00:28Z</time>
      </trkpt>
      <trkpt lat="62.632076902054" lon="17.799036650521">
        <ele>59.8</ele>
        <time>2018-05-04T17:00:29Z</time>
      </trkpt>
      <trkpt lat="62.632065921765" lon="17.798903294492">
        <ele>60</ele>
        <time>2018-05-04T17:00:30Z</time>
      </trkpt>
      <trkpt lat="62.632059048607" lon="17.798771363386">
        <ele>59.8</ele>
        <time>2018-05-04T17:00:31Z</time>
      </trkpt>
      <trkpt lat="62.632053432734" lon="17.798646640714">
        <ele>59.6</ele>
        <time>2018-05-04T17:00:32Z</time>
      </trkpt>
      <trkpt lat="62.632045805205" lon="17.798505740975">
        <ele>59.6</ele>
        <time>2018-05-04T17:00:33Z</time>
      </trkpt>
      <trkpt lat="62.632034657278" lon="17.798375737706">
        <ele>59.2</ele>
        <time>2018-05-04T17:00:34Z</time>
      </trkpt>
      <trkpt lat="62.632023760808" lon="17.798243638962">
        <ele>59</ele>
        <time>2018-05-04T17:00:35Z</time>
      </trkpt>
      <trkpt lat="62.632011104139" lon="17.798096620436">
        <ele>58.8</ele>
        <time>2018-05-04T17:00:36Z</time>
      </trkpt>
      <trkpt lat="62.631998028375" lon="17.797962426217">
        <ele>58.8</ele>
        <time>2018-05-04T17:00:37Z</time>
      </trkpt>
      <trkpt lat="62.631979504376" lon="17.797812222569">
        <ele>58.6</ele>
        <time>2018-05-04T17:00:38Z</time>
      </trkpt>
      <trkpt lat="62.631961148015" lon="17.797665036405">
        <ele>58.6</ele>
        <time>2018-05-04T17:00:39Z</time>
      </trkpt>
      <trkpt lat="62.631944384215" lon="17.79752631596">
        <ele>58.6</ele>
        <time>2018-05-04T17:00:40Z</time>
      </trkpt>
      <trkpt lat="62.63192803951" lon="17.797385080945">
        <ele>58.4</ele>
        <time>2018-05-04T17:00:41Z</time>
      </trkpt>
      <trkpt lat="62.63190876114" lon="17.797236134582">
        <ele>58.4</ele>
        <time>2018-05-04T17:00:42Z</time>
      </trkpt>
      <trkpt lat="62.63188529182" lon="17.797088194047">
        <ele>57.8</ele>
        <time>2018-05-04T17:00:43Z</time>
      </trkpt>
      <trkpt lat="62.631863331242" lon="17.796948048679">
        <ele>57.6</ele>
        <time>2018-05-04T17:00:44Z</time>
      </trkpt>
      <trkpt lat="62.631840951569" lon="17.796806226931">
        <ele>57.4</ele>
        <time>2018-05-04T17:00:45Z</time>
      </trkpt>
      <trkpt lat="62.631815805869" lon="17.796667422667">
        <ele>57.2</ele>
        <time>2018-05-04T17:00:46Z</time>
      </trkpt>
      <trkpt lat="62.631798874431" lon="17.796574299758">
        <ele>57.2</ele>
        <time>2018-05-04T17:00:47Z</time>
      </trkpt>
      <trkpt lat="62.631764341003" lon="17.796387299569">
        <ele>57</ele>
        <time>2018-05-04T17:00:48Z</time>
      </trkpt>
      <trkpt lat="62.631738021837" lon="17.796252099522">
        <ele>56.8</ele>
        <time>2018-05-04T17:00:49Z</time>
      </trkpt>
      <trkpt lat="62.631709774834" lon="17.796113881991">
        <ele>56.6</ele>
        <time>2018-05-04T17:00:50Z</time>
      </trkpt>
      <trkpt lat="62.631680605822" lon="17.795985136007">
        <ele>56.6</ele>
        <time>2018-05-04T17:00:51Z</time>
      </trkpt>
      <trkpt lat="62.631654538113" lon="17.795863179362">
        <ele>56.4</ele>
        <time>2018-05-04T17:00:52Z</time>
      </trkpt>
      <trkpt lat="62.63162377654" lon="17.795734852473">
        <ele>56.2</ele>
        <time>2018-05-04T17:00:53Z</time>
      </trkpt>
      <trkpt lat="62.631592428234" lon="17.795603675738">
        <ele>56.2</ele>
        <time>2018-05-04T17:00:54Z</time>
      </trkpt>
      <trkpt lat="62.631565689973" lon="17.795489095165">
        <ele>56.4</ele>
        <time>2018-05-04T17:00:55Z</time>
      </trkpt>
      <trkpt lat="62.631533084382" lon="17.795364707769">
        <ele>56.6</ele>
        <time>2018-05-04T17:00:56Z</time>
      </trkpt>
      <trkpt lat="62.63150642994" lon="17.795252557947">
        <ele>56.6</ele>
        <time>2018-05-04T17:00:57Z</time>
      </trkpt>
      <trkpt lat="62.631476590376" lon="17.79513076894">
        <ele>56.8</ele>
        <time>2018-05-04T17:00:58Z</time>
      </trkpt>
      <trkpt lat="62.631450606486" lon="17.795022474792">
        <ele>56.8</ele>
        <time>2018-05-04T17:00:59Z</time>
      </trkpt>
      <trkpt lat="62.631421353655" lon="17.794903367993">
        <ele>56.6</ele>
        <time>2018-05-04T17:01:00Z</time>
      </trkpt>
      <trkpt lat="62.631397129964" lon="17.794788200687">
        <ele>56.6</ele>
        <time>2018-05-04T17:01:01Z</time>
      </trkpt>
      <trkpt lat="62.631375169386" lon="17.794690635371">
        <ele>56.6</ele>
        <time>2018-05-04T17:01:02Z</time>
      </trkpt>
      <trkpt lat="62.631345078365" lon="17.794574713694">
        <ele>56.4</ele>
        <time>2018-05-04T17:01:03Z</time>
      </trkpt>
      <trkpt lat="62.631318926837" lon="17.794472035419">
        <ele>56.4</ele>
        <time>2018-05-04T17:01:04Z</time>
      </trkpt>
      <trkpt lat="62.63129520606" lon="17.794377739044">
        <ele>56.6</ele>
        <time>2018-05-04T17:01:05Z</time>
      </trkpt>
      <trkpt lat="62.63126754579" lon="17.794267517059">
        <ele>56.6</ele>
        <time>2018-05-04T17:01:06Z</time>
      </trkpt>
      <trkpt lat="62.631245501393" lon="17.794177830729">
        <ele>56.8</ele>
        <time>2018-05-04T17:01:07Z</time>
      </trkpt>
      <trkpt lat="62.631222451168" lon="17.794071548237">
        <ele>56.8</ele>
        <time>2018-05-04T17:01:08Z</time>
      </trkpt>
      <trkpt lat="62.631200993504" lon="17.793974402016">
        <ele>57.2</ele>
        <time>2018-05-04T17:01:09Z</time>
      </trkpt>
      <trkpt lat="62.631178949107" lon="17.793888487541">
        <ele>57.4</ele>
        <time>2018-05-04T17:01:10Z</time>
      </trkpt>
      <trkpt lat="62.631159335461" lon="17.79381732521">
        <ele>57.6</ele>
        <time>2018-05-04T17:01:11Z</time>
      </trkpt>
      <trkpt lat="62.631132932476" lon="17.793705175388">
        <ele>57.8</ele>
        <time>2018-05-04T17:01:12Z</time>
      </trkpt>
      <trkpt lat="62.631109379337" lon="17.793607693891">
        <ele>58</ele>
        <time>2018-05-04T17:01:13Z</time>
      </trkpt>
      <trkpt lat="62.631088256949" lon="17.793514822439">
        <ele>58.2</ele>
        <time>2018-05-04T17:01:14Z</time>
      </trkpt>
      <trkpt lat="62.631065458181" lon="17.793422705358">
        <ele>58.4</ele>
        <time>2018-05-04T17:01:15Z</time>
      </trkpt>
      <trkpt lat="62.631044503431" lon="17.793331426467">
        <ele>58.8</ele>
        <time>2018-05-04T17:01:16Z</time>
      </trkpt>
      <trkpt lat="62.631028577821" lon="17.793253474797">
        <ele>59</ele>
        <time>2018-05-04T17:01:17Z</time>
      </trkpt>
      <trkpt lat="62.631006952519" lon="17.793141995527">
        <ele>59.2</ele>
        <time>2018-05-04T17:01:18Z</time>
      </trkpt>
      <trkpt lat="62.630988177063" lon="17.793050884274">
        <ele>59.4</ele>
        <time>2018-05-04T17:01:19Z</time>
      </trkpt>
      <trkpt lat="62.630969233969" lon="17.79295566589">
        <ele>59.4</ele>
        <time>2018-05-04T17:01:20Z</time>
      </trkpt>
      <trkpt lat="62.630946938115" lon="17.792862040067">
        <ele>59.4</ele>
        <time>2018-05-04T17:01:21Z</time>
      </trkpt>
      <trkpt lat="62.630926905374" lon="17.792776125592">
        <ele>59.4</ele>
        <time>2018-05-04T17:01:22Z</time>
      </trkpt>
      <trkpt lat="62.630908884289" lon="17.792678979371">
        <ele>59.4</ele>
        <time>2018-05-04T17:01:23Z</time>
      </trkpt>
      <trkpt lat="62.630892707222" lon="17.792574624716">
        <ele>59.6</ele>
        <time>2018-05-04T17:01:24Z</time>
      </trkpt>
      <trkpt lat="62.630875524327" lon="17.792477227038">
        <ele>59.6</ele>
        <time>2018-05-04T17:01:25Z</time>
      </trkpt>
      <trkpt lat="62.630856329776" lon="17.792379745541">
        <ele>59.8</ele>
        <time>2018-05-04T17:01:26Z</time>
      </trkpt>
      <trkpt lat="62.630840571804" lon="17.792283856605">
        <ele>60</ele>
        <time>2018-05-04T17:01:27Z</time>
      </trkpt>
      <trkpt lat="62.630826490212" lon="17.792180591597">
        <ele>60</ele>
        <time>2018-05-04T17:01:28Z</time>
      </trkpt>
      <trkpt lat="62.630812324801" lon="17.792079673521">
        <ele>60.2</ele>
        <time>2018-05-04T17:01:29Z</time>
      </trkpt>
      <trkpt lat="62.630796399191" lon="17.791976157056">
        <ele>60.4</ele>
        <time>2018-05-04T17:01:30Z</time>
      </trkpt>
      <trkpt lat="62.630781227952" lon="17.791873730238">
        <ele>60.4</ele>
        <time>2018-05-04T17:01:31Z</time>
      </trkpt>
      <trkpt lat="62.630772091681" lon="17.791781194062">
        <ele>60.6</ele>
        <time>2018-05-04T17:01:32Z</time>
      </trkpt>
      <trkpt lat="62.630756668985" lon="17.791666697308">
        <ele>60.6</ele>
        <time>2018-05-04T17:01:33Z</time>
      </trkpt>
      <trkpt lat="62.630744096135" lon="17.791562091196">
        <ele>60.6</ele>
        <time>2018-05-04T17:01:34Z</time>
      </trkpt>
      <trkpt lat="62.630731188009" lon="17.791446420976">
        <ele>60.8</ele>
        <time>2018-05-04T17:01:35Z</time>
      </trkpt>
      <trkpt lat="62.630718866616" lon="17.791342653054">
        <ele>60.8</ele>
        <time>2018-05-04T17:01:36Z</time>
      </trkpt>
      <trkpt lat="62.630707551051" lon="17.791249781602">
        <ele>60.8</ele>
        <time>2018-05-04T17:01:37Z</time>
      </trkpt>
      <trkpt lat="62.630694894382" lon="17.791136961228">
        <ele>60.8</ele>
        <time>2018-05-04T17:01:38Z</time>
      </trkpt>
      <trkpt lat="62.630682908265" lon="17.791023805578">
        <ele>60.8</ele>
        <time>2018-05-04T17:01:39Z</time>
      </trkpt>
      <trkpt lat="62.630672766166" lon="17.790909308824">
        <ele>60.8</ele>
        <time>2018-05-04T17:01:40Z</time>
      </trkpt>
      <trkpt lat="62.63066237261" lon="17.790801769047">
        <ele>60.8</ele>
        <time>2018-05-04T17:01:41Z</time>
      </trkpt>
      <trkpt lat="62.630652146692" lon="17.790689451587">
        <ele>60.6</ele>
        <time>2018-05-04T17:01:42Z</time>
      </trkpt>
      <trkpt lat="62.630643848611" lon="17.790565483286">
        <ele>60.6</ele>
        <time>2018-05-04T17:01:43Z</time>
      </trkpt>
      <trkpt lat="62.630638148919" lon="17.790449142514">
        <ele>60.8</ele>
        <time>2018-05-04T17:01:44Z</time>
      </trkpt>
      <trkpt lat="62.630630689028" lon="17.790329197525">
        <ele>60.8</ele>
        <time>2018-05-04T17:01:45Z</time>
      </trkpt>
      <trkpt lat="62.630621888033" lon="17.790208414346">
        <ele>60.8</ele>
        <time>2018-05-04T17:01:46Z</time>
      </trkpt>
      <trkpt lat="62.630618451454" lon="17.79010581989">
        <ele>60.6</ele>
        <time>2018-05-04T17:01:47Z</time>
      </trkpt>
      <trkpt lat="62.630612584124" lon="17.789961986486">
        <ele>60.6</ele>
        <time>2018-05-04T17:01:48Z</time>
      </trkpt>
      <trkpt lat="62.630607303527" lon="17.789837682909">
        <ele>60.6</ele>
        <time>2018-05-04T17:01:49Z</time>
      </trkpt>
      <trkpt lat="62.630602944939" lon="17.789712624961">
        <ele>60.4</ele>
        <time>2018-05-04T17:01:50Z</time>
      </trkpt>
      <trkpt lat="62.630599424541" lon="17.789588824298">
        <ele>60.4</ele>
        <time>2018-05-04T17:01:51Z</time>
      </trkpt>
      <trkpt lat="62.63059531741" lon="17.789467202929">
        <ele>60.4</ele>
        <time>2018-05-04T17:01:52Z</time>
      </trkpt>
      <trkpt lat="62.630588947166" lon="17.789334936547">
        <ele>60.4</ele>
        <time>2018-05-04T17:01:53Z</time>
      </trkpt>
      <trkpt lat="62.630584169483" lon="17.789192695704">
        <ele>60.4</ele>
        <time>2018-05-04T17:01:54Z</time>
      </trkpt>
      <trkpt lat="62.630580397628" lon="17.789056322191">
        <ele>60.4</ele>
        <time>2018-05-04T17:01:55Z</time>
      </trkpt>
      <trkpt lat="62.630578134515" lon="17.788920200135">
        <ele>60.4</ele>
        <time>2018-05-04T17:01:56Z</time>
      </trkpt>
      <trkpt lat="62.630572434823" lon="17.788786760287">
        <ele>60.2</ele>
        <time>2018-05-04T17:01:57Z</time>
      </trkpt>
      <trkpt lat="62.63056598076" lon="17.788639741761">
        <ele>59.8</ele>
        <time>2018-05-04T17:01:58Z</time>
      </trkpt>
      <trkpt lat="62.630560029611" lon="17.788497920013">
        <ele>59.4</ele>
        <time>2018-05-04T17:01:59Z</time>
      </trkpt>
      <trkpt lat="62.630555587204" lon="17.788349141288">
        <ele>58.8</ele>
        <time>2018-05-04T17:02:00Z</time>
      </trkpt>
      <trkpt lat="62.630552150625" lon="17.788204721151">
        <ele>58.6</ele>
        <time>2018-05-04T17:02:01Z</time>
      </trkpt>
      <trkpt lat="62.630549300779" lon="17.788072873864">
        <ele>58.4</ele>
        <time>2018-05-04T17:02:02Z</time>
      </trkpt>
      <trkpt lat="62.63054167325" lon="17.787902553656">
        <ele>58</ele>
        <time>2018-05-04T17:02:03Z</time>
      </trkpt>
      <trkpt lat="62.630538404309" lon="17.787753774931">
        <ele>57.8</ele>
        <time>2018-05-04T17:02:04Z</time>
      </trkpt>
      <trkpt lat="62.630534297178" lon="17.787605163844">
        <ele>57.6</ele>
        <time>2018-05-04T17:02:05Z</time>
      </trkpt>
      <trkpt lat="62.630528429848" lon="17.787440291871">
        <ele>57.4</ele>
        <time>2018-05-04T17:02:06Z</time>
      </trkpt>
      <trkpt lat="62.630523735984" lon="17.78729285425">
        <ele>57.6</ele>
        <time>2018-05-04T17:02:07Z</time>
      </trkpt>
      <trkpt lat="62.630515856998" lon="17.787114152142">
        <ele>57.4</ele>
        <time>2018-05-04T17:02:08Z</time>
      </trkpt>
      <trkpt lat="62.630510827858" lon="17.786956907698">
        <ele>57.4</ele>
        <time>2018-05-04T17:02:09Z</time>
      </trkpt>
      <trkpt lat="62.630506301632" lon="17.786802848376">
        <ele>57.4</ele>
        <time>2018-05-04T17:02:10Z</time>
      </trkpt>
      <trkpt lat="62.630500015207" lon="17.786646358303">
        <ele>57.6</ele>
        <time>2018-05-04T17:02:11Z</time>
      </trkpt>
      <trkpt lat="62.63049222004" lon="17.786482492158">
        <ele>57.4</ele>
        <time>2018-05-04T17:02:12Z</time>
      </trkpt>
      <trkpt lat="62.630485430701" lon="17.786327846103">
        <ele>57.4</ele>
        <time>2018-05-04T17:02:13Z</time>
      </trkpt>
      <trkpt lat="62.630478809" lon="17.786181749586">
        <ele>57.6</ele>
        <time>2018-05-04T17:02:14Z</time>
      </trkpt>
      <trkpt lat="62.630470343281" lon="17.786025762427">
        <ele>57.6</ele>
        <time>2018-05-04T17:02:15Z</time>
      </trkpt>
      <trkpt lat="62.630461626105" lon="17.785873714761">
        <ele>57.4</ele>
        <time>2018-05-04T17:02:16Z</time>
      </trkpt>
      <trkpt lat="62.630454082395" lon="17.785782519689">
        <ele>57.2</ele>
        <time>2018-05-04T17:02:17Z</time>
      </trkpt>
      <trkpt lat="62.630438994975" lon="17.785592669654">
        <ele>57.2</ele>
        <time>2018-05-04T17:02:18Z</time>
      </trkpt>
      <trkpt lat="62.630427595591" lon="17.785440202893">
        <ele>57</ele>
        <time>2018-05-04T17:02:19Z</time>
      </trkpt>
      <trkpt lat="62.630415777112" lon="17.785289244874">
        <ele>57</ele>
        <time>2018-05-04T17:02:20Z</time>
      </trkpt>
      <trkpt lat="62.630405383556" lon="17.785145160013">
        <ele>57</ele>
        <time>2018-05-04T17:02:21Z</time>
      </trkpt>
      <trkpt lat="62.630395073819" lon="17.785009121776">
        <ele>57</ele>
        <time>2018-05-04T17:02:22Z</time>
      </trkpt>
      <trkpt lat="62.630383422978" lon="17.784854056626">
        <ele>57</ele>
        <time>2018-05-04T17:02:23Z</time>
      </trkpt>
      <trkpt lat="62.630369592843" lon="17.784705780815">
        <ele>56.8</ele>
        <time>2018-05-04T17:02:24Z</time>
      </trkpt>
      <trkpt lat="62.630357355269" lon="17.784564042886">
        <ele>56.8</ele>
        <time>2018-05-04T17:02:25Z</time>
      </trkpt>
      <trkpt lat="62.630344195686" lon="17.784424735708">
        <ele>56.8</ele>
        <time>2018-05-04T17:02:26Z</time>
      </trkpt>
      <trkpt lat="62.630332628664" lon="17.784288697471">
        <ele>56.8</ele>
        <time>2018-05-04T17:02:27Z</time>
      </trkpt>
      <trkpt lat="62.630320055814" lon="17.784142684773">
        <ele>56.8</ele>
        <time>2018-05-04T17:02:28Z</time>
      </trkpt>
      <trkpt lat="62.630307566783" lon="17.784012849142">
        <ele>56.8</ele>
        <time>2018-05-04T17:02:29Z</time>
      </trkpt>
      <trkpt lat="62.630294658657" lon="17.783870189204">
        <ele>57</ele>
        <time>2018-05-04T17:02:30Z</time>
      </trkpt>
      <trkpt lat="62.630285690024" lon="17.783737168451">
        <ele>57.2</ele>
        <time>2018-05-04T17:02:31Z</time>
      </trkpt>
      <trkpt lat="62.630276553753" lon="17.783623509887">
        <ele>57.2</ele>
        <time>2018-05-04T17:02:32Z</time>
      </trkpt>
      <trkpt lat="62.630264148541" lon="17.783481436682">
        <ele>57</ele>
        <time>2018-05-04T17:02:33Z</time>
      </trkpt>
      <trkpt lat="62.630252916795" lon="17.783356043458">
        <ele>57</ele>
        <time>2018-05-04T17:02:34Z</time>
      </trkpt>
      <trkpt lat="62.630242104144" lon="17.783240708514">
        <ele>57</ele>
        <time>2018-05-04T17:02:35Z</time>
      </trkpt>
      <trkpt lat="62.630234811891" lon="17.78311280072">
        <ele>57</ele>
        <time>2018-05-04T17:02:36Z</time>
      </trkpt>
      <trkpt lat="62.630224921249" lon="17.782998136328">
        <ele>57.2</ele>
        <time>2018-05-04T17:02:37Z</time>
      </trkpt>
      <trkpt lat="62.630214360055" lon="17.782866289041">
        <ele>57.4</ele>
        <time>2018-05-04T17:02:38Z</time>
      </trkpt>
      <trkpt lat="62.630203295947" lon="17.782745170586">
        <ele>57.6</ele>
        <time>2018-05-04T17:02:39Z</time>
      </trkpt>
      <trkpt lat="62.630197093341" lon="17.782623633036">
        <ele>57.6</ele>
        <time>2018-05-04T17:02:40Z</time>
      </trkpt>
      <trkpt lat="62.63018711888" lon="17.782507208445">
        <ele>57.6</ele>
        <time>2018-05-04T17:02:41Z</time>
      </trkpt>
      <trkpt lat="62.630177479695" lon="17.782383743058">
        <ele>57.6</ele>
        <time>2018-05-04T17:02:42Z</time>
      </trkpt>
      <trkpt lat="62.630170187442" lon="17.782247621002">
        <ele>57.6</ele>
        <time>2018-05-04T17:02:43Z</time>
      </trkpt>
      <trkpt lat="62.630160632076" lon="17.782119042656">
        <ele>57.6</ele>
        <time>2018-05-04T17:02:44Z</time>
      </trkpt>
      <trkpt lat="62.630149484149" lon="17.781986608636">
        <ele>57.8</ele>
        <time>2018-05-04T17:02:45Z</time>
      </trkpt>
      <trkpt lat="62.630137833308" lon="17.781850402761">
        <ele>57.8</ele>
        <time>2018-05-04T17:02:46Z</time>
      </trkpt>
      <trkpt lat="62.63013012196" lon="17.781742527708">
        <ele>57.8</ele>
        <time>2018-05-04T17:02:47Z</time>
      </trkpt>
      <trkpt lat="62.630117632929" lon="17.781582852513">
        <ele>57.8</ele>
        <time>2018-05-04T17:02:48Z</time>
      </trkpt>
      <trkpt lat="62.630108496658" lon="17.78144480262">
        <ele>57.8</ele>
        <time>2018-05-04T17:02:49Z</time>
      </trkpt>
      <trkpt lat="62.630100030939" lon="17.78130650127">
        <ele>57.8</ele>
        <time>2018-05-04T17:02:50Z</time>
      </trkpt>
      <trkpt lat="62.630089218288" lon="17.78116400897">
        <ele>57.6</ele>
        <time>2018-05-04T17:02:51Z</time>
      </trkpt>
      <trkpt lat="62.63007899237" lon="17.781036520271">
        <ele>57.4</ele>
        <time>2018-05-04T17:02:52Z</time>
      </trkpt>
      <trkpt lat="62.630066754796" lon="17.780893608876">
        <ele>57.4</ele>
        <time>2018-05-04T17:02:53Z</time>
      </trkpt>
      <trkpt lat="62.630056696516" lon="17.780746757988">
        <ele>57.4</ele>
        <time>2018-05-04T17:02:54Z</time>
      </trkpt>
      <trkpt lat="62.630047644064" lon="17.780604768602">
        <ele>57.2</ele>
        <time>2018-05-04T17:02:55Z</time>
      </trkpt>
      <trkpt lat="62.630037837241" lon="17.780461102836">
        <ele>57</ele>
        <time>2018-05-04T17:02:56Z</time>
      </trkpt>
      <trkpt lat="62.630028449513" lon="17.780326740979">
        <ele>57</ele>
        <time>2018-05-04T17:02:57Z</time>
      </trkpt>
      <trkpt lat="62.630016631034" lon="17.780179638634">
        <ele>57</ele>
        <time>2018-05-04T17:02:58Z</time>
      </trkpt>
      <trkpt lat="62.630004561098" lon="17.78004753989">
        <ele>57</ele>
        <time>2018-05-04T17:02:59Z</time>
      </trkpt>
      <trkpt lat="62.629990898601" lon="17.779883841383">
        <ele>57.2</ele>
        <time>2018-05-04T17:03:00Z</time>
      </trkpt>
      <trkpt lat="62.629981510873" lon="17.779744869481">
        <ele>57.4</ele>
        <time>2018-05-04T17:03:01Z</time>
      </trkpt>
      <trkpt lat="62.62997170405" lon="17.779612770737">
        <ele>57</ele>
        <time>2018-05-04T17:03:02Z</time>
      </trkpt>
      <trkpt lat="62.629960220847" lon="17.779454436646">
        <ele>56.8</ele>
        <time>2018-05-04T17:03:03Z</time>
      </trkpt>
      <trkpt lat="62.629948905282" lon="17.779310351785">
        <ele>56.4</ele>
        <time>2018-05-04T17:03:04Z</time>
      </trkpt>
      <trkpt lat="62.629937505898" lon="17.779169032951">
        <ele>56.2</ele>
        <time>2018-05-04T17:03:05Z</time>
      </trkpt>
      <trkpt lat="62.629929459274" lon="17.779021092416">
        <ele>56</ele>
        <time>2018-05-04T17:03:06Z</time>
      </trkpt>
      <trkpt lat="62.629922167021" lon="17.778878432478">
        <ele>56</ele>
        <time>2018-05-04T17:03:07Z</time>
      </trkpt>
      <trkpt lat="62.629915042406" lon="17.778723870242">
        <ele>56</ele>
        <time>2018-05-04T17:03:08Z</time>
      </trkpt>
      <trkpt lat="62.629909342714" lon="17.778574337146">
        <ele>56.2</ele>
        <time>2018-05-04T17:03:09Z</time>
      </trkpt>
      <trkpt lat="62.629902218099" lon="17.778428911181">
        <ele>56</ele>
        <time>2018-05-04T17:03:10Z</time>
      </trkpt>
      <trkpt lat="62.629896686045" lon="17.778285329234">
        <ele>56.2</ele>
        <time>2018-05-04T17:03:11Z</time>
      </trkpt>
      <trkpt lat="62.629894758208" lon="17.778143004572">
        <ele>56</ele>
        <time>2018-05-04T17:03:12Z</time>
      </trkpt>
      <trkpt lat="62.629893500923" lon="17.77799397439">
        <ele>55.6</ele>
        <time>2018-05-04T17:03:13Z</time>
      </trkpt>
      <trkpt lat="62.629893249466" lon="17.777856846506">
        <ele>55.4</ele>
        <time>2018-05-04T17:03:14Z</time>
      </trkpt>
      <trkpt lat="62.629893249466" lon="17.77772156264">
        <ele>55.4</ele>
        <time>2018-05-04T17:03:15Z</time>
      </trkpt>
      <trkpt lat="62.629897524235" lon="17.777590385905">
        <ele>55.2</ele>
        <time>2018-05-04T17:03:16Z</time>
      </trkpt>
      <trkpt lat="62.629898865339" lon="17.77748100211">
        <ele>55.2</ele>
        <time>2018-05-04T17:03:17Z</time>
      </trkpt>
      <trkpt lat="62.629901966642" lon="17.777324092942">
        <ele>55.2</ele>
        <time>2018-05-04T17:03:18Z</time>
      </trkpt>
      <trkpt lat="62.629905989954" lon="17.777194508768">
        <ele>55.2</ele>
        <time>2018-05-04T17:03:19Z</time>
      </trkpt>
      <trkpt lat="62.629911186732" lon="17.777061655653">
        <ele>55.2</ele>
        <time>2018-05-04T17:03:20Z</time>
      </trkpt>
      <trkpt lat="62.62991554532" lon="17.776929305452">
        <ele>55.2</ele>
        <time>2018-05-04T17:03:21Z</time>
      </trkpt>
      <trkpt lat="62.629921328831" lon="17.776806929712">
        <ele>55.2</ele>
        <time>2018-05-04T17:03:22Z</time>
      </trkpt>
      <trkpt lat="62.629928453446" lon="17.776675082425">
        <ele>55.4</ele>
        <time>2018-05-04T17:03:23Z</time>
      </trkpt>
      <trkpt lat="62.62993650007" lon="17.776533595953">
        <ele>55.4</ele>
        <time>2018-05-04T17:03:24Z</time>
      </trkpt>
      <trkpt lat="62.629944211418" lon="17.776409040919">
        <ele>55.6</ele>
        <time>2018-05-04T17:03:25Z</time>
      </trkpt>
      <trkpt lat="62.629952593318" lon="17.776281636039">
        <ele>55.8</ele>
        <time>2018-05-04T17:03:26Z</time>
      </trkpt>
      <trkpt lat="62.629960556123" lon="17.776153812064">
        <ele>56</ele>
        <time>2018-05-04T17:03:27Z</time>
      </trkpt>
      <trkpt lat="62.629972374602" lon="17.776021797139">
        <ele>56</ele>
        <time>2018-05-04T17:03:28Z</time>
      </trkpt>
      <trkpt lat="62.629983857805" lon="17.775902774159">
        <ele>55.8</ele>
        <time>2018-05-04T17:03:29Z</time>
      </trkpt>
      <trkpt lat="62.629998693768" lon="17.775767155017">
        <ele>55.8</ele>
        <time>2018-05-04T17:03:30Z</time>
      </trkpt>
      <trkpt lat="62.630013194455" lon="17.775639247223">
        <ele>55.8</ele>
        <time>2018-05-04T17:03:31Z</time>
      </trkpt>
      <trkpt lat="62.630023923287" lon="17.775534808749">
        <ele>55.4</ele>
        <time>2018-05-04T17:03:32Z</time>
      </trkpt>
      <trkpt lat="62.630040938544" lon="17.775387622585">
        <ele>55.4</ele>
        <time>2018-05-04T17:03:33Z</time>
      </trkpt>
      <trkpt lat="62.630056864154" lon="17.775252506357">
        <ele>55.4</ele>
        <time>2018-05-04T17:03:34Z</time>
      </trkpt>
      <trkpt lat="62.630072454488" lon="17.775128370418">
        <ele>55.2</ele>
        <time>2018-05-04T17:03:35Z</time>
      </trkpt>
      <trkpt lat="62.630091313763" lon="17.77498822505">
        <ele>55</ele>
        <time>2018-05-04T17:03:36Z</time>
      </trkpt>
      <trkpt lat="62.630107993744" lon="17.774868112423">
        <ele>55</ele>
        <time>2018-05-04T17:03:37Z</time>
      </trkpt>
      <trkpt lat="62.630127942666" lon="17.774740875181">
        <ele>54.8</ele>
        <time>2018-05-04T17:03:38Z</time>
      </trkpt>
      <trkpt lat="62.630149651787" lon="17.774612213016">
        <ele>55</ele>
        <time>2018-05-04T17:03:39Z</time>
      </trkpt>
      <trkpt lat="62.630171528546" lon="17.774491262199">
        <ele>55</ele>
        <time>2018-05-04T17:03:40Z</time>
      </trkpt>
      <trkpt lat="62.630190974554" lon="17.774374418513">
        <ele>55.2</ele>
        <time>2018-05-04T17:03:41Z</time>
      </trkpt>
      <trkpt lat="62.630213773322" lon="17.774254305886">
        <ele>55.2</ele>
        <time>2018-05-04T17:03:42Z</time>
      </trkpt>
      <trkpt lat="62.630238164651" lon="17.774121871866">
        <ele>55.2</ele>
        <time>2018-05-04T17:03:43Z</time>
      </trkpt>
      <trkpt lat="62.630261633971" lon="17.774006201646">
        <ele>55.4</ele>
        <time>2018-05-04T17:03:44Z</time>
      </trkpt>
      <trkpt lat="62.630286109119" lon="17.77388097606">
        <ele>55.4</ele>
        <time>2018-05-04T17:03:45Z</time>
      </trkpt>
      <trkpt lat="62.630313015018" lon="17.773763042727">
        <ele>55.4</ele>
        <time>2018-05-04T17:03:46Z</time>
      </trkpt>
      <trkpt lat="62.630335227053" lon="17.773665309773">
        <ele>55.4</ele>
        <time>2018-05-04T17:03:47Z</time>
      </trkpt>
      <trkpt lat="62.63036649154" lon="17.773523404206">
        <ele>55.4</ele>
        <time>2018-05-04T17:03:48Z</time>
      </trkpt>
      <trkpt lat="62.630393565077" lon="17.773402872484">
        <ele>55.4</ele>
        <time>2018-05-04T17:03:49Z</time>
      </trkpt>
      <trkpt lat="62.630421309166" lon="17.773285609703">
        <ele>55.2</ele>
        <time>2018-05-04T17:03:50Z</time>
      </trkpt>
      <trkpt lat="62.630453495662" lon="17.773171532044">
        <ele>55.2</ele>
        <time>2018-05-04T17:03:51Z</time>
      </trkpt>
      <trkpt lat="62.630482497036" lon="17.773065081914">
        <ele>55</ele>
        <time>2018-05-04T17:03:52Z</time>
      </trkpt>
      <trkpt lat="62.630514264437" lon="17.772948489685">
        <ele>55</ele>
        <time>2018-05-04T17:03:53Z</time>
      </trkpt>
      <trkpt lat="62.630546115657" lon="17.772827957963">
        <ele>55</ele>
        <time>2018-05-04T17:03:54Z</time>
      </trkpt>
      <trkpt lat="62.6305793918" lon="17.772714047942">
        <ele>55</ele>
        <time>2018-05-04T17:03:55Z</time>
      </trkpt>
      <trkpt lat="62.63061459578" lon="17.772601730482">
        <ele>55</ele>
        <time>2018-05-04T17:03:56Z</time>
      </trkpt>
      <trkpt lat="62.630647033733" lon="17.77249712437">
        <ele>54.8</ele>
        <time>2018-05-04T17:03:57Z</time>
      </trkpt>
      <trkpt lat="62.630682824446" lon="17.77237642501">
        <ele>54.6</ele>
        <time>2018-05-04T17:03:58Z</time>
      </trkpt>
      <trkpt lat="62.630715094761" lon="17.772271986536">
        <ele>54.2</ele>
        <time>2018-05-04T17:03:59Z</time>
      </trkpt>
      <trkpt lat="62.630751639845" lon="17.772155226669">
        <ele>54</ele>
        <time>2018-05-04T17:04:00Z</time>
      </trkpt>
      <trkpt lat="62.630789861309" lon="17.772052213118">
        <ele>54</ele>
        <time>2018-05-04T17:04:01Z</time>
      </trkpt>
      <trkpt lat="62.630822969814" lon="17.77196068277">
        <ele>54.2</ele>
        <time>2018-05-04T17:04:02Z</time>
      </trkpt>
      <trkpt lat="62.63086605278" lon="17.771842162704">
        <ele>54.4</ele>
        <time>2018-05-04T17:04:03Z</time>
      </trkpt>
      <trkpt lat="62.630904944796" lon="17.771739652067">
        <ele>54.6</ele>
        <time>2018-05-04T17:04:04Z</time>
      </trkpt>
      <trkpt lat="62.630942411889" lon="17.771646864434">
        <ele>54.8</ele>
        <time>2018-05-04T17:04:05Z</time>
      </trkpt>
      <trkpt lat="62.630975604213" lon="17.771561452873">
        <ele>54.8</ele>
        <time>2018-05-04T17:04:06Z</time>
      </trkpt>
      <trkpt lat="62.631016759342" lon="17.771457182037">
        <ele>54.8</ele>
        <time>2018-05-04T17:04:07Z</time>
      </trkpt>
      <trkpt lat="62.631056992462" lon="17.771358443255">
        <ele>54.6</ele>
        <time>2018-05-04T17:04:08Z</time>
      </trkpt>
      <trkpt lat="62.631094711012" lon="17.771266326174">
        <ele>54.4</ele>
        <time>2018-05-04T17:04:09Z</time>
      </trkpt>
      <trkpt lat="62.631132261924" lon="17.771178735319">
        <ele>54.2</ele>
        <time>2018-05-04T17:04:10Z</time>
      </trkpt>
      <trkpt lat="62.631160173651" lon="17.771112937404">
        <ele>54.2</ele>
        <time>2018-05-04T17:04:11Z</time>
      </trkpt>
      <trkpt lat="62.63120384335" lon="17.771011684052">
        <ele>54</ele>
        <time>2018-05-04T17:04:12Z</time>
      </trkpt>
      <trkpt lat="62.631242567728" lon="17.770923087369">
        <ele>54</ele>
        <time>2018-05-04T17:04:13Z</time>
      </trkpt>
      <trkpt lat="62.631278190803" lon="17.770837843446">
        <ele>54.2</ele>
        <time>2018-05-04T17:04:14Z</time>
      </trkpt>
      <trkpt lat="62.63131532262" lon="17.770756622835">
        <ele>54.6</ele>
        <time>2018-05-04T17:04:15Z</time>
      </trkpt>
      <trkpt lat="62.631352873532" lon="17.770680347545">
        <ele>54.8</ele>
        <time>2018-05-04T17:04:16Z</time>
      </trkpt>
      <trkpt lat="62.631377935413" lon="17.770626032833">
        <ele>55.2</ele>
        <time>2018-05-04T17:04:17Z</time>
      </trkpt>
      <trkpt lat="62.631426215157" lon="17.770519498884">
        <ele>55.4</ele>
        <time>2018-05-04T17:04:18Z</time>
      </trkpt>
      <trkpt lat="62.631461754413" lon="17.770438445911">
        <ele>55.4</ele>
        <time>2018-05-04T17:04:19Z</time>
      </trkpt>
      <trkpt lat="62.631499305325" lon="17.770360075146">
        <ele>55.4</ele>
        <time>2018-05-04T17:04:20Z</time>
      </trkpt>
      <trkpt lat="62.631535431314" lon="17.770281536743">
        <ele>55.4</ele>
        <time>2018-05-04T17:04:21Z</time>
      </trkpt>
      <trkpt lat="62.631570048561" lon="17.77020970386">
        <ele>55.2</ele>
        <time>2018-05-04T17:04:22Z</time>
      </trkpt>
      <trkpt lat="62.63160617455" lon="17.770132422742">
        <ele>55.2</ele>
        <time>2018-05-04T17:04:23Z</time>
      </trkpt>
      <trkpt lat="62.631644898928" lon="17.770051453588">
        <ele>55.2</ele>
        <time>2018-05-04T17:04:24Z</time>
      </trkpt>
      <trkpt lat="62.631679180899" lon="17.769972747547">
        <ele>55.2</ele>
        <time>2018-05-04T17:04:25Z</time>
      </trkpt>
      <trkpt lat="62.631714720155" lon="17.769898651551">
        <ele>55.2</ele>
        <time>2018-05-04T17:04:26Z</time>
      </trkpt>
      <trkpt lat="62.631748750669" lon="17.769830422885">
        <ele>55.4</ele>
        <time>2018-05-04T17:04:27Z</time>
      </trkpt>
      <trkpt lat="62.631785714848" lon="17.769751633025">
        <ele>55.6</ele>
        <time>2018-05-04T17:04:28Z</time>
      </trkpt>
      <trkpt lat="62.631819745362" lon="17.769677201753">
        <ele>55.8</ele>
        <time>2018-05-04T17:04:29Z</time>
      </trkpt>
      <trkpt lat="62.631858050645" lon="17.769602351386">
        <ele>55.8</ele>
        <time>2018-05-04T17:04:30Z</time>
      </trkpt>
      <trkpt lat="62.631894008996" lon="17.769523980621">
        <ele>56</ele>
        <time>2018-05-04T17:04:31Z</time>
      </trkpt>
      <trkpt lat="62.631925189664" lon="17.76945700924">
        <ele>56.2</ele>
        <time>2018-05-04T17:04:32Z</time>
      </trkpt>
      <trkpt lat="62.631964668413" lon="17.769371681498">
        <ele>56.2</ele>
        <time>2018-05-04T17:04:33Z</time>
      </trkpt>
      <trkpt lat="62.631999118022" lon="17.769294232742">
        <ele>56.4</ele>
        <time>2018-05-04T17:04:34Z</time>
      </trkpt>
      <trkpt lat="62.632007583741" lon="17.769272355983">
        <ele>56.6</ele>
        <time>2018-05-04T17:04:35Z</time>
      </trkpt>
      <trkpt lat="62.632061646996" lon="17.769155931392">
        <ele>56.8</ele>
        <time>2018-05-04T17:04:36Z</time>
      </trkpt>
      <trkpt lat="62.632100622831" lon="17.769079320826">
        <ele>56.8</ele>
        <time>2018-05-04T17:04:37Z</time>
      </trkpt>
      <trkpt lat="62.632135491535" lon="17.769003716088">
        <ele>56.8</ele>
        <time>2018-05-04T17:04:38Z</time>
      </trkpt>
      <trkpt lat="62.632166001651" lon="17.768925932056">
        <ele>57</ele>
        <time>2018-05-04T17:04:39Z</time>
      </trkpt>
      <trkpt lat="62.632198858699" lon="17.768853763897">
        <ele>57.2</ele>
        <time>2018-05-04T17:04:40Z</time>
      </trkpt>
      <trkpt lat="62.632231129014" lon="17.768787211611">
        <ele>57.4</ele>
        <time>2018-05-04T17:04:41Z</time>
      </trkpt>
      <trkpt lat="62.632266332994" lon="17.768718396212">
        <ele>57.4</ele>
        <time>2018-05-04T17:04:42Z</time>
      </trkpt>
      <trkpt lat="62.632300698784" lon="17.768640528361">
        <ele>57.6</ele>
        <time>2018-05-04T17:04:43Z</time>
      </trkpt>
      <trkpt lat="62.632332633823" lon="17.768563750157">
        <ele>57.6</ele>
        <time>2018-05-04T17:04:44Z</time>
      </trkpt>
      <trkpt lat="62.632368592174" lon="17.768491833455">
        <ele>57.8</ele>
        <time>2018-05-04T17:04:45Z</time>
      </trkpt>
      <trkpt lat="62.632402622688" lon="17.768418324192">
        <ele>57.8</ele>
        <time>2018-05-04T17:04:46Z</time>
      </trkpt>
      <trkpt lat="62.6324317917" lon="17.768354705571">
        <ele>57.8</ele>
        <time>2018-05-04T17:04:47Z</time>
      </trkpt>
      <trkpt lat="62.632469929345" lon="17.768268372001">
        <ele>57.6</ele>
        <time>2018-05-04T17:04:48Z</time>
      </trkpt>
      <trkpt lat="62.632505300963" lon="17.768199640421">
        <ele>57.8</ele>
        <time>2018-05-04T17:04:49Z</time>
      </trkpt>
      <trkpt lat="62.632536984545" lon="17.768124873873">
        <ele>57.8</ele>
        <time>2018-05-04T17:04:50Z</time>
      </trkpt>
      <trkpt lat="62.632568835765" lon="17.768050777877">
        <ele>57.8</ele>
        <time>2018-05-04T17:04:51Z</time>
      </trkpt>
      <trkpt lat="62.63260026789" lon="17.767983219763">
        <ele>57.8</ele>
        <time>2018-05-04T17:04:52Z</time>
      </trkpt>
      <trkpt lat="62.632633460214" lon="17.767907028292">
        <ele>57.8</ele>
        <time>2018-05-04T17:04:53Z</time>
      </trkpt>
      <trkpt lat="62.632665981986" lon="17.767827064966">
        <ele>58</ele>
        <time>2018-05-04T17:04:54Z</time>
      </trkpt>
      <trkpt lat="62.632700263957" lon="17.767753723341">
        <ele>58.2</ele>
        <time>2018-05-04T17:04:55Z</time>
      </trkpt>
      <trkpt lat="62.63273270191" lon="17.767675352576">
        <ele>58.4</ele>
        <time>2018-05-04T17:04:56Z</time>
      </trkpt>
      <trkpt lat="62.632764636949" lon="17.767603435874">
        <ele>58.8</ele>
        <time>2018-05-04T17:04:57Z</time>
      </trkpt>
      <trkpt lat="62.632800427662" lon="17.767520538883">
        <ele>58.8</ele>
        <time>2018-05-04T17:04:58Z</time>
      </trkpt>
      <trkpt lat="62.632834039081" lon="17.767445520878">
        <ele>59</ele>
        <time>2018-05-04T17:04:59Z</time>
      </trkpt>
      <trkpt lat="62.632866477034" lon="17.767354325806">
        <ele>59</ele>
        <time>2018-05-04T17:05:00Z</time>
      </trkpt>
      <trkpt lat="62.632898998806" lon="17.76726514239">
        <ele>59.2</ele>
        <time>2018-05-04T17:05:01Z</time>
      </trkpt>
      <trkpt lat="62.632929006008" lon="17.767191716946">
        <ele>59.2</ele>
        <time>2018-05-04T17:05:02Z</time>
      </trkpt>
      <trkpt lat="62.632968903852" lon="17.767093816354">
        <ele>59.4</ele>
        <time>2018-05-04T17:05:03Z</time>
      </trkpt>
      <trkpt lat="62.633004024013" lon="17.767006644594">
        <ele>59.6</ele>
        <time>2018-05-04T17:05:04Z</time>
      </trkpt>
      <trkpt lat="62.633027325695" lon="17.766946546371">
        <ele>59.6</ele>
        <time>2018-05-04T17:05:05Z</time>
      </trkpt>
      <trkpt lat="62.633072001222" lon="17.76682593083">
        <ele>59.6</ele>
        <time>2018-05-04T17:05:06Z</time>
      </trkpt>
      <trkpt lat="62.63310318189" lon="17.766738842889">
        <ele>59.8</ele>
        <time>2018-05-04T17:05:07Z</time>
      </trkpt>
      <trkpt lat="62.633139810793" lon="17.766642618677">
        <ele>59.8</ele>
        <time>2018-05-04T17:05:08Z</time>
      </trkpt>
      <trkpt lat="62.633174260402" lon="17.766550585415">
        <ele>59.8</ele>
        <time>2018-05-04T17:05:09Z</time>
      </trkpt>
      <trkpt lat="62.633208207097" lon="17.766458216877">
        <ele>59.8</ele>
        <time>2018-05-04T17:05:10Z</time>
      </trkpt>
      <trkpt lat="62.633241064145" lon="17.76636995547">
        <ele>59.8</ele>
        <time>2018-05-04T17:05:11Z</time>
      </trkpt>
      <trkpt lat="62.633274675564" lon="17.766282532253">
        <ele>59.8</ele>
        <time>2018-05-04T17:05:12Z</time>
      </trkpt>
      <trkpt lat="62.633308035526" lon="17.766182787643">
        <ele>59.8</ele>
        <time>2018-05-04T17:05:13Z</time>
      </trkpt>
      <trkpt lat="62.633340054384" lon="17.766087988354">
        <ele>59.8</ele>
        <time>2018-05-04T17:05:14Z</time>
      </trkpt>
      <trkpt lat="62.633372157061" lon="17.765994530169">
        <ele>59.8</ele>
        <time>2018-05-04T17:05:15Z</time>
      </trkpt>
      <trkpt lat="62.633405014109" lon="17.765904592382">
        <ele>59.6</ele>
        <time>2018-05-04T17:05:16Z</time>
      </trkpt>
      <trkpt lat="62.633433261112" lon="17.76582680835">
        <ele>59.6</ele>
        <time>2018-05-04T17:05:17Z</time>
      </trkpt>
      <trkpt lat="62.633470057653" lon="17.765718765659">
        <ele>59.4</ele>
        <time>2018-05-04T17:05:18Z</time>
      </trkpt>
      <trkpt lat="62.63350299852" lon="17.765625391293">
        <ele>59.4</ele>
        <time>2018-05-04T17:05:19Z</time>
      </trkpt>
      <trkpt lat="62.633536861396" lon="17.765531933108">
        <ele>59.4</ele>
        <time>2018-05-04T17:05:20Z</time>
      </trkpt>
      <trkpt lat="62.633568880254" lon="17.765434367792">
        <ele>59.8</ele>
        <time>2018-05-04T17:05:21Z</time>
      </trkpt>
      <trkpt lat="62.633597797809" lon="17.765337389209">
        <ele>60.2</ele>
        <time>2018-05-04T17:05:22Z</time>
      </trkpt>
      <trkpt lat="62.63363124159" lon="17.765230184708">
        <ele>60.4</ele>
        <time>2018-05-04T17:05:23Z</time>
      </trkpt>
      <trkpt lat="62.633665188285" lon="17.765121555284">
        <ele>60.6</ele>
        <time>2018-05-04T17:05:24Z</time>
      </trkpt>
      <trkpt lat="62.633699302618" lon="17.765018290276">
        <ele>60.6</ele>
        <time>2018-05-04T17:05:25Z</time>
      </trkpt>
      <trkpt lat="62.633732411123" lon="17.764912762155">
        <ele>60.4</ele>
        <time>2018-05-04T17:05:26Z</time>
      </trkpt>
      <trkpt lat="62.633762166868" lon="17.764807401672">
        <ele>60.4</ele>
        <time>2018-05-04T17:05:27Z</time>
      </trkpt>
      <trkpt lat="62.633796951753" lon="17.764693324013">
        <ele>60.4</ele>
        <time>2018-05-04T17:05:28Z</time>
      </trkpt>
      <trkpt lat="62.633830814629" lon="17.764588885539">
        <ele>60.4</ele>
        <time>2018-05-04T17:05:29Z</time>
      </trkpt>
      <trkpt lat="62.633864426048" lon="17.764475143156">
        <ele>60.4</ele>
        <time>2018-05-04T17:05:30Z</time>
      </trkpt>
      <trkpt lat="62.633896528725" lon="17.764359053841">
        <ele>60.4</ele>
        <time>2018-05-04T17:05:31Z</time>
      </trkpt>
      <trkpt lat="62.633925530099" lon="17.764259560688">
        <ele>60.6</ele>
        <time>2018-05-04T17:05:32Z</time>
      </trkpt>
      <trkpt lat="62.63396316483" lon="17.764127461944">
        <ele>60.4</ele>
        <time>2018-05-04T17:05:33Z</time>
      </trkpt>
      <trkpt lat="62.633994429317" lon="17.764011121172">
        <ele>60.4</ele>
        <time>2018-05-04T17:05:34Z</time>
      </trkpt>
      <trkpt lat="62.634026196718" lon="17.763894109848">
        <ele>60.4</ele>
        <time>2018-05-04T17:05:35Z</time>
      </trkpt>
      <trkpt lat="62.634060478689" lon="17.763767710796">
        <ele>60.2</ele>
        <time>2018-05-04T17:05:36Z</time>
      </trkpt>
      <trkpt lat="62.634092329909" lon="17.76365254349">
        <ele>60</ele>
        <time>2018-05-04T17:05:37Z</time>
      </trkpt>
      <trkpt lat="62.634125689871" lon="17.763517846357">
        <ele>59.4</ele>
        <time>2018-05-04T17:05:38Z</time>
      </trkpt>
      <trkpt lat="62.634159888023" lon="17.763387088717">
        <ele>58.6</ele>
        <time>2018-05-04T17:05:39Z</time>
      </trkpt>
      <trkpt lat="62.634195092003" lon="17.763255576706">
        <ele>57.8</ele>
        <time>2018-05-04T17:05:40Z</time>
      </trkpt>
      <trkpt lat="62.634228284327" lon="17.763123729419">
        <ele>57.2</ele>
        <time>2018-05-04T17:05:41Z</time>
      </trkpt>
      <trkpt lat="62.634262063384" lon="17.7629895352">
        <ele>56.4</ele>
        <time>2018-05-04T17:05:42Z</time>
      </trkpt>
      <trkpt lat="62.634299530477" lon="17.762847629633">
        <ele>55.8</ele>
        <time>2018-05-04T17:05:43Z</time>
      </trkpt>
      <trkpt lat="62.634336327018" lon="17.762711004663">
        <ele>55.4</ele>
        <time>2018-05-04T17:05:44Z</time>
      </trkpt>
      <trkpt lat="62.634371530998" lon="17.762571697485">
        <ele>55.4</ele>
        <time>2018-05-04T17:05:45Z</time>
      </trkpt>
      <trkpt lat="62.634405310055" lon="17.762433647592">
        <ele>55.2</ele>
        <time>2018-05-04T17:05:46Z</time>
      </trkpt>
      <trkpt lat="62.63443674218" lon="17.762313534965">
        <ele>55</ele>
        <time>2018-05-04T17:05:47Z</time>
      </trkpt>
      <trkpt lat="62.634478232585" lon="17.762152770123">
        <ele>54.6</ele>
        <time>2018-05-04T17:05:48Z</time>
      </trkpt>
      <trkpt lat="62.634513688022" lon="17.762007092701">
        <ele>54.4</ele>
        <time>2018-05-04T17:05:49Z</time>
      </trkpt>
      <trkpt lat="62.63454905964" lon="17.761862253469">
        <ele>54.2</ele>
        <time>2018-05-04T17:05:50Z</time>
      </trkpt>
      <trkpt lat="62.634586526733" lon="17.761722862472">
        <ele>53.8</ele>
        <time>2018-05-04T17:05:51Z</time>
      </trkpt>
      <trkpt lat="62.63462114398" lon="17.761585483131">
        <ele>53.6</ele>
        <time>2018-05-04T17:05:52Z</time>
      </trkpt>
      <trkpt lat="62.634662131471" lon="17.761436620587">
        <ele>53.2</ele>
        <time>2018-05-04T17:05:53Z</time>
      </trkpt>
      <trkpt lat="62.634703705695" lon="17.761283986188">
        <ele>53</ele>
        <time>2018-05-04T17:05:54Z</time>
      </trkpt>
      <trkpt lat="62.634742597711" lon="17.761134369273">
        <ele>52.8</ele>
        <time>2018-05-04T17:05:55Z</time>
      </trkpt>
      <trkpt lat="62.63478123827" lon="17.760985171453">
        <ele>52.6</ele>
        <time>2018-05-04T17:05:56Z</time>
      </trkpt>
      <trkpt lat="62.634817448078" lon="17.76084544518">
        <ele>52.4</ele>
        <time>2018-05-04T17:05:57Z</time>
      </trkpt>
      <trkpt lat="62.63485583718" lon="17.760690631487">
        <ele>52.2</ele>
        <time>2018-05-04T17:05:58Z</time>
      </trkpt>
      <trkpt lat="62.63489271754" lon="17.760545540798">
        <ele>52.2</ele>
        <time>2018-05-04T17:05:59Z</time>
      </trkpt>
      <trkpt lat="62.634929765538" lon="17.760395588607">
        <ele>51.8</ele>
        <time>2018-05-04T17:06:00Z</time>
      </trkpt>
      <trkpt lat="62.634966562079" lon="17.760251503746">
        <ele>51.6</ele>
        <time>2018-05-04T17:06:01Z</time>
      </trkpt>
      <trkpt lat="62.63499749129" lon="17.760130385291">
        <ele>51.2</ele>
        <time>2018-05-04T17:06:02Z</time>
      </trkpt>
      <trkpt lat="62.635037472953" lon="17.75997540396">
        <ele>50.6</ele>
        <time>2018-05-04T17:06:03Z</time>
      </trkpt>
      <trkpt lat="62.635073263666" lon="17.759841209741">
        <ele>50.2</ele>
        <time>2018-05-04T17:06:04Z</time>
      </trkpt>
      <trkpt lat="62.635106958904" lon="17.759712044662">
        <ele>50</ele>
        <time>2018-05-04T17:06:05Z</time>
      </trkpt>
      <trkpt lat="62.635141576151" lon="17.759573659493">
        <ele>49.6</ele>
        <time>2018-05-04T17:06:06Z</time>
      </trkpt>
      <trkpt lat="62.635173259733" lon="17.759450948477">
        <ele>49.6</ele>
        <time>2018-05-04T17:06:07Z</time>
      </trkpt>
      <trkpt lat="62.635208128437" lon="17.759314742602">
        <ele>49.6</ele>
        <time>2018-05-04T17:06:08Z</time>
      </trkpt>
      <trkpt lat="62.63523889001" lon="17.759186499532">
        <ele>49.6</ele>
        <time>2018-05-04T17:06:09Z</time>
      </trkpt>
      <trkpt lat="62.635271327963" lon="17.759062531231">
        <ele>49.6</ele>
        <time>2018-05-04T17:06:10Z</time>
      </trkpt>
      <trkpt lat="62.635306951038" lon="17.758941412776">
        <ele>49.8</ele>
        <time>2018-05-04T17:06:11Z</time>
      </trkpt>
      <trkpt lat="62.635339556629" lon="17.758820713416">
        <ele>49.8</ele>
        <time>2018-05-04T17:06:12Z</time>
      </trkpt>
      <trkpt lat="62.635370653478" lon="17.758682495885">
        <ele>49.8</ele>
        <time>2018-05-04T17:06:13Z</time>
      </trkpt>
      <trkpt lat="62.635404683992" lon="17.758556264471">
        <ele>49.8</ele>
        <time>2018-05-04T17:06:14Z</time>
      </trkpt>
      <trkpt lat="62.635436032298" lon="17.758430535971">
        <ele>49.6</ele>
        <time>2018-05-04T17:06:15Z</time>
      </trkpt>
      <trkpt lat="62.635467883518" lon="17.758307992593">
        <ele>49.6</ele>
        <time>2018-05-04T17:06:16Z</time>
      </trkpt>
      <trkpt lat="62.635495962883" lon="17.75820095573">
        <ele>49.8</ele>
        <time>2018-05-04T17:06:17Z</time>
      </trkpt>
      <trkpt lat="62.635532507967" lon="17.758057373783">
        <ele>49.6</ele>
        <time>2018-05-04T17:06:18Z</time>
      </trkpt>
      <trkpt lat="62.635565029739" lon="17.757930304179">
        <ele>49.6</ele>
        <time>2018-05-04T17:06:19Z</time>
      </trkpt>
      <trkpt lat="62.635596713321" lon="17.75780365367">
        <ele>49.6</ele>
        <time>2018-05-04T17:06:20Z</time>
      </trkpt>
      <trkpt lat="62.63562781017" lon="17.757675075324">
        <ele>49.4</ele>
        <time>2018-05-04T17:06:21Z</time>
      </trkpt>
      <trkpt lat="62.635658655562" lon="17.757557309629">
        <ele>49.2</ele>
        <time>2018-05-04T17:06:22Z</time>
      </trkpt>
      <trkpt lat="62.635694949189" lon="17.757426803446">
        <ele>49</ele>
        <time>2018-05-04T17:06:23Z</time>
      </trkpt>
      <trkpt lat="62.635727387142" lon="17.757292776865">
        <ele>48.8</ele>
        <time>2018-05-04T17:06:24Z</time>
      </trkpt>
      <trkpt lat="62.635757478163" lon="17.757161432492">
        <ele>48.4</ele>
        <time>2018-05-04T17:06:25Z</time>
      </trkpt>
      <trkpt lat="62.635789161745" lon="17.757032015956">
        <ele>48.2</ele>
        <time>2018-05-04T17:06:26Z</time>
      </trkpt>
      <trkpt lat="62.635818666033" lon="17.756909388759">
        <ele>47.8</ele>
        <time>2018-05-04T17:06:27Z</time>
      </trkpt>
      <trkpt lat="62.635849511425" lon="17.756772009418">
        <ele>47.6</ele>
        <time>2018-05-04T17:06:28Z</time>
      </trkpt>
      <trkpt lat="62.635878848075" lon="17.756643431072">
        <ele>47.4</ele>
        <time>2018-05-04T17:06:29Z</time>
      </trkpt>
      <trkpt lat="62.6359102802" lon="17.756509069215">
        <ele>47.4</ele>
        <time>2018-05-04T17:06:30Z</time>
      </trkpt>
      <trkpt lat="62.635938443384" lon="17.756376970471">
        <ele>47.4</ele>
        <time>2018-05-04T17:06:31Z</time>
      </trkpt>
      <trkpt lat="62.635960403962" lon="17.756261719346">
        <ele>47.4</ele>
        <time>2018-05-04T17:06:32Z</time>
      </trkpt>
      <trkpt lat="62.635989656793" lon="17.75611553901">
        <ele>47.4</ele>
        <time>2018-05-04T17:06:33Z</time>
      </trkpt>
      <trkpt lat="62.636014886312" lon="17.755989726691">
        <ele>47.4</ele>
        <time>2018-05-04T17:06:34Z</time>
      </trkpt>
      <trkpt lat="62.636037265985" lon="17.755866261304">
        <ele>47.4</ele>
        <time>2018-05-04T17:06:35Z</time>
      </trkpt>
      <trkpt lat="62.636059897115" lon="17.755735671302">
        <ele>47.4</ele>
        <time>2018-05-04T17:06:36Z</time>
      </trkpt>
      <trkpt lat="62.636079846037" lon="17.755618743797">
        <ele>47.6</ele>
        <time>2018-05-04T17:06:37Z</time>
      </trkpt>
      <trkpt lat="62.636102058072" lon="17.755491171279">
        <ele>47.8</ele>
        <time>2018-05-04T17:06:38Z</time>
      </trkpt>
      <trkpt lat="62.636121755537" lon="17.755370555738">
        <ele>48</ele>
        <time>2018-05-04T17:06:39Z</time>
      </trkpt>
      <trkpt lat="62.63614162064" lon="17.755255807527">
        <ele>48.4</ele>
        <time>2018-05-04T17:06:40Z</time>
      </trkpt>
      <trkpt lat="62.636158049164" lon="17.755141226954">
        <ele>48.8</ele>
        <time>2018-05-04T17:06:41Z</time>
      </trkpt>
      <trkpt lat="62.636174812964" lon="17.755030166779">
        <ele>49.2</ele>
        <time>2018-05-04T17:06:42Z</time>
      </trkpt>
      <trkpt lat="62.636191157669" lon="17.754909886514">
        <ele>49.6</ele>
        <time>2018-05-04T17:06:43Z</time>
      </trkpt>
      <trkpt lat="62.636205909813" lon="17.754793126647">
        <ele>49.8</ele>
        <time>2018-05-04T17:06:44Z</time>
      </trkpt>
      <trkpt lat="62.63621957231" lon="17.754678546074">
        <ele>50</ele>
        <time>2018-05-04T17:06:45Z</time>
      </trkpt>
      <trkpt lat="62.636233570083" lon="17.754563378768">
        <ele>50</ele>
        <time>2018-05-04T17:06:46Z</time>
      </trkpt>
      <trkpt lat="62.636247148761" lon="17.754465897271">
        <ele>50</ele>
        <time>2018-05-04T17:06:47Z</time>
      </trkpt>
      <trkpt lat="62.636263661104" lon="17.754332122147">
        <ele>50</ele>
        <time>2018-05-04T17:06:48Z</time>
      </trkpt>
      <trkpt lat="62.636278077972" lon="17.75421536228">
        <ele>50</ele>
        <time>2018-05-04T17:06:49Z</time>
      </trkpt>
      <trkpt lat="62.636291908107" lon="17.754098770051">
        <ele>50</ele>
        <time>2018-05-04T17:06:50Z</time>
      </trkpt>
      <trkpt lat="62.636307833717" lon="17.753983518926">
        <ele>49.8</ele>
        <time>2018-05-04T17:06:51Z</time>
      </trkpt>
      <trkpt lat="62.63631931692" lon="17.753873967493">
        <ele>50</ele>
        <time>2018-05-04T17:06:52Z</time>
      </trkpt>
      <trkpt lat="62.636330967761" lon="17.753754441599">
        <ele>50</ele>
        <time>2018-05-04T17:06:53Z</time>
      </trkpt>
      <trkpt lat="62.636343959706" lon="17.753627371995">
        <ele>49.8</ele>
        <time>2018-05-04T17:06:54Z</time>
      </trkpt>
      <trkpt lat="62.636359298583" lon="17.753517066191">
        <ele>49.8</ele>
        <time>2018-05-04T17:06:55Z</time>
      </trkpt>
      <trkpt lat="62.636375056555" lon="17.753397959392">
        <ele>49.8</ele>
        <time>2018-05-04T17:06:56Z</time>
      </trkpt>
      <trkpt lat="62.636387964681" lon="17.753287402131">
        <ele>49.6</ele>
        <time>2018-05-04T17:06:57Z</time>
      </trkpt>
      <trkpt lat="62.636400872807" lon="17.753165696943">
        <ele>49.6</ele>
        <time>2018-05-04T17:06:58Z</time>
      </trkpt>
      <trkpt lat="62.636415122037" lon="17.753053295664">
        <ele>49.6</ele>
        <time>2018-05-04T17:06:59Z</time>
      </trkpt>
      <trkpt lat="62.636429538905" lon="17.752933266856">
        <ele>49.6</ele>
        <time>2018-05-04T17:07:00Z</time>
      </trkpt>
      <trkpt lat="62.636443201402" lon="17.752819105378">
        <ele>49.6</ele>
        <time>2018-05-04T17:07:01Z</time>
      </trkpt>
      <trkpt lat="62.636454516967" lon="17.752717852026">
        <ele>49.6</ele>
        <time>2018-05-04T17:07:02Z</time>
      </trkpt>
      <trkpt lat="62.63647019112" lon="17.7525875973">
        <ele>49.6</ele>
        <time>2018-05-04T17:07:03Z</time>
      </trkpt>
      <trkpt lat="62.636484691807" lon="17.752474190193">
        <ele>49.6</ele>
        <time>2018-05-04T17:07:04Z</time>
      </trkpt>
      <trkpt lat="62.636497599933" lon="17.752365896045">
        <ele>49.6</ele>
        <time>2018-05-04T17:07:05Z</time>
      </trkpt>
      <trkpt lat="62.63650874786" lon="17.752249555273">
        <ele>49.6</ele>
        <time>2018-05-04T17:07:06Z</time>
      </trkpt>
      <trkpt lat="62.636521069253" lon="17.75214419479">
        <ele>49.6</ele>
        <time>2018-05-04T17:07:07Z</time>
      </trkpt>
      <trkpt lat="62.636534983207" lon="17.752021064679">
        <ele>49.6</ele>
        <time>2018-05-04T17:07:08Z</time>
      </trkpt>
      <trkpt lat="62.636546382591" lon="17.751898186025">
        <ele>49.6</ele>
        <time>2018-05-04T17:07:09Z</time>
      </trkpt>
      <trkpt lat="62.636561889106" lon="17.751783102538">
        <ele>49.6</ele>
        <time>2018-05-04T17:07:10Z</time>
      </trkpt>
      <trkpt lat="62.636575383965" lon="17.751666342671">
        <ele>49.6</ele>
        <time>2018-05-04T17:07:11Z</time>
      </trkpt>
      <trkpt lat="62.636592650679" lon="17.751547654967">
        <ele>49.8</ele>
        <time>2018-05-04T17:07:12Z</time>
      </trkpt>
      <trkpt lat="62.636606061719" lon="17.751419663354">
        <ele>50</ele>
        <time>2018-05-04T17:07:13Z</time>
      </trkpt>
      <trkpt lat="62.636621232958" lon="17.751300305098">
        <ele>50</ele>
        <time>2018-05-04T17:07:14Z</time>
      </trkpt>
      <trkpt lat="62.636635733645" lon="17.751183042317">
        <ele>50.2</ele>
        <time>2018-05-04T17:07:15Z</time>
      </trkpt>
      <trkpt lat="62.636649228504" lon="17.751069719029">
        <ele>50.2</ele>
        <time>2018-05-04T17:07:16Z</time>
      </trkpt>
      <trkpt lat="62.636658616232" lon="17.750971483161">
        <ele>50.2</ele>
        <time>2018-05-04T17:07:17Z</time>
      </trkpt>
      <trkpt lat="62.636672949281" lon="17.750844748833">
        <ele>50</ele>
        <time>2018-05-04T17:07:18Z</time>
      </trkpt>
      <trkpt lat="62.636684516303" lon="17.750739304531">
        <ele>49.8</ele>
        <time>2018-05-04T17:07:19Z</time>
      </trkpt>
      <trkpt lat="62.636695496592" lon="17.750638637912">
        <ele>49.8</ele>
        <time>2018-05-04T17:07:20Z</time>
      </trkpt>
      <trkpt lat="62.6367065607" lon="17.75054073732">
        <ele>50</ele>
        <time>2018-05-04T17:07:21Z</time>
      </trkpt>
      <trkpt lat="62.636716786618" lon="17.750452140637">
        <ele>49.8</ele>
        <time>2018-05-04T17:07:22Z</time>
      </trkpt>
      <trkpt lat="62.63672416269" lon="17.75035968828">
        <ele>50.2</ele>
        <time>2018-05-04T17:07:23Z</time>
      </trkpt>
      <trkpt lat="62.63673589735" lon="17.750273689986">
        <ele>50.6</ele>
        <time>2018-05-04T17:07:24Z</time>
      </trkpt>
      <trkpt lat="62.636743860155" lon="17.75019707942">
        <ele>51.2</ele>
        <time>2018-05-04T17:07:25Z</time>
      </trkpt>
      <trkpt lat="62.636753415521" lon="17.750118960112">
        <ele>51.6</ele>
        <time>2018-05-04T17:07:26Z</time>
      </trkpt>
      <trkpt lat="62.636761545964" lon="17.75004117608">
        <ele>52.2</ele>
        <time>2018-05-04T17:07:27Z</time>
      </trkpt>
      <trkpt lat="62.636769508769" lon="17.749964146419">
        <ele>52.6</ele>
        <time>2018-05-04T17:07:28Z</time>
      </trkpt>
      <trkpt lat="62.636778142126" lon="17.749889128414">
        <ele>53</ele>
        <time>2018-05-04T17:07:29Z</time>
      </trkpt>
      <trkpt lat="62.636785602017" lon="17.749813691314">
        <ele>53.2</ele>
        <time>2018-05-04T17:07:30Z</time>
      </trkpt>
      <trkpt lat="62.636796163211" lon="17.749732135427">
        <ele>53.4</ele>
        <time>2018-05-04T17:07:31Z</time>
      </trkpt>
      <trkpt lat="62.636803204007" lon="17.749661895105">
        <ele>53.4</ele>
        <time>2018-05-04T17:07:32Z</time>
      </trkpt>
      <trkpt lat="62.636813765201" lon="17.749570448576">
        <ele>53.4</ele>
        <time>2018-05-04T17:07:33Z</time>
      </trkpt>
      <trkpt lat="62.63682139273" lon="17.749487383947">
        <ele>53.4</ele>
        <time>2018-05-04T17:07:34Z</time>
      </trkpt>
      <trkpt lat="62.636827427698" lon="17.749405911879">
        <ele>53.6</ele>
        <time>2018-05-04T17:07:35Z</time>
      </trkpt>
      <trkpt lat="62.636837569797" lon="17.749314130074">
        <ele>53.6</ele>
        <time>2018-05-04T17:07:36Z</time>
      </trkpt>
      <trkpt lat="62.636843688584" lon="17.749231065445">
        <ele>53.6</ele>
        <time>2018-05-04T17:07:37Z</time>
      </trkpt>
      <trkpt lat="62.636852154303" lon="17.749132242844">
        <ele>53.8</ele>
        <time>2018-05-04T17:07:38Z</time>
      </trkpt>
      <trkpt lat="62.636861458212" lon="17.749036353908">
        <ele>53.8</ele>
        <time>2018-05-04T17:07:39Z</time>
      </trkpt>
      <trkpt lat="62.636868499008" lon="17.748936609298">
        <ele>53.8</ele>
        <time>2018-05-04T17:07:40Z</time>
      </trkpt>
      <trkpt lat="62.636877383822" lon="17.748836445593">
        <ele>53.8</ele>
        <time>2018-05-04T17:07:41Z</time>
      </trkpt>
      <trkpt lat="62.636885598084" lon="17.748732510033">
        <ele>54</ele>
        <time>2018-05-04T17:07:42Z</time>
      </trkpt>
      <trkpt lat="62.636893896165" lon="17.748618851469">
        <ele>54</ele>
        <time>2018-05-04T17:07:43Z</time>
      </trkpt>
      <trkpt lat="62.636900853142" lon="17.748511227873">
        <ele>54</ele>
        <time>2018-05-04T17:07:44Z</time>
      </trkpt>
      <trkpt lat="62.63690604992" lon="17.748399329508">
        <ele>54.2</ele>
        <time>2018-05-04T17:07:45Z</time>
      </trkpt>
      <trkpt lat="62.636909067404" lon="17.748310229911">
        <ele>54.2</ele>
        <time>2018-05-04T17:07:46Z</time>
      </trkpt>
      <trkpt lat="62.636914850915" lon="17.748206461989">
        <ele>54.2</ele>
        <time>2018-05-04T17:07:47Z</time>
      </trkpt>
      <trkpt lat="62.636922394625" lon="17.748050726287">
        <ele>54.2</ele>
        <time>2018-05-04T17:07:48Z</time>
      </trkpt>
      <trkpt lat="62.6369244901" lon="17.74793396642">
        <ele>54.2</ele>
        <time>2018-05-04T17:07:49Z</time>
      </trkpt>
      <trkpt lat="62.636926334118" lon="17.747813769974">
        <ele>53.8</ele>
        <time>2018-05-04T17:07:50Z</time>
      </trkpt>
      <trkpt lat="62.636928178136" lon="17.747692651519">
        <ele>53.8</ele>
        <time>2018-05-04T17:07:51Z</time>
      </trkpt>
      <trkpt lat="62.636929351602" lon="17.74757605929">
        <ele>53.6</ele>
        <time>2018-05-04T17:07:52Z</time>
      </trkpt>
      <trkpt lat="62.636932369086" lon="17.747453264455">
        <ele>53.2</ele>
        <time>2018-05-04T17:07:53Z</time>
      </trkpt>
      <trkpt lat="62.636932872" lon="17.747338935339">
        <ele>53</ele>
        <time>2018-05-04T17:07:54Z</time>
      </trkpt>
      <trkpt lat="62.636932369086" lon="17.747218068341">
        <ele>53</ele>
        <time>2018-05-04T17:07:55Z</time>
      </trkpt>
      <trkpt lat="62.636933039638" lon="17.74710080556">
        <ele>52.8</ele>
        <time>2018-05-04T17:07:56Z</time>
      </trkpt>
      <trkpt lat="62.636933039638" lon="17.746990835032">
        <ele>53</ele>
        <time>2018-05-04T17:07:57Z</time>
      </trkpt>
      <trkpt lat="62.636932788181" lon="17.74686611236">
        <ele>53</ele>
        <time>2018-05-04T17:07:58Z</time>
      </trkpt>
      <trkpt lat="62.636933039638" lon="17.746751699425">
        <ele>53.2</ele>
        <time>2018-05-04T17:07:59Z</time>
      </trkpt>
      <trkpt lat="62.636931866172" lon="17.746629156047">
        <ele>53.2</ele>
        <time>2018-05-04T17:08:00Z</time>
      </trkpt>
      <trkpt lat="62.63692951924" lon="17.746515665121">
        <ele>53.4</ele>
        <time>2018-05-04T17:08:01Z</time>
      </trkpt>
      <trkpt lat="62.636927926679" lon="17.746417513072">
        <ele>53.6</ele>
        <time>2018-05-04T17:08:02Z</time>
      </trkpt>
      <trkpt lat="62.636929351602" lon="17.746284576138">
        <ele>53.6</ele>
        <time>2018-05-04T17:08:03Z</time>
      </trkpt>
      <trkpt lat="62.636928261955" lon="17.746169073556">
        <ele>53.6</ele>
        <time>2018-05-04T17:08:04Z</time>
      </trkpt>
      <trkpt lat="62.636925579747" lon="17.746057007553">
        <ele>53.6</ele>
        <time>2018-05-04T17:08:05Z</time>
      </trkpt>
      <trkpt lat="62.636927256127" lon="17.745940331505">
        <ele>53.6</ele>
        <time>2018-05-04T17:08:06Z</time>
      </trkpt>
      <trkpt lat="62.636926585575" lon="17.745837234135">
        <ele>53.6</ele>
        <time>2018-05-04T17:08:07Z</time>
      </trkpt>
      <trkpt lat="62.636926753213" lon="17.745719049345">
        <ele>53.4</ele>
        <time>2018-05-04T17:08:08Z</time>
      </trkpt>
      <trkpt lat="62.636925160652" lon="17.745608911179">
        <ele>53.4</ele>
        <time>2018-05-04T17:08:09Z</time>
      </trkpt>
      <trkpt lat="62.636922562263" lon="17.745498437737">
        <ele>53.4</ele>
        <time>2018-05-04T17:08:10Z</time>
      </trkpt>
      <trkpt lat="62.636923735729" lon="17.745388802485">
        <ele>53.4</ele>
        <time>2018-05-04T17:08:11Z</time>
      </trkpt>
      <trkpt lat="62.636923568091" lon="17.74527774231">
        <ele>53.4</ele>
        <time>2018-05-04T17:08:12Z</time>
      </trkpt>
      <trkpt lat="62.636922059349" lon="17.745155701846">
        <ele>53.4</ele>
        <time>2018-05-04T17:08:13Z</time>
      </trkpt>
      <trkpt lat="62.636919041865" lon="17.745039025798">
        <ele>53.6</ele>
        <time>2018-05-04T17:08:14Z</time>
      </trkpt>
      <trkpt lat="62.636918706589" lon="17.744920170456">
        <ele>53.4</ele>
        <time>2018-05-04T17:08:15Z</time>
      </trkpt>
      <trkpt lat="62.636919209503" lon="17.744799554915">
        <ele>53.2</ele>
        <time>2018-05-04T17:08:16Z</time>
      </trkpt>
      <trkpt lat="62.636919377141" lon="17.744694781165">
        <ele>53</ele>
        <time>2018-05-04T17:08:17Z</time>
      </trkpt>
      <trkpt lat="62.636919041865" lon="17.744552121227">
        <ele>53</ele>
        <time>2018-05-04T17:08:18Z</time>
      </trkpt>
      <trkpt lat="62.636919293322" lon="17.744427650012">
        <ele>53</ele>
        <time>2018-05-04T17:08:19Z</time>
      </trkpt>
      <trkpt lat="62.636920131512" lon="17.744303011159">
        <ele>53</ele>
        <time>2018-05-04T17:08:20Z</time>
      </trkpt>
      <trkpt lat="62.63692281372" lon="17.744178288487">
        <ele>53</ele>
        <time>2018-05-04T17:08:21Z</time>
      </trkpt>
      <trkpt lat="62.636923987186" lon="17.744060355154">
        <ele>53</ele>
        <time>2018-05-04T17:08:22Z</time>
      </trkpt>
      <trkpt lat="62.636925076833" lon="17.7439290946">
        <ele>53.2</ele>
        <time>2018-05-04T17:08:23Z</time>
      </trkpt>
      <trkpt lat="62.636929351602" lon="17.743797582589">
        <ele>53.4</ele>
        <time>2018-05-04T17:08:24Z</time>
      </trkpt>
      <trkpt lat="62.63693538657" lon="17.743670177709">
        <ele>53.4</ele>
        <time>2018-05-04T17:08:25Z</time>
      </trkpt>
      <trkpt lat="62.636942259728" lon="17.743541431725">
        <ele>53.2</ele>
        <time>2018-05-04T17:08:26Z</time>
      </trkpt>
      <trkpt lat="62.636948713791" lon="17.743416792872">
        <ele>53.4</ele>
        <time>2018-05-04T17:08:27Z</time>
      </trkpt>
      <trkpt lat="62.636957347148" lon="17.743278994436">
        <ele>53.4</ele>
        <time>2018-05-04T17:08:28Z</time>
      </trkpt>
      <trkpt lat="62.636968997989" lon="17.743153349755">
        <ele>53.2</ele>
        <time>2018-05-04T17:08:29Z</time>
      </trkpt>
      <trkpt lat="62.636982073753" lon="17.74301379112">
        <ele>53.4</ele>
        <time>2018-05-04T17:08:30Z</time>
      </trkpt>
      <trkpt lat="62.636991796757" lon="17.742885296593">
        <ele>53.8</ele>
        <time>2018-05-04T17:08:31Z</time>
      </trkpt>
      <trkpt lat="62.637000681571" lon="17.742779768472">
        <ele>53.8</ele>
        <time>2018-05-04T17:08:32Z</time>
      </trkpt>
      <trkpt lat="62.637016104267" lon="17.742635348335">
        <ele>53.8</ele>
        <time>2018-05-04T17:08:33Z</time>
      </trkpt>
      <trkpt lat="62.637029515307" lon="17.74250752436">
        <ele>53.8</ele>
        <time>2018-05-04T17:08:34Z</time>
      </trkpt>
      <trkpt lat="62.63704016032" lon="17.742386070629">
        <ele>53.6</ele>
        <time>2018-05-04T17:08:35Z</time>
      </trkpt>
      <trkpt lat="62.637050470057" lon="17.742254726256">
        <ele>53.4</ele>
        <time>2018-05-04T17:08:36Z</time>
      </trkpt>
      <trkpt lat="62.637063126726" lon="17.74213452981">
        <ele>53.4</ele>
        <time>2018-05-04T17:08:37Z</time>
      </trkpt>
      <trkpt lat="62.637077543594" lon="17.74200209579">
        <ele>53.4</ele>
        <time>2018-05-04T17:08:38Z</time>
      </trkpt>
      <trkpt lat="62.637091876643" lon="17.741876870204">
        <ele>53.4</ele>
        <time>2018-05-04T17:08:39Z</time>
      </trkpt>
      <trkpt lat="62.637106628787" lon="17.741746196383">
        <ele>53.4</ele>
        <time>2018-05-04T17:08:40Z</time>
      </trkpt>
      <trkpt lat="62.637118614904" lon="17.741663550849">
        <ele>53.4</ele>
        <time>2018-05-04T17:08:41Z</time>
      </trkpt>
      <trkpt lat="62.637140491663" lon="17.741500271437">
        <ele>53.4</ele>
        <time>2018-05-04T17:08:42Z</time>
      </trkpt>
      <trkpt lat="62.63715834511" lon="17.741371022539">
        <ele>53.4</ele>
        <time>2018-05-04T17:08:43Z</time>
      </trkpt>
      <trkpt lat="62.637174605996" lon="17.741245461677">
        <ele>53.6</ele>
        <time>2018-05-04T17:08:44Z</time>
      </trkpt>
      <trkpt lat="62.637191118339" lon="17.741118308254">
        <ele>53.8</ele>
        <time>2018-05-04T17:08:45Z</time>
      </trkpt>
      <trkpt lat="62.637206038121" lon="17.740997441256">
        <ele>53.8</ele>
        <time>2018-05-04T17:08:46Z</time>
      </trkpt>
      <trkpt lat="62.63721953298" lon="17.74088814128">
        <ele>53.8</ele>
        <time>2018-05-04T17:08:47Z</time>
      </trkpt>
      <trkpt lat="62.637236799694" lon="17.740742966772">
        <ele>53.8</ele>
        <time>2018-05-04T17:08:48Z</time>
      </trkpt>
      <trkpt lat="62.637250713648" lon="17.740620088118">
        <ele>53.8</ele>
        <time>2018-05-04T17:08:49Z</time>
      </trkpt>
      <trkpt lat="62.637265549611" lon="17.740491258315">
        <ele>53.8</ele>
        <time>2018-05-04T17:08:50Z</time>
      </trkpt>
      <trkpt lat="62.63728239723" lon="17.740369217851">
        <ele>53.6</ele>
        <time>2018-05-04T17:08:51Z</time>
      </trkpt>
      <trkpt lat="62.637291868777" lon="17.740240890962">
        <ele>53.6</ele>
        <time>2018-05-04T17:08:52Z</time>
      </trkpt>
      <trkpt lat="62.637306369464" lon="17.74010359544">
        <ele>53.4</ele>
        <time>2018-05-04T17:08:53Z</time>
      </trkpt>
      <trkpt lat="62.637323636178" lon="17.739964539719">
        <ele>53.6</ele>
        <time>2018-05-04T17:08:54Z</time>
      </trkpt>
      <trkpt lat="62.637340483797" lon="17.739834787907">
        <ele>53.6</ele>
        <time>2018-05-04T17:08:55Z</time>
      </trkpt>
      <trkpt lat="62.637357247597" lon="17.739700761326">
        <ele>53.8</ele>
        <time>2018-05-04T17:08:56Z</time>
      </trkpt>
      <trkpt lat="62.637371664465" lon="17.739571428609">
        <ele>53.8</ele>
        <time>2018-05-04T17:08:57Z</time>
      </trkpt>
      <trkpt lat="62.637387925351" lon="17.739425583549">
        <ele>54</ele>
        <time>2018-05-04T17:08:58Z</time>
      </trkpt>
      <trkpt lat="62.637403180409" lon="17.739288790941">
        <ele>54</ele>
        <time>2018-05-04T17:08:59Z</time>
      </trkpt>
      <trkpt lat="62.637419525114" lon="17.739125092434">
        <ele>53.8</ele>
        <time>2018-05-04T17:09:00Z</time>
      </trkpt>
      <trkpt lat="62.637434612534" lon="17.739000872676">
        <ele>53.4</ele>
        <time>2018-05-04T17:09:01Z</time>
      </trkpt>
      <trkpt lat="62.63744919704" lon="17.73886894157">
        <ele>53.4</ele>
        <time>2018-05-04T17:09:02Z</time>
      </trkpt>
      <trkpt lat="62.637461434614" lon="17.738725443442">
        <ele>53.2</ele>
        <time>2018-05-04T17:09:03Z</time>
      </trkpt>
      <trkpt lat="62.637471073799" lon="17.738575658889">
        <ele>53</ele>
        <time>2018-05-04T17:09:04Z</time>
      </trkpt>
      <trkpt lat="62.637479790975" lon="17.738434926788">
        <ele>53</ele>
        <time>2018-05-04T17:09:05Z</time>
      </trkpt>
      <trkpt lat="62.637489262522" lon="17.738285896606">
        <ele>52.8</ele>
        <time>2018-05-04T17:09:06Z</time>
      </trkpt>
      <trkpt lat="62.637499907535" lon="17.738119515891">
        <ele>52.8</ele>
        <time>2018-05-04T17:09:07Z</time>
      </trkpt>
      <trkpt lat="62.637510887824" lon="17.73797375465">
        <ele>52.8</ele>
        <time>2018-05-04T17:09:08Z</time>
      </trkpt>
      <trkpt lat="62.637521029923" lon="17.737832184359">
        <ele>53</ele>
        <time>2018-05-04T17:09:09Z</time>
      </trkpt>
      <trkpt lat="62.637525975244" lon="17.737705701488">
        <ele>53</ele>
        <time>2018-05-04T17:09:10Z</time>
      </trkpt>
      <trkpt lat="62.637534440963" lon="17.737560778437">
        <ele>53</ele>
        <time>2018-05-04T17:09:11Z</time>
      </trkpt>
      <trkpt lat="62.6375447507" lon="17.737408227857">
        <ele>53</ele>
        <time>2018-05-04T17:09:12Z</time>
      </trkpt>
      <trkpt lat="62.637552964962" lon="17.737270261783">
        <ele>53</ele>
        <time>2018-05-04T17:09:13Z</time>
      </trkpt>
      <trkpt lat="62.63755899993" lon="17.737134391184">
        <ele>53.2</ele>
        <time>2018-05-04T17:09:14Z</time>
      </trkpt>
      <trkpt lat="62.637564448165" lon="17.736999945508">
        <ele>53.2</ele>
        <time>2018-05-04T17:09:15Z</time>
      </trkpt>
      <trkpt lat="62.637570566952" lon="17.73686566747">
        <ele>53.4</ele>
        <time>2018-05-04T17:09:16Z</time>
      </trkpt>
      <trkpt lat="62.637580457594" lon="17.73673574802">
        <ele>53.4</ele>
        <time>2018-05-04T17:09:17Z</time>
      </trkpt>
      <trkpt lat="62.637588588037" lon="17.736609097511">
        <ele>53.2</ele>
        <time>2018-05-04T17:09:18Z</time>
      </trkpt>
      <trkpt lat="62.637594036272" lon="17.736477250224">
        <ele>53.2</ele>
        <time>2018-05-04T17:09:19Z</time>
      </trkpt>
      <trkpt lat="62.637599735964" lon="17.736349090973">
        <ele>53.4</ele>
        <time>2018-05-04T17:09:20Z</time>
      </trkpt>
      <trkpt lat="62.637606190027" lon="17.736222189007">
        <ele>53.4</ele>
        <time>2018-05-04T17:09:21Z</time>
      </trkpt>
      <trkpt lat="62.637611889719" lon="17.73609620905">
        <ele>53.6</ele>
        <time>2018-05-04T17:09:22Z</time>
      </trkpt>
      <trkpt lat="62.637618343782" lon="17.735965870505">
        <ele>53.8</ele>
        <time>2018-05-04T17:09:23Z</time>
      </trkpt>
      <trkpt lat="62.637624881664" lon="17.735836034874">
        <ele>54</ele>
        <time>2018-05-04T17:09:24Z</time>
      </trkpt>
      <trkpt lat="62.637630916632" lon="17.735706199243">
        <ele>53.8</ele>
        <time>2018-05-04T17:09:25Z</time>
      </trkpt>
      <trkpt lat="62.637637286876" lon="17.735578878182">
        <ele>53.6</ele>
        <time>2018-05-04T17:09:26Z</time>
      </trkpt>
      <trkpt lat="62.637644076215" lon="17.735451557121">
        <ele>53.6</ele>
        <time>2018-05-04T17:09:27Z</time>
      </trkpt>
      <trkpt lat="62.63765120083" lon="17.735321302395">
        <ele>53.4</ele>
        <time>2018-05-04T17:09:28Z</time>
      </trkpt>
      <trkpt lat="62.63765958273" lon="17.735192556411">
        <ele>53.4</ele>
        <time>2018-05-04T17:09:29Z</time>
      </trkpt>
      <trkpt lat="62.637664108956" lon="17.735061547314">
        <ele>53.6</ele>
        <time>2018-05-04T17:09:30Z</time>
      </trkpt>
      <trkpt lat="62.637668970458" lon="17.734930370579">
        <ele>53.8</ele>
        <time>2018-05-04T17:09:31Z</time>
      </trkpt>
      <trkpt lat="62.63767550834" lon="17.734798607111">
        <ele>54</ele>
        <time>2018-05-04T17:09:32Z</time>
      </trkpt>
      <trkpt lat="62.637682130041" lon="17.734667262738">
        <ele>54.2</ele>
        <time>2018-05-04T17:09:33Z</time>
      </trkpt>
      <trkpt lat="62.637687662095" lon="17.73455477764">
        <ele>54.2</ele>
        <time>2018-05-04T17:09:34Z</time>
      </trkpt>
      <trkpt lat="62.63769394852" lon="17.734422595077">
        <ele>54.4</ele>
        <time>2018-05-04T17:09:35Z</time>
      </trkpt>
      <trkpt lat="62.637699061479" lon="17.734271637058">
        <ele>54.2</ele>
        <time>2018-05-04T17:09:36Z</time>
      </trkpt>
      <trkpt lat="62.637702414239" lon="17.734155631562">
        <ele>54</ele>
        <time>2018-05-04T17:09:37Z</time>
      </trkpt>
      <trkpt lat="62.637710628501" lon="17.734012384891">
        <ele>54.2</ele>
        <time>2018-05-04T17:09:38Z</time>
      </trkpt>
      <trkpt lat="62.637715825279" lon="17.733871988066">
        <ele>54.2</ele>
        <time>2018-05-04T17:09:39Z</time>
      </trkpt>
      <trkpt lat="62.637721189695" lon="17.73373502782">
        <ele>54.2</ele>
        <time>2018-05-04T17:09:40Z</time>
      </trkpt>
      <trkpt lat="62.637728733405" lon="17.733594966271">
        <ele>54.4</ele>
        <time>2018-05-04T17:09:41Z</time>
      </trkpt>
      <trkpt lat="62.637734433097" lon="17.733463873355">
        <ele>54.6</ele>
        <time>2018-05-04T17:09:42Z</time>
      </trkpt>
      <trkpt lat="62.637741641531" lon="17.733311322775">
        <ele>54.4</ele>
        <time>2018-05-04T17:09:43Z</time>
      </trkpt>
      <trkpt lat="62.637751364535" lon="17.733155503254">
        <ele>54.2</ele>
        <time>2018-05-04T17:09:44Z</time>
      </trkpt>
      <trkpt lat="62.637759578797" lon="17.733013932963">
        <ele>54.2</ele>
        <time>2018-05-04T17:09:45Z</time>
      </trkpt>
      <trkpt lat="62.637764105023" lon="17.732871440663">
        <ele>54.2</ele>
        <time>2018-05-04T17:09:46Z</time>
      </trkpt>
      <trkpt lat="62.637771145819" lon="17.732720901739">
        <ele>54.2</ele>
        <time>2018-05-04T17:09:47Z</time>
      </trkpt>
      <trkpt lat="62.637778857167" lon="17.732575224317">
        <ele>54.2</ele>
        <time>2018-05-04T17:09:48Z</time>
      </trkpt>
      <trkpt lat="62.637787322886" lon="17.732429379257">
        <ele>54.4</ele>
        <time>2018-05-04T17:09:49Z</time>
      </trkpt>
      <trkpt lat="62.63779536951" lon="17.732279678523">
        <ele>54.2</ele>
        <time>2018-05-04T17:09:50Z</time>
      </trkpt>
      <trkpt lat="62.637802661763" lon="17.732133414368">
        <ele>54.2</ele>
        <time>2018-05-04T17:09:51Z</time>
      </trkpt>
      <trkpt lat="62.637807020351" lon="17.732009697524">
        <ele>54.2</ele>
        <time>2018-05-04T17:09:52Z</time>
      </trkpt>
      <trkpt lat="62.637818755011" lon="17.731835186366">
        <ele>54.2</ele>
        <time>2018-05-04T17:09:53Z</time>
      </trkpt>
      <trkpt lat="62.637828561834" lon="17.731690095677">
        <ele>54</ele>
        <time>2018-05-04T17:09:54Z</time>
      </trkpt>
      <trkpt lat="62.637837698105" lon="17.7315490283">
        <ele>54</ele>
        <time>2018-05-04T17:09:55Z</time>
      </trkpt>
      <trkpt lat="62.637848594575" lon="17.73140402143">
        <ele>53.8</ele>
        <time>2018-05-04T17:09:56Z</time>
      </trkpt>
      <trkpt lat="62.637862927624" lon="17.731254907429">
        <ele>53.8</ele>
        <time>2018-05-04T17:09:57Z</time>
      </trkpt>
      <trkpt lat="62.637877428311" lon="17.731112918043">
        <ele>53.6</ele>
        <time>2018-05-04T17:09:58Z</time>
      </trkpt>
      <trkpt lat="62.637892348093" lon="17.730967743535">
        <ele>53.6</ele>
        <time>2018-05-04T17:09:59Z</time>
      </trkpt>
      <trkpt lat="62.637907184056" lon="17.730825335054">
        <ele>53.4</ele>
        <time>2018-05-04T17:10:00Z</time>
      </trkpt>
      <trkpt lat="62.637922020019" lon="17.730684519134">
        <ele>53.4</ele>
        <time>2018-05-04T17:10:01Z</time>
      </trkpt>
      <trkpt lat="62.637938867638" lon="17.730549151449">
        <ele>53.2</ele>
        <time>2018-05-04T17:10:02Z</time>
      </trkpt>
      <trkpt lat="62.637959068017" lon="17.730411855927">
        <ele>53.2</ele>
        <time>2018-05-04T17:10:03Z</time>
      </trkpt>
      <trkpt lat="62.63797977131" lon="17.730277661708">
        <ele>53</ele>
        <time>2018-05-04T17:10:04Z</time>
      </trkpt>
      <trkpt lat="62.63800156425" lon="17.730141874928">
        <ele>53</ele>
        <time>2018-05-04T17:10:05Z</time>
      </trkpt>
      <trkpt lat="62.638022854276" lon="17.730006088148">
        <ele>53.2</ele>
        <time>2018-05-04T17:10:06Z</time>
      </trkpt>
      <trkpt lat="62.638050514546" lon="17.729876923069">
        <ele>53.2</ele>
        <time>2018-05-04T17:10:07Z</time>
      </trkpt>
      <trkpt lat="62.638076079341" lon="17.729748177085">
        <ele>53.4</ele>
        <time>2018-05-04T17:10:08Z</time>
      </trkpt>
      <trkpt lat="62.638100638308" lon="17.729619682558">
        <ele>53.4</ele>
        <time>2018-05-04T17:10:09Z</time>
      </trkpt>
      <trkpt lat="62.638124023809" lon="17.729506946003">
        <ele>53.4</ele>
        <time>2018-05-04T17:10:10Z</time>
      </trkpt>
      <trkpt lat="62.638150007699" lon="17.72938314534">
        <ele>53.4</ele>
        <time>2018-05-04T17:10:11Z</time>
      </trkpt>
      <trkpt lat="62.638180182539" lon="17.729271582251">
        <ele>53.4</ele>
        <time>2018-05-04T17:10:12Z</time>
      </trkpt>
      <trkpt lat="62.638213291044" lon="17.729149457968">
        <ele>53.4</ele>
        <time>2018-05-04T17:10:13Z</time>
      </trkpt>
      <trkpt lat="62.638246064273" lon="17.729022891278">
        <ele>53.4</ele>
        <time>2018-05-04T17:10:14Z</time>
      </trkpt>
      <trkpt lat="62.638279424235" lon="17.728903113927">
        <ele>53.4</ele>
        <time>2018-05-04T17:10:15Z</time>
      </trkpt>
      <trkpt lat="62.638307000686" lon="17.728807224991">
        <ele>53.4</ele>
        <time>2018-05-04T17:10:16Z</time>
      </trkpt>
      <trkpt lat="62.638343294313" lon="17.728676048256">
        <ele>53.4</ele>
        <time>2018-05-04T17:10:17Z</time>
      </trkpt>
      <trkpt lat="62.638384784718" lon="17.728540512933">
        <ele>53.4</ele>
        <time>2018-05-04T17:10:18Z</time>
      </trkpt>
      <trkpt lat="62.638422251811" lon="17.728426686731">
        <ele>53</ele>
        <time>2018-05-04T17:10:19Z</time>
      </trkpt>
      <trkpt lat="62.638458964533" lon="17.728312692891">
        <ele>52.8</ele>
        <time>2018-05-04T17:10:20Z</time>
      </trkpt>
      <trkpt lat="62.638497605092" lon="17.72820045925">
        <ele>52.6</ele>
        <time>2018-05-04T17:10:21Z</time>
      </trkpt>
      <trkpt lat="62.638531970882" lon="17.728095098767">
        <ele>52.4</ele>
        <time>2018-05-04T17:10:22Z</time>
      </trkpt>
      <trkpt lat="62.638571784907" lon="17.727979512366">
        <ele>52.4</ele>
        <time>2018-05-04T17:10:23Z</time>
      </trkpt>
      <trkpt lat="62.638611263656" lon="17.727868619829">
        <ele>52.4</ele>
        <time>2018-05-04T17:10:24Z</time>
      </trkpt>
      <trkpt lat="62.638648479292" lon="17.727755296541">
        <ele>52.4</ele>
        <time>2018-05-04T17:10:25Z</time>
      </trkpt>
      <trkpt lat="62.638683767091" lon="17.72764473928">
        <ele>52.6</ele>
        <time>2018-05-04T17:10:26Z</time>
      </trkpt>
      <trkpt lat="62.638720060718" lon="17.727541138996">
        <ele>52.6</ele>
        <time>2018-05-04T17:10:27Z</time>
      </trkpt>
      <trkpt lat="62.638762054037" lon="17.727429072993">
        <ele>52.6</ele>
        <time>2018-05-04T17:10:28Z</time>
      </trkpt>
      <trkpt lat="62.63879616837" lon="17.727316923171">
        <ele>52.6</ele>
        <time>2018-05-04T17:10:29Z</time>
      </trkpt>
      <trkpt lat="62.638834557472" lon="17.727194715069">
        <ele>52.8</ele>
        <time>2018-05-04T17:10:30Z</time>
      </trkpt>
      <trkpt lat="62.638874455316" lon="17.727077536107">
        <ele>52.8</ele>
        <time>2018-05-04T17:10:31Z</time>
      </trkpt>
      <trkpt lat="62.638905300708" lon="17.726975444565">
        <ele>52.8</ele>
        <time>2018-05-04T17:10:32Z</time>
      </trkpt>
      <trkpt lat="62.638946874932" lon="17.726841334165">
        <ele>52.8</ele>
        <time>2018-05-04T17:10:33Z</time>
      </trkpt>
      <trkpt lat="62.638983336197" lon="17.726725915402">
        <ele>52.6</ele>
        <time>2018-05-04T17:10:34Z</time>
      </trkpt>
      <trkpt lat="62.639017282892" lon="17.726606640965">
        <ele>52.4</ele>
        <time>2018-05-04T17:10:35Z</time>
      </trkpt>
      <trkpt lat="62.6390534927" lon="17.726482505026">
        <ele>52.2</ele>
        <time>2018-05-04T17:10:36Z</time>
      </trkpt>
      <trkpt lat="62.639086098291" lon="17.726367086263">
        <ele>52</ele>
        <time>2018-05-04T17:10:37Z</time>
      </trkpt>
      <trkpt lat="62.639121637547" lon="17.726236915356">
        <ele>51.8</ele>
        <time>2018-05-04T17:10:38Z</time>
      </trkpt>
      <trkpt lat="62.639155500423" lon="17.726112108865">
        <ele>51.6</ele>
        <time>2018-05-04T17:10:39Z</time>
      </trkpt>
      <trkpt lat="62.639187770738" lon="17.725983111424">
        <ele>51.4</ele>
        <time>2018-05-04T17:10:40Z</time>
      </trkpt>
      <trkpt lat="62.639219286682" lon="17.725860903322">
        <ele>51.2</ele>
        <time>2018-05-04T17:10:41Z</time>
      </trkpt>
      <trkpt lat="62.639251054083" lon="17.72573953341">
        <ele>51.4</ele>
        <time>2018-05-04T17:10:42Z</time>
      </trkpt>
      <trkpt lat="62.639283827312" lon="17.725604752458">
        <ele>51.4</ele>
        <time>2018-05-04T17:10:43Z</time>
      </trkpt>
      <trkpt lat="62.639313583057" lon="17.725479778329">
        <ele>51.4</ele>
        <time>2018-05-04T17:10:44Z</time>
      </trkpt>
      <trkpt lat="62.639342500612" lon="17.725351367621">
        <ele>51.6</ele>
        <time>2018-05-04T17:10:45Z</time>
      </trkpt>
      <trkpt lat="62.639372088719" lon="17.725225052388">
        <ele>52</ele>
        <time>2018-05-04T17:10:46Z</time>
      </trkpt>
      <trkpt lat="62.639395977134" lon="17.7251117291">
        <ele>52</ele>
        <time>2018-05-04T17:10:47Z</time>
      </trkpt>
      <trkpt lat="62.639428079811" lon="17.724965381126">
        <ele>52</ele>
        <time>2018-05-04T17:10:48Z</time>
      </trkpt>
      <trkpt lat="62.639455320986" lon="17.724834372029">
        <ele>52</ele>
        <time>2018-05-04T17:10:49Z</time>
      </trkpt>
      <trkpt lat="62.639481891609" lon="17.724706212778">
        <ele>51.8</ele>
        <time>2018-05-04T17:10:50Z</time>
      </trkpt>
      <trkpt lat="62.639507288766" lon="17.724578724079">
        <ele>51.6</ele>
        <time>2018-05-04T17:10:51Z</time>
      </trkpt>
      <trkpt lat="62.639530506629" lon="17.724461964212">
        <ele>51.4</ele>
        <time>2018-05-04T17:10:52Z</time>
      </trkpt>
      <trkpt lat="62.639555317053" lon="17.7243322124">
        <ele>51.2</ele>
        <time>2018-05-04T17:10:53Z</time>
      </trkpt>
      <trkpt lat="62.639577612907" lon="17.724203885511">
        <ele>51.2</ele>
        <time>2018-05-04T17:10:54Z</time>
      </trkpt>
      <trkpt lat="62.639598819114" lon="17.724079581934">
        <ele>51</ele>
        <time>2018-05-04T17:10:55Z</time>
      </trkpt>
      <trkpt lat="62.639619606226" lon="17.723957457651">
        <ele>51</ele>
        <time>2018-05-04T17:10:56Z</time>
      </trkpt>
      <trkpt lat="62.639640058062" lon="17.723842374164">
        <ele>51</ele>
        <time>2018-05-04T17:10:57Z</time>
      </trkpt>
      <trkpt lat="62.639658246785" lon="17.723712119438">
        <ele>51</ele>
        <time>2018-05-04T17:10:58Z</time>
      </trkpt>
      <trkpt lat="62.639675932594" lon="17.723593012639">
        <ele>50.8</ele>
        <time>2018-05-04T17:10:59Z</time>
      </trkpt>
      <trkpt lat="62.639695294783" lon="17.723469379614">
        <ele>50.6</ele>
        <time>2018-05-04T17:11:00Z</time>
      </trkpt>
      <trkpt lat="62.639714992248" lon="17.723347590607">
        <ele>50.4</ele>
        <time>2018-05-04T17:11:01Z</time>
      </trkpt>
      <trkpt lat="62.639729241478" lon="17.723237368622">
        <ele>50.4</ele>
        <time>2018-05-04T17:11:02Z</time>
      </trkpt>
      <trkpt lat="62.639747262563" lon="17.723101246566">
        <ele>50.4</ele>
        <time>2018-05-04T17:11:03Z</time>
      </trkpt>
      <trkpt lat="62.639764361639" lon="17.722985157251">
        <ele>50.6</ele>
        <time>2018-05-04T17:11:04Z</time>
      </trkpt>
      <trkpt lat="62.639780538706" lon="17.722866553366">
        <ele>50.6</ele>
        <time>2018-05-04T17:11:05Z</time>
      </trkpt>
      <trkpt lat="62.639792860099" lon="17.722738561753">
        <ele>50.6</ele>
        <time>2018-05-04T17:11:06Z</time>
      </trkpt>
      <trkpt lat="62.639805600587" lon="17.722624567913">
        <ele>50.8</ele>
        <time>2018-05-04T17:11:07Z</time>
      </trkpt>
      <trkpt lat="62.63982127474" lon="17.722499845241">
        <ele>51</ele>
        <time>2018-05-04T17:11:08Z</time>
      </trkpt>
      <trkpt lat="62.639836529798" lon="17.722397250785">
        <ele>51</ele>
        <time>2018-05-04T17:11:09Z</time>
      </trkpt>
      <trkpt lat="62.639851030485" lon="17.722271438466">
        <ele>51.2</ele>
        <time>2018-05-04T17:11:10Z</time>
      </trkpt>
      <trkpt lat="62.639862429869" lon="17.722153840409">
        <ele>51.4</ele>
        <time>2018-05-04T17:11:11Z</time>
      </trkpt>
      <trkpt lat="62.639875505633" lon="17.722037331999">
        <ele>51.6</ele>
        <time>2018-05-04T17:11:12Z</time>
      </trkpt>
      <trkpt lat="62.639885731551" lon="17.721904311246">
        <ele>51.6</ele>
        <time>2018-05-04T17:11:13Z</time>
      </trkpt>
      <trkpt lat="62.639896376564" lon="17.721773050692">
        <ele>51.8</ele>
        <time>2018-05-04T17:11:14Z</time>
      </trkpt>
      <trkpt lat="62.639907859767" lon="17.721647070735">
        <ele>51.8</ele>
        <time>2018-05-04T17:11:15Z</time>
      </trkpt>
      <trkpt lat="62.639916996038" lon="17.72152511409">
        <ele>51.8</ele>
        <time>2018-05-04T17:11:16Z</time>
      </trkpt>
      <trkpt lat="62.639924036834" lon="17.721403073626">
        <ele>51.8</ele>
        <time>2018-05-04T17:11:17Z</time>
      </trkpt>
      <trkpt lat="62.639932837829" lon="17.721256138919">
        <ele>51.6</ele>
        <time>2018-05-04T17:11:18Z</time>
      </trkpt>
      <trkpt lat="62.639940884453" lon="17.72112278289">
        <ele>51.4</ele>
        <time>2018-05-04T17:11:19Z</time>
      </trkpt>
      <trkpt lat="62.639949769267" lon="17.720990265051">
        <ele>51.2</ele>
        <time>2018-05-04T17:11:20Z</time>
      </trkpt>
      <trkpt lat="62.63995789971" lon="17.720858920678">
        <ele>51</ele>
        <time>2018-05-04T17:11:21Z</time>
      </trkpt>
      <trkpt lat="62.63996209066" lon="17.720736125843">
        <ele>50.8</ele>
        <time>2018-05-04T17:11:22Z</time>
      </trkpt>
      <trkpt lat="62.63997047256" lon="17.72060059052">
        <ele>50.8</ele>
        <time>2018-05-04T17:11:23Z</time>
      </trkpt>
      <trkpt lat="62.639980027926" lon="17.72047905297">
        <ele>50.8</ele>
        <time>2018-05-04T17:11:24Z</time>
      </trkpt>
      <trkpt lat="62.639988409826" lon="17.720343685285">
        <ele>50.8</ele>
        <time>2018-05-04T17:11:25Z</time>
      </trkpt>
      <trkpt lat="62.639995702079" lon="17.720219381708">
        <ele>50.8</ele>
        <time>2018-05-04T17:11:26Z</time>
      </trkpt>
      <trkpt lat="62.639999557753" lon="17.720102873298">
        <ele>51</ele>
        <time>2018-05-04T17:11:27Z</time>
      </trkpt>
      <trkpt lat="62.640008945481" lon="17.719973372943">
        <ele>51.2</ele>
        <time>2018-05-04T17:11:28Z</time>
      </trkpt>
      <trkpt lat="62.640015148087" lon="17.719853344135">
        <ele>51.2</ele>
        <time>2018-05-04T17:11:29Z</time>
      </trkpt>
      <trkpt lat="62.640021434512" lon="17.719725017246">
        <ele>51.4</ele>
        <time>2018-05-04T17:11:30Z</time>
      </trkpt>
      <trkpt lat="62.640028140032" lon="17.719607586827">
        <ele>51.6</ele>
        <time>2018-05-04T17:11:31Z</time>
      </trkpt>
      <trkpt lat="62.640031911887" lon="17.719519912153">
        <ele>51.6</ele>
        <time>2018-05-04T17:11:32Z</time>
      </trkpt>
      <trkpt lat="62.640038533588" lon="17.719373647998">
        <ele>51.8</ele>
        <time>2018-05-04T17:11:33Z</time>
      </trkpt>
      <trkpt lat="62.640043311271" lon="17.719260073253">
        <ele>51.8</ele>
        <time>2018-05-04T17:11:34Z</time>
      </trkpt>
      <trkpt lat="62.640049346239" lon="17.719151779105">
        <ele>52</ele>
        <time>2018-05-04T17:11:35Z</time>
      </trkpt>
      <trkpt lat="62.640056470854" lon="17.719040551292">
        <ele>52</ele>
        <time>2018-05-04T17:11:36Z</time>
      </trkpt>
      <trkpt lat="62.640061499994" lon="17.718942315424">
        <ele>52</ele>
        <time>2018-05-04T17:11:37Z</time>
      </trkpt>
      <trkpt lat="62.640066445315" lon="17.718830081783">
        <ele>52</ele>
        <time>2018-05-04T17:11:38Z</time>
      </trkpt>
      <trkpt lat="62.640070803903" lon="17.718737210331">
        <ele>52.2</ele>
        <time>2018-05-04T17:11:39Z</time>
      </trkpt>
      <trkpt lat="62.640074994853" lon="17.718633945323">
        <ele>52.2</ele>
        <time>2018-05-04T17:11:40Z</time>
      </trkpt>
      <trkpt lat="62.640080526907" lon="17.718541912061">
        <ele>52.4</ele>
        <time>2018-05-04T17:11:41Z</time>
      </trkpt>
      <trkpt lat="62.640085975142" lon="17.718452561007">
        <ele>52.6</ele>
        <time>2018-05-04T17:11:42Z</time>
      </trkpt>
      <trkpt lat="62.640091758653" lon="17.718357929356">
        <ele>52.8</ele>
        <time>2018-05-04T17:11:43Z</time>
      </trkpt>
      <trkpt lat="62.640096033422" lon="17.718268662121">
        <ele>53</ele>
        <time>2018-05-04T17:11:44Z</time>
      </trkpt>
      <trkpt lat="62.640103074218" lon="17.71818241237">
        <ele>53.4</ele>
        <time>2018-05-04T17:11:45Z</time>
      </trkpt>
      <trkpt lat="62.64010793572" lon="17.71809440242">
        <ele>53.8</ele>
        <time>2018-05-04T17:11:46Z</time>
      </trkpt>
      <trkpt lat="62.640111120842" lon="17.718019719691">
        <ele>54</ele>
        <time>2018-05-04T17:11:47Z</time>
      </trkpt>
      <trkpt lat="62.640116485258" lon="17.717924417488">
        <ele>54</ele>
        <time>2018-05-04T17:11:48Z</time>
      </trkpt>
      <trkpt lat="62.640118329276" lon="17.717843029239">
        <ele>54.4</ele>
        <time>2018-05-04T17:11:49Z</time>
      </trkpt>
      <trkpt lat="62.640122436407" lon="17.717767089225">
        <ele>54.4</ele>
        <time>2018-05-04T17:11:50Z</time>
      </trkpt>
      <trkpt lat="62.640124950977" lon="17.717689472831">
        <ele>54.8</ele>
        <time>2018-05-04T17:11:51Z</time>
      </trkpt>
      <trkpt lat="62.640129309565" lon="17.717618142862">
        <ele>55</ele>
        <time>2018-05-04T17:11:52Z</time>
      </trkpt>
      <trkpt lat="62.640132913782" lon="17.717537760441">
        <ele>55</ele>
        <time>2018-05-04T17:11:53Z</time>
      </trkpt>
      <trkpt lat="62.64013811056" lon="17.717458383848">
        <ele>55.4</ele>
        <time>2018-05-04T17:11:54Z</time>
      </trkpt>
      <trkpt lat="62.640144899899" lon="17.717382695291">
        <ele>55.4</ele>
        <time>2018-05-04T17:11:55Z</time>
      </trkpt>
      <trkpt lat="62.640148587935" lon="17.717304324526">
        <ele>55.6</ele>
        <time>2018-05-04T17:11:56Z</time>
      </trkpt>
      <trkpt lat="62.640151018686" lon="17.717231737272">
        <ele>55.8</ele>
        <time>2018-05-04T17:11:57Z</time>
      </trkpt>
      <trkpt lat="62.640154706722" lon="17.717150851937">
        <ele>56</ele>
        <time>2018-05-04T17:11:58Z</time>
      </trkpt>
      <trkpt lat="62.640159652043" lon="17.717078767597">
        <ele>56.2</ele>
        <time>2018-05-04T17:11:59Z</time>
      </trkpt>
      <trkpt lat="62.640160825509" lon="17.717004923058">
        <ele>56.4</ele>
        <time>2018-05-04T17:12:00Z</time>
      </trkpt>
      <trkpt lat="62.640163507717" lon="17.716931078519">
        <ele>56.8</ele>
        <time>2018-05-04T17:12:01Z</time>
      </trkpt>
      <trkpt lat="62.640168620676" lon="17.716867962812">
        <ele>57.2</ele>
        <time>2018-05-04T17:12:02Z</time>
      </trkpt>
      <trkpt lat="62.640175074739" lon="17.71678934059">
        <ele>57.6</ele>
        <time>2018-05-04T17:12:03Z</time>
      </trkpt>
      <trkpt lat="62.640180187698" lon="17.716721614838">
        <ele>57.8</ele>
        <time>2018-05-04T17:12:04Z</time>
      </trkpt>
      <trkpt lat="62.640183037544" lon="17.716652464163">
        <ele>58</ele>
        <time>2018-05-04T17:12:05Z</time>
      </trkpt>
      <trkpt lat="62.640182618449" lon="17.716578787262">
        <ele>58.2</ele>
        <time>2018-05-04T17:12:06Z</time>
      </trkpt>
      <trkpt lat="62.640187479951" lon="17.716510977691">
        <ele>58.2</ele>
        <time>2018-05-04T17:12:07Z</time>
      </trkpt>
      <trkpt lat="62.640192844367" lon="17.716435121496">
        <ele>58.6</ele>
        <time>2018-05-04T17:12:08Z</time>
      </trkpt>
      <trkpt lat="62.640197370593" lon="17.716365803183">
        <ele>58.6</ele>
        <time>2018-05-04T17:12:09Z</time>
      </trkpt>
      <trkpt lat="62.640199382249" lon="17.7162939703">
        <ele>58.6</ele>
        <time>2018-05-04T17:12:10Z</time>
      </trkpt>
      <trkpt lat="62.640204411389" lon="17.716223813797">
        <ele>58.8</ele>
        <time>2018-05-04T17:12:11Z</time>
      </trkpt>
      <trkpt lat="62.640208434701" lon="17.716155501312">
        <ele>58.8</ele>
        <time>2018-05-04T17:12:12Z</time>
      </trkpt>
      <trkpt lat="62.640212960927" lon="17.716079226022">
        <ele>59</ele>
        <time>2018-05-04T17:12:13Z</time>
      </trkpt>
      <trkpt lat="62.64021690042" lon="17.716006554949">
        <ele>59.2</ele>
        <time>2018-05-04T17:12:14Z</time>
      </trkpt>
      <trkpt lat="62.640220588456" lon="17.715932207496">
        <ele>59.4</ele>
        <time>2018-05-04T17:12:15Z</time>
      </trkpt>
      <trkpt lat="62.640224695587" lon="17.715856183663">
        <ele>59.8</ele>
        <time>2018-05-04T17:12:16Z</time>
      </trkpt>
      <trkpt lat="62.640226288148" lon="17.715785608065">
        <ele>60.2</ele>
        <time>2018-05-04T17:12:17Z</time>
      </trkpt>
      <trkpt lat="62.640230730555" lon="17.715695921735">
        <ele>60.4</ele>
        <time>2018-05-04T17:12:18Z</time>
      </trkpt>
      <trkpt lat="62.640237687532" lon="17.715615790771">
        <ele>60.8</ele>
        <time>2018-05-04T17:12:19Z</time>
      </trkpt>
      <trkpt lat="62.640241124111" lon="17.715534905436">
        <ele>61.2</ele>
        <time>2018-05-04T17:12:20Z</time>
      </trkpt>
      <trkpt lat="62.640245315061" lon="17.715452176083">
        <ele>61.4</ele>
        <time>2018-05-04T17:12:21Z</time>
      </trkpt>
      <trkpt lat="62.640248081088" lon="17.715375062603">
        <ele>61.6</ele>
        <time>2018-05-04T17:12:22Z</time>
      </trkpt>
      <trkpt lat="62.640254367513" lon="17.715290740689">
        <ele>61.8</ele>
        <time>2018-05-04T17:12:23Z</time>
      </trkpt>
      <trkpt lat="62.640258893739" lon="17.715207424603">
        <ele>62</ele>
        <time>2018-05-04T17:12:24Z</time>
      </trkpt>
      <trkpt lat="62.640261073033" lon="17.715122935051">
        <ele>62</ele>
        <time>2018-05-04T17:12:25Z</time>
      </trkpt>
      <trkpt lat="62.640267862372" lon="17.715037774947">
        <ele>62</ele>
        <time>2018-05-04T17:12:26Z</time>
      </trkpt>
      <trkpt lat="62.640272053322" lon="17.714956889612">
        <ele>62.2</ele>
        <time>2018-05-04T17:12:27Z</time>
      </trkpt>
      <trkpt lat="62.640276914824" lon="17.714865610721">
        <ele>62.2</ele>
        <time>2018-05-04T17:12:28Z</time>
      </trkpt>
      <trkpt lat="62.640277920652" lon="17.714781456445">
        <ele>62.4</ele>
        <time>2018-05-04T17:12:29Z</time>
      </trkpt>
      <trkpt lat="62.640284290896" lon="17.71469051283">
        <ele>62.6</ele>
        <time>2018-05-04T17:12:30Z</time>
      </trkpt>
      <trkpt lat="62.640287392199" lon="17.714601999966">
        <ele>62.8</ele>
        <time>2018-05-04T17:12:31Z</time>
      </trkpt>
      <trkpt lat="62.64029066114" lon="17.714521869002">
        <ele>62.8</ele>
        <time>2018-05-04T17:12:32Z</time>
      </trkpt>
      <trkpt lat="62.640295019728" lon="17.71442899755">
        <ele>63</ele>
        <time>2018-05-04T17:12:33Z</time>
      </trkpt>
      <trkpt lat="62.640301389972" lon="17.714343669808">
        <ele>63</ele>
        <time>2018-05-04T17:12:34Z</time>
      </trkpt>
      <trkpt lat="62.640305580922" lon="17.714262281559">
        <ele>63.2</ele>
        <time>2018-05-04T17:12:35Z</time>
      </trkpt>
      <trkpt lat="62.640310693881" lon="17.714174606885">
        <ele>63.2</ele>
        <time>2018-05-04T17:12:36Z</time>
      </trkpt>
      <trkpt lat="62.640314298098" lon="17.714096739034">
        <ele>63.4</ele>
        <time>2018-05-04T17:12:37Z</time>
      </trkpt>
      <trkpt lat="62.640318908143" lon="17.714009986369">
        <ele>63.6</ele>
        <time>2018-05-04T17:12:38Z</time>
      </trkpt>
      <trkpt lat="62.640324607835" lon="17.713929352491">
        <ele>64</ele>
        <time>2018-05-04T17:12:39Z</time>
      </trkpt>
      <trkpt lat="62.640326787129" lon="17.713846874595">
        <ele>64.2</ele>
        <time>2018-05-04T17:12:40Z</time>
      </trkpt>
      <trkpt lat="62.64033173245" lon="17.713766408355">
        <ele>64.6</ele>
        <time>2018-05-04T17:12:41Z</time>
      </trkpt>
      <trkpt lat="62.640336258676" lon="17.713688959599">
        <ele>65</ele>
        <time>2018-05-04T17:12:42Z</time>
      </trkpt>
      <trkpt lat="62.640340198169" lon="17.71360254221">
        <ele>65.2</ele>
        <time>2018-05-04T17:12:43Z</time>
      </trkpt>
      <trkpt lat="62.640342209825" lon="17.713519142305">
        <ele>65.2</ele>
        <time>2018-05-04T17:12:44Z</time>
      </trkpt>
      <trkpt lat="62.640345730223" lon="17.713435323305">
        <ele>65.4</ele>
        <time>2018-05-04T17:12:45Z</time>
      </trkpt>
      <trkpt lat="62.640352268105" lon="17.713352342495">
        <ele>65.4</ele>
        <time>2018-05-04T17:12:46Z</time>
      </trkpt>
      <trkpt lat="62.640356794331" lon="17.713277240671">
        <ele>65.6</ele>
        <time>2018-05-04T17:12:47Z</time>
      </trkpt>
      <trkpt lat="62.64036274548" lon="17.713182189925">
        <ele>65.4</ele>
        <time>2018-05-04T17:12:48Z</time>
      </trkpt>
      <trkpt lat="62.640368864267" lon="17.713095353441">
        <ele>65.6</ele>
        <time>2018-05-04T17:12:49Z</time>
      </trkpt>
      <trkpt lat="62.640371881751" lon="17.713009019871">
        <ele>65.8</ele>
        <time>2018-05-04T17:12:50Z</time>
      </trkpt>
      <trkpt lat="62.640376575615" lon="17.712923273034">
        <ele>66</ele>
        <time>2018-05-04T17:12:51Z</time>
      </trkpt>
      <trkpt lat="62.640381856212" lon="17.712844399355">
        <ele>66</ele>
        <time>2018-05-04T17:12:52Z</time>
      </trkpt>
      <trkpt lat="62.640385879524" lon="17.712757898147">
        <ele>66.2</ele>
        <time>2018-05-04T17:12:53Z</time>
      </trkpt>
      <trkpt lat="62.640390238112" lon="17.712670977844">
        <ele>66.4</ele>
        <time>2018-05-04T17:12:54Z</time>
      </trkpt>
      <trkpt lat="62.640392752682" lon="17.712585147188">
        <ele>66.6</ele>
        <time>2018-05-04T17:12:55Z</time>
      </trkpt>
      <trkpt lat="62.640396692175" lon="17.71250032236">
        <ele>66.8</ele>
        <time>2018-05-04T17:12:56Z</time>
      </trkpt>
      <trkpt lat="62.640401721315" lon="17.712417844464">
        <ele>67</ele>
        <time>2018-05-04T17:12:57Z</time>
      </trkpt>
      <trkpt lat="62.64040716955" lon="17.71232597884">
        <ele>67.4</ele>
        <time>2018-05-04T17:12:58Z</time>
      </trkpt>
      <trkpt lat="62.640413791251" lon="17.712243920039">
        <ele>67.6</ele>
        <time>2018-05-04T17:12:59Z</time>
      </trkpt>
      <trkpt lat="62.640420161495" lon="17.712154736623">
        <ele>67.8</ele>
        <time>2018-05-04T17:13:00Z</time>
      </trkpt>
      <trkpt lat="62.640423514255" lon="17.712066726673">
        <ele>68.2</ele>
        <time>2018-05-04T17:13:01Z</time>
      </trkpt>
      <trkpt lat="62.640426364101" lon="17.711989529374">
        <ele>68.2</ele>
        <time>2018-05-04T17:13:02Z</time>
      </trkpt>
      <trkpt lat="62.640430219775" lon="17.711889952402">
        <ele>68.4</ele>
        <time>2018-05-04T17:13:03Z</time>
      </trkpt>
      <trkpt lat="62.640437931123" lon="17.711801020443">
        <ele>68.6</ele>
        <time>2018-05-04T17:13:04Z</time>
      </trkpt>
      <trkpt lat="62.640444469005" lon="17.711708819543">
        <ele>68.8</ele>
        <time>2018-05-04T17:13:05Z</time>
      </trkpt>
      <trkpt lat="62.64044740267" lon="17.711618127385">
        <ele>68.8</ele>
        <time>2018-05-04T17:13:06Z</time>
      </trkpt>
      <trkpt lat="62.640449330507" lon="17.711528357236">
        <ele>68.8</ele>
        <time>2018-05-04T17:13:07Z</time>
      </trkpt>
      <trkpt lat="62.64045410819" lon="17.711429450816">
        <ele>69</ele>
        <time>2018-05-04T17:13:08Z</time>
      </trkpt>
      <trkpt lat="62.640459807882" lon="17.711334148613">
        <ele>69</ele>
        <time>2018-05-04T17:13:09Z</time>
      </trkpt>
      <trkpt lat="62.640464585565" lon="17.711260136436">
        <ele>69</ele>
        <time>2018-05-04T17:13:10Z</time>
      </trkpt>
      <trkpt lat="62.640470704352" lon="17.711143460388">
        <ele>69.2</ele>
        <time>2018-05-04T17:13:11Z</time>
      </trkpt>
      <trkpt lat="62.640473889474" lon="17.711048158185">
        <ele>69.2</ele>
        <time>2018-05-04T17:13:12Z</time>
      </trkpt>
      <trkpt lat="62.640478248062" lon="17.710941875693">
        <ele>69.4</ele>
        <time>2018-05-04T17:13:13Z</time>
      </trkpt>
      <trkpt lat="62.640483780116" lon="17.710840957617">
        <ele>69.6</ele>
        <time>2018-05-04T17:13:14Z</time>
      </trkpt>
      <trkpt lat="62.640488893075" lon="17.710739117532">
        <ele>69.8</ele>
        <time>2018-05-04T17:13:15Z</time>
      </trkpt>
      <trkpt lat="62.640493251663" lon="17.710660746767">
        <ele>69.8</ele>
        <time>2018-05-04T17:13:16Z</time>
      </trkpt>
      <trkpt lat="62.640499538088" lon="17.71056494165">
        <ele>69.8</ele>
        <time>2018-05-04T17:13:17Z</time>
      </trkpt>
      <trkpt lat="62.640506830341" lon="17.710426724119">
        <ele>70</ele>
        <time>2018-05-04T17:13:18Z</time>
      </trkpt>
      <trkpt lat="62.640512362395" lon="17.710321363636">
        <ele>70.2</ele>
        <time>2018-05-04T17:13:19Z</time>
      </trkpt>
      <trkpt lat="62.640518062087" lon="17.710212482755">
        <ele>70.2</ele>
        <time>2018-05-04T17:13:20Z</time>
      </trkpt>
      <trkpt lat="62.640523175046" lon="17.710101254942">
        <ele>70</ele>
        <time>2018-05-04T17:13:21Z</time>
      </trkpt>
      <trkpt lat="62.640529210014" lon="17.709997822296">
        <ele>70</ele>
        <time>2018-05-04T17:13:22Z</time>
      </trkpt>
      <trkpt lat="62.640535999353" lon="17.709880475696">
        <ele>70</ele>
        <time>2018-05-04T17:13:23Z</time>
      </trkpt>
      <trkpt lat="62.640542621054" lon="17.709761201259">
        <ele>69.8</ele>
        <time>2018-05-04T17:13:24Z</time>
      </trkpt>
      <trkpt lat="62.640550667678" lon="17.709645866315">
        <ele>69.8</ele>
        <time>2018-05-04T17:13:25Z</time>
      </trkpt>
      <trkpt lat="62.640557624655" lon="17.709530782828">
        <ele>69.8</ele>
        <time>2018-05-04T17:13:26Z</time>
      </trkpt>
      <trkpt lat="62.640560139225" lon="17.709419806472">
        <ele>69.8</ele>
        <time>2018-05-04T17:13:27Z</time>
      </trkpt>
      <trkpt lat="62.640563156709" lon="17.709296508723">
        <ele>69.6</ele>
        <time>2018-05-04T17:13:28Z</time>
      </trkpt>
      <trkpt lat="62.640572376799" lon="17.709178910666">
        <ele>69.6</ele>
        <time>2018-05-04T17:13:29Z</time>
      </trkpt>
      <trkpt lat="62.640580339604" lon="17.709055277641">
        <ele>69.4</ele>
        <time>2018-05-04T17:13:30Z</time>
      </trkpt>
      <trkpt lat="62.640586626029" lon="17.708930387331">
        <ele>69.4</ele>
        <time>2018-05-04T17:13:31Z</time>
      </trkpt>
      <trkpt lat="62.640592074264" lon="17.708817818414">
        <ele>69.4</ele>
        <time>2018-05-04T17:13:32Z</time>
      </trkpt>
      <trkpt lat="62.640597773956" lon="17.708678846512">
        <ele>69.2</ele>
        <time>2018-05-04T17:13:33Z</time>
      </trkpt>
      <trkpt lat="62.640605988218" lon="17.708551693089">
        <ele>69.2</ele>
        <time>2018-05-04T17:13:34Z</time>
      </trkpt>
      <trkpt lat="62.640615375946" lon="17.708427473331">
        <ele>69</ele>
        <time>2018-05-04T17:13:35Z</time>
      </trkpt>
      <trkpt lat="62.640623925484" lon="17.708294452578">
        <ele>68.8</ele>
        <time>2018-05-04T17:13:36Z</time>
      </trkpt>
      <trkpt lat="62.640629122262" lon="17.708170484277">
        <ele>68.4</ele>
        <time>2018-05-04T17:13:37Z</time>
      </trkpt>
      <trkpt lat="62.640634989592" lon="17.70803109328">
        <ele>68.4</ele>
        <time>2018-05-04T17:13:38Z</time>
      </trkpt>
      <trkpt lat="62.640640773103" lon="17.707900754735">
        <ele>68.2</ele>
        <time>2018-05-04T17:13:39Z</time>
      </trkpt>
      <trkpt lat="62.640649574098" lon="17.707770164733">
        <ele>68.2</ele>
        <time>2018-05-04T17:13:40Z</time>
      </trkpt>
      <trkpt lat="62.64065611198" lon="17.707645442061">
        <ele>68.4</ele>
        <time>2018-05-04T17:13:41Z</time>
      </trkpt>
      <trkpt lat="62.64066197931" lon="17.707521138484">
        <ele>68.8</ele>
        <time>2018-05-04T17:13:42Z</time>
      </trkpt>
      <trkpt lat="62.640667427545" lon="17.707387279541">
        <ele>69</ele>
        <time>2018-05-04T17:13:43Z</time>
      </trkpt>
      <trkpt lat="62.640674049246" lon="17.707261970136">
        <ele>69</ele>
        <time>2018-05-04T17:13:44Z</time>
      </trkpt>
      <trkpt lat="62.64068125768" lon="17.707141689871">
        <ele>69</ele>
        <time>2018-05-04T17:13:45Z</time>
      </trkpt>
      <trkpt lat="62.640688214657" lon="17.707024762366">
        <ele>68.8</ele>
        <time>2018-05-04T17:13:46Z</time>
      </trkpt>
      <trkpt lat="62.640692740883" lon="17.70692468248">
        <ele>68.6</ele>
        <time>2018-05-04T17:13:47Z</time>
      </trkpt>
      <trkpt lat="62.640698440575" lon="17.70680146855">
        <ele>68.4</ele>
        <time>2018-05-04T17:13:48Z</time>
      </trkpt>
      <trkpt lat="62.64070640338" lon="17.706695353696">
        <ele>68.4</ele>
        <time>2018-05-04T17:13:49Z</time>
      </trkpt>
      <trkpt lat="62.640713527995" lon="17.706592172507">
        <ele>68.2</ele>
        <time>2018-05-04T17:13:50Z</time>
      </trkpt>
      <trkpt lat="62.640718054221" lon="17.706483962178">
        <ele>68.4</ele>
        <time>2018-05-04T17:13:51Z</time>
      </trkpt>
      <trkpt lat="62.640725346474" lon="17.706383044102">
        <ele>68.8</ele>
        <time>2018-05-04T17:13:52Z</time>
      </trkpt>
      <trkpt lat="62.640729202148" lon="17.706268128253">
        <ele>69</ele>
        <time>2018-05-04T17:13:53Z</time>
      </trkpt>
      <trkpt lat="62.640733644555" lon="17.706153966775">
        <ele>69.4</ele>
        <time>2018-05-04T17:13:54Z</time>
      </trkpt>
      <trkpt lat="62.64074076917" lon="17.706043996247">
        <ele>69.4</ele>
        <time>2018-05-04T17:13:55Z</time>
      </trkpt>
      <trkpt lat="62.640747977604" lon="17.705933606624">
        <ele>69.4</ele>
        <time>2018-05-04T17:13:56Z</time>
      </trkpt>
      <trkpt lat="62.640753761115" lon="17.705831850358">
        <ele>69.2</ele>
        <time>2018-05-04T17:13:57Z</time>
      </trkpt>
      <trkpt lat="62.640761137187" lon="17.705715509586">
        <ele>69.2</ele>
        <time>2018-05-04T17:13:58Z</time>
      </trkpt>
      <trkpt lat="62.640769099992" lon="17.705607131619">
        <ele>69.2</ele>
        <time>2018-05-04T17:13:59Z</time>
      </trkpt>
      <trkpt lat="62.640773542399" lon="17.705492802503">
        <ele>69.4</ele>
        <time>2018-05-04T17:14:00Z</time>
      </trkpt>
      <trkpt lat="62.64077848772" lon="17.705381658509">
        <ele>69.4</ele>
        <time>2018-05-04T17:14:01Z</time>
      </trkpt>
      <trkpt lat="62.640786534344" lon="17.705277220035">
        <ele>69.4</ele>
        <time>2018-05-04T17:14:02Z</time>
      </trkpt>
      <trkpt lat="62.640795754434" lon="17.705155766304">
        <ele>69.4</ele>
        <time>2018-05-04T17:14:03Z</time>
      </trkpt>
      <trkpt lat="62.640803968696" lon="17.705041101912">
        <ele>69.4</ele>
        <time>2018-05-04T17:14:04Z</time>
      </trkpt>
      <trkpt lat="62.640811763863" lon="17.704930041737">
        <ele>69.4</ele>
        <time>2018-05-04T17:14:05Z</time>
      </trkpt>
      <trkpt lat="62.640822408876" lon="17.704813198051">
        <ele>69.4</ele>
        <time>2018-05-04T17:14:06Z</time>
      </trkpt>
      <trkpt lat="62.640832215699" lon="17.704704820084">
        <ele>69.4</ele>
        <time>2018-05-04T17:14:07Z</time>
      </trkpt>
      <trkpt lat="62.640843112169" lon="17.70458194143">
        <ele>69.6</ele>
        <time>2018-05-04T17:14:08Z</time>
      </trkpt>
      <trkpt lat="62.640854427734" lon="17.704463924278">
        <ele>69.6</ele>
        <time>2018-05-04T17:14:09Z</time>
      </trkpt>
      <trkpt lat="62.640866749127" lon="17.704344230746">
        <ele>69.6</ele>
        <time>2018-05-04T17:14:10Z</time>
      </trkpt>
      <trkpt lat="62.640880663081" lon="17.704222441739">
        <ele>69.6</ele>
        <time>2018-05-04T17:14:11Z</time>
      </trkpt>
      <trkpt lat="62.640895415225" lon="17.704105933329">
        <ele>69.8</ele>
        <time>2018-05-04T17:14:12Z</time>
      </trkpt>
      <trkpt lat="62.640911173197" lon="17.703975008051">
        <ele>69.8</ele>
        <time>2018-05-04T17:14:13Z</time>
      </trkpt>
      <trkpt lat="62.640928188454" lon="17.703850872112">
        <ele>69.8</ele>
        <time>2018-05-04T17:14:14Z</time>
      </trkpt>
      <trkpt lat="62.6409478021" lon="17.70372698763">
        <ele>70</ele>
        <time>2018-05-04T17:14:15Z</time>
      </trkpt>
      <trkpt lat="62.640966996651" lon="17.703604108976">
        <ele>70</ele>
        <time>2018-05-04T17:14:16Z</time>
      </trkpt>
      <trkpt lat="62.640985269193" lon="17.703489696041">
        <ele>70</ele>
        <time>2018-05-04T17:14:17Z</time>
      </trkpt>
      <trkpt lat="62.641008738513" lon="17.703352484338">
        <ele>70</ele>
        <time>2018-05-04T17:14:18Z</time>
      </trkpt>
      <trkpt lat="62.641028855073" lon="17.703227007295">
        <ele>69.8</ele>
        <time>2018-05-04T17:14:19Z</time>
      </trkpt>
      <trkpt lat="62.641050983289" lon="17.703099350958">
        <ele>69.6</ele>
        <time>2018-05-04T17:14:20Z</time>
      </trkpt>
      <trkpt lat="62.641075123161" lon="17.70297764577">
        <ele>69.4</ele>
        <time>2018-05-04T17:14:21Z</time>
      </trkpt>
      <trkpt lat="62.641094904445" lon="17.702865160672">
        <ele>69.4</ele>
        <time>2018-05-04T17:14:22Z</time>
      </trkpt>
      <trkpt lat="62.641120217783" lon="17.702740186543">
        <ele>69</ele>
        <time>2018-05-04T17:14:23Z</time>
      </trkpt>
      <trkpt lat="62.641141591628" lon="17.702631221843">
        <ele>68.8</ele>
        <time>2018-05-04T17:14:24Z</time>
      </trkpt>
      <trkpt lat="62.641166737328" lon="17.702506163895">
        <ele>68.4</ele>
        <time>2018-05-04T17:14:25Z</time>
      </trkpt>
      <trkpt lat="62.641192721218" lon="17.702392924426">
        <ele>68.2</ele>
        <time>2018-05-04T17:14:26Z</time>
      </trkpt>
      <trkpt lat="62.641216944909" lon="17.702285636106">
        <ele>68.2</ele>
        <time>2018-05-04T17:14:27Z</time>
      </trkpt>
      <trkpt lat="62.641242677342" lon="17.702163092728">
        <ele>68</ele>
        <time>2018-05-04T17:14:28Z</time>
      </trkpt>
      <trkpt lat="62.641266649576" lon="17.702049098888">
        <ele>67.8</ele>
        <time>2018-05-04T17:14:29Z</time>
      </trkpt>
      <trkpt lat="62.641296153864" lon="17.701935105048">
        <ele>67.8</ele>
        <time>2018-05-04T17:14:30Z</time>
      </trkpt>
      <trkpt lat="62.641321970116" lon="17.701816333525">
        <ele>67.6</ele>
        <time>2018-05-04T17:14:31Z</time>
      </trkpt>
      <trkpt lat="62.641346864359" lon="17.701706279178">
        <ele>67.8</ele>
        <time>2018-05-04T17:14:32Z</time>
      </trkpt>
      <trkpt lat="62.641375279" lon="17.701581556506">
        <ele>67.6</ele>
        <time>2018-05-04T17:14:33Z</time>
      </trkpt>
      <trkpt lat="62.641400843795" lon="17.701461527698">
        <ele>67.8</ele>
        <time>2018-05-04T17:14:34Z</time>
      </trkpt>
      <trkpt lat="62.641426827685" lon="17.701340995976">
        <ele>67.6</ele>
        <time>2018-05-04T17:14:35Z</time>
      </trkpt>
      <trkpt lat="62.641454655593" lon="17.701211411802">
        <ele>67.6</ele>
        <time>2018-05-04T17:14:36Z</time>
      </trkpt>
      <trkpt lat="62.641477202904" lon="17.701090125709">
        <ele>67.6</ele>
        <time>2018-05-04T17:14:37Z</time>
      </trkpt>
      <trkpt lat="62.641505533726" lon="17.700954171291">
        <ele>67.4</ele>
        <time>2018-05-04T17:14:38Z</time>
      </trkpt>
      <trkpt lat="62.641532271987" lon="17.700825928221">
        <ele>67.2</ele>
        <time>2018-05-04T17:14:39Z</time>
      </trkpt>
      <trkpt lat="62.64156051899" lon="17.700682010998">
        <ele>67.2</ele>
        <time>2018-05-04T17:14:40Z</time>
      </trkpt>
      <trkpt lat="62.641581725197" lon="17.700536501214">
        <ele>67</ele>
        <time>2018-05-04T17:14:41Z</time>
      </trkpt>
      <trkpt lat="62.641604607784" lon="17.700391242887">
        <ele>66.8</ele>
        <time>2018-05-04T17:14:42Z</time>
      </trkpt>
      <trkpt lat="62.641632184235" lon="17.700240787782">
        <ele>66.6</ele>
        <time>2018-05-04T17:14:43Z</time>
      </trkpt>
      <trkpt lat="62.641655653555" lon="17.700096702921">
        <ele>66.6</ele>
        <time>2018-05-04T17:14:44Z</time>
      </trkpt>
      <trkpt lat="62.641678536142" lon="17.69994423616">
        <ele>66.6</ele>
        <time>2018-05-04T17:14:45Z</time>
      </trkpt>
      <trkpt lat="62.641700999634" lon="17.699791350304">
        <ele>66.4</ele>
        <time>2018-05-04T17:14:46Z</time>
      </trkpt>
      <trkpt lat="62.641721367651" lon="17.699651456393">
        <ele>66.4</ele>
        <time>2018-05-04T17:14:47Z</time>
      </trkpt>
      <trkpt lat="62.641742992953" lon="17.699484488945">
        <ele>66.4</ele>
        <time>2018-05-04T17:14:48Z</time>
      </trkpt>
      <trkpt lat="62.641761349314" lon="17.699322718275">
        <ele>66.4</ele>
        <time>2018-05-04T17:14:49Z</time>
      </trkpt>
      <trkpt lat="62.641779454218" lon="17.699157846302">
        <ele>66</ele>
        <time>2018-05-04T17:14:50Z</time>
      </trkpt>
      <trkpt lat="62.641797978217" lon="17.698983251325">
        <ele>65.6</ele>
        <time>2018-05-04T17:14:51Z</time>
      </trkpt>
      <trkpt lat="62.641813568551" lon="17.698846123441">
        <ele>65</ele>
        <time>2018-05-04T17:14:52Z</time>
      </trkpt>
      <trkpt lat="62.641833349835" lon="17.698644371108">
        <ele>64.2</ele>
        <time>2018-05-04T17:14:53Z</time>
      </trkpt>
      <trkpt lat="62.64185137092" lon="17.698471955425">
        <ele>63.6</ele>
        <time>2018-05-04T17:14:54Z</time>
      </trkpt>
      <trkpt lat="62.641868469996" lon="17.69830473652">
        <ele>63.4</ele>
        <time>2018-05-04T17:14:55Z</time>
      </trkpt>
      <trkpt lat="62.641882970683" lon="17.698148078809">
        <ele>63</ele>
        <time>2018-05-04T17:14:56Z</time>
      </trkpt>
      <trkpt lat="62.641897303732" lon="17.698000641188">
        <ele>62.6</ele>
        <time>2018-05-04T17:14:57Z</time>
      </trkpt>
      <trkpt lat="62.641914318989" lon="17.697824705107">
        <ele>62.4</ele>
        <time>2018-05-04T17:14:58Z</time>
      </trkpt>
      <trkpt lat="62.641931082789" lon="17.697664862274">
        <ele>62</ele>
        <time>2018-05-04T17:14:59Z</time>
      </trkpt>
      <trkpt lat="62.641950361159" lon="17.697491273125">
        <ele>61.6</ele>
        <time>2018-05-04T17:15:00Z</time>
      </trkpt>
      <trkpt lat="62.641966119131" lon="17.697328496627">
        <ele>61.6</ele>
        <time>2018-05-04T17:15:01Z</time>
      </trkpt>
      <trkpt lat="62.641982380017" lon="17.697165971586">
        <ele>61.4</ele>
        <time>2018-05-04T17:15:02Z</time>
      </trkpt>
      <trkpt lat="62.642000401102" lon="17.696990538419">
        <ele>61</ele>
        <time>2018-05-04T17:15:03Z</time>
      </trkpt>
      <trkpt lat="62.642017751635" lon="17.69681946384">
        <ele>60.8</ele>
        <time>2018-05-04T17:15:04Z</time>
      </trkpt>
      <trkpt lat="62.642034180159" lon="17.696661297387">
        <ele>60.6</ele>
        <time>2018-05-04T17:15:05Z</time>
      </trkpt>
      <trkpt lat="62.642053039434" lon="17.696474045741">
        <ele>60.6</ele>
        <time>2018-05-04T17:15:06Z</time>
      </trkpt>
      <trkpt lat="62.642070222329" lon="17.696304563723">
        <ele>60.4</ele>
        <time>2018-05-04T17:15:07Z</time>
      </trkpt>
      <trkpt lat="62.642086231758" lon="17.696139775569">
        <ele>60.4</ele>
        <time>2018-05-04T17:15:08Z</time>
      </trkpt>
      <trkpt lat="62.642100983902" lon="17.696002731504">
        <ele>60.6</ele>
        <time>2018-05-04T17:15:09Z</time>
      </trkpt>
      <trkpt lat="62.642118669711" lon="17.695841379929">
        <ele>60.6</ele>
        <time>2018-05-04T17:15:10Z</time>
      </trkpt>
      <trkpt lat="62.642134427683" lon="17.695679609259">
        <ele>60.4</ele>
        <time>2018-05-04T17:15:11Z</time>
      </trkpt>
      <trkpt lat="62.642151023845" lon="17.69552446029">
        <ele>60.2</ele>
        <time>2018-05-04T17:15:12Z</time>
      </trkpt>
      <trkpt lat="62.642168709654" lon="17.69536268962">
        <ele>60</ele>
        <time>2018-05-04T17:15:13Z</time>
      </trkpt>
      <trkpt lat="62.642183126522" lon="17.695218018026">
        <ele>59.8</ele>
        <time>2018-05-04T17:15:14Z</time>
      </trkpt>
      <trkpt lat="62.642198213942" lon="17.695063707247">
        <ele>59.4</ele>
        <time>2018-05-04T17:15:15Z</time>
      </trkpt>
      <trkpt lat="62.642214893923" lon="17.694920795852">
        <ele>59</ele>
        <time>2018-05-04T17:15:16Z</time>
      </trkpt>
      <trkpt lat="62.642228388782" lon="17.694792971877">
        <ele>59</ele>
        <time>2018-05-04T17:15:17Z</time>
      </trkpt>
      <trkpt lat="62.642243057107" lon="17.694640756573">
        <ele>58.8</ele>
        <time>2018-05-04T17:15:18Z</time>
      </trkpt>
      <trkpt lat="62.642257306337" lon="17.694502455223">
        <ele>58.8</ele>
        <time>2018-05-04T17:15:19Z</time>
      </trkpt>
      <trkpt lat="62.642270633558" lon="17.694372871049">
        <ele>58.8</ele>
        <time>2018-05-04T17:15:20Z</time>
      </trkpt>
      <trkpt lat="62.64228220058" lon="17.694244292703">
        <ele>59</ele>
        <time>2018-05-04T17:15:21Z</time>
      </trkpt>
      <trkpt lat="62.642293432326" lon="17.694124096257">
        <ele>59</ele>
        <time>2018-05-04T17:15:22Z</time>
      </trkpt>
      <trkpt lat="62.642305250805" lon="17.693993338617">
        <ele>59</ele>
        <time>2018-05-04T17:15:23Z</time>
      </trkpt>
      <trkpt lat="62.642318158931" lon="17.693878087492">
        <ele>59</ele>
        <time>2018-05-04T17:15:24Z</time>
      </trkpt>
      <trkpt lat="62.642330396505" lon="17.693750347336">
        <ele>59</ele>
        <time>2018-05-04T17:15:25Z</time>
      </trkpt>
      <trkpt lat="62.642342801717" lon="17.693633922745">
        <ele>59.2</ele>
        <time>2018-05-04T17:15:26Z</time>
      </trkpt>
      <trkpt lat="62.642355374567" lon="17.693523533122">
        <ele>59.6</ele>
        <time>2018-05-04T17:15:27Z</time>
      </trkpt>
      <trkpt lat="62.642366941589" lon="17.693402498486">
        <ele>59.8</ele>
        <time>2018-05-04T17:15:28Z</time>
      </trkpt>
      <trkpt lat="62.64237691605" lon="17.69328481661">
        <ele>60</ele>
        <time>2018-05-04T17:15:29Z</time>
      </trkpt>
      <trkpt lat="62.642388985986" lon="17.693160261576">
        <ele>60.2</ele>
        <time>2018-05-04T17:15:30Z</time>
      </trkpt>
      <trkpt lat="62.642401810293" lon="17.693037634379">
        <ele>60.4</ele>
        <time>2018-05-04T17:15:31Z</time>
      </trkpt>
      <trkpt lat="62.642414215505" lon="17.692922047978">
        <ele>60.6</ele>
        <time>2018-05-04T17:15:32Z</time>
      </trkpt>
      <trkpt lat="62.642428464735" lon="17.692790368329">
        <ele>60.6</ele>
        <time>2018-05-04T17:15:33Z</time>
      </trkpt>
      <trkpt lat="62.642440115576" lon="17.692659862146">
        <ele>60.6</ele>
        <time>2018-05-04T17:15:34Z</time>
      </trkpt>
      <trkpt lat="62.642451431141" lon="17.692530780886">
        <ele>60.6</ele>
        <time>2018-05-04T17:15:35Z</time>
      </trkpt>
      <trkpt lat="62.642463501077" lon="17.692399352694">
        <ele>60.6</ele>
        <time>2018-05-04T17:15:36Z</time>
      </trkpt>
      <trkpt lat="62.642477582669" lon="17.692272366909">
        <ele>60.6</ele>
        <time>2018-05-04T17:15:37Z</time>
      </trkpt>
      <trkpt lat="62.642491915718" lon="17.692130042247">
        <ele>60.6</ele>
        <time>2018-05-04T17:15:38Z</time>
      </trkpt>
      <trkpt lat="62.642503315102" lon="17.691999536064">
        <ele>60.8</ele>
        <time>2018-05-04T17:15:39Z</time>
      </trkpt>
      <trkpt lat="62.642515720314" lon="17.691849500054">
        <ele>60.6</ele>
        <time>2018-05-04T17:15:40Z</time>
      </trkpt>
      <trkpt lat="62.642524018395" lon="17.69174673796">
        <ele>60.6</ele>
        <time>2018-05-04T17:15:41Z</time>
      </trkpt>
      <trkpt lat="62.642540949833" lon="17.691567532938">
        <ele>60.4</ele>
        <time>2018-05-04T17:15:42Z</time>
      </trkpt>
      <trkpt lat="62.642560898755" lon="17.691392351228">
        <ele>60</ele>
        <time>2018-05-04T17:15:43Z</time>
      </trkpt>
      <trkpt lat="62.642575818537" lon="17.691247763453">
        <ele>59.6</ele>
        <time>2018-05-04T17:15:44Z</time>
      </trkpt>
      <trkpt lat="62.642585373903" lon="17.691117424908">
        <ele>59.4</ele>
        <time>2018-05-04T17:15:45Z</time>
      </trkpt>
      <trkpt lat="62.642597779115" lon="17.690979207377">
        <ele>59.2</ele>
        <time>2018-05-04T17:15:46Z</time>
      </trkpt>
      <trkpt lat="62.64261077106" lon="17.690849455565">
        <ele>59.2</ele>
        <time>2018-05-04T17:15:47Z</time>
      </trkpt>
      <trkpt lat="62.642626026118" lon="17.690693636044">
        <ele>59.2</ele>
        <time>2018-05-04T17:15:48Z</time>
      </trkpt>
      <trkpt lat="62.642638263692" lon="17.69054393531">
        <ele>59</ele>
        <time>2018-05-04T17:15:49Z</time>
      </trkpt>
      <trkpt lat="62.642653267293" lon="17.690392558196">
        <ele>58.8</ele>
        <time>2018-05-04T17:15:50Z</time>
      </trkpt>
      <trkpt lat="62.642665672505" lon="17.690263560755">
        <ele>58.6</ele>
        <time>2018-05-04T17:15:51Z</time>
      </trkpt>
      <trkpt lat="62.642677574803" lon="17.690138754264">
        <ele>58.2</ele>
        <time>2018-05-04T17:15:52Z</time>
      </trkpt>
      <trkpt lat="62.642690231472" lon="17.689999279448">
        <ele>57.8</ele>
        <time>2018-05-04T17:15:53Z</time>
      </trkpt>
      <trkpt lat="62.64270213377" lon="17.689863660306">
        <ele>57.8</ele>
        <time>2018-05-04T17:15:54Z</time>
      </trkpt>
      <trkpt lat="62.642715963905" lon="17.689720916549">
        <ele>57.8</ele>
        <time>2018-05-04T17:15:55Z</time>
      </trkpt>
      <trkpt lat="62.642729626402" lon="17.689590494185">
        <ele>57.8</ele>
        <time>2018-05-04T17:15:56Z</time>
      </trkpt>
      <trkpt lat="62.642742031614" lon="17.689470884472">
        <ele>58</ele>
        <time>2018-05-04T17:15:57Z</time>
      </trkpt>
      <trkpt lat="62.642753598636" lon="17.689335013873">
        <ele>58.2</ele>
        <time>2018-05-04T17:15:58Z</time>
      </trkpt>
      <trkpt lat="62.642762986364" lon="17.68921037502">
        <ele>58.2</ele>
        <time>2018-05-04T17:15:59Z</time>
      </trkpt>
      <trkpt lat="62.642774385748" lon="17.689082718683">
        <ele>58.2</ele>
        <time>2018-05-04T17:16:00Z</time>
      </trkpt>
      <trkpt lat="62.642787712969" lon="17.688957912192">
        <ele>58.2</ele>
        <time>2018-05-04T17:16:01Z</time>
      </trkpt>
      <trkpt lat="62.642797771249" lon="17.688845259456">
        <ele>58.2</ele>
        <time>2018-05-04T17:16:02Z</time>
      </trkpt>
      <trkpt lat="62.642810176461" lon="17.688731181797">
        <ele>58.4</ele>
        <time>2018-05-04T17:16:03Z</time>
      </trkpt>
      <trkpt lat="62.642819145094" lon="17.688614589568">
        <ele>58.4</ele>
        <time>2018-05-04T17:16:04Z</time>
      </trkpt>
      <trkpt lat="62.642827526994" lon="17.688504032307">
        <ele>58.6</ele>
        <time>2018-05-04T17:16:05Z</time>
      </trkpt>
      <trkpt lat="62.642837752912" lon="17.688388026811">
        <ele>58.6</ele>
        <time>2018-05-04T17:16:06Z</time>
      </trkpt>
      <trkpt lat="62.642849152296" lon="17.68828501326">
        <ele>58.8</ele>
        <time>2018-05-04T17:16:07Z</time>
      </trkpt>
      <trkpt lat="62.642858623843" lon="17.688168169574">
        <ele>59</ele>
        <time>2018-05-04T17:16:08Z</time>
      </trkpt>
      <trkpt lat="62.642864826449" lon="17.688067000041">
        <ele>59</ele>
        <time>2018-05-04T17:16:09Z</time>
      </trkpt>
      <trkpt lat="62.642877399299" lon="17.687953173839">
        <ele>59.2</ele>
        <time>2018-05-04T17:16:10Z</time>
      </trkpt>
      <trkpt lat="62.642888295769" lon="17.687852171944">
        <ele>59.2</ele>
        <time>2018-05-04T17:16:11Z</time>
      </trkpt>
      <trkpt lat="62.64289994661" lon="17.687750331859">
        <ele>59.4</ele>
        <time>2018-05-04T17:16:12Z</time>
      </trkpt>
      <trkpt lat="62.642908077053" lon="17.687640026055">
        <ele>59.6</ele>
        <time>2018-05-04T17:16:13Z</time>
      </trkpt>
      <trkpt lat="62.642915620763" lon="17.687532821554">
        <ele>59.6</ele>
        <time>2018-05-04T17:16:14Z</time>
      </trkpt>
      <trkpt lat="62.642928780346" lon="17.687426622881">
        <ele>59.8</ele>
        <time>2018-05-04T17:16:15Z</time>
      </trkpt>
      <trkpt lat="62.642937246065" lon="17.687337523284">
        <ele>59.8</ele>
        <time>2018-05-04T17:16:16Z</time>
      </trkpt>
      <trkpt lat="62.642943448671" lon="17.68724984861">
        <ele>59.8</ele>
        <time>2018-05-04T17:16:17Z</time>
      </trkpt>
      <trkpt lat="62.642953674589" lon="17.687134765123">
        <ele>60</ele>
        <time>2018-05-04T17:16:18Z</time>
      </trkpt>
      <trkpt lat="62.642960799204" lon="17.687030159011">
        <ele>60</ele>
        <time>2018-05-04T17:16:19Z</time>
      </trkpt>
      <trkpt lat="62.642970438389" lon="17.686924044157">
        <ele>60.2</ele>
        <time>2018-05-04T17:16:20Z</time>
      </trkpt>
      <trkpt lat="62.642981921592" lon="17.686818432217">
        <ele>60.2</ele>
        <time>2018-05-04T17:16:21Z</time>
      </trkpt>
      <trkpt lat="62.642991560777" lon="17.686720615444">
        <ele>60.2</ele>
        <time>2018-05-04T17:16:22Z</time>
      </trkpt>
      <trkpt lat="62.643002624885" lon="17.686602514473">
        <ele>60.2</ele>
        <time>2018-05-04T17:16:23Z</time>
      </trkpt>
      <trkpt lat="62.643014611002" lon="17.686498662732">
        <ele>60.4</ele>
        <time>2018-05-04T17:16:24Z</time>
      </trkpt>
      <trkpt lat="62.643022992902" lon="17.686377795734">
        <ele>60.4</ele>
        <time>2018-05-04T17:16:25Z</time>
      </trkpt>
      <trkpt lat="62.643032883544" lon="17.686262712247">
        <ele>60.2</ele>
        <time>2018-05-04T17:16:26Z</time>
      </trkpt>
      <trkpt lat="62.64304243891" lon="17.686155507746">
        <ele>60.2</ele>
        <time>2018-05-04T17:16:27Z</time>
      </trkpt>
      <trkpt lat="62.643053838294" lon="17.686032629092">
        <ele>60.2</ele>
        <time>2018-05-04T17:16:28Z</time>
      </trkpt>
      <trkpt lat="62.643063728936" lon="17.685920143994">
        <ele>60.2</ele>
        <time>2018-05-04T17:16:29Z</time>
      </trkpt>
      <trkpt lat="62.643074206311" lon="17.685798271168">
        <ele>60.2</ele>
        <time>2018-05-04T17:16:30Z</time>
      </trkpt>
      <trkpt lat="62.64308434841" lon="17.685687127174">
        <ele>60.4</ele>
        <time>2018-05-04T17:16:31Z</time>
      </trkpt>
      <trkpt lat="62.643095328699" lon="17.68557765956">
        <ele>60.6</ele>
        <time>2018-05-04T17:16:32Z</time>
      </trkpt>
      <trkpt lat="62.643108236825" lon="17.685454110354">
        <ele>60.6</ele>
        <time>2018-05-04T17:16:33Z</time>
      </trkpt>
      <trkpt lat="62.643116870182" lon="17.685338691591">
        <ele>60.6</ele>
        <time>2018-05-04T17:16:34Z</time>
      </trkpt>
      <trkpt lat="62.64312374334" lon="17.685224613932">
        <ele>60.6</ele>
        <time>2018-05-04T17:16:35Z</time>
      </trkpt>
      <trkpt lat="62.643134723629" lon="17.685107099694">
        <ele>60.8</ele>
        <time>2018-05-04T17:16:36Z</time>
      </trkpt>
      <trkpt lat="62.643144195176" lon="17.684999476098">
        <ele>60.8</ele>
        <time>2018-05-04T17:16:37Z</time>
      </trkpt>
      <trkpt lat="62.643154840189" lon="17.684877100358">
        <ele>61</ele>
        <time>2018-05-04T17:16:38Z</time>
      </trkpt>
      <trkpt lat="62.643164647012" lon="17.684768554753">
        <ele>61</ele>
        <time>2018-05-04T17:16:39Z</time>
      </trkpt>
      <trkpt lat="62.643176633129" lon="17.68464810685">
        <ele>61.2</ele>
        <time>2018-05-04T17:16:40Z</time>
      </trkpt>
      <trkpt lat="62.643187864875" lon="17.684537298132">
        <ele>61.4</ele>
        <time>2018-05-04T17:16:41Z</time>
      </trkpt>
      <trkpt lat="62.643198174612" lon="17.684426321776">
        <ele>61.6</ele>
        <time>2018-05-04T17:16:42Z</time>
      </trkpt>
      <trkpt lat="62.643208819625" lon="17.684303191665">
        <ele>61.6</ele>
        <time>2018-05-04T17:16:43Z</time>
      </trkpt>
      <trkpt lat="62.643218961724" lon="17.68418710235">
        <ele>61.6</ele>
        <time>2018-05-04T17:16:44Z</time>
      </trkpt>
      <trkpt lat="62.643231366936" lon="17.684070677759">
        <ele>61.6</ele>
        <time>2018-05-04T17:16:45Z</time>
      </trkpt>
      <trkpt lat="62.643243353053" lon="17.683952325331">
        <ele>61.6</ele>
        <time>2018-05-04T17:16:46Z</time>
      </trkpt>
      <trkpt lat="62.643253998066" lon="17.683842857717">
        <ele>61.6</ele>
        <time>2018-05-04T17:16:47Z</time>
      </trkpt>
      <trkpt lat="62.643263888708" lon="17.683711680982">
        <ele>61.6</ele>
        <time>2018-05-04T17:16:48Z</time>
      </trkpt>
      <trkpt lat="62.643277886481" lon="17.683593915287">
        <ele>61.8</ele>
        <time>2018-05-04T17:16:49Z</time>
      </trkpt>
      <trkpt lat="62.643288782951" lon="17.683469527891">
        <ele>61.8</ele>
        <time>2018-05-04T17:16:50Z</time>
      </trkpt>
      <trkpt lat="62.643299092688" lon="17.683352935662">
        <ele>61.8</ele>
        <time>2018-05-04T17:16:51Z</time>
      </trkpt>
      <trkpt lat="62.643309653882" lon="17.683247658998">
        <ele>61.8</ele>
        <time>2018-05-04T17:16:52Z</time>
      </trkpt>
      <trkpt lat="62.643322059094" lon="17.683126456724">
        <ele>62.2</ele>
        <time>2018-05-04T17:16:53Z</time>
      </trkpt>
      <trkpt lat="62.643331446822" lon="17.683014809816">
        <ele>62.2</ele>
        <time>2018-05-04T17:16:54Z</time>
      </trkpt>
      <trkpt lat="62.643342678568" lon="17.682891512067">
        <ele>62.2</ele>
        <time>2018-05-04T17:16:55Z</time>
      </trkpt>
      <trkpt lat="62.643354916142" lon="17.682776847675">
        <ele>62</ele>
        <time>2018-05-04T17:16:56Z</time>
      </trkpt>
      <trkpt lat="62.643366650802" lon="17.682670062269">
        <ele>62</ele>
        <time>2018-05-04T17:16:57Z</time>
      </trkpt>
      <trkpt lat="62.643378050186" lon="17.682552128936">
        <ele>62</ele>
        <time>2018-05-04T17:16:58Z</time>
      </trkpt>
      <trkpt lat="62.643387605552" lon="17.682441571675">
        <ele>62</ele>
        <time>2018-05-04T17:16:59Z</time>
      </trkpt>
      <trkpt lat="62.643399759307" lon="17.682326404369">
        <ele>61.8</ele>
        <time>2018-05-04T17:17:00Z</time>
      </trkpt>
      <trkpt lat="62.643410236682" lon="17.682215595651">
        <ele>61.8</ele>
        <time>2018-05-04T17:17:01Z</time>
      </trkpt>
      <trkpt lat="62.6434204626" lon="17.682113504109">
        <ele>62</ele>
        <time>2018-05-04T17:17:02Z</time>
      </trkpt>
      <trkpt lat="62.643432364898" lon="17.682004120314">
        <ele>62</ele>
        <time>2018-05-04T17:17:03Z</time>
      </trkpt>
      <trkpt lat="62.643440662979" lon="17.68189800546">
        <ele>62.2</ele>
        <time>2018-05-04T17:17:04Z</time>
      </trkpt>
      <trkpt lat="62.64344979925" lon="17.68179742266">
        <ele>62.4</ele>
        <time>2018-05-04T17:17:05Z</time>
      </trkpt>
      <trkpt lat="62.643459773711" lon="17.681690637254">
        <ele>62.8</ele>
        <time>2018-05-04T17:17:06Z</time>
      </trkpt>
      <trkpt lat="62.643470670181" lon="17.681599023087">
        <ele>62.8</ele>
        <time>2018-05-04T17:17:07Z</time>
      </trkpt>
      <trkpt lat="62.643479638814" lon="17.681494165518">
        <ele>63</ele>
        <time>2018-05-04T17:17:08Z</time>
      </trkpt>
      <trkpt lat="62.643488691266" lon="17.681405401197">
        <ele>63.2</ele>
        <time>2018-05-04T17:17:09Z</time>
      </trkpt>
      <trkpt lat="62.643496234976" lon="17.681305572768">
        <ele>63.2</ele>
        <time>2018-05-04T17:17:10Z</time>
      </trkpt>
      <trkpt lat="62.64350763436" lon="17.681219406836">
        <ele>63.2</ele>
        <time>2018-05-04T17:17:11Z</time>
      </trkpt>
      <trkpt lat="62.64351685445" lon="17.68113525256">
        <ele>63.4</ele>
        <time>2018-05-04T17:17:12Z</time>
      </trkpt>
      <trkpt lat="62.643526242178" lon="17.68103215519">
        <ele>63.6</ele>
        <time>2018-05-04T17:17:13Z</time>
      </trkpt>
      <trkpt lat="62.643534875535" lon="17.680947246543">
        <ele>63.8</ele>
        <time>2018-05-04T17:17:14Z</time>
      </trkpt>
      <trkpt lat="62.643542754521" lon="17.680878012049">
        <ele>64</ele>
        <time>2018-05-04T17:17:15Z</time>
      </trkpt>
      <trkpt lat="62.643550633507" lon="17.680795617972">
        <ele>64</ele>
        <time>2018-05-04T17:17:16Z</time>
      </trkpt>
      <trkpt lat="62.643556919932" lon="17.680719929415">
        <ele>64.2</ele>
        <time>2018-05-04T17:17:17Z</time>
      </trkpt>
      <trkpt lat="62.643563290176" lon="17.680629404895">
        <ele>64.2</ele>
        <time>2018-05-04T17:17:18Z</time>
      </trkpt>
      <trkpt lat="62.6435713368" lon="17.680550950311">
        <ele>64.4</ele>
        <time>2018-05-04T17:17:19Z</time>
      </trkpt>
      <trkpt lat="62.643580389252" lon="17.680472914822">
        <ele>64.4</ele>
        <time>2018-05-04T17:17:20Z</time>
      </trkpt>
      <trkpt lat="62.64358726241" lon="17.680391358935">
        <ele>64.6</ele>
        <time>2018-05-04T17:17:21Z</time>
      </trkpt>
      <trkpt lat="62.643593465016" lon="17.680320950975">
        <ele>64.8</ele>
        <time>2018-05-04T17:17:22Z</time>
      </trkpt>
      <trkpt lat="62.643602014554" lon="17.680239059812">
        <ele>64.8</ele>
        <time>2018-05-04T17:17:23Z</time>
      </trkpt>
      <trkpt lat="62.643609642083" lon="17.680163455074">
        <ele>65</ele>
        <time>2018-05-04T17:17:24Z</time>
      </trkpt>
      <trkpt lat="62.643619029811" lon="17.680082905015">
        <ele>65.4</ele>
        <time>2018-05-04T17:17:25Z</time>
      </trkpt>
      <trkpt lat="62.643627327892" lon="17.680005204802">
        <ele>65.6</ele>
        <time>2018-05-04T17:17:26Z</time>
      </trkpt>
      <trkpt lat="62.643635458335" lon="17.679933204281">
        <ele>65.8</ele>
        <time>2018-05-04T17:17:27Z</time>
      </trkpt>
      <trkpt lat="62.643645851891" lon="17.679851564575">
        <ele>66</ele>
        <time>2018-05-04T17:17:28Z</time>
      </trkpt>
      <trkpt lat="62.643653563239" lon="17.679775540742">
        <ele>66.2</ele>
        <time>2018-05-04T17:17:29Z</time>
      </trkpt>
      <trkpt lat="62.643663705338" lon="17.679694990683">
        <ele>66.4</ele>
        <time>2018-05-04T17:17:30Z</time>
      </trkpt>
      <trkpt lat="62.643674853265" lon="17.679617374289">
        <ele>66.8</ele>
        <time>2018-05-04T17:17:31Z</time>
      </trkpt>
      <trkpt lat="62.643684073355" lon="17.679548475071">
        <ele>67</ele>
        <time>2018-05-04T17:17:32Z</time>
      </trkpt>
      <trkpt lat="62.643694383092" lon="17.679469182297">
        <ele>67.2</ele>
        <time>2018-05-04T17:17:33Z</time>
      </trkpt>
      <trkpt lat="62.643703435544" lon="17.679396427405">
        <ele>67.4</ele>
        <time>2018-05-04T17:17:34Z</time>
      </trkpt>
      <trkpt lat="62.64370879996" lon="17.679323001961">
        <ele>67.6</ele>
        <time>2018-05-04T17:17:35Z</time>
      </trkpt>
      <trkpt lat="62.643717600955" lon="17.679245888481">
        <ele>67.6</ele>
        <time>2018-05-04T17:17:36Z</time>
      </trkpt>
      <trkpt lat="62.643724641751" lon="17.679176737806">
        <ele>67.8</ele>
        <time>2018-05-04T17:17:37Z</time>
      </trkpt>
      <trkpt lat="62.643732436918" lon="17.679096020109">
        <ele>68</ele>
        <time>2018-05-04T17:17:38Z</time>
      </trkpt>
      <trkpt lat="62.643740986456" lon="17.679026869434">
        <ele>68.2</ele>
        <time>2018-05-04T17:17:39Z</time>
      </trkpt>
      <trkpt lat="62.643749368356" lon="17.678950007411">
        <ele>68.4</ele>
        <time>2018-05-04T17:17:40Z</time>
      </trkpt>
      <trkpt lat="62.643759258998" lon="17.678892004663">
        <ele>68.4</ele>
        <time>2018-05-04T17:17:41Z</time>
      </trkpt>
      <trkpt lat="62.643765461604" lon="17.678839198693">
        <ele>68.8</ele>
        <time>2018-05-04T17:17:42Z</time>
      </trkpt>
      <trkpt lat="62.643770239287" lon="17.678783794334">
        <ele>69</ele>
        <time>2018-05-04T17:17:43Z</time>
      </trkpt>
      <trkpt lat="62.6437725024" lon="17.678735011676">
        <ele>69.2</ele>
        <time>2018-05-04T17:17:44Z</time>
      </trkpt>
      <trkpt lat="62.643778034454" lon="17.678692599262">
        <ele>69.2</ele>
        <time>2018-05-04T17:17:45Z</time>
      </trkpt>
      <trkpt lat="62.643783063594" lon="17.678667285924">
        <ele>69.2</ele>
        <time>2018-05-04T17:17:46Z</time>
      </trkpt>
      <trkpt lat="62.643782476861" lon="17.678660496585">
        <ele>69.2</ele>
        <time>2018-05-04T17:17:47Z</time>
      </trkpt>
      <trkpt lat="62.643778705006" lon="17.678668794666">
        <ele>68.8</ele>
        <time>2018-05-04T17:17:48Z</time>
      </trkpt>
      <trkpt lat="62.64378256068" lon="17.678669549037">
        <ele>68.6</ele>
        <time>2018-05-04T17:17:49Z</time>
      </trkpt>
      <trkpt lat="62.643788847105" lon="17.678675248729">
        <ele>68.4</ele>
        <time>2018-05-04T17:17:50Z</time>
      </trkpt>
      <trkpt lat="62.643660017302" lon="17.678988731789">
        <ele>68.4</ele>
        <time>2018-05-04T17:19:10Z</time>
      </trkpt>
      <trkpt lat="62.643651719221" lon="17.679079088671">
        <ele>68.2</ele>
        <time>2018-05-04T17:19:11Z</time>
      </trkpt>
      <trkpt lat="62.643642918226" lon="17.67917807891">
        <ele>68</ele>
        <time>2018-05-04T17:19:12Z</time>
      </trkpt>
      <trkpt lat="62.643634871602" lon="17.679260053892">
        <ele>68</ele>
        <time>2018-05-04T17:19:13Z</time>
      </trkpt>
      <trkpt lat="62.643625483874" lon="17.679366587841">
        <ele>67.6</ele>
        <time>2018-05-04T17:19:14Z</time>
      </trkpt>
      <trkpt lat="62.643619448906" lon="17.679469182297">
        <ele>67.4</ele>
        <time>2018-05-04T17:19:15Z</time>
      </trkpt>
      <trkpt lat="62.643612994843" lon="17.679560880283">
        <ele>67.2</ele>
        <time>2018-05-04T17:19:16Z</time>
      </trkpt>
      <trkpt lat="62.643601763097" lon="17.6796818311">
        <ele>67</ele>
        <time>2018-05-04T17:19:17Z</time>
      </trkpt>
      <trkpt lat="62.64358977698" lon="17.679796244035">
        <ele>66.8</ele>
        <time>2018-05-04T17:19:18Z</time>
      </trkpt>
      <trkpt lat="62.643577371768" lon="17.679921134345">
        <ele>66.6</ele>
        <time>2018-05-04T17:19:19Z</time>
      </trkpt>
      <trkpt lat="62.643564882737" lon="17.680055328564">
        <ele>66.6</ele>
        <time>2018-05-04T17:19:20Z</time>
      </trkpt>
      <trkpt lat="62.643552980439" lon="17.68018725967">
        <ele>66.4</ele>
        <time>2018-05-04T17:19:21Z</time>
      </trkpt>
      <trkpt lat="62.643538563571" lon="17.680343330648">
        <ele>66.4</ele>
        <time>2018-05-04T17:19:22Z</time>
      </trkpt>
      <trkpt lat="62.643523476151" lon="17.68050158092">
        <ele>66.2</ele>
        <time>2018-05-04T17:19:23Z</time>
      </trkpt>
      <trkpt lat="62.643506460894" lon="17.680684222521">
        <ele>66</ele>
        <time>2018-05-04T17:19:24Z</time>
      </trkpt>
      <trkpt lat="62.643490619103" lon="17.68086200262">
        <ele>65.8</ele>
        <time>2018-05-04T17:19:25Z</time>
      </trkpt>
      <trkpt lat="62.643475280226" lon="17.681034502122">
        <ele>65.4</ele>
        <time>2018-05-04T17:19:26Z</time>
      </trkpt>
      <trkpt lat="62.643457929693" lon="17.681237008826">
        <ele>64.4</ele>
        <time>2018-05-04T17:19:27Z</time>
      </trkpt>
      <trkpt lat="62.643441082074" lon="17.681426439766">
        <ele>63.8</ele>
        <time>2018-05-04T17:19:28Z</time>
      </trkpt>
      <trkpt lat="62.643422306618" lon="17.681630287574">
        <ele>62.8</ele>
        <time>2018-05-04T17:19:29Z</time>
      </trkpt>
      <trkpt lat="62.643402525334" lon="17.681826424034">
        <ele>61.8</ele>
        <time>2018-05-04T17:19:30Z</time>
      </trkpt>
      <trkpt lat="62.643383666059" lon="17.682014346232">
        <ele>61.4</ele>
        <time>2018-05-04T17:19:31Z</time>
      </trkpt>
      <trkpt lat="62.643363214223" lon="17.68222825232">
        <ele>60.8</ele>
        <time>2018-05-04T17:19:32Z</time>
      </trkpt>
      <trkpt lat="62.64334334912" lon="17.68242774154">
        <ele>60.2</ele>
        <time>2018-05-04T17:19:33Z</time>
      </trkpt>
      <trkpt lat="62.643325579492" lon="17.68261884886">
        <ele>60.2</ele>
        <time>2018-05-04T17:19:34Z</time>
      </trkpt>
      <trkpt lat="62.643307055493" lon="17.682830743292">
        <ele>60</ele>
        <time>2018-05-04T17:19:35Z</time>
      </trkpt>
      <trkpt lat="62.64329054315" lon="17.683016318558">
        <ele>60.2</ele>
        <time>2018-05-04T17:19:36Z</time>
      </trkpt>
      <trkpt lat="62.643271767694" lon="17.683224692592">
        <ele>60.2</ele>
        <time>2018-05-04T17:19:37Z</time>
      </trkpt>
      <trkpt lat="62.643254920075" lon="17.683408759116">
        <ele>60.2</ele>
        <time>2018-05-04T17:19:38Z</time>
      </trkpt>
      <trkpt lat="62.643234468239" lon="17.6836213241">
        <ele>60.2</ele>
        <time>2018-05-04T17:19:39Z</time>
      </trkpt>
      <trkpt lat="62.643215525145" lon="17.683807150823">
        <ele>60.2</ele>
        <time>2018-05-04T17:19:40Z</time>
      </trkpt>
      <trkpt lat="62.643196833508" lon="17.683988870415">
        <ele>60.2</ele>
        <time>2018-05-04T17:19:41Z</time>
      </trkpt>
      <trkpt lat="62.643177052224" lon="17.684190287472">
        <ele>60.2</ele>
        <time>2018-05-04T17:19:42Z</time>
      </trkpt>
      <trkpt lat="62.643160036967" lon="17.684379969869">
        <ele>60</ele>
        <time>2018-05-04T17:19:43Z</time>
      </trkpt>
      <trkpt lat="62.64314302171" lon="17.684567137696">
        <ele>60.2</ele>
        <time>2018-05-04T17:19:44Z</time>
      </trkpt>
      <trkpt lat="62.643126760824" lon="17.68474868965">
        <ele>60.2</ele>
        <time>2018-05-04T17:19:45Z</time>
      </trkpt>
      <trkpt lat="62.643113601241" lon="17.684904928266">
        <ele>60.2</ele>
        <time>2018-05-04T17:19:46Z</time>
      </trkpt>
      <trkpt lat="62.643097088898" lon="17.685106177685">
        <ele>59.6</ele>
        <time>2018-05-04T17:19:47Z</time>
      </trkpt>
      <trkpt lat="62.643081917659" lon="17.685283873965">
        <ele>59.4</ele>
        <time>2018-05-04T17:19:48Z</time>
      </trkpt>
      <trkpt lat="62.643065992049" lon="17.685463581901">
        <ele>59.2</ele>
        <time>2018-05-04T17:19:49Z</time>
      </trkpt>
      <trkpt lat="62.643049312068" lon="17.685635997584">
        <ele>59</ele>
        <time>2018-05-04T17:19:50Z</time>
      </trkpt>
      <trkpt lat="62.643035146657" lon="17.685798522625">
        <ele>59.2</ele>
        <time>2018-05-04T17:19:51Z</time>
      </trkpt>
      <trkpt lat="62.643020729789" lon="17.685975632172">
        <ele>59.2</ele>
        <time>2018-05-04T17:19:52Z</time>
      </trkpt>
      <trkpt lat="62.643006229102" lon="17.686139833593">
        <ele>59.2</ele>
        <time>2018-05-04T17:19:53Z</time>
      </trkpt>
      <trkpt lat="62.642989800578" lon="17.686316188769">
        <ele>59.4</ele>
        <time>2018-05-04T17:19:54Z</time>
      </trkpt>
      <trkpt lat="62.642973874968" lon="17.686487850081">
        <ele>59.4</ele>
        <time>2018-05-04T17:19:55Z</time>
      </trkpt>
      <trkpt lat="62.64295778172" lon="17.686647273819">
        <ele>59.2</ele>
        <time>2018-05-04T17:19:56Z</time>
      </trkpt>
      <trkpt lat="62.642941101739" lon="17.686827736126">
        <ele>59.2</ele>
        <time>2018-05-04T17:19:57Z</time>
      </trkpt>
      <trkpt lat="62.642927690699" lon="17.686991099357">
        <ele>59.2</ele>
        <time>2018-05-04T17:19:58Z</time>
      </trkpt>
      <trkpt lat="62.642913106193" lon="17.687173070406">
        <ele>59</ele>
        <time>2018-05-04T17:19:59Z</time>
      </trkpt>
      <trkpt lat="62.642898354049" lon="17.687348503573">
        <ele>59.2</ele>
        <time>2018-05-04T17:20:00Z</time>
      </trkpt>
      <trkpt lat="62.642883434267" lon="17.687511028614">
        <ele>59.2</ele>
        <time>2018-05-04T17:20:01Z</time>
      </trkpt>
      <trkpt lat="62.642866167553" lon="17.687700878649">
        <ele>59.2</ele>
        <time>2018-05-04T17:20:02Z</time>
      </trkpt>
      <trkpt lat="62.642850074305" lon="17.687884693716">
        <ele>59.2</ele>
        <time>2018-05-04T17:20:03Z</time>
      </trkpt>
      <trkpt lat="62.642832807591" lon="17.688070939534">
        <ele>59.4</ele>
        <time>2018-05-04T17:20:04Z</time>
      </trkpt>
      <trkpt lat="62.642813026307" lon="17.688284007432">
        <ele>59.4</ele>
        <time>2018-05-04T17:20:05Z</time>
      </trkpt>
      <trkpt lat="62.642798357982" lon="17.688440162229">
        <ele>59.2</ele>
        <time>2018-05-04T17:20:06Z</time>
      </trkpt>
      <trkpt lat="62.642778660517" lon="17.688653397765">
        <ele>59.2</ele>
        <time>2018-05-04T17:20:07Z</time>
      </trkpt>
      <trkpt lat="62.642762148174" lon="17.688840062678">
        <ele>58.8</ele>
        <time>2018-05-04T17:20:08Z</time>
      </trkpt>
      <trkpt lat="62.642744127089" lon="17.689051454196">
        <ele>58.8</ele>
        <time>2018-05-04T17:20:09Z</time>
      </trkpt>
      <trkpt lat="62.642727866203" lon="17.689245830457">
        <ele>58.6</ele>
        <time>2018-05-04T17:20:10Z</time>
      </trkpt>
      <trkpt lat="62.642711270041" lon="17.689441044908">
        <ele>58.6</ele>
        <time>2018-05-04T17:20:11Z</time>
      </trkpt>
      <trkpt lat="62.642691907852" lon="17.689657214109">
        <ele>58.6</ele>
        <time>2018-05-04T17:20:12Z</time>
      </trkpt>
      <trkpt lat="62.642672629482" lon="17.689857960614">
        <ele>58.6</ele>
        <time>2018-05-04T17:20:13Z</time>
      </trkpt>
      <trkpt lat="62.64265351875" lon="17.690059126214">
        <ele>58.6</ele>
        <time>2018-05-04T17:20:14Z</time>
      </trkpt>
      <trkpt lat="62.642635162389" lon="17.690256100864">
        <ele>58.4</ele>
        <time>2018-05-04T17:20:15Z</time>
      </trkpt>
      <trkpt lat="62.642616889847" lon="17.690453746066">
        <ele>58.2</ele>
        <time>2018-05-04T17:20:16Z</time>
      </trkpt>
      <trkpt lat="62.642599539314" lon="17.690649128155">
        <ele>58</ele>
        <time>2018-05-04T17:20:17Z</time>
      </trkpt>
      <trkpt lat="62.642581602048" lon="17.690841576579">
        <ele>57.8</ele>
        <time>2018-05-04T17:20:18Z</time>
      </trkpt>
      <trkpt lat="62.642564335334" lon="17.691028241492">
        <ele>57.4</ele>
        <time>2018-05-04T17:20:19Z</time>
      </trkpt>
      <trkpt lat="62.64254706862" lon="17.691208787618">
        <ele>57.2</ele>
        <time>2018-05-04T17:20:20Z</time>
      </trkpt>
      <trkpt lat="62.642532065019" lon="17.691374078686">
        <ele>57</ele>
        <time>2018-05-04T17:20:21Z</time>
      </trkpt>
      <trkpt lat="62.64251689378" lon="17.691547500197">
        <ele>57</ele>
        <time>2018-05-04T17:20:22Z</time>
      </trkpt>
      <trkpt lat="62.64250264455" lon="17.691711617799">
        <ele>57</ele>
        <time>2018-05-04T17:20:23Z</time>
      </trkpt>
      <trkpt lat="62.642487724768" lon="17.69188084836">
        <ele>56.8</ele>
        <time>2018-05-04T17:20:24Z</time>
      </trkpt>
      <trkpt lat="62.642473056443" lon="17.692034153311">
        <ele>56.8</ele>
        <time>2018-05-04T17:20:25Z</time>
      </trkpt>
      <trkpt lat="62.64245905867" lon="17.692173041394">
        <ele>56.8</ele>
        <time>2018-05-04T17:20:26Z</time>
      </trkpt>
      <trkpt lat="62.642444306526" lon="17.692325256698">
        <ele>56.8</ele>
        <time>2018-05-04T17:20:27Z</time>
      </trkpt>
      <trkpt lat="62.642431649857" lon="17.692459115641">
        <ele>56.8</ele>
        <time>2018-05-04T17:20:28Z</time>
      </trkpt>
      <trkpt lat="62.64241714917" lon="17.692609738384">
        <ele>56.8</ele>
        <time>2018-05-04T17:20:29Z</time>
      </trkpt>
      <trkpt lat="62.642403821949" lon="17.692749548476">
        <ele>57</ele>
        <time>2018-05-04T17:20:30Z</time>
      </trkpt>
      <trkpt lat="62.64239116528" lon="17.692877791546">
        <ele>57</ele>
        <time>2018-05-04T17:20:31Z</time>
      </trkpt>
      <trkpt lat="62.642376999869" lon="17.693027157004">
        <ele>57.2</ele>
        <time>2018-05-04T17:20:32Z</time>
      </trkpt>
      <trkpt lat="62.642363924105" lon="17.693167721467">
        <ele>57.2</ele>
        <time>2018-05-04T17:20:33Z</time>
      </trkpt>
      <trkpt lat="62.642351686531" lon="17.693303089152">
        <ele>57.4</ele>
        <time>2018-05-04T17:20:34Z</time>
      </trkpt>
      <trkpt lat="62.642336263835" lon="17.693460501234">
        <ele>57.6</ele>
        <time>2018-05-04T17:20:35Z</time>
      </trkpt>
      <trkpt lat="62.642321511691" lon="17.693600898059">
        <ele>58</ele>
        <time>2018-05-04T17:20:36Z</time>
      </trkpt>
      <trkpt lat="62.64230399352" lon="17.693763171643">
        <ele>58.4</ele>
        <time>2018-05-04T17:20:37Z</time>
      </trkpt>
      <trkpt lat="62.642287984091" lon="17.693909603436">
        <ele>58.4</ele>
        <time>2018-05-04T17:20:38Z</time>
      </trkpt>
      <trkpt lat="62.642269543911" lon="17.694081432386">
        <ele>58.6</ele>
        <time>2018-05-04T17:20:39Z</time>
      </trkpt>
      <trkpt lat="62.642253869758" lon="17.694238760649">
        <ele>58.6</ele>
        <time>2018-05-04T17:20:40Z</time>
      </trkpt>
      <trkpt lat="62.642238195605" lon="17.694407069201">
        <ele>58.4</ele>
        <time>2018-05-04T17:20:41Z</time>
      </trkpt>
      <trkpt lat="62.642220509796" lon="17.694586274223">
        <ele>58</ele>
        <time>2018-05-04T17:20:42Z</time>
      </trkpt>
      <trkpt lat="62.642203075444" lon="17.694757851716">
        <ele>57.8</ele>
        <time>2018-05-04T17:20:43Z</time>
      </trkpt>
      <trkpt lat="62.64218664692" lon="17.694930770313">
        <ele>57.6</ele>
        <time>2018-05-04T17:20:44Z</time>
      </trkpt>
      <trkpt lat="62.642170637491" lon="17.695103605091">
        <ele>57.2</ele>
        <time>2018-05-04T17:20:45Z</time>
      </trkpt>
      <trkpt lat="62.642154879519" lon="17.695258167327">
        <ele>57.2</ele>
        <time>2018-05-04T17:20:46Z</time>
      </trkpt>
      <trkpt lat="62.642134008588" lon="17.695454219968">
        <ele>57.2</ele>
        <time>2018-05-04T17:20:47Z</time>
      </trkpt>
      <trkpt lat="62.642116071322" lon="17.695627054746">
        <ele>57</ele>
        <time>2018-05-04T17:20:48Z</time>
      </trkpt>
      <trkpt lat="62.642098469332" lon="17.695798967515">
        <ele>57</ele>
        <time>2018-05-04T17:20:49Z</time>
      </trkpt>
      <trkpt lat="62.64208019679" lon="17.695968533352">
        <ele>57</ele>
        <time>2018-05-04T17:20:50Z</time>
      </trkpt>
      <trkpt lat="62.64206343299" lon="17.696133656782">
        <ele>57.2</ele>
        <time>2018-05-04T17:20:51Z</time>
      </trkpt>
      <trkpt lat="62.642046920647" lon="17.69630230061">
        <ele>57.2</ele>
        <time>2018-05-04T17:20:52Z</time>
      </trkpt>
      <trkpt lat="62.642031246494" lon="17.696460047968">
        <ele>57.4</ele>
        <time>2018-05-04T17:20:53Z</time>
      </trkpt>
      <trkpt lat="62.642015488522" lon="17.696621148086">
        <ele>57.4</ele>
        <time>2018-05-04T17:20:54Z</time>
      </trkpt>
      <trkpt lat="62.641999059998" lon="17.696779817453">
        <ele>57.6</ele>
        <time>2018-05-04T17:20:55Z</time>
      </trkpt>
      <trkpt lat="62.641984810768" lon="17.696920801011">
        <ele>57.6</ele>
        <time>2018-05-04T17:20:56Z</time>
      </trkpt>
      <trkpt lat="62.641969388072" lon="17.697075279428">
        <ele>57.8</ele>
        <time>2018-05-04T17:20:57Z</time>
      </trkpt>
      <trkpt lat="62.641955138842" lon="17.697211066208">
        <ele>58</ele>
        <time>2018-05-04T17:20:58Z</time>
      </trkpt>
      <trkpt lat="62.641940386698" lon="17.697361186037">
        <ele>58.4</ele>
        <time>2018-05-04T17:20:59Z</time>
      </trkpt>
      <trkpt lat="62.641927730029" lon="17.697499319749">
        <ele>58.6</ele>
        <time>2018-05-04T17:21:00Z</time>
      </trkpt>
      <trkpt lat="62.641916079188" lon="17.697626892267">
        <ele>59</ele>
        <time>2018-05-04T17:21:01Z</time>
      </trkpt>
      <trkpt lat="62.641903254881" lon="17.697766367083">
        <ele>59.2</ele>
        <time>2018-05-04T17:21:02Z</time>
      </trkpt>
      <trkpt lat="62.641890933488" lon="17.697897879094">
        <ele>59.2</ele>
        <time>2018-05-04T17:21:03Z</time>
      </trkpt>
      <trkpt lat="62.641878695914" lon="17.698020422472">
        <ele>59.2</ele>
        <time>2018-05-04T17:21:04Z</time>
      </trkpt>
      <trkpt lat="62.641865033417" lon="17.698157550356">
        <ele>59.2</ele>
        <time>2018-05-04T17:21:05Z</time>
      </trkpt>
      <trkpt lat="62.641852628205" lon="17.698274813137">
        <ele>59.2</ele>
        <time>2018-05-04T17:21:06Z</time>
      </trkpt>
      <trkpt lat="62.641838630432" lon="17.698408923537">
        <ele>59.4</ele>
        <time>2018-05-04T17:21:07Z</time>
      </trkpt>
      <trkpt lat="62.641827482505" lon="17.698524677576">
        <ele>59.4</ele>
        <time>2018-05-04T17:21:08Z</time>
      </trkpt>
      <trkpt lat="62.641815999302" lon="17.698652166275">
        <ele>59.8</ele>
        <time>2018-05-04T17:21:09Z</time>
      </trkpt>
      <trkpt lat="62.641805102832" lon="17.69877244654">
        <ele>59.8</ele>
        <time>2018-05-04T17:21:10Z</time>
      </trkpt>
      <trkpt lat="62.641781465874" lon="17.699004289894">
        <ele>60</ele>
        <time>2018-05-04T17:21:12Z</time>
      </trkpt>
      <trkpt lat="62.641768725386" lon="17.699114595698">
        <ele>60.2</ele>
        <time>2018-05-04T17:21:13Z</time>
      </trkpt>
      <trkpt lat="62.641757577459" lon="17.699220123819">
        <ele>60.6</ele>
        <time>2018-05-04T17:21:14Z</time>
      </trkpt>
      <trkpt lat="62.641747267722" lon="17.699320958076">
        <ele>61</ele>
        <time>2018-05-04T17:21:15Z</time>
      </trkpt>
      <trkpt lat="62.641736119795" lon="17.699426402378">
        <ele>61.4</ele>
        <time>2018-05-04T17:21:16Z</time>
      </trkpt>
      <trkpt lat="62.641722624936" lon="17.699532601051">
        <ele>62</ele>
        <time>2018-05-04T17:21:17Z</time>
      </trkpt>
      <trkpt lat="62.641711225552" lon="17.699633854403">
        <ele>62.6</ele>
        <time>2018-05-04T17:21:18Z</time>
      </trkpt>
      <trkpt lat="62.641700412901" lon="17.699734269565">
        <ele>62.8</ele>
        <time>2018-05-04T17:21:19Z</time>
      </trkpt>
      <trkpt lat="62.641688845879" lon="17.699831667243">
        <ele>63.2</ele>
        <time>2018-05-04T17:21:20Z</time>
      </trkpt>
      <trkpt lat="62.641677111219" lon="17.699920599202">
        <ele>63.4</ele>
        <time>2018-05-04T17:21:21Z</time>
      </trkpt>
      <trkpt lat="62.641663700179" lon="17.700016571957">
        <ele>63.8</ele>
        <time>2018-05-04T17:21:22Z</time>
      </trkpt>
      <trkpt lat="62.641649450949" lon="17.700108605219">
        <ele>64</ele>
        <time>2018-05-04T17:21:23Z</time>
      </trkpt>
      <trkpt lat="62.641634447348" lon="17.700207679277">
        <ele>64.2</ele>
        <time>2018-05-04T17:21:24Z</time>
      </trkpt>
      <trkpt lat="62.641621539222" lon="17.700299712539">
        <ele>64.2</ele>
        <time>2018-05-04T17:21:25Z</time>
      </trkpt>
      <trkpt lat="62.641608882553" lon="17.700385878471">
        <ele>64.4</ele>
        <time>2018-05-04T17:21:26Z</time>
      </trkpt>
      <trkpt lat="62.641592789305" lon="17.700484701072">
        <ele>64.4</ele>
        <time>2018-05-04T17:21:27Z</time>
      </trkpt>
      <trkpt lat="62.64157728279" lon="17.700571956651">
        <ele>64.4</ele>
        <time>2018-05-04T17:21:28Z</time>
      </trkpt>
      <trkpt lat="62.641559513162" lon="17.700667510311">
        <ele>64.6</ele>
        <time>2018-05-04T17:21:29Z</time>
      </trkpt>
      <trkpt lat="62.641541827353" lon="17.700761639048">
        <ele>64.8</ele>
        <time>2018-05-04T17:21:30Z</time>
      </trkpt>
      <trkpt lat="62.641525901743" lon="17.700850906283">
        <ele>65</ele>
        <time>2018-05-04T17:21:31Z</time>
      </trkpt>
      <trkpt lat="62.641507545382" lon="17.700951237626">
        <ele>65.2</ele>
        <time>2018-05-04T17:21:32Z</time>
      </trkpt>
      <trkpt lat="62.641488350831" lon="17.701045450182">
        <ele>65.4</ele>
        <time>2018-05-04T17:21:33Z</time>
      </trkpt>
      <trkpt lat="62.64147083266" lon="17.701134801236">
        <ele>65.8</ele>
        <time>2018-05-04T17:21:34Z</time>
      </trkpt>
      <trkpt lat="62.641451051376" lon="17.701236641321">
        <ele>66.2</ele>
        <time>2018-05-04T17:21:35Z</time>
      </trkpt>
      <trkpt lat="62.641432443558" lon="17.701326327651">
        <ele>66.4</ele>
        <time>2018-05-04T17:21:36Z</time>
      </trkpt>
      <trkpt lat="62.64141048298" lon="17.701428922107">
        <ele>66.8</ele>
        <time>2018-05-04T17:21:37Z</time>
      </trkpt>
      <trkpt lat="62.641390450239" lon="17.701518943713">
        <ele>67</ele>
        <time>2018-05-04T17:21:38Z</time>
      </trkpt>
      <trkpt lat="62.641367316195" lon="17.701621202893">
        <ele>67.2</ele>
        <time>2018-05-04T17:21:39Z</time>
      </trkpt>
      <trkpt lat="62.641346948178" lon="17.701714158164">
        <ele>67.4</ele>
        <time>2018-05-04T17:21:40Z</time>
      </trkpt>
      <trkpt lat="62.641325071419" lon="17.701808873634">
        <ele>67.4</ele>
        <time>2018-05-04T17:21:41Z</time>
      </trkpt>
      <trkpt lat="62.641300428633" lon="17.701910378443">
        <ele>67.6</ele>
        <time>2018-05-04T17:21:42Z</time>
      </trkpt>
      <trkpt lat="62.641276959313" lon="17.70200869813">
        <ele>67.8</ele>
        <time>2018-05-04T17:21:43Z</time>
      </trkpt>
      <trkpt lat="62.641254831097" lon="17.70210928093">
        <ele>68</ele>
        <time>2018-05-04T17:21:44Z</time>
      </trkpt>
      <trkpt lat="62.641234295442" lon="17.702209947549">
        <ele>68.2</ele>
        <time>2018-05-04T17:21:45Z</time>
      </trkpt>
      <trkpt lat="62.64121350833" lon="17.702312709643">
        <ele>68.4</ele>
        <time>2018-05-04T17:21:46Z</time>
      </trkpt>
      <trkpt lat="62.641191380114" lon="17.70241941123">
        <ele>68.6</ele>
        <time>2018-05-04T17:21:47Z</time>
      </trkpt>
      <trkpt lat="62.641169000441" lon="17.702524604075">
        <ele>68.6</ele>
        <time>2018-05-04T17:21:48Z</time>
      </trkpt>
      <trkpt lat="62.641146117854" lon="17.702629294006">
        <ele>68.6</ele>
        <time>2018-05-04T17:21:49Z</time>
      </trkpt>
      <trkpt lat="62.641123905819" lon="17.70273540886">
        <ele>68.6</ele>
        <time>2018-05-04T17:21:50Z</time>
      </trkpt>
      <trkpt lat="62.641103789259" lon="17.702838087135">
        <ele>68.6</ele>
        <time>2018-05-04T17:21:51Z</time>
      </trkpt>
      <trkpt lat="62.641082834509" lon="17.702950739871">
        <ele>68.6</ele>
        <time>2018-05-04T17:21:52Z</time>
      </trkpt>
      <trkpt lat="62.641061963578" lon="17.703061129494">
        <ele>68.8</ele>
        <time>2018-05-04T17:21:53Z</time>
      </trkpt>
      <trkpt lat="62.641039332448" lon="17.70317881137">
        <ele>68.8</ele>
        <time>2018-05-04T17:21:54Z</time>
      </trkpt>
      <trkpt lat="62.641018461517" lon="17.703290458278">
        <ele>68.8</ele>
        <time>2018-05-04T17:21:55Z</time>
      </trkpt>
      <trkpt lat="62.640999183147" lon="17.703395567304">
        <ele>69</ele>
        <time>2018-05-04T17:21:56Z</time>
      </trkpt>
      <trkpt lat="62.640977893121" lon="17.703518110682">
        <ele>69.2</ele>
        <time>2018-05-04T17:21:57Z</time>
      </trkpt>
      <trkpt lat="62.64095953676" lon="17.703627494477">
        <ele>69.4</ele>
        <time>2018-05-04T17:21:58Z</time>
      </trkpt>
      <trkpt lat="62.640940426028" lon="17.703754899357">
        <ele>69.6</ele>
        <time>2018-05-04T17:21:59Z</time>
      </trkpt>
      <trkpt lat="62.640922740219" lon="17.703876772183">
        <ele>69.6</ele>
        <time>2018-05-04T17:22:00Z</time>
      </trkpt>
      <trkpt lat="62.640906311695" lon="17.70399353205">
        <ele>69.6</ele>
        <time>2018-05-04T17:22:01Z</time>
      </trkpt>
      <trkpt lat="62.640888206791" lon="17.704121942758">
        <ele>69.6</ele>
        <time>2018-05-04T17:22:02Z</time>
      </trkpt>
      <trkpt lat="62.640871778267" lon="17.704245156688">
        <ele>69.6</ele>
        <time>2018-05-04T17:22:03Z</time>
      </trkpt>
      <trkpt lat="62.640856774666" lon="17.704364934039">
        <ele>69.6</ele>
        <time>2018-05-04T17:22:04Z</time>
      </trkpt>
      <trkpt lat="62.640840346142" lon="17.704501223733">
        <ele>69.6</ele>
        <time>2018-05-04T17:22:05Z</time>
      </trkpt>
      <trkpt lat="62.640827018921" lon="17.70462301274">
        <ele>69.6</ele>
        <time>2018-05-04T17:22:06Z</time>
      </trkpt>
      <trkpt lat="62.640813188786" lon="17.704763158108">
        <ele>69.6</ele>
        <time>2018-05-04T17:22:07Z</time>
      </trkpt>
      <trkpt lat="62.640801370307" lon="17.70488788078">
        <ele>69.8</ele>
        <time>2018-05-04T17:22:08Z</time>
      </trkpt>
      <trkpt lat="62.640788713638" lon="17.705031714184">
        <ele>69.8</ele>
        <time>2018-05-04T17:22:09Z</time>
      </trkpt>
      <trkpt lat="62.640778236263" lon="17.705159119064">
        <ele>69.8</ele>
        <time>2018-05-04T17:22:10Z</time>
      </trkpt>
      <trkpt lat="62.640767926526" lon="17.705297252776">
        <ele>69.6</ele>
        <time>2018-05-04T17:22:11Z</time>
      </trkpt>
      <trkpt lat="62.640758538798" lon="17.705446618234">
        <ele>69.8</ele>
        <time>2018-05-04T17:22:12Z</time>
      </trkpt>
      <trkpt lat="62.64074998926" lon="17.705588859077">
        <ele>69.6</ele>
        <time>2018-05-04T17:22:13Z</time>
      </trkpt>
      <trkpt lat="62.640742026455" lon="17.705727914798">
        <ele>69.4</ele>
        <time>2018-05-04T17:22:14Z</time>
      </trkpt>
      <trkpt lat="62.640734231288" lon="17.705875520057">
        <ele>69.4</ele>
        <time>2018-05-04T17:22:15Z</time>
      </trkpt>
      <trkpt lat="62.640726939035" lon="17.706023292954">
        <ele>69.2</ele>
        <time>2018-05-04T17:22:16Z</time>
      </trkpt>
      <trkpt lat="62.640713444176" lon="17.706175592077">
        <ele>69</ele>
        <time>2018-05-04T17:22:17Z</time>
      </trkpt>
      <trkpt lat="62.640703972629" lon="17.706329232304">
        <ele>68.8</ele>
        <time>2018-05-04T17:22:18Z</time>
      </trkpt>
      <trkpt lat="62.640695423091" lon="17.706482872531">
        <ele>68.6</ele>
        <time>2018-05-04T17:22:19Z</time>
      </trkpt>
      <trkpt lat="62.640686873553" lon="17.706641038984">
        <ele>68.6</ele>
        <time>2018-05-04T17:22:20Z</time>
      </trkpt>
      <trkpt lat="62.640678156377" lon="17.706790488261">
        <ele>68.6</ele>
        <time>2018-05-04T17:22:21Z</time>
      </trkpt>
      <trkpt lat="62.640668433373" lon="17.70695485732">
        <ele>68.6</ele>
        <time>2018-05-04T17:22:22Z</time>
      </trkpt>
      <trkpt lat="62.640659548559" lon="17.707120567483">
        <ele>68.6</ele>
        <time>2018-05-04T17:22:23Z</time>
      </trkpt>
      <trkpt lat="62.640649909374" lon="17.707300778333">
        <ele>68.6</ele>
        <time>2018-05-04T17:22:24Z</time>
      </trkpt>
      <trkpt lat="62.640640270189" lon="17.707472104369">
        <ele>68.4</ele>
        <time>2018-05-04T17:22:25Z</time>
      </trkpt>
      <trkpt lat="62.640632223565" lon="17.70763379122">
        <ele>68.2</ele>
        <time>2018-05-04T17:22:26Z</time>
      </trkpt>
      <trkpt lat="62.640623171113" lon="17.707815259355">
        <ele>68</ele>
        <time>2018-05-04T17:22:27Z</time>
      </trkpt>
      <trkpt lat="62.640614286299" lon="17.707978371129">
        <ele>67.8</ele>
        <time>2018-05-04T17:22:28Z</time>
      </trkpt>
      <trkpt lat="62.640603808924" lon="17.708166209508">
        <ele>67.6</ele>
        <time>2018-05-04T17:22:29Z</time>
      </trkpt>
      <trkpt lat="62.640594337377" lon="17.708336026802">
        <ele>67.2</ele>
        <time>2018-05-04T17:22:30Z</time>
      </trkpt>
      <trkpt lat="62.640584614373" lon="17.708500144404">
        <ele>67.2</ele>
        <time>2018-05-04T17:22:31Z</time>
      </trkpt>
      <trkpt lat="62.640575310464" lon="17.708676248123">
        <ele>67.2</ele>
        <time>2018-05-04T17:22:32Z</time>
      </trkpt>
      <trkpt lat="62.640567180021" lon="17.70883743206">
        <ele>67</ele>
        <time>2018-05-04T17:22:33Z</time>
      </trkpt>
      <trkpt lat="62.640559384854" lon="17.708987635708">
        <ele>67</ele>
        <time>2018-05-04T17:22:34Z</time>
      </trkpt>
      <trkpt lat="62.640550919135" lon="17.709149909292">
        <ele>67.2</ele>
        <time>2018-05-04T17:22:35Z</time>
      </trkpt>
      <trkpt lat="62.64054379452" lon="17.709299610026">
        <ele>67.4</ele>
        <time>2018-05-04T17:22:36Z</time>
      </trkpt>
      <trkpt lat="62.640535328801" lon="17.709464314361">
        <ele>67.6</ele>
        <time>2018-05-04T17:22:37Z</time>
      </trkpt>
      <trkpt lat="62.640527198358" lon="17.709607896308">
        <ele>68</ele>
        <time>2018-05-04T17:22:38Z</time>
      </trkpt>
      <trkpt lat="62.64051781063" lon="17.709765895123">
        <ele>68</ele>
        <time>2018-05-04T17:22:39Z</time>
      </trkpt>
      <trkpt lat="62.640510015463" lon="17.709913081287">
        <ele>68.2</ele>
        <time>2018-05-04T17:22:40Z</time>
      </trkpt>
      <trkpt lat="62.640502639391" lon="17.710059177804">
        <ele>68.2</ele>
        <time>2018-05-04T17:22:41Z</time>
      </trkpt>
      <trkpt lat="62.640494425129" lon="17.71021625461">
        <ele>68.2</ele>
        <time>2018-05-04T17:22:42Z</time>
      </trkpt>
      <trkpt lat="62.640486713781" lon="17.710362686403">
        <ele>68.2</ele>
        <time>2018-05-04T17:22:43Z</time>
      </trkpt>
      <trkpt lat="62.640479002433" lon="17.710507693273">
        <ele>68</ele>
        <time>2018-05-04T17:22:44Z</time>
      </trkpt>
      <trkpt lat="62.640471458723" lon="17.710656052903">
        <ele>68</ele>
        <time>2018-05-04T17:22:45Z</time>
      </trkpt>
      <trkpt lat="62.640462825366" lon="17.710766777802">
        <ele>68</ele>
        <time>2018-05-04T17:22:46Z</time>
      </trkpt>
      <trkpt lat="62.640453437638" lon="17.710958220398">
        <ele>67.8</ele>
        <time>2018-05-04T17:22:47Z</time>
      </trkpt>
      <trkpt lat="62.6404448881" lon="17.711111357711">
        <ele>67.6</ele>
        <time>2018-05-04T17:22:48Z</time>
      </trkpt>
      <trkpt lat="62.640435332734" lon="17.711264746481">
        <ele>67.8</ele>
        <time>2018-05-04T17:22:49Z</time>
      </trkpt>
      <trkpt lat="62.640426615558" lon="17.711420063088">
        <ele>67.6</ele>
        <time>2018-05-04T17:22:50Z</time>
      </trkpt>
      <trkpt lat="62.640419239486" lon="17.711565824329">
        <ele>67.6</ele>
        <time>2018-05-04T17:22:51Z</time>
      </trkpt>
      <trkpt lat="62.64041052231" lon="17.711729522836">
        <ele>67.6</ele>
        <time>2018-05-04T17:22:52Z</time>
      </trkpt>
      <trkpt lat="62.640401805134" lon="17.711889533307">
        <ele>67.6</ele>
        <time>2018-05-04T17:22:53Z</time>
      </trkpt>
      <trkpt lat="62.640393423234" lon="17.712062116628">
        <ele>67.6</ele>
        <time>2018-05-04T17:22:54Z</time>
      </trkpt>
      <trkpt lat="62.6403862148" lon="17.71222539604">
        <ele>67.4</ele>
        <time>2018-05-04T17:22:55Z</time>
      </trkpt>
      <trkpt lat="62.640379425461" lon="17.712381634656">
        <ele>67.2</ele>
        <time>2018-05-04T17:22:56Z</time>
      </trkpt>
      <trkpt lat="62.640369953914" lon="17.712559666212">
        <ele>67</ele>
        <time>2018-05-04T17:22:57Z</time>
      </trkpt>
      <trkpt lat="62.640360147091" lon="17.712720431054">
        <ele>66.8</ele>
        <time>2018-05-04T17:22:58Z</time>
      </trkpt>
      <trkpt lat="62.640349250621" lon="17.712911203098">
        <ele>66.6</ele>
        <time>2018-05-04T17:22:59Z</time>
      </trkpt>
      <trkpt lat="62.64033927616" lon="17.713094850527">
        <ele>66.6</ele>
        <time>2018-05-04T17:23:00Z</time>
      </trkpt>
      <trkpt lat="62.640330475165" lon="17.713265422192">
        <ele>66.6</ele>
        <time>2018-05-04T17:23:01Z</time>
      </trkpt>
      <trkpt lat="62.640320081609" lon="17.713463067394">
        <ele>66.6</ele>
        <time>2018-05-04T17:23:02Z</time>
      </trkpt>
      <trkpt lat="62.640309268958" lon="17.713649145574">
        <ele>66.6</ele>
        <time>2018-05-04T17:23:03Z</time>
      </trkpt>
      <trkpt lat="62.640299713592" lon="17.713828099139">
        <ele>66.6</ele>
        <time>2018-05-04T17:23:04Z</time>
      </trkpt>
      <trkpt lat="62.640290912597" lon="17.714031024938">
        <ele>66.6</ele>
        <time>2018-05-04T17:23:05Z</time>
      </trkpt>
      <trkpt lat="62.640282865973" lon="17.714214085634">
        <ele>66.2</ele>
        <time>2018-05-04T17:23:06Z</time>
      </trkpt>
      <trkpt lat="62.640272388598" lon="17.714425477152">
        <ele>65.8</ele>
        <time>2018-05-04T17:23:07Z</time>
      </trkpt>
      <trkpt lat="62.640262917051" lon="17.714615327187">
        <ele>65.4</ele>
        <time>2018-05-04T17:23:08Z</time>
      </trkpt>
      <trkpt lat="62.640251685305" lon="17.714833675682">
        <ele>64.8</ele>
        <time>2018-05-04T17:23:09Z</time>
      </trkpt>
      <trkpt lat="62.640241962301" lon="17.715028219581">
        <ele>64</ele>
        <time>2018-05-04T17:23:10Z</time>
      </trkpt>
      <trkpt lat="62.64023198784" lon="17.715234917235">
        <ele>63</ele>
        <time>2018-05-04T17:23:11Z</time>
      </trkpt>
      <trkpt lat="62.640220672275" lon="17.715456534671">
        <ele>62.2</ele>
        <time>2018-05-04T17:23:12Z</time>
      </trkpt>
      <trkpt lat="62.640209775805" lon="17.7156653278">
        <ele>61</ele>
        <time>2018-05-04T17:23:13Z</time>
      </trkpt>
      <trkpt lat="62.640199466068" lon="17.71587319892">
        <ele>60.2</ele>
        <time>2018-05-04T17:23:14Z</time>
      </trkpt>
      <trkpt lat="62.640189659245" lon="17.716081321497">
        <ele>59.6</ele>
        <time>2018-05-04T17:23:15Z</time>
      </trkpt>
      <trkpt lat="62.640180355336" lon="17.716290282264">
        <ele>59.4</ele>
        <time>2018-05-04T17:23:16Z</time>
      </trkpt>
      <trkpt lat="62.640168369219" lon="17.716503853076">
        <ele>58.8</ele>
        <time>2018-05-04T17:23:17Z</time>
      </trkpt>
      <trkpt lat="62.640157808025" lon="17.716712310929">
        <ele>58.6</ele>
        <time>2018-05-04T17:23:18Z</time>
      </trkpt>
      <trkpt lat="62.640146827736" lon="17.716925797922">
        <ele>58.2</ele>
        <time>2018-05-04T17:23:19Z</time>
      </trkpt>
      <trkpt lat="62.640135512171" lon="17.717137692354">
        <ele>57.6</ele>
        <time>2018-05-04T17:23:20Z</time>
      </trkpt>
      <trkpt lat="62.640124448063" lon="17.717332990624">
        <ele>57.6</ele>
        <time>2018-05-04T17:23:21Z</time>
      </trkpt>
      <trkpt lat="62.640113048679" lon="17.717545220332">
        <ele>57.4</ele>
        <time>2018-05-04T17:23:22Z</time>
      </trkpt>
      <trkpt lat="62.640102403666" lon="17.717758036773">
        <ele>57.4</ele>
        <time>2018-05-04T17:23:23Z</time>
      </trkpt>
      <trkpt lat="62.640091004282" lon="17.717992646154">
        <ele>57</ele>
        <time>2018-05-04T17:23:24Z</time>
      </trkpt>
      <trkpt lat="62.640080107812" lon="17.718208480079">
        <ele>56.4</ele>
        <time>2018-05-04T17:23:25Z</time>
      </trkpt>
      <trkpt lat="62.640069043704" lon="17.718415764466">
        <ele>56</ele>
        <time>2018-05-04T17:23:26Z</time>
      </trkpt>
      <trkpt lat="62.640056722311" lon="17.718637046626">
        <ele>55.8</ele>
        <time>2018-05-04T17:23:27Z</time>
      </trkpt>
      <trkpt lat="62.640043814185" lon="17.718858161148">
        <ele>55.2</ele>
        <time>2018-05-04T17:23:28Z</time>
      </trkpt>
      <trkpt lat="62.640030486964" lon="17.719103247904">
        <ele>54.4</ele>
        <time>2018-05-04T17:23:29Z</time>
      </trkpt>
      <trkpt lat="62.64001824939" lon="17.719333917792">
        <ele>53.8</ele>
        <time>2018-05-04T17:23:30Z</time>
      </trkpt>
      <trkpt lat="62.640005508902" lon="17.719557127789">
        <ele>53.2</ele>
        <time>2018-05-04T17:23:31Z</time>
      </trkpt>
      <trkpt lat="62.639991762586" lon="17.719802298364">
        <ele>52.8</ele>
        <time>2018-05-04T17:23:32Z</time>
      </trkpt>
      <trkpt lat="62.639979189736" lon="17.72003145951">
        <ele>52.2</ele>
        <time>2018-05-04T17:23:33Z</time>
      </trkpt>
      <trkpt lat="62.639966784524" lon="17.720257435534">
        <ele>51.8</ele>
        <time>2018-05-04T17:23:34Z</time>
      </trkpt>
      <trkpt lat="62.639953960217" lon="17.720488775974">
        <ele>51.4</ele>
        <time>2018-05-04T17:23:35Z</time>
      </trkpt>
      <trkpt lat="62.639942057919" lon="17.720697736741">
        <ele>51</ele>
        <time>2018-05-04T17:23:36Z</time>
      </trkpt>
      <trkpt lat="62.639927473413" lon="17.720933100493">
        <ele>50.6</ele>
        <time>2018-05-04T17:23:37Z</time>
      </trkpt>
      <trkpt lat="62.63991515202" lon="17.721139295233">
        <ele>50.4</ele>
        <time>2018-05-04T17:23:38Z</time>
      </trkpt>
      <trkpt lat="62.639899896962" lon="17.72137423989">
        <ele>50.4</ele>
        <time>2018-05-04T17:23:39Z</time>
      </trkpt>
      <trkpt lat="62.639884390447" lon="17.721587810702">
        <ele>50.4</ele>
        <time>2018-05-04T17:23:40Z</time>
      </trkpt>
      <trkpt lat="62.639868967751" lon="17.721794340718">
        <ele>50.4</ele>
        <time>2018-05-04T17:23:41Z</time>
      </trkpt>
      <trkpt lat="62.639850695209" lon="17.722010677557">
        <ele>50.2</ele>
        <time>2018-05-04T17:23:42Z</time>
      </trkpt>
      <trkpt lat="62.639831668296" lon="17.722206814017">
        <ele>50.2</ele>
        <time>2018-05-04T17:23:43Z</time>
      </trkpt>
      <trkpt lat="62.639812557564" lon="17.722390629084">
        <ele>50.2</ele>
        <time>2018-05-04T17:23:44Z</time>
      </trkpt>
      <trkpt lat="62.639792441004" lon="17.722583831879">
        <ele>50.2</ele>
        <time>2018-05-04T17:23:45Z</time>
      </trkpt>
      <trkpt lat="62.639778024136" lon="17.72271785846">
        <ele>50</ele>
        <time>2018-05-04T17:23:46Z</time>
      </trkpt>
      <trkpt lat="62.639748687486" lon="17.722955233868">
        <ele>49.8</ele>
        <time>2018-05-04T17:23:47Z</time>
      </trkpt>
      <trkpt lat="62.639725134347" lon="17.723137959288">
        <ele>49.8</ele>
        <time>2018-05-04T17:23:48Z</time>
      </trkpt>
      <trkpt lat="62.639700743018" lon="17.723318086319">
        <ele>49.8</ele>
        <time>2018-05-04T17:23:49Z</time>
      </trkpt>
      <trkpt lat="62.639674340033" lon="17.723499805911">
        <ele>49.8</ele>
        <time>2018-05-04T17:23:50Z</time>
      </trkpt>
      <trkpt lat="62.639649110514" lon="17.723665432255">
        <ele>49.8</ele>
        <time>2018-05-04T17:23:51Z</time>
      </trkpt>
      <trkpt lat="62.639620612054" lon="17.723848995865">
        <ele>50</ele>
        <time>2018-05-04T17:23:52Z</time>
      </trkpt>
      <trkpt lat="62.639592700327" lon="17.724023087928">
        <ele>50</ele>
        <time>2018-05-04T17:23:53Z</time>
      </trkpt>
      <trkpt lat="62.63956227403" lon="17.724209166108">
        <ele>50</ele>
        <time>2018-05-04T17:23:54Z</time>
      </trkpt>
      <trkpt lat="62.639532350647" lon="17.724382922895">
        <ele>49.8</ele>
        <time>2018-05-04T17:23:55Z</time>
      </trkpt>
      <trkpt lat="62.639501672893" lon="17.724542849547">
        <ele>49.8</ele>
        <time>2018-05-04T17:23:56Z</time>
      </trkpt>
      <trkpt lat="62.639466468913" lon="17.724720797284">
        <ele>49.6</ele>
        <time>2018-05-04T17:23:57Z</time>
      </trkpt>
      <trkpt lat="62.639436880806" lon="17.724869911285">
        <ele>49.4</ele>
        <time>2018-05-04T17:23:58Z</time>
      </trkpt>
      <trkpt lat="62.639401425369" lon="17.725047859022">
        <ele>49.2</ele>
        <time>2018-05-04T17:23:59Z</time>
      </trkpt>
      <trkpt lat="62.63936781395" lon="17.725210216425">
        <ele>49</ele>
        <time>2018-05-04T17:24:00Z</time>
      </trkpt>
      <trkpt lat="62.639335292178" lon="17.725357821684">
        <ele>48.8</ele>
        <time>2018-05-04T17:24:01Z</time>
      </trkpt>
      <trkpt lat="62.639298076542" lon="17.725524370037">
        <ele>48.6</ele>
        <time>2018-05-04T17:24:02Z</time>
      </trkpt>
      <trkpt lat="62.639262788743" lon="17.725677088255">
        <ele>48.4</ele>
        <time>2018-05-04T17:24:03Z</time>
      </trkpt>
      <trkpt lat="62.639227500944" lon="17.725819748193">
        <ele>48.6</ele>
        <time>2018-05-04T17:24:04Z</time>
      </trkpt>
      <trkpt lat="62.639185339987" lon="17.725978585198">
        <ele>48.8</ele>
        <time>2018-05-04T17:24:05Z</time>
      </trkpt>
      <trkpt lat="62.63914820817" lon="17.726116467453">
        <ele>49.2</ele>
        <time>2018-05-04T17:24:06Z</time>
      </trkpt>
      <trkpt lat="62.639107053041" lon="17.726272873707">
        <ele>49.4</ele>
        <time>2018-05-04T17:24:07Z</time>
      </trkpt>
      <trkpt lat="62.639069502129" lon="17.72641008541">
        <ele>49.8</ele>
        <time>2018-05-04T17:24:08Z</time>
      </trkpt>
      <trkpt lat="62.639025497154" lon="17.72656263599">
        <ele>50</ele>
        <time>2018-05-04T17:24:09Z</time>
      </trkpt>
      <trkpt lat="62.638985934586" lon="17.726698590408">
        <ele>50</ele>
        <time>2018-05-04T17:24:10Z</time>
      </trkpt>
      <trkpt lat="62.638944947095" lon="17.726843597278">
        <ele>49.8</ele>
        <time>2018-05-04T17:24:11Z</time>
      </trkpt>
      <trkpt lat="62.638901109758" lon="17.72699681841">
        <ele>50</ele>
        <time>2018-05-04T17:24:12Z</time>
      </trkpt>
      <trkpt lat="62.638858026792" lon="17.727138221063">
        <ele>50.2</ele>
        <time>2018-05-04T17:24:13Z</time>
      </trkpt>
      <trkpt lat="62.638812513075" lon="17.727276606232">
        <ele>50.2</ele>
        <time>2018-05-04T17:24:14Z</time>
      </trkpt>
      <trkpt lat="62.638767753729" lon="17.727410548994">
        <ele>50.4</ele>
        <time>2018-05-04T17:24:15Z</time>
      </trkpt>
      <trkpt lat="62.638723581116" lon="17.72754583286">
        <ele>50.6</ele>
        <time>2018-05-04T17:24:16Z</time>
      </trkpt>
      <trkpt lat="62.638678151218" lon="17.727680865269">
        <ele>51</ele>
        <time>2018-05-04T17:24:17Z</time>
      </trkpt>
      <trkpt lat="62.638633643329" lon="17.72781489185">
        <ele>51</ele>
        <time>2018-05-04T17:24:18Z</time>
      </trkpt>
      <trkpt lat="62.638589554535" lon="17.727948834612">
        <ele>51.2</ele>
        <time>2018-05-04T17:24:19Z</time>
      </trkpt>
      <trkpt lat="62.638546052474" lon="17.728084202297">
        <ele>51.4</ele>
        <time>2018-05-04T17:24:20Z</time>
      </trkpt>
      <trkpt lat="62.638506825182" lon="17.728210349892">
        <ele>51.6</ele>
        <time>2018-05-04T17:24:21Z</time>
      </trkpt>
      <trkpt lat="62.638465167139" lon="17.728346052853">
        <ele>51.6</ele>
        <time>2018-05-04T17:24:22Z</time>
      </trkpt>
      <trkpt lat="62.638422084173" lon="17.72847957652">
        <ele>51.8</ele>
        <time>2018-05-04T17:24:23Z</time>
      </trkpt>
      <trkpt lat="62.638375983723" lon="17.728618967517">
        <ele>52</ele>
        <time>2018-05-04T17:24:24Z</time>
      </trkpt>
      <trkpt lat="62.638333571309" lon="17.72875031189">
        <ele>52</ele>
        <time>2018-05-04T17:24:25Z</time>
      </trkpt>
      <trkpt lat="62.638297193863" lon="17.728874028734">
        <ele>52.2</ele>
        <time>2018-05-04T17:24:26Z</time>
      </trkpt>
      <trkpt lat="62.638258469485" lon="17.729019789975">
        <ele>52.4</ele>
        <time>2018-05-04T17:24:27Z</time>
      </trkpt>
      <trkpt lat="62.638224438971" lon="17.729152307814">
        <ele>52.4</ele>
        <time>2018-05-04T17:24:28Z</time>
      </trkpt>
      <trkpt lat="62.638186385145" lon="17.729301589453">
        <ele>52.4</ele>
        <time>2018-05-04T17:24:29Z</time>
      </trkpt>
      <trkpt lat="62.638153025183" lon="17.729440812812">
        <ele>52.6</ele>
        <time>2018-05-04T17:24:30Z</time>
      </trkpt>
      <trkpt lat="62.638122682705" lon="17.729572324823">
        <ele>52.6</ele>
        <time>2018-05-04T17:24:31Z</time>
      </trkpt>
      <trkpt lat="62.63809041239" lon="17.729724121032">
        <ele>52.8</ele>
        <time>2018-05-04T17:24:32Z</time>
      </trkpt>
      <trkpt lat="62.638062249206" lon="17.729868373531">
        <ele>52.8</ele>
        <time>2018-05-04T17:24:33Z</time>
      </trkpt>
      <trkpt lat="62.638035678583" lon="17.730004411768">
        <ele>53</ele>
        <time>2018-05-04T17:24:34Z</time>
      </trkpt>
      <trkpt lat="62.638006844847" lon="17.730157549081">
        <ele>53.2</ele>
        <time>2018-05-04T17:24:35Z</time>
      </trkpt>
      <trkpt lat="62.637983375527" lon="17.730292749128">
        <ele>53.2</ele>
        <time>2018-05-04T17:24:36Z</time>
      </trkpt>
      <trkpt lat="62.637956888723" lon="17.730450747943">
        <ele>53.4</ele>
        <time>2018-05-04T17:24:37Z</time>
      </trkpt>
      <trkpt lat="62.637935263421" lon="17.730589803664">
        <ele>53.4</ele>
        <time>2018-05-04T17:24:38Z</time>
      </trkpt>
      <trkpt lat="62.637913302843" lon="17.73074604228">
        <ele>53.4</ele>
        <time>2018-05-04T17:24:39Z</time>
      </trkpt>
      <trkpt lat="62.637895365577" lon="17.730889875684">
        <ele>53.6</ele>
        <time>2018-05-04T17:24:40Z</time>
      </trkpt>
      <trkpt lat="62.637877679768" lon="17.731049886155">
        <ele>53.6</ele>
        <time>2018-05-04T17:24:41Z</time>
      </trkpt>
      <trkpt lat="62.637860832149" lon="17.731207633513">
        <ele>53.8</ele>
        <time>2018-05-04T17:24:42Z</time>
      </trkpt>
      <trkpt lat="62.637846666738" lon="17.731354903496">
        <ele>53.8</ele>
        <time>2018-05-04T17:24:43Z</time>
      </trkpt>
      <trkpt lat="62.637833842431" lon="17.731508376085">
        <ele>53.8</ele>
        <time>2018-05-04T17:24:44Z</time>
      </trkpt>
      <trkpt lat="62.637822945961" lon="17.731663608873">
        <ele>54</ele>
        <time>2018-05-04T17:24:45Z</time>
      </trkpt>
      <trkpt lat="62.637813306776" lon="17.731798641282">
        <ele>54</ele>
        <time>2018-05-04T17:24:46Z</time>
      </trkpt>
      <trkpt lat="62.637801488297" lon="17.731970470232">
        <ele>54.2</ele>
        <time>2018-05-04T17:24:47Z</time>
      </trkpt>
      <trkpt lat="62.637792435845" lon="17.732126792667">
        <ele>54.2</ele>
        <time>2018-05-04T17:24:48Z</time>
      </trkpt>
      <trkpt lat="62.637785395049" lon="17.73228495912">
        <ele>54.4</ele>
        <time>2018-05-04T17:24:49Z</time>
      </trkpt>
      <trkpt lat="62.637779360081" lon="17.732441030098">
        <ele>54.4</ele>
        <time>2018-05-04T17:24:50Z</time>
      </trkpt>
      <trkpt lat="62.637772486923" lon="17.732586288425">
        <ele>54.6</ele>
        <time>2018-05-04T17:24:51Z</time>
      </trkpt>
      <trkpt lat="62.637764272661" lon="17.732743700507">
        <ele>54.6</ele>
        <time>2018-05-04T17:24:52Z</time>
      </trkpt>
      <trkpt lat="62.637757231865" lon="17.732896670182">
        <ele>54.8</ele>
        <time>2018-05-04T17:24:53Z</time>
      </trkpt>
      <trkpt lat="62.637750861621" lon="17.733060787784">
        <ele>54.8</ele>
        <time>2018-05-04T17:24:54Z</time>
      </trkpt>
      <trkpt lat="62.637742479721" lon="17.73322289373">
        <ele>54.8</ele>
        <time>2018-05-04T17:24:55Z</time>
      </trkpt>
      <trkpt lat="62.637735522744" lon="17.733354657198">
        <ele>54.8</ele>
        <time>2018-05-04T17:24:56Z</time>
      </trkpt>
      <trkpt lat="62.637729571595" lon="17.733518858619">
        <ele>54.8</ele>
        <time>2018-05-04T17:24:57Z</time>
      </trkpt>
      <trkpt lat="62.637720686781" lon="17.733651544096">
        <ele>54.6</ele>
        <time>2018-05-04T17:24:58Z</time>
      </trkpt>
      <trkpt lat="62.637710293225" lon="17.733809962006">
        <ele>54.6</ele>
        <time>2018-05-04T17:24:59Z</time>
      </trkpt>
      <trkpt lat="62.637702833334" lon="17.733950275012">
        <ele>54.6</ele>
        <time>2018-05-04T17:25:00Z</time>
      </trkpt>
      <trkpt lat="62.637697888013" lon="17.734073740399">
        <ele>54.6</ele>
        <time>2018-05-04T17:25:01Z</time>
      </trkpt>
      <trkpt lat="62.637691182493" lon="17.734232242128">
        <ele>54.8</ele>
        <time>2018-05-04T17:25:02Z</time>
      </trkpt>
      <trkpt lat="62.637686740086" lon="17.734364005596">
        <ele>54.8</ele>
        <time>2018-05-04T17:25:03Z</time>
      </trkpt>
      <trkpt lat="62.637681459489" lon="17.734502139308">
        <ele>54.8</ele>
        <time>2018-05-04T17:25:04Z</time>
      </trkpt>
      <trkpt lat="62.637672909951" lon="17.73465955139">
        <ele>54.8</ele>
        <time>2018-05-04T17:25:05Z</time>
      </trkpt>
      <trkpt lat="62.637665785336" lon="17.734784860795">
        <ele>55</ele>
        <time>2018-05-04T17:25:06Z</time>
      </trkpt>
      <trkpt lat="62.637656481427" lon="17.734947385836">
        <ele>55</ele>
        <time>2018-05-04T17:25:07Z</time>
      </trkpt>
      <trkpt lat="62.637649105355" lon="17.735077305286">
        <ele>55.2</ele>
        <time>2018-05-04T17:25:08Z</time>
      </trkpt>
      <trkpt lat="62.63764114255" lon="17.735247290218">
        <ele>55.2</ele>
        <time>2018-05-04T17:25:09Z</time>
      </trkpt>
      <trkpt lat="62.637634185573" lon="17.735392800002">
        <ele>55.2</ele>
        <time>2018-05-04T17:25:10Z</time>
      </trkpt>
      <trkpt lat="62.637627480053" lon="17.73553462175">
        <ele>55.2</ele>
        <time>2018-05-04T17:25:11Z</time>
      </trkpt>
      <trkpt lat="62.637617505592" lon="17.735711396021">
        <ele>55.2</ele>
        <time>2018-05-04T17:25:12Z</time>
      </trkpt>
      <trkpt lat="62.637609710425" lon="17.735869646293">
        <ele>55</ele>
        <time>2018-05-04T17:25:13Z</time>
      </trkpt>
      <trkpt lat="62.637602250534" lon="17.736016916276">
        <ele>55.2</ele>
        <time>2018-05-04T17:25:14Z</time>
      </trkpt>
      <trkpt lat="62.637593784815" lon="17.736179357498">
        <ele>55.2</ele>
        <time>2018-05-04T17:25:15Z</time>
      </trkpt>
      <trkpt lat="62.637587666028" lon="17.736315563373">
        <ele>55.2</ele>
        <time>2018-05-04T17:25:16Z</time>
      </trkpt>
      <trkpt lat="62.63757660192" lon="17.736509101444">
        <ele>55.2</ele>
        <time>2018-05-04T17:25:17Z</time>
      </trkpt>
      <trkpt lat="62.637568806753" lon="17.736672213218">
        <ele>55.2</ele>
        <time>2018-05-04T17:25:18Z</time>
      </trkpt>
      <trkpt lat="62.637562185052" lon="17.736838174838">
        <ele>55.2</ele>
        <time>2018-05-04T17:25:19Z</time>
      </trkpt>
      <trkpt lat="62.637554222247" lon="17.737004555553">
        <ele>55</ele>
        <time>2018-05-04T17:25:20Z</time>
      </trkpt>
      <trkpt lat="62.637546762356" lon="17.737149143328">
        <ele>55</ele>
        <time>2018-05-04T17:25:21Z</time>
      </trkpt>
      <trkpt lat="62.6375363688" lon="17.73733673025">
        <ele>55</ele>
        <time>2018-05-04T17:25:22Z</time>
      </trkpt>
      <trkpt lat="62.637526729615" lon="17.737516186729">
        <ele>54.8</ele>
        <time>2018-05-04T17:25:23Z</time>
      </trkpt>
      <trkpt lat="62.637518012439" lon="17.737681980711">
        <ele>54.6</ele>
        <time>2018-05-04T17:25:24Z</time>
      </trkpt>
      <trkpt lat="62.63750870853" lon="17.737858419706">
        <ele>54.6</ele>
        <time>2018-05-04T17:25:25Z</time>
      </trkpt>
      <trkpt lat="62.637500075173" lon="17.73801901691">
        <ele>54.2</ele>
        <time>2018-05-04T17:25:26Z</time>
      </trkpt>
      <trkpt lat="62.637490100712" lon="17.738200149769">
        <ele>54</ele>
        <time>2018-05-04T17:25:27Z</time>
      </trkpt>
      <trkpt lat="62.637479288061" lon="17.738364854104">
        <ele>53.8</ele>
        <time>2018-05-04T17:25:28Z</time>
      </trkpt>
      <trkpt lat="62.637465877021" lon="17.738538275615">
        <ele>53.6</ele>
        <time>2018-05-04T17:25:29Z</time>
      </trkpt>
      <trkpt lat="62.637453136533" lon="17.738692670213">
        <ele>53.6</ele>
        <time>2018-05-04T17:25:30Z</time>
      </trkpt>
      <trkpt lat="62.637439390217" lon="17.738851004304">
        <ele>53.6</ele>
        <time>2018-05-04T17:25:31Z</time>
      </trkpt>
      <trkpt lat="62.637422626417" lon="17.739041692529">
        <ele>53.8</ele>
        <time>2018-05-04T17:25:32Z</time>
      </trkpt>
      <trkpt lat="62.637406784626" lon="17.739207151235">
        <ele>53.8</ele>
        <time>2018-05-04T17:25:33Z</time>
      </trkpt>
      <trkpt lat="62.637391194292" lon="17.739356349055">
        <ele>53.8</ele>
        <time>2018-05-04T17:25:34Z</time>
      </trkpt>
      <trkpt lat="62.63737208356" lon="17.739536392267">
        <ele>53.8</ele>
        <time>2018-05-04T17:25:35Z</time>
      </trkpt>
      <trkpt lat="62.637355487398" lon="17.739680393309">
        <ele>53.8</ele>
        <time>2018-05-04T17:25:36Z</time>
      </trkpt>
      <trkpt lat="62.637333862096" lon="17.739858676322">
        <ele>53.8</ele>
        <time>2018-05-04T17:25:37Z</time>
      </trkpt>
      <trkpt lat="62.637319026133" lon="17.73998708703">
        <ele>53.8</ele>
        <time>2018-05-04T17:25:38Z</time>
      </trkpt>
      <trkpt lat="62.637301005048" lon="17.740148941519">
        <ele>53.8</ele>
        <time>2018-05-04T17:25:39Z</time>
      </trkpt>
      <trkpt lat="62.637284995619" lon="17.740275340571">
        <ele>53.8</ele>
        <time>2018-05-04T17:25:40Z</time>
      </trkpt>
      <trkpt lat="62.637260185195" lon="17.740466950805">
        <ele>54</ele>
        <time>2018-05-04T17:25:41Z</time>
      </trkpt>
      <trkpt lat="62.637236967332" lon="17.740634504986">
        <ele>54.2</ele>
        <time>2018-05-04T17:25:42Z</time>
      </trkpt>
      <trkpt lat="62.63721534203" lon="17.740802981176">
        <ele>54.2</ele>
        <time>2018-05-04T17:25:43Z</time>
      </trkpt>
      <trkpt lat="62.63719857823" lon="17.740942455992">
        <ele>54</ele>
        <time>2018-05-04T17:25:44Z</time>
      </trkpt>
      <trkpt lat="62.637178964584" lon="17.741103304653">
        <ele>53.8</ele>
        <time>2018-05-04T17:25:45Z</time>
      </trkpt>
      <trkpt lat="62.637159602395" lon="17.741260800554">
        <ele>53.8</ele>
        <time>2018-05-04T17:25:46Z</time>
      </trkpt>
      <trkpt lat="62.63713822855" lon="17.74141620098">
        <ele>53.6</ele>
        <time>2018-05-04T17:25:47Z</time>
      </trkpt>
      <trkpt lat="62.637118614904" lon="17.741573361605">
        <ele>53.6</ele>
        <time>2018-05-04T17:25:48Z</time>
      </trkpt>
      <trkpt lat="62.637098582163" lon="17.741729013488">
        <ele>53.6</ele>
        <time>2018-05-04T17:25:49Z</time>
      </trkpt>
      <trkpt lat="62.637078465603" lon="17.74188139643">
        <ele>53.4</ele>
        <time>2018-05-04T17:25:50Z</time>
      </trkpt>
      <trkpt lat="62.637058935776" lon="17.742018943409">
        <ele>53.4</ele>
        <time>2018-05-04T17:25:51Z</time>
      </trkpt>
      <trkpt lat="62.637039825044" lon="17.742167051582">
        <ele>53.4</ele>
        <time>2018-05-04T17:25:52Z</time>
      </trkpt>
      <trkpt lat="62.637023899434" lon="17.742316836135">
        <ele>53.2</ele>
        <time>2018-05-04T17:25:53Z</time>
      </trkpt>
      <trkpt lat="62.637006716539" lon="17.742473577665">
        <ele>53.4</ele>
        <time>2018-05-04T17:25:54Z</time>
      </trkpt>
      <trkpt lat="62.636990455653" lon="17.742618835992">
        <ele>53.2</ele>
        <time>2018-05-04T17:25:55Z</time>
      </trkpt>
      <trkpt lat="62.636976290242" lon="17.74275395222">
        <ele>53.2</ele>
        <time>2018-05-04T17:25:56Z</time>
      </trkpt>
      <trkpt lat="62.636961035184" lon="17.742908933551">
        <ele>53.4</ele>
        <time>2018-05-04T17:25:57Z</time>
      </trkpt>
      <trkpt lat="62.636948965248" lon="17.743047234901">
        <ele>53.6</ele>
        <time>2018-05-04T17:25:58Z</time>
      </trkpt>
      <trkpt lat="62.636936560036" lon="17.743201378042">
        <ele>53.6</ele>
        <time>2018-05-04T17:25:59Z</time>
      </trkpt>
      <trkpt lat="62.636925495928" lon="17.743349318577">
        <ele>53.8</ele>
        <time>2018-05-04T17:26:00Z</time>
      </trkpt>
      <trkpt lat="62.636915856743" lon="17.743487200832">
        <ele>54</ele>
        <time>2018-05-04T17:26:01Z</time>
      </trkpt>
      <trkpt lat="62.636906133739" lon="17.74364411">
        <ele>54.2</ele>
        <time>2018-05-04T17:26:02Z</time>
      </trkpt>
      <trkpt lat="62.636898254753" lon="17.743792301992">
        <ele>54.2</ele>
        <time>2018-05-04T17:26:03Z</time>
      </trkpt>
      <trkpt lat="62.636892974156" lon="17.743932363541">
        <ele>54.2</ele>
        <time>2018-05-04T17:26:04Z</time>
      </trkpt>
      <trkpt lat="62.636888783206" lon="17.744087931605">
        <ele>54.2</ele>
        <time>2018-05-04T17:26:05Z</time>
      </trkpt>
      <trkpt lat="62.636885011351" lon="17.744226819688">
        <ele>54.2</ele>
        <time>2018-05-04T17:26:06Z</time>
      </trkpt>
      <trkpt lat="62.636881155677" lon="17.74438590815">
        <ele>54.4</ele>
        <time>2018-05-04T17:26:07Z</time>
      </trkpt>
      <trkpt lat="62.636878976383" lon="17.744526556432">
        <ele>54.4</ele>
        <time>2018-05-04T17:26:08Z</time>
      </trkpt>
      <trkpt lat="62.636877048546" lon="17.744678185003">
        <ele>54.6</ele>
        <time>2018-05-04T17:26:09Z</time>
      </trkpt>
      <trkpt lat="62.636877635279" lon="17.744802153304">
        <ele>54.6</ele>
        <time>2018-05-04T17:26:10Z</time>
      </trkpt>
      <trkpt lat="62.636875539804" lon="17.744982112697">
        <ele>54.6</ele>
        <time>2018-05-04T17:26:11Z</time>
      </trkpt>
      <trkpt lat="62.63687503689" lon="17.745139524779">
        <ele>54.6</ele>
        <time>2018-05-04T17:26:12Z</time>
      </trkpt>
      <trkpt lat="62.636875204528" lon="17.745295847214">
        <ele>54.6</ele>
        <time>2018-05-04T17:26:13Z</time>
      </trkpt>
      <trkpt lat="62.636876797089" lon="17.74544873307">
        <ele>54.6</ele>
        <time>2018-05-04T17:26:14Z</time>
      </trkpt>
      <trkpt lat="62.636879144021" lon="17.74559876908">
        <ele>54.6</ele>
        <time>2018-05-04T17:26:15Z</time>
      </trkpt>
      <trkpt lat="62.636881658591" lon="17.745751738755">
        <ele>54.6</ele>
        <time>2018-05-04T17:26:16Z</time>
      </trkpt>
      <trkpt lat="62.636880485125" lon="17.745905043706">
        <ele>54.6</ele>
        <time>2018-05-04T17:26:17Z</time>
      </trkpt>
      <trkpt lat="62.636880485125" lon="17.746056588458">
        <ele>54.6</ele>
        <time>2018-05-04T17:26:18Z</time>
      </trkpt>
      <trkpt lat="62.636881155677" lon="17.746210228685">
        <ele>54.6</ele>
        <time>2018-05-04T17:26:19Z</time>
      </trkpt>
      <trkpt lat="62.636882245324" lon="17.746362192532">
        <ele>54.4</ele>
        <time>2018-05-04T17:26:20Z</time>
      </trkpt>
      <trkpt lat="62.63688341879" lon="17.746501248253">
        <ele>54.4</ele>
        <time>2018-05-04T17:26:21Z</time>
      </trkpt>
      <trkpt lat="62.636884005523" lon="17.746650529892">
        <ele>54.2</ele>
        <time>2018-05-04T17:26:22Z</time>
      </trkpt>
      <trkpt lat="62.636884843713" lon="17.746800146807">
        <ele>54</ele>
        <time>2018-05-04T17:26:23Z</time>
      </trkpt>
      <trkpt lat="62.636886268636" lon="17.74695831326">
        <ele>53.8</ele>
        <time>2018-05-04T17:26:24Z</time>
      </trkpt>
      <trkpt lat="62.636887442102" lon="17.747106924347">
        <ele>53.8</ele>
        <time>2018-05-04T17:26:25Z</time>
      </trkpt>
      <trkpt lat="62.636887777378" lon="17.74724581243">
        <ele>53.6</ele>
        <time>2018-05-04T17:26:26Z</time>
      </trkpt>
      <trkpt lat="62.636887274464" lon="17.74740087758">
        <ele>53.6</ele>
        <time>2018-05-04T17:26:27Z</time>
      </trkpt>
      <trkpt lat="62.636886603912" lon="17.7475416935">
        <ele>53.6</ele>
        <time>2018-05-04T17:26:28Z</time>
      </trkpt>
      <trkpt lat="62.636884927532" lon="17.747699105582">
        <ele>53.6</ele>
        <time>2018-05-04T17:26:29Z</time>
      </trkpt>
      <trkpt lat="62.636882915876" lon="17.74784428009">
        <ele>53.6</ele>
        <time>2018-05-04T17:26:30Z</time>
      </trkpt>
      <trkpt lat="62.636880149849" lon="17.747983587268">
        <ele>53.8</ele>
        <time>2018-05-04T17:26:31Z</time>
      </trkpt>
      <trkpt lat="62.636875539804" lon="17.748139490608">
        <ele>53.8</ele>
        <time>2018-05-04T17:26:32Z</time>
      </trkpt>
      <trkpt lat="62.636870343026" lon="17.748285922401">
        <ele>54</ele>
        <time>2018-05-04T17:26:33Z</time>
      </trkpt>
      <trkpt lat="62.636864643334" lon="17.748426235407">
        <ele>54.2</ele>
        <time>2018-05-04T17:26:34Z</time>
      </trkpt>
      <trkpt lat="62.636856931986" lon="17.748581552014">
        <ele>54.2</ele>
        <time>2018-05-04T17:26:35Z</time>
      </trkpt>
      <trkpt lat="62.636848801543" lon="17.748717171156">
        <ele>54</ele>
        <time>2018-05-04T17:26:36Z</time>
      </trkpt>
      <trkpt lat="62.636837150702" lon="17.748872068668">
        <ele>54.2</ele>
        <time>2018-05-04T17:26:37Z</time>
      </trkpt>
      <trkpt lat="62.636826673327" lon="17.749006262887">
        <ele>54.2</ele>
        <time>2018-05-04T17:26:38Z</time>
      </trkpt>
      <trkpt lat="62.636815106305" lon="17.749153951965">
        <ele>54</ele>
        <time>2018-05-04T17:26:39Z</time>
      </trkpt>
      <trkpt lat="62.636803706921" lon="17.749293342962">
        <ele>53.8</ele>
        <time>2018-05-04T17:26:40Z</time>
      </trkpt>
      <trkpt lat="62.636791469347" lon="17.749439774755">
        <ele>53.8</ele>
        <time>2018-05-04T17:26:41Z</time>
      </trkpt>
      <trkpt lat="62.636776465746" lon="17.749596348647">
        <ele>53.8</ele>
        <time>2018-05-04T17:26:42Z</time>
      </trkpt>
      <trkpt lat="62.636760875412" lon="17.749746468476">
        <ele>53.8</ele>
        <time>2018-05-04T17:26:43Z</time>
      </trkpt>
      <trkpt lat="62.636744782164" lon="17.749900695436">
        <ele>53.8</ele>
        <time>2018-05-04T17:26:44Z</time>
      </trkpt>
      <trkpt lat="62.636728688916" lon="17.750056598776">
        <ele>54</ele>
        <time>2018-05-04T17:26:45Z</time>
      </trkpt>
      <trkpt lat="62.636712679487" lon="17.750213591763">
        <ele>54</ele>
        <time>2018-05-04T17:26:46Z</time>
      </trkpt>
      <trkpt lat="62.636691305642" lon="17.7503747757">
        <ele>54</ele>
        <time>2018-05-04T17:26:47Z</time>
      </trkpt>
      <trkpt lat="62.636671775815" lon="17.750540066768">
        <ele>53.6</ele>
        <time>2018-05-04T17:26:48Z</time>
      </trkpt>
      <trkpt lat="62.636652832721" lon="17.750707956225">
        <ele>53.2</ele>
        <time>2018-05-04T17:26:49Z</time>
      </trkpt>
      <trkpt lat="62.636633805808" lon="17.750880623365">
        <ele>53</ele>
        <time>2018-05-04T17:26:50Z</time>
      </trkpt>
      <trkpt lat="62.636615533266" lon="17.751043735139">
        <ele>52.8</ele>
        <time>2018-05-04T17:26:51Z</time>
      </trkpt>
      <trkpt lat="62.636594662335" lon="17.751222101971">
        <ele>52.4</ele>
        <time>2018-05-04T17:26:52Z</time>
      </trkpt>
      <trkpt lat="62.636573204671" lon="17.751398457147">
        <ele>52</ele>
        <time>2018-05-04T17:26:53Z</time>
      </trkpt>
      <trkpt lat="62.636549902989" lon="17.751586295526">
        <ele>51.6</ele>
        <time>2018-05-04T17:26:54Z</time>
      </trkpt>
      <trkpt lat="62.636528445325" lon="17.751757705381">
        <ele>51.2</ele>
        <time>2018-05-04T17:26:55Z</time>
      </trkpt>
      <trkpt lat="62.636507658213" lon="17.75192458901">
        <ele>50.6</ele>
        <time>2018-05-04T17:26:56Z</time>
      </trkpt>
      <trkpt lat="62.636485949092" lon="17.75210647624">
        <ele>49.8</ele>
        <time>2018-05-04T17:26:57Z</time>
      </trkpt>
      <trkpt lat="62.636467592731" lon="17.752264307417">
        <ele>49.4</ele>
        <time>2018-05-04T17:26:58Z</time>
      </trkpt>
      <trkpt lat="62.636446889438" lon="17.752445272638">
        <ele>49</ele>
        <time>2018-05-04T17:26:59Z</time>
      </trkpt>
      <trkpt lat="62.63642911981" lon="17.752608049136">
        <ele>48.6</ele>
        <time>2018-05-04T17:27:00Z</time>
      </trkpt>
      <trkpt lat="62.636411350182" lon="17.75276529358">
        <ele>48.2</ele>
        <time>2018-05-04T17:27:01Z</time>
      </trkpt>
      <trkpt lat="62.63639140126" lon="17.752939385643">
        <ele>48.2</ele>
        <time>2018-05-04T17:27:02Z</time>
      </trkpt>
      <trkpt lat="62.636372290528" lon="17.753101491589">
        <ele>48</ele>
        <time>2018-05-04T17:27:03Z</time>
      </trkpt>
      <trkpt lat="62.636353431253" lon="17.75325563473">
        <ele>48.2</ele>
        <time>2018-05-04T17:27:04Z</time>
      </trkpt>
      <trkpt lat="62.636331973589" lon="17.753426038757">
        <ele>48.2</ele>
        <time>2018-05-04T17:27:05Z</time>
      </trkpt>
      <trkpt lat="62.636313533409" lon="17.753582696468">
        <ele>48.2</ele>
        <time>2018-05-04T17:27:06Z</time>
      </trkpt>
      <trkpt lat="62.63629417122" lon="17.753759135463">
        <ele>48.4</ele>
        <time>2018-05-04T17:27:07Z</time>
      </trkpt>
      <trkpt lat="62.63627573104" lon="17.753917301916">
        <ele>48.6</ele>
        <time>2018-05-04T17:27:08Z</time>
      </trkpt>
      <trkpt lat="62.636253519005" lon="17.754091813074">
        <ele>48.6</ele>
        <time>2018-05-04T17:27:09Z</time>
      </trkpt>
      <trkpt lat="62.63623214516" lon="17.754260205445">
        <ele>48.6</ele>
        <time>2018-05-04T17:27:10Z</time>
      </trkpt>
      <trkpt lat="62.636213872618" lon="17.75442155702">
        <ele>48.4</ele>
        <time>2018-05-04T17:27:11Z</time>
      </trkpt>
      <trkpt lat="62.636192498773" lon="17.754601684051">
        <ele>48.4</ele>
        <time>2018-05-04T17:27:12Z</time>
      </trkpt>
      <trkpt lat="62.636170789652" lon="17.754769238232">
        <ele>48.4</ele>
        <time>2018-05-04T17:27:13Z</time>
      </trkpt>
      <trkpt lat="62.636148074703" lon="17.754935954223">
        <ele>48.2</ele>
        <time>2018-05-04T17:27:14Z</time>
      </trkpt>
      <trkpt lat="62.636125611211" lon="17.755102251119">
        <ele>48</ele>
        <time>2018-05-04T17:27:15Z</time>
      </trkpt>
      <trkpt lat="62.636109015049" lon="17.755220603547">
        <ele>47.8</ele>
        <time>2018-05-04T17:27:16Z</time>
      </trkpt>
      <trkpt lat="62.636078002019" lon="17.755429312857">
        <ele>47.6</ele>
        <time>2018-05-04T17:27:17Z</time>
      </trkpt>
      <trkpt lat="62.636053023957" lon="17.755591502622">
        <ele>47.4</ele>
        <time>2018-05-04T17:27:18Z</time>
      </trkpt>
      <trkpt lat="62.636026369515" lon="17.75575260274">
        <ele>47.4</ele>
        <time>2018-05-04T17:27:19Z</time>
      </trkpt>
      <trkpt lat="62.635998793064" lon="17.755911607383">
        <ele>47.2</ele>
        <time>2018-05-04T17:27:20Z</time>
      </trkpt>
      <trkpt lat="62.635971551889" lon="17.756058877366">
        <ele>47.2</ele>
        <time>2018-05-04T17:27:21Z</time>
      </trkpt>
      <trkpt lat="62.63594045504" lon="17.756219977484">
        <ele>47</ele>
        <time>2018-05-04T17:27:22Z</time>
      </trkpt>
      <trkpt lat="62.635909861105" lon="17.756377138109">
        <ele>46.8</ele>
        <time>2018-05-04T17:27:23Z</time>
      </trkpt>
      <trkpt lat="62.635876082048" lon="17.756541842444">
        <ele>46.6</ele>
        <time>2018-05-04T17:27:24Z</time>
      </trkpt>
      <trkpt lat="62.635841213344" lon="17.75669389011">
        <ele>46.4</ele>
        <time>2018-05-04T17:27:25Z</time>
      </trkpt>
      <trkpt lat="62.635808607753" lon="17.75683302965">
        <ele>46.4</ele>
        <time>2018-05-04T17:27:26Z</time>
      </trkpt>
      <trkpt lat="62.635771559755" lon="17.756990441732">
        <ele>46.6</ele>
        <time>2018-05-04T17:27:27Z</time>
      </trkpt>
      <trkpt lat="62.63573845125" lon="17.757124971227">
        <ele>46.8</ele>
        <time>2018-05-04T17:27:28Z</time>
      </trkpt>
      <trkpt lat="62.635701487071" lon="17.757276767436">
        <ele>47</ele>
        <time>2018-05-04T17:27:29Z</time>
      </trkpt>
      <trkpt lat="62.635667037462" lon="17.757418002451">
        <ele>47.2</ele>
        <time>2018-05-04T17:27:30Z</time>
      </trkpt>
      <trkpt lat="62.635634264233" lon="17.757548592453">
        <ele>47.4</ele>
        <time>2018-05-04T17:27:31Z</time>
      </trkpt>
      <trkpt lat="62.635596545683" lon="17.75769468897">
        <ele>47.8</ele>
        <time>2018-05-04T17:27:32Z</time>
      </trkpt>
      <trkpt lat="62.635561257884" lon="17.757834582881">
        <ele>48.2</ele>
        <time>2018-05-04T17:27:33Z</time>
      </trkpt>
      <trkpt lat="62.635528736112" lon="17.757967352177">
        <ele>48.4</ele>
        <time>2018-05-04T17:27:34Z</time>
      </trkpt>
      <trkpt lat="62.635493113037" lon="17.758115376531">
        <ele>48.8</ele>
        <time>2018-05-04T17:27:35Z</time>
      </trkpt>
      <trkpt lat="62.635461345636" lon="17.7582453798">
        <ele>49</ele>
        <time>2018-05-04T17:27:36Z</time>
      </trkpt>
      <trkpt lat="62.635424632914" lon="17.758386111901">
        <ele>49.4</ele>
        <time>2018-05-04T17:27:37Z</time>
      </trkpt>
      <trkpt lat="62.635389261296" lon="17.758516282808">
        <ele>49.4</ele>
        <time>2018-05-04T17:27:38Z</time>
      </trkpt>
      <trkpt lat="62.635351039832" lon="17.758661205859">
        <ele>49.4</ele>
        <time>2018-05-04T17:27:39Z</time>
      </trkpt>
      <trkpt lat="62.63531767987" lon="17.75879104149">
        <ele>49.6</ele>
        <time>2018-05-04T17:27:40Z</time>
      </trkpt>
      <trkpt lat="62.635280715691" lon="17.758931103039">
        <ele>49.6</ele>
        <time>2018-05-04T17:27:41Z</time>
      </trkpt>
      <trkpt lat="62.635240314933" lon="17.75907770247">
        <ele>49.6</ele>
        <time>2018-05-04T17:27:42Z</time>
      </trkpt>
      <trkpt lat="62.635202177288" lon="17.759216758191">
        <ele>49.6</ele>
        <time>2018-05-04T17:27:43Z</time>
      </trkpt>
      <trkpt lat="62.6351642911" lon="17.759360423957">
        <ele>49.6</ele>
        <time>2018-05-04T17:27:44Z</time>
      </trkpt>
      <trkpt lat="62.635128332749" lon="17.759506520474">
        <ele>49.6</ele>
        <time>2018-05-04T17:27:45Z</time>
      </trkpt>
      <trkpt lat="62.635092961131" lon="17.75965521538">
        <ele>49.6</ele>
        <time>2018-05-04T17:27:46Z</time>
      </trkpt>
      <trkpt lat="62.63505365002" lon="17.759803239734">
        <ele>49.4</ele>
        <time>2018-05-04T17:27:47Z</time>
      </trkpt>
      <trkpt lat="62.63501425509" lon="17.759948833337">
        <ele>49.4</ele>
        <time>2018-05-04T17:27:48Z</time>
      </trkpt>
      <trkpt lat="62.634974273427" lon="17.76009442694">
        <ele>49.4</ele>
        <time>2018-05-04T17:27:49Z</time>
      </trkpt>
      <trkpt lat="62.634936722515" lon="17.760239601448">
        <ele>49.4</ele>
        <time>2018-05-04T17:27:50Z</time>
      </trkpt>
      <trkpt lat="62.634903027277" lon="17.760377399884">
        <ele>49.4</ele>
        <time>2018-05-04T17:27:51Z</time>
      </trkpt>
      <trkpt lat="62.634866230736" lon="17.760524166953">
        <ele>49.4</ele>
        <time>2018-05-04T17:27:52Z</time>
      </trkpt>
      <trkpt lat="62.634828344548" lon="17.760668000357">
        <ele>49.4</ele>
        <time>2018-05-04T17:27:53Z</time>
      </trkpt>
      <trkpt lat="62.634788698161" lon="17.760818287824">
        <ele>49.4</ele>
        <time>2018-05-04T17:27:54Z</time>
      </trkpt>
      <trkpt lat="62.634753158905" lon="17.760957511183">
        <ele>49.4</ele>
        <time>2018-05-04T17:27:55Z</time>
      </trkpt>
      <trkpt lat="62.634720218038" lon="17.761086592443">
        <ele>49.6</ele>
        <time>2018-05-04T17:27:56Z</time>
      </trkpt>
      <trkpt lat="62.634683002402" lon="17.761229503838">
        <ele>49.8</ele>
        <time>2018-05-04T17:27:57Z</time>
      </trkpt>
      <trkpt lat="62.63465048063" lon="17.761352885406">
        <ele>50</ele>
        <time>2018-05-04T17:27:58Z</time>
      </trkpt>
      <trkpt lat="62.63461527665" lon="17.761489426557">
        <ele>50.4</ele>
        <time>2018-05-04T17:27:59Z</time>
      </trkpt>
      <trkpt lat="62.634582838697" lon="17.761614484505">
        <ele>50.4</ele>
        <time>2018-05-04T17:28:00Z</time>
      </trkpt>
      <trkpt lat="62.634552328581" lon="17.76172722106">
        <ele>50.8</ele>
        <time>2018-05-04T17:28:01Z</time>
      </trkpt>
      <trkpt lat="62.634518717162" lon="17.761851021723">
        <ele>51</ele>
        <time>2018-05-04T17:28:02Z</time>
      </trkpt>
      <trkpt lat="62.634489464331" lon="17.761967865409">
        <ele>51.2</ele>
        <time>2018-05-04T17:28:03Z</time>
      </trkpt>
      <trkpt lat="62.634462306975" lon="17.762074483177">
        <ele>51.2</ele>
        <time>2018-05-04T17:28:04Z</time>
      </trkpt>
      <trkpt lat="62.634432970325" lon="17.76218403461">
        <ele>51.4</ele>
        <time>2018-05-04T17:28:05Z</time>
      </trkpt>
      <trkpt lat="62.634406148245" lon="17.76228629379">
        <ele>51.6</ele>
        <time>2018-05-04T17:28:06Z</time>
      </trkpt>
      <trkpt lat="62.634377565966" lon="17.762398946526">
        <ele>51.8</ele>
        <time>2018-05-04T17:28:07Z</time>
      </trkpt>
      <trkpt lat="62.63435208499" lon="17.762497852946">
        <ele>52</ele>
        <time>2018-05-04T17:28:08Z</time>
      </trkpt>
      <trkpt lat="62.634323335073" lon="17.762608661664">
        <ele>52</ele>
        <time>2018-05-04T17:28:09Z</time>
      </trkpt>
      <trkpt lat="62.634297854097" lon="17.762708238636">
        <ele>52.4</ele>
        <time>2018-05-04T17:28:10Z</time>
      </trkpt>
      <trkpt lat="62.634270864379" lon="17.762811922739">
        <ele>52.6</ele>
        <time>2018-05-04T17:28:11Z</time>
      </trkpt>
      <trkpt lat="62.634241946824" lon="17.762921474172">
        <ele>52.8</ele>
        <time>2018-05-04T17:28:12Z</time>
      </trkpt>
      <trkpt lat="62.634216130572" lon="17.763026918474">
        <ele>53.2</ele>
        <time>2018-05-04T17:28:13Z</time>
      </trkpt>
      <trkpt lat="62.634189895225" lon="17.763131859862">
        <ele>53.6</ele>
        <time>2018-05-04T17:28:14Z</time>
      </trkpt>
      <trkpt lat="62.634163156964" lon="17.763232107386">
        <ele>53.8</ele>
        <time>2018-05-04T17:28:15Z</time>
      </trkpt>
      <trkpt lat="62.634135748151" lon="17.763333109281">
        <ele>54.2</ele>
        <time>2018-05-04T17:28:16Z</time>
      </trkpt>
      <trkpt lat="62.634107417329" lon="17.763434697909">
        <ele>54.6</ele>
        <time>2018-05-04T17:28:17Z</time>
      </trkpt>
      <trkpt lat="62.634080259973" lon="17.763537962917">
        <ele>55</ele>
        <time>2018-05-04T17:28:18Z</time>
      </trkpt>
      <trkpt lat="62.634051929151" lon="17.763640557373">
        <ele>55.2</ele>
        <time>2018-05-04T17:28:19Z</time>
      </trkpt>
      <trkpt lat="62.634023598329" lon="17.763743487105">
        <ele>55.4</ele>
        <time>2018-05-04T17:28:20Z</time>
      </trkpt>
      <trkpt lat="62.633997027706" lon="17.763841639154">
        <ele>55.6</ele>
        <time>2018-05-04T17:28:21Z</time>
      </trkpt>
      <trkpt lat="62.633968696884" lon="17.763949011293">
        <ele>55.8</ele>
        <time>2018-05-04T17:28:22Z</time>
      </trkpt>
      <trkpt lat="62.633939946967" lon="17.764055796699">
        <ele>55.8</ele>
        <time>2018-05-04T17:28:23Z</time>
      </trkpt>
      <trkpt lat="62.633909101575" lon="17.764166521598">
        <ele>56</ele>
        <time>2018-05-04T17:28:24Z</time>
      </trkpt>
      <trkpt lat="62.633878591459" lon="17.764270540977">
        <ele>56.2</ele>
        <time>2018-05-04T17:28:25Z</time>
      </trkpt>
      <trkpt lat="62.633851517922" lon="17.764367016646">
        <ele>56.2</ele>
        <time>2018-05-04T17:28:26Z</time>
      </trkpt>
      <trkpt lat="62.633820756349" lon="17.764477909183">
        <ele>56.4</ele>
        <time>2018-05-04T17:28:27Z</time>
      </trkpt>
      <trkpt lat="62.633792760803" lon="17.764577653793">
        <ele>56.6</ele>
        <time>2018-05-04T17:28:28Z</time>
      </trkpt>
      <trkpt lat="62.633760155212" lon="17.764689552158">
        <ele>56.6</ele>
        <time>2018-05-04T17:28:29Z</time>
      </trkpt>
      <trkpt lat="62.633728303992" lon="17.764792230433">
        <ele>57</ele>
        <time>2018-05-04T17:28:30Z</time>
      </trkpt>
      <trkpt lat="62.633697626238" lon="17.764891555948">
        <ele>57.4</ele>
        <time>2018-05-04T17:28:31Z</time>
      </trkpt>
      <trkpt lat="62.633663595724" lon="17.765004041046">
        <ele>57.6</ele>
        <time>2018-05-04T17:28:32Z</time>
      </trkpt>
      <trkpt lat="62.633630654857" lon="17.765110072081">
        <ele>58</ele>
        <time>2018-05-04T17:28:33Z</time>
      </trkpt>
      <trkpt lat="62.633598049266" lon="17.765210654881">
        <ele>58.2</ele>
        <time>2018-05-04T17:28:34Z</time>
      </trkpt>
      <trkpt lat="62.633561588001" lon="17.76532137978">
        <ele>58.4</ele>
        <time>2018-05-04T17:28:35Z</time>
      </trkpt>
      <trkpt lat="62.633527976582" lon="17.765421794942">
        <ele>58.6</ele>
        <time>2018-05-04T17:28:36Z</time>
      </trkpt>
      <trkpt lat="62.633490760946" lon="17.765534196221">
        <ele>58.6</ele>
        <time>2018-05-04T17:28:37Z</time>
      </trkpt>
      <trkpt lat="62.633458071536" lon="17.765635449573">
        <ele>59</ele>
        <time>2018-05-04T17:28:38Z</time>
      </trkpt>
      <trkpt lat="62.633420520624" lon="17.765748689042">
        <ele>59</ele>
        <time>2018-05-04T17:28:39Z</time>
      </trkpt>
      <trkpt lat="62.633385903377" lon="17.765850193851">
        <ele>59</ele>
        <time>2018-05-04T17:28:40Z</time>
      </trkpt>
      <trkpt lat="62.63334877156" lon="17.765959326189">
        <ele>59.2</ele>
        <time>2018-05-04T17:28:41Z</time>
      </trkpt>
      <trkpt lat="62.633308873716" lon="17.766077008065">
        <ele>59.2</ele>
        <time>2018-05-04T17:28:42Z</time>
      </trkpt>
      <trkpt lat="62.633271238985" lon="17.766185805127">
        <ele>59.2</ele>
        <time>2018-05-04T17:28:43Z</time>
      </trkpt>
      <trkpt lat="62.633232598426" lon="17.766294434551">
        <ele>59</ele>
        <time>2018-05-04T17:28:44Z</time>
      </trkpt>
      <trkpt lat="62.633193874048" lon="17.76640180669">
        <ele>59</ele>
        <time>2018-05-04T17:28:45Z</time>
      </trkpt>
      <trkpt lat="62.633154562937" lon="17.766511777218">
        <ele>59</ele>
        <time>2018-05-04T17:28:46Z</time>
      </trkpt>
      <trkpt lat="62.633111982885" lon="17.766627615076">
        <ele>59</ele>
        <time>2018-05-04T17:28:47Z</time>
      </trkpt>
      <trkpt lat="62.633070073385" lon="17.76673959726">
        <ele>59</ele>
        <time>2018-05-04T17:28:48Z</time>
      </trkpt>
      <trkpt lat="62.633027660971" lon="17.766852501453">
        <ele>59.2</ele>
        <time>2018-05-04T17:28:49Z</time>
      </trkpt>
      <trkpt lat="62.632984578005" lon="17.766965154189">
        <ele>59.2</ele>
        <time>2018-05-04T17:28:50Z</time>
      </trkpt>
      <trkpt lat="62.632944009609" lon="17.767069173568">
        <ele>59.4</ele>
        <time>2018-05-04T17:28:51Z</time>
      </trkpt>
      <trkpt lat="62.632899082625" lon="17.767181407209">
        <ele>59.6</ele>
        <time>2018-05-04T17:28:52Z</time>
      </trkpt>
      <trkpt lat="62.632854407098" lon="17.767291545375">
        <ele>59.6</ele>
        <time>2018-05-04T17:28:53Z</time>
      </trkpt>
      <trkpt lat="62.632806797906" lon="17.767411909459">
        <ele>59.6</ele>
        <time>2018-05-04T17:28:54Z</time>
      </trkpt>
      <trkpt lat="62.632762122379" lon="17.76752749586">
        <ele>59.4</ele>
        <time>2018-05-04T17:28:55Z</time>
      </trkpt>
      <trkpt lat="62.63271761449" lon="17.767636041465">
        <ele>59.2</ele>
        <time>2018-05-04T17:28:56Z</time>
      </trkpt>
      <trkpt lat="62.632665898167" lon="17.767756405549">
        <ele>59</ele>
        <time>2018-05-04T17:28:57Z</time>
      </trkpt>
      <trkpt lat="62.632616612595" lon="17.767871656674">
        <ele>58.8</ele>
        <time>2018-05-04T17:28:58Z</time>
      </trkpt>
      <trkpt lat="62.632600519347" lon="17.767910800147">
        <ele>58.8</ele>
        <time>2018-05-04T17:28:59Z</time>
      </trkpt>
      <trkpt lat="62.632516532709" lon="17.768104589675">
        <ele>58.8</ele>
        <time>2018-05-04T17:29:00Z</time>
      </trkpt>
      <trkpt lat="62.632468336784" lon="17.768215314574">
        <ele>59</ele>
        <time>2018-05-04T17:29:01Z</time>
      </trkpt>
      <trkpt lat="62.632414524986" lon="17.768340456341">
        <ele>59</ele>
        <time>2018-05-04T17:29:02Z</time>
      </trkpt>
      <trkpt lat="62.632361551378" lon="17.76845872495">
        <ele>59</ele>
        <time>2018-05-04T17:29:03Z</time>
      </trkpt>
      <trkpt lat="62.632311008521" lon="17.76856768965">
        <ele>59</ele>
        <time>2018-05-04T17:29:04Z</time>
      </trkpt>
      <trkpt lat="62.632252838135" lon="17.768690819761">
        <ele>58.8</ele>
        <time>2018-05-04T17:29:05Z</time>
      </trkpt>
      <trkpt lat="62.632201373269" lon="17.768800538832">
        <ele>58.8</ele>
        <time>2018-05-04T17:29:06Z</time>
      </trkpt>
      <trkpt lat="62.632144124892" lon="17.768925429142">
        <ele>58.6</ele>
        <time>2018-05-04T17:29:07Z</time>
      </trkpt>
      <trkpt lat="62.632092743845" lon="17.76903707605">
        <ele>58.4</ele>
        <time>2018-05-04T17:29:08Z</time>
      </trkpt>
      <trkpt lat="62.632038093857" lon="17.769156015211">
        <ele>58.2</ele>
        <time>2018-05-04T17:29:09Z</time>
      </trkpt>
      <trkpt lat="62.631994005063" lon="17.769251065957">
        <ele>58</ele>
        <time>2018-05-04T17:29:10Z</time>
      </trkpt>
      <trkpt lat="62.631926446949" lon="17.769395486094">
        <ele>57.6</ele>
        <time>2018-05-04T17:29:11Z</time>
      </trkpt>
      <trkpt lat="62.63186601345" lon="17.769524232078">
        <ele>57.4</ele>
        <time>2018-05-04T17:29:12Z</time>
      </trkpt>
      <trkpt lat="62.631809603263" lon="17.769645182895">
        <ele>57.2</ele>
        <time>2018-05-04T17:29:13Z</time>
      </trkpt>
      <trkpt lat="62.631752773981" lon="17.769765295522">
        <ele>57</ele>
        <time>2018-05-04T17:29:14Z</time>
      </trkpt>
      <trkpt lat="62.631696028518" lon="17.769886749253">
        <ele>57</ele>
        <time>2018-05-04T17:29:15Z</time>
      </trkpt>
      <trkpt lat="62.631639785969" lon="17.770010130821">
        <ele>57</ele>
        <time>2018-05-04T17:29:16Z</time>
      </trkpt>
      <trkpt lat="62.63158019066" lon="17.77013761952">
        <ele>56.8</ele>
        <time>2018-05-04T17:29:17Z</time>
      </trkpt>
      <trkpt lat="62.631522439369" lon="17.770262426011">
        <ele>56.4</ele>
        <time>2018-05-04T17:29:18Z</time>
      </trkpt>
      <trkpt lat="62.631465693906" lon="17.770384801751">
        <ele>56.2</ele>
        <time>2018-05-04T17:29:19Z</time>
      </trkpt>
      <trkpt lat="62.631408110253" lon="17.770512877183">
        <ele>56.2</ele>
        <time>2018-05-04T17:29:20Z</time>
      </trkpt>
      <trkpt lat="62.631354801369" lon="17.770629888507">
        <ele>55.8</ele>
        <time>2018-05-04T17:29:21Z</time>
      </trkpt>
      <trkpt lat="62.631294535508" lon="17.770755868464">
        <ele>55.6</ele>
        <time>2018-05-04T17:29:22Z</time>
      </trkpt>
      <trkpt lat="62.63123318" lon="17.770885285">
        <ele>55.4</ele>
        <time>2018-05-04T17:29:23Z</time>
      </trkpt>
      <trkpt lat="62.631171489216" lon="17.771022915798">
        <ele>55.4</ele>
        <time>2018-05-04T17:29:24Z</time>
      </trkpt>
      <trkpt lat="62.631112983554" lon="17.771157529112">
        <ele>55.4</ele>
        <time>2018-05-04T17:29:25Z</time>
      </trkpt>
      <trkpt lat="62.631058501204" lon="17.771285520725">
        <ele>55.4</ele>
        <time>2018-05-04T17:29:26Z</time>
      </trkpt>
      <trkpt lat="62.630998738257" lon="17.771430779052">
        <ele>55.2</ele>
        <time>2018-05-04T17:29:27Z</time>
      </trkpt>
      <trkpt lat="62.630945597011" lon="17.771563296891">
        <ele>55</ele>
        <time>2018-05-04T17:29:28Z</time>
      </trkpt>
      <trkpt lat="62.630885247331" lon="17.771718278222">
        <ele>55.2</ele>
        <time>2018-05-04T17:29:29Z</time>
      </trkpt>
      <trkpt lat="62.630830262067" lon="17.771863788006">
        <ele>55</ele>
        <time>2018-05-04T17:29:30Z</time>
      </trkpt>
      <trkpt lat="62.630781647047" lon="17.771998820415">
        <ele>55</ele>
        <time>2018-05-04T17:29:31Z</time>
      </trkpt>
      <trkpt lat="62.630726494145" lon="17.772156903049">
        <ele>55</ele>
        <time>2018-05-04T17:29:32Z</time>
      </trkpt>
      <trkpt lat="62.630676202745" lon="17.772304256851">
        <ele>54.8</ele>
        <time>2018-05-04T17:29:33Z</time>
      </trkpt>
      <trkpt lat="62.630631108123" lon="17.772443228753">
        <ele>54.6</ele>
        <time>2018-05-04T17:29:34Z</time>
      </trkpt>
      <trkpt lat="62.630582828379" lon="17.772603993595">
        <ele>54.6</ele>
        <time>2018-05-04T17:29:35Z</time>
      </trkpt>
      <trkpt lat="62.630541002698" lon="17.772750928302">
        <ele>54.6</ele>
        <time>2018-05-04T17:29:36Z</time>
      </trkpt>
      <trkpt lat="62.630495405162" lon="17.772916470827">
        <ele>54.4</ele>
        <time>2018-05-04T17:29:37Z</time>
      </trkpt>
      <trkpt lat="62.630458860078" lon="17.773049910675">
        <ele>54.4</ele>
        <time>2018-05-04T17:29:38Z</time>
      </trkpt>
      <trkpt lat="62.630416447664" lon="17.773213609182">
        <ele>54.4</ele>
        <time>2018-05-04T17:29:39Z</time>
      </trkpt>
      <trkpt lat="62.630379651123" lon="17.773363729011">
        <ele>54.6</ele>
        <time>2018-05-04T17:29:40Z</time>
      </trkpt>
      <trkpt lat="62.630345033876" lon="17.773510579899">
        <ele>54.6</ele>
        <time>2018-05-04T17:29:41Z</time>
      </trkpt>
      <trkpt lat="62.630309326982" lon="17.773674697501">
        <ele>54.4</ele>
        <time>2018-05-04T17:29:42Z</time>
      </trkpt>
      <trkpt lat="62.630278733047" lon="17.773829259737">
        <ele>54.4</ele>
        <time>2018-05-04T17:29:43Z</time>
      </trkpt>
      <trkpt lat="62.630248222931" lon="17.773987761466">
        <ele>54.6</ele>
        <time>2018-05-04T17:29:44Z</time>
      </trkpt>
      <trkpt lat="62.630219053919" lon="17.774138384209">
        <ele>54.6</ele>
        <time>2018-05-04T17:29:45Z</time>
      </trkpt>
      <trkpt lat="62.630189381993" lon="17.774293281721">
        <ele>54.6</ele>
        <time>2018-05-04T17:29:46Z</time>
      </trkpt>
      <trkpt lat="62.630160632076" lon="17.774448095414">
        <ele>54.6</ele>
        <time>2018-05-04T17:29:47Z</time>
      </trkpt>
      <trkpt lat="62.630134061453" lon="17.774602490012">
        <ele>54.6</ele>
        <time>2018-05-04T17:29:48Z</time>
      </trkpt>
      <trkpt lat="62.63011084359" lon="17.774756214058">
        <ele>54.6</ele>
        <time>2018-05-04T17:29:49Z</time>
      </trkpt>
      <trkpt lat="62.630088463917" lon="17.774913458502">
        <ele>54.4</ele>
        <time>2018-05-04T17:29:50Z</time>
      </trkpt>
      <trkpt lat="62.630067592986" lon="17.775058130096">
        <ele>54.2</ele>
        <time>2018-05-04T17:29:51Z</time>
      </trkpt>
      <trkpt lat="62.630045632408" lon="17.775214787807">
        <ele>54</ele>
        <time>2018-05-04T17:29:52Z</time>
      </trkpt>
      <trkpt lat="62.630024761477" lon="17.775372535165">
        <ele>54.2</ele>
        <time>2018-05-04T17:29:53Z</time>
      </trkpt>
      <trkpt lat="62.630003303813" lon="17.77554143045">
        <ele>54.2</ele>
        <time>2018-05-04T17:29:54Z</time>
      </trkpt>
      <trkpt lat="62.6299842769" lon="17.775705128957">
        <ele>54.6</ele>
        <time>2018-05-04T17:29:55Z</time>
      </trkpt>
      <trkpt lat="62.629969440937" lon="17.775858433908">
        <ele>54.8</ele>
        <time>2018-05-04T17:29:56Z</time>
      </trkpt>
      <trkpt lat="62.629954437336" lon="17.776032274514">
        <ele>55</ele>
        <time>2018-05-04T17:29:57Z</time>
      </trkpt>
      <trkpt lat="62.629941948305" lon="17.776190105691">
        <ele>55.2</ele>
        <time>2018-05-04T17:29:58Z</time>
      </trkpt>
      <trkpt lat="62.629928453446" lon="17.776368388704">
        <ele>55.4</ele>
        <time>2018-05-04T17:29:59Z</time>
      </trkpt>
      <trkpt lat="62.629917808433" lon="17.776533595953">
        <ele>55.6</ele>
        <time>2018-05-04T17:30:00Z</time>
      </trkpt>
      <trkpt lat="62.629909761809" lon="17.776687403818">
        <ele>55.6</ele>
        <time>2018-05-04T17:30:01Z</time>
      </trkpt>
      <trkpt lat="62.629901463728" lon="17.776863926632">
        <ele>55.6</ele>
        <time>2018-05-04T17:30:02Z</time>
      </trkpt>
      <trkpt lat="62.629894255294" lon="17.77703173227">
        <ele>55.6</ele>
        <time>2018-05-04T17:30:03Z</time>
      </trkpt>
      <trkpt lat="62.629887633593" lon="17.777195933691">
        <ele>55.6</ele>
        <time>2018-05-04T17:30:04Z</time>
      </trkpt>
      <trkpt lat="62.629883526462" lon="17.777359213103">
        <ele>55.4</ele>
        <time>2018-05-04T17:30:05Z</time>
      </trkpt>
      <trkpt lat="62.629879754607" lon="17.777515116443">
        <ele>55.4</ele>
        <time>2018-05-04T17:30:06Z</time>
      </trkpt>
      <trkpt lat="62.629876318028" lon="17.777687699764">
        <ele>55.4</ele>
        <time>2018-05-04T17:30:07Z</time>
      </trkpt>
      <trkpt lat="62.629874222553" lon="17.777834634471">
        <ele>55.4</ele>
        <time>2018-05-04T17:30:08Z</time>
      </trkpt>
      <trkpt lat="62.629872629992" lon="17.778003948851">
        <ele>55.6</ele>
        <time>2018-05-04T17:30:09Z</time>
      </trkpt>
      <trkpt lat="62.629873049087" lon="17.778153733404">
        <ele>55.8</ele>
        <time>2018-05-04T17:30:10Z</time>
      </trkpt>
      <trkpt lat="62.629875479838" lon="17.77830745745">
        <ele>56</ele>
        <time>2018-05-04T17:30:11Z</time>
      </trkpt>
      <trkpt lat="62.629879754607" lon="17.778470820681">
        <ele>56</ele>
        <time>2018-05-04T17:30:12Z</time>
      </trkpt>
      <trkpt lat="62.629884783747" lon="17.778624377089">
        <ele>56.2</ele>
        <time>2018-05-04T17:30:13Z</time>
      </trkpt>
      <trkpt lat="62.629891070172" lon="17.778774832194">
        <ele>56.4</ele>
        <time>2018-05-04T17:30:14Z</time>
      </trkpt>
      <trkpt lat="62.629897775692" lon="17.778924281471">
        <ele>56.4</ele>
        <time>2018-05-04T17:30:15Z</time>
      </trkpt>
      <trkpt lat="62.629905822316" lon="17.779045232288">
        <ele>56.4</ele>
        <time>2018-05-04T17:30:16Z</time>
      </trkpt>
      <trkpt lat="62.629916802605" lon="17.77921437903">
        <ele>56.4</ele>
        <time>2018-05-04T17:30:17Z</time>
      </trkpt>
      <trkpt lat="62.629926190333" lon="17.779352093647">
        <ele>56.6</ele>
        <time>2018-05-04T17:30:18Z</time>
      </trkpt>
      <trkpt lat="62.629935913337" lon="17.779490730273">
        <ele>56.6</ele>
        <time>2018-05-04T17:30:19Z</time>
      </trkpt>
      <trkpt lat="62.629945803979" lon="17.779623583388">
        <ele>56.6</ele>
        <time>2018-05-04T17:30:20Z</time>
      </trkpt>
      <trkpt lat="62.629955610802" lon="17.779744701843">
        <ele>56.6</ele>
        <time>2018-05-04T17:30:21Z</time>
      </trkpt>
      <trkpt lat="62.629967010186" lon="17.779875291845">
        <ele>56.6</ele>
        <time>2018-05-04T17:30:22Z</time>
      </trkpt>
      <trkpt lat="62.629977403742" lon="17.779998589594">
        <ele>56.8</ele>
        <time>2018-05-04T17:30:23Z</time>
      </trkpt>
      <trkpt lat="62.629988132574" lon="17.780132699994">
        <ele>56.8</ele>
        <time>2018-05-04T17:30:24Z</time>
      </trkpt>
      <trkpt lat="62.629997604121" lon="17.780258931408">
        <ele>56.8</ele>
        <time>2018-05-04T17:30:25Z</time>
      </trkpt>
      <trkpt lat="62.630007410944" lon="17.780379714587">
        <ele>57</ele>
        <time>2018-05-04T17:30:26Z</time>
      </trkpt>
      <trkpt lat="62.630019564699" lon="17.780511310417">
        <ele>57.2</ele>
        <time>2018-05-04T17:30:27Z</time>
      </trkpt>
      <trkpt lat="62.630031718454" lon="17.780632931786">
        <ele>57.6</ele>
        <time>2018-05-04T17:30:28Z</time>
      </trkpt>
      <trkpt lat="62.630042782562" lon="17.780762683598">
        <ele>57.6</ele>
        <time>2018-05-04T17:30:29Z</time>
      </trkpt>
      <trkpt lat="62.630051499738" lon="17.780887238632">
        <ele>57.8</ele>
        <time>2018-05-04T17:30:30Z</time>
      </trkpt>
      <trkpt lat="62.630059127267" lon="17.781001567748">
        <ele>57.8</ele>
        <time>2018-05-04T17:30:31Z</time>
      </trkpt>
      <trkpt lat="62.630067760624" lon="17.781132073931">
        <ele>57.8</ele>
        <time>2018-05-04T17:30:32Z</time>
      </trkpt>
      <trkpt lat="62.630076310162" lon="17.781255204042">
        <ele>57.6</ele>
        <time>2018-05-04T17:30:33Z</time>
      </trkpt>
      <trkpt lat="62.630085865528" lon="17.781375400488">
        <ele>57.4</ele>
        <time>2018-05-04T17:30:34Z</time>
      </trkpt>
      <trkpt lat="62.630097348731" lon="17.781504565567">
        <ele>57.4</ele>
        <time>2018-05-04T17:30:35Z</time>
      </trkpt>
      <trkpt lat="62.630106820278" lon="17.78162082252">
        <ele>57.4</ele>
        <time>2018-05-04T17:30:36Z</time>
      </trkpt>
      <trkpt lat="62.630117716748" lon="17.781751328703">
        <ele>57.4</ele>
        <time>2018-05-04T17:30:37Z</time>
      </trkpt>
      <trkpt lat="62.630127188295" lon="17.781864903448">
        <ele>57.4</ele>
        <time>2018-05-04T17:30:38Z</time>
      </trkpt>
      <trkpt lat="62.630137330394" lon="17.781989290844">
        <ele>57.4</ele>
        <time>2018-05-04T17:30:39Z</time>
      </trkpt>
      <trkpt lat="62.630146801941" lon="17.782112923869">
        <ele>57.4</ele>
        <time>2018-05-04T17:30:40Z</time>
      </trkpt>
      <trkpt lat="62.630157279316" lon="17.782238987645">
        <ele>57.4</ele>
        <time>2018-05-04T17:30:41Z</time>
      </trkpt>
      <trkpt lat="62.630168343424" lon="17.782373349502">
        <ele>57.4</ele>
        <time>2018-05-04T17:30:42Z</time>
      </trkpt>
      <trkpt lat="62.630177647333" lon="17.78250092202">
        <ele>57.4</ele>
        <time>2018-05-04T17:30:43Z</time>
      </trkpt>
      <trkpt lat="62.630188124708" lon="17.782631763479">
        <ele>57.4</ele>
        <time>2018-05-04T17:30:44Z</time>
      </trkpt>
      <trkpt lat="62.630198350626" lon="17.78276159911">
        <ele>57.6</ele>
        <time>2018-05-04T17:30:45Z</time>
      </trkpt>
      <trkpt lat="62.630208157449" lon="17.782893697854">
        <ele>57.8</ele>
        <time>2018-05-04T17:30:46Z</time>
      </trkpt>
      <trkpt lat="62.63021813191" lon="17.783030909557">
        <ele>57.8</ele>
        <time>2018-05-04T17:30:47Z</time>
      </trkpt>
      <trkpt lat="62.630229782751" lon="17.783167869803">
        <ele>58</ele>
        <time>2018-05-04T17:30:48Z</time>
      </trkpt>
      <trkpt lat="62.630242355601" lon="17.783308769542">
        <ele>58.2</ele>
        <time>2018-05-04T17:30:49Z</time>
      </trkpt>
      <trkpt lat="62.630254257899" lon="17.78345059129">
        <ele>58.2</ele>
        <time>2018-05-04T17:30:50Z</time>
      </trkpt>
      <trkpt lat="62.630264819093" lon="17.783583444405">
        <ele>58.2</ele>
        <time>2018-05-04T17:30:51Z</time>
      </trkpt>
      <trkpt lat="62.63027680521" lon="17.783733815691">
        <ele>58.2</ele>
        <time>2018-05-04T17:30:52Z</time>
      </trkpt>
      <trkpt lat="62.630288204594" lon="17.783884606072">
        <ele>58</ele>
        <time>2018-05-04T17:30:53Z</time>
      </trkpt>
      <trkpt lat="62.630300442168" lon="17.784044700362">
        <ele>58</ele>
        <time>2018-05-04T17:30:54Z</time>
      </trkpt>
      <trkpt lat="62.63031284738" lon="17.78419741858">
        <ele>57.8</ele>
        <time>2018-05-04T17:30:55Z</time>
      </trkpt>
      <trkpt lat="62.63032458204" lon="17.784341419622">
        <ele>57.8</ele>
        <time>2018-05-04T17:30:56Z</time>
      </trkpt>
      <trkpt lat="62.630336819614" lon="17.784502435921">
        <ele>57.8</ele>
        <time>2018-05-04T17:30:57Z</time>
      </trkpt>
      <trkpt lat="62.630347129351" lon="17.784648197162">
        <ele>57.8</ele>
        <time>2018-05-04T17:30:58Z</time>
      </trkpt>
      <trkpt lat="62.630358361097" lon="17.78480929728">
        <ele>57.8</ele>
        <time>2018-05-04T17:30:59Z</time>
      </trkpt>
      <trkpt lat="62.630368670834" lon="17.784960842032">
        <ele>57.6</ele>
        <time>2018-05-04T17:31:00Z</time>
      </trkpt>
      <trkpt lat="62.630379315847" lon="17.785104507798">
        <ele>57.6</ele>
        <time>2018-05-04T17:31:01Z</time>
      </trkpt>
      <trkpt lat="62.630391050507" lon="17.785268960676">
        <ele>57.6</ele>
        <time>2018-05-04T17:31:02Z</time>
      </trkpt>
      <trkpt lat="62.630400522054" lon="17.785421846532">
        <ele>57.6</ele>
        <time>2018-05-04T17:31:03Z</time>
      </trkpt>
      <trkpt lat="62.630409071592" lon="17.785569032696">
        <ele>57.8</ele>
        <time>2018-05-04T17:31:04Z</time>
      </trkpt>
      <trkpt lat="62.630420554795" lon="17.785731976832">
        <ele>57.8</ele>
        <time>2018-05-04T17:31:05Z</time>
      </trkpt>
      <trkpt lat="62.630431618903" lon="17.785870278182">
        <ele>58</ele>
        <time>2018-05-04T17:31:06Z</time>
      </trkpt>
      <trkpt lat="62.63044276683" lon="17.786023918409">
        <ele>58.2</ele>
        <time>2018-05-04T17:31:07Z</time>
      </trkpt>
      <trkpt lat="62.630451819282" lon="17.786162722673">
        <ele>58.2</ele>
        <time>2018-05-04T17:31:08Z</time>
      </trkpt>
      <trkpt lat="62.630461290829" lon="17.786314602701">
        <ele>58</ele>
        <time>2018-05-04T17:31:09Z</time>
      </trkpt>
      <trkpt lat="62.630468666901" lon="17.786448294006">
        <ele>57.8</ele>
        <time>2018-05-04T17:31:10Z</time>
      </trkpt>
      <trkpt lat="62.630476042973" lon="17.786593971428">
        <ele>57.6</ele>
        <time>2018-05-04T17:31:11Z</time>
      </trkpt>
      <trkpt lat="62.63048299995" lon="17.786745180904">
        <ele>57.4</ele>
        <time>2018-05-04T17:31:12Z</time>
      </trkpt>
      <trkpt lat="62.630488196728" lon="17.786886835014">
        <ele>57.4</ele>
        <time>2018-05-04T17:31:13Z</time>
      </trkpt>
      <trkpt lat="62.630493309687" lon="17.787024549631">
        <ele>57.4</ele>
        <time>2018-05-04T17:31:14Z</time>
      </trkpt>
      <trkpt lat="62.630498506465" lon="17.787161426058">
        <ele>57.4</ele>
        <time>2018-05-04T17:31:15Z</time>
      </trkpt>
      <trkpt lat="62.630503200329" lon="17.787297631933">
        <ele>57.4</ele>
        <time>2018-05-04T17:31:16Z</time>
      </trkpt>
      <trkpt lat="62.630509235297" lon="17.787431323238">
        <ele>57.6</ele>
        <time>2018-05-04T17:31:17Z</time>
      </trkpt>
      <trkpt lat="62.630514096799" lon="17.787563673439">
        <ele>57.6</ele>
        <time>2018-05-04T17:31:18Z</time>
      </trkpt>
      <trkpt lat="62.630518874482" lon="17.78769434726">
        <ele>57.8</ele>
        <time>2018-05-04T17:31:19Z</time>
      </trkpt>
      <trkpt lat="62.630523819803" lon="17.787822003597">
        <ele>57.8</ele>
        <time>2018-05-04T17:31:20Z</time>
      </trkpt>
      <trkpt lat="62.630527843115" lon="17.78794161331">
        <ele>57.8</ele>
        <time>2018-05-04T17:31:21Z</time>
      </trkpt>
      <trkpt lat="62.63053161497" lon="17.788067593267">
        <ele>58</ele>
        <time>2018-05-04T17:31:22Z</time>
      </trkpt>
      <trkpt lat="62.63053580592" lon="17.788188544084">
        <ele>57.8</ele>
        <time>2018-05-04T17:31:23Z</time>
      </trkpt>
      <trkpt lat="62.630542343802" lon="17.78832131338">
        <ele>57.8</ele>
        <time>2018-05-04T17:31:24Z</time>
      </trkpt>
      <trkpt lat="62.630547792037" lon="17.788445784595">
        <ele>57.6</ele>
        <time>2018-05-04T17:31:25Z</time>
      </trkpt>
      <trkpt lat="62.630551647711" lon="17.788559778435">
        <ele>57.8</ele>
        <time>2018-05-04T17:31:26Z</time>
      </trkpt>
      <trkpt lat="62.630555251928" lon="17.788684584926">
        <ele>57.6</ele>
        <time>2018-05-04T17:31:27Z</time>
      </trkpt>
      <trkpt lat="62.630558772326" lon="17.788796986205">
        <ele>57.8</ele>
        <time>2018-05-04T17:31:28Z</time>
      </trkpt>
      <trkpt lat="62.630564052923" lon="17.788917182651">
        <ele>58</ele>
        <time>2018-05-04T17:31:29Z</time>
      </trkpt>
      <trkpt lat="62.630569668796" lon="17.789032182319">
        <ele>58</ele>
        <time>2018-05-04T17:31:30Z</time>
      </trkpt>
      <trkpt lat="62.630573859746" lon="17.789137961897">
        <ele>58.2</ele>
        <time>2018-05-04T17:31:31Z</time>
      </trkpt>
      <trkpt lat="62.63057771542" lon="17.789256230506">
        <ele>58.4</ele>
        <time>2018-05-04T17:31:32Z</time>
      </trkpt>
      <trkpt lat="62.630582074008" lon="17.789366620129">
        <ele>58.6</ele>
        <time>2018-05-04T17:31:33Z</time>
      </trkpt>
      <trkpt lat="62.630586600234" lon="17.789474243725">
        <ele>58.8</ele>
        <time>2018-05-04T17:31:34Z</time>
      </trkpt>
      <trkpt lat="62.630589869175" lon="17.789591003592">
        <ele>58.8</ele>
        <time>2018-05-04T17:31:35Z</time>
      </trkpt>
      <trkpt lat="62.630593305754" lon="17.789695358247">
        <ele>59</ele>
        <time>2018-05-04T17:31:36Z</time>
      </trkpt>
      <trkpt lat="62.630597664342" lon="17.78981245339">
        <ele>59.2</ele>
        <time>2018-05-04T17:31:37Z</time>
      </trkpt>
      <trkpt lat="62.630602106749" lon="17.789915718398">
        <ele>59.4</ele>
        <time>2018-05-04T17:31:38Z</time>
      </trkpt>
      <trkpt lat="62.630607974079" lon="17.790031975351">
        <ele>59.6</ele>
        <time>2018-05-04T17:31:39Z</time>
      </trkpt>
      <trkpt lat="62.630612835581" lon="17.790139515128">
        <ele>59.8</ele>
        <time>2018-05-04T17:31:40Z</time>
      </trkpt>
      <trkpt lat="62.630617780902" lon="17.790248647466">
        <ele>59.8</ele>
        <time>2018-05-04T17:31:41Z</time>
      </trkpt>
      <trkpt lat="62.630622893861" lon="17.790365239695">
        <ele>60</ele>
        <time>2018-05-04T17:31:42Z</time>
      </trkpt>
      <trkpt lat="62.630628342096" lon="17.790479820268">
        <ele>60.2</ele>
        <time>2018-05-04T17:31:43Z</time>
      </trkpt>
      <trkpt lat="62.630635466711" lon="17.790592640642">
        <ele>60.4</ele>
        <time>2018-05-04T17:31:44Z</time>
      </trkpt>
      <trkpt lat="62.630643429516" lon="17.790706047749">
        <ele>60.4</ele>
        <time>2018-05-04T17:31:45Z</time>
      </trkpt>
      <trkpt lat="62.630650889407" lon="17.79080822311">
        <ele>60.6</ele>
        <time>2018-05-04T17:31:46Z</time>
      </trkpt>
      <trkpt lat="62.630660612411" lon="17.790936130904">
        <ele>60.8</ele>
        <time>2018-05-04T17:31:47Z</time>
      </trkpt>
      <trkpt lat="62.630670503053" lon="17.791051801124">
        <ele>60.8</ele>
        <time>2018-05-04T17:31:48Z</time>
      </trkpt>
      <trkpt lat="62.630681399523" lon="17.791169315362">
        <ele>61</ele>
        <time>2018-05-04T17:31:49Z</time>
      </trkpt>
      <trkpt lat="62.63069338564" lon="17.79128431503">
        <ele>60.8</ele>
        <time>2018-05-04T17:31:50Z</time>
      </trkpt>
      <trkpt lat="62.630704533567" lon="17.791389591694">
        <ele>60.8</ele>
        <time>2018-05-04T17:31:51Z</time>
      </trkpt>
      <trkpt lat="62.63071769315" lon="17.791509536683">
        <ele>60.8</ele>
        <time>2018-05-04T17:31:52Z</time>
      </trkpt>
      <trkpt lat="62.630730852733" lon="17.791624284894">
        <ele>60.8</ele>
        <time>2018-05-04T17:31:53Z</time>
      </trkpt>
      <trkpt lat="62.630746443067" lon="17.791749091385">
        <ele>60.8</ele>
        <time>2018-05-04T17:31:54Z</time>
      </trkpt>
      <trkpt lat="62.630762452496" lon="17.791869958383">
        <ele>60.8</ele>
        <time>2018-05-04T17:31:55Z</time>
      </trkpt>
      <trkpt lat="62.630777372278" lon="17.791982192024">
        <ele>60.8</ele>
        <time>2018-05-04T17:31:56Z</time>
      </trkpt>
      <trkpt lat="62.63079564482" lon="17.792109764542">
        <ele>60.8</ele>
        <time>2018-05-04T17:31:57Z</time>
      </trkpt>
      <trkpt lat="62.630813917362" lon="17.792228703703">
        <ele>61</ele>
        <time>2018-05-04T17:31:58Z</time>
      </trkpt>
      <trkpt lat="62.630834117741" lon="17.792360970085">
        <ele>60.8</ele>
        <time>2018-05-04T17:31:59Z</time>
      </trkpt>
      <trkpt lat="62.630856245957" lon="17.792490386621">
        <ele>60.6</ele>
        <time>2018-05-04T17:32:00Z</time>
      </trkpt>
      <trkpt lat="62.630879128544" lon="17.792614103465">
        <ele>60.6</ele>
        <time>2018-05-04T17:32:01Z</time>
      </trkpt>
      <trkpt lat="62.630905866805" lon="17.792758355964">
        <ele>60.4</ele>
        <time>2018-05-04T17:32:02Z</time>
      </trkpt>
      <trkpt lat="62.630932018333" lon="17.792894310382">
        <ele>60.2</ele>
        <time>2018-05-04T17:32:03Z</time>
      </trkpt>
      <trkpt lat="62.630960935888" lon="17.793040490718">
        <ele>60.2</ele>
        <time>2018-05-04T17:32:04Z</time>
      </trkpt>
      <trkpt lat="62.630988596158" lon="17.793181809552">
        <ele>59.8</ele>
        <time>2018-05-04T17:32:05Z</time>
      </trkpt>
      <trkpt lat="62.631016591704" lon="17.793318685979">
        <ele>59.8</ele>
        <time>2018-05-04T17:32:06Z</time>
      </trkpt>
      <trkpt lat="62.631048694381" lon="17.79346696179">
        <ele>59.6</ele>
        <time>2018-05-04T17:32:07Z</time>
      </trkpt>
      <trkpt lat="62.631079875049" lon="17.793605095502">
        <ele>59.4</ele>
        <time>2018-05-04T17:32:08Z</time>
      </trkpt>
      <trkpt lat="62.631117425961" lon="17.79376619562">
        <ele>59.4</ele>
        <time>2018-05-04T17:32:09Z</time>
      </trkpt>
      <trkpt lat="62.631148438991" lon="17.793902233857">
        <ele>59.4</ele>
        <time>2018-05-04T17:32:10Z</time>
      </trkpt>
      <trkpt lat="62.631180038754" lon="17.794041792492">
        <ele>59.2</ele>
        <time>2018-05-04T17:32:11Z</time>
      </trkpt>
      <trkpt lat="62.631222451168" lon="17.794220829876">
        <ele>58.8</ele>
        <time>2018-05-04T17:32:12Z</time>
      </trkpt>
      <trkpt lat="62.631257403691" lon="17.794364579461">
        <ele>58.4</ele>
        <time>2018-05-04T17:32:13Z</time>
      </trkpt>
      <trkpt lat="62.631292188576" lon="17.794514866928">
        <ele>58.4</ele>
        <time>2018-05-04T17:32:14Z</time>
      </trkpt>
      <trkpt lat="62.631329320393" lon="17.794675212675">
        <ele>58</ele>
        <time>2018-05-04T17:32:15Z</time>
      </trkpt>
      <trkpt lat="62.631364524373" lon="17.794824075219">
        <ele>58</ele>
        <time>2018-05-04T17:32:16Z</time>
      </trkpt>
      <trkpt lat="62.631411546832" lon="17.795015601634">
        <ele>58</ele>
        <time>2018-05-04T17:32:17Z</time>
      </trkpt>
      <trkpt lat="62.631445996441" lon="17.795157842477">
        <ele>57.8</ele>
        <time>2018-05-04T17:32:18Z</time>
      </trkpt>
      <trkpt lat="62.631483882629" lon="17.795318691138">
        <ele>57.6</ele>
        <time>2018-05-04T17:32:19Z</time>
      </trkpt>
      <trkpt lat="62.631523445197" lon="17.795487754061">
        <ele>57.4</ele>
        <time>2018-05-04T17:32:20Z</time>
      </trkpt>
      <trkpt lat="62.631558984453" lon="17.795645166143">
        <ele>57.2</ele>
        <time>2018-05-04T17:32:21Z</time>
      </trkpt>
      <trkpt lat="62.631599552849" lon="17.795823616794">
        <ele>57</ele>
        <time>2018-05-04T17:32:22Z</time>
      </trkpt>
      <trkpt lat="62.63163802577" lon="17.795989829871">
        <ele>56.8</ele>
        <time>2018-05-04T17:32:23Z</time>
      </trkpt>
      <trkpt lat="62.631677923614" lon="17.796169118712">
        <ele>56.6</ele>
        <time>2018-05-04T17:32:24Z</time>
      </trkpt>
      <trkpt lat="62.631711451214" lon="17.79632770426">
        <ele>56.4</ele>
        <time>2018-05-04T17:32:25Z</time>
      </trkpt>
      <trkpt lat="62.63174363771" lon="17.796487044179">
        <ele>56.4</ele>
        <time>2018-05-04T17:32:26Z</time>
      </trkpt>
      <trkpt lat="62.631778338776" lon="17.796666919753">
        <ele>56.4</ele>
        <time>2018-05-04T17:32:27Z</time>
      </trkpt>
      <trkpt lat="62.631807675426" lon="17.796832127002">
        <ele>56.6</ele>
        <time>2018-05-04T17:32:28Z</time>
      </trkpt>
      <trkpt lat="62.631836341524" lon="17.797005632332">
        <ele>56.4</ele>
        <time>2018-05-04T17:32:29Z</time>
      </trkpt>
      <trkpt lat="62.631863750337" lon="17.797173521789">
        <ele>56.4</ele>
        <time>2018-05-04T17:32:30Z</time>
      </trkpt>
      <trkpt lat="62.631888476942" lon="17.7973301795">
        <ele>56.2</ele>
        <time>2018-05-04T17:32:31Z</time>
      </trkpt>
      <trkpt lat="62.631913287366" lon="17.797496895491">
        <ele>56.2</ele>
        <time>2018-05-04T17:32:32Z</time>
      </trkpt>
      <trkpt lat="62.631933823021" lon="17.797647518234">
        <ele>56</ele>
        <time>2018-05-04T17:32:33Z</time>
      </trkpt>
      <trkpt lat="62.631952682296" lon="17.797804259764">
        <ele>56</ele>
        <time>2018-05-04T17:32:34Z</time>
      </trkpt>
      <trkpt lat="62.631970871019" lon="17.797967036262">
        <ele>56.2</ele>
        <time>2018-05-04T17:32:35Z</time>
      </trkpt>
      <trkpt lat="62.631985706982" lon="17.798109612381">
        <ele>56.2</ele>
        <time>2018-05-04T17:32:36Z</time>
      </trkpt>
      <trkpt lat="62.632001129678" lon="17.798268784662">
        <ele>56.4</ele>
        <time>2018-05-04T17:32:37Z</time>
      </trkpt>
      <trkpt lat="62.632013870166" lon="17.798407337469">
        <ele>56.6</ele>
        <time>2018-05-04T17:32:38Z</time>
      </trkpt>
      <trkpt lat="62.632027616482" lon="17.798561564429">
        <ele>56.8</ele>
        <time>2018-05-04T17:32:39Z</time>
      </trkpt>
      <trkpt lat="62.632039267323" lon="17.798699865779">
        <ele>56.8</ele>
        <time>2018-05-04T17:32:40Z</time>
      </trkpt>
      <trkpt lat="62.632049325603" lon="17.798841352251">
        <ele>56.8</ele>
        <time>2018-05-04T17:32:41Z</time>
      </trkpt>
      <trkpt lat="62.63205795896" lon="17.798994573383">
        <ele>56.8</ele>
        <time>2018-05-04T17:32:42Z</time>
      </trkpt>
      <trkpt lat="62.632065586489" lon="17.799136898045">
        <ele>57.2</ele>
        <time>2018-05-04T17:32:43Z</time>
      </trkpt>
      <trkpt lat="62.632072627285" lon="17.799278216879">
        <ele>57.2</ele>
        <time>2018-05-04T17:32:44Z</time>
      </trkpt>
      <trkpt lat="62.632078662253" lon="17.799415931496">
        <ele>57.4</ele>
        <time>2018-05-04T17:32:45Z</time>
      </trkpt>
      <trkpt lat="62.632084697221" lon="17.799556579778">
        <ele>57.4</ele>
        <time>2018-05-04T17:32:46Z</time>
      </trkpt>
      <trkpt lat="62.632092576207" lon="17.799694881128">
        <ele>57.4</ele>
        <time>2018-05-04T17:32:47Z</time>
      </trkpt>
      <trkpt lat="62.632099281727" lon="17.799832595745">
        <ele>57.4</ele>
        <time>2018-05-04T17:32:48Z</time>
      </trkpt>
      <trkpt lat="62.632103975591" lon="17.799971651466">
        <ele>57.6</ele>
        <time>2018-05-04T17:32:49Z</time>
      </trkpt>
      <trkpt lat="62.632107328351" lon="17.800110958644">
        <ele>57.6</ele>
        <time>2018-05-04T17:32:50Z</time>
      </trkpt>
      <trkpt lat="62.632110932568" lon="17.800239117895">
        <ele>57.8</ele>
        <time>2018-05-04T17:32:51Z</time>
      </trkpt>
      <trkpt lat="62.632116548441" lon="17.800381526376">
        <ele>58</ele>
        <time>2018-05-04T17:32:52Z</time>
      </trkpt>
      <trkpt lat="62.632122918685" lon="17.800522090839">
        <ele>57.8</ele>
        <time>2018-05-04T17:32:53Z</time>
      </trkpt>
      <trkpt lat="62.632129456567" lon="17.800676904532">
        <ele>58</ele>
        <time>2018-05-04T17:32:54Z</time>
      </trkpt>
      <trkpt lat="62.632137251734" lon="17.800828197827">
        <ele>58</ele>
        <time>2018-05-04T17:32:55Z</time>
      </trkpt>
      <trkpt lat="62.632144208711" lon="17.800960464209">
        <ele>58.2</ele>
        <time>2018-05-04T17:32:56Z</time>
      </trkpt>
      <trkpt lat="62.632151920059" lon="17.801106644545">
        <ele>58.2</ele>
        <time>2018-05-04T17:32:57Z</time>
      </trkpt>
      <trkpt lat="62.63216776185" lon="17.801406716565">
        <ele>58</ele>
        <time>2018-05-04T17:32:59Z</time>
      </trkpt>
      <trkpt lat="62.632178406863" lon="17.801560105335">
        <ele>58.2</ele>
        <time>2018-05-04T17:33:00Z</time>
      </trkpt>
      <trkpt lat="62.632187459315" lon="17.801705698938">
        <ele>58</ele>
        <time>2018-05-04T17:33:01Z</time>
      </trkpt>
      <trkpt lat="62.632198271966" lon="17.801871828196">
        <ele>58</ele>
        <time>2018-05-04T17:33:02Z</time>
      </trkpt>
      <trkpt lat="62.632210677178" lon="17.802030246106">
        <ele>58</ele>
        <time>2018-05-04T17:33:03Z</time>
      </trkpt>
      <trkpt lat="62.632223669123" lon="17.802180952668">
        <ele>57.8</ele>
        <time>2018-05-04T17:33:04Z</time>
      </trkpt>
      <trkpt lat="62.632240768199" lon="17.802359403319">
        <ele>57.6</ele>
        <time>2018-05-04T17:33:05Z</time>
      </trkpt>
      <trkpt lat="62.632256945266" lon="17.802512624451">
        <ele>57.4</ele>
        <time>2018-05-04T17:33:06Z</time>
      </trkpt>
      <trkpt lat="62.632276055998" lon="17.802689901636">
        <ele>57.2</ele>
        <time>2018-05-04T17:33:07Z</time>
      </trkpt>
      <trkpt lat="62.63229349035" lon="17.80284463151">
        <ele>56.8</ele>
        <time>2018-05-04T17:33:08Z</time>
      </trkpt>
      <trkpt lat="62.632316708213" lon="17.803024674722">
        <ele>56.6</ele>
        <time>2018-05-04T17:33:09Z</time>
      </trkpt>
      <trkpt lat="62.632340009895" lon="17.803187786496">
        <ele>56.4</ele>
        <time>2018-05-04T17:33:10Z</time>
      </trkpt>
      <trkpt lat="62.63236641288" lon="17.803358274342">
        <ele>56.2</ele>
        <time>2018-05-04T17:33:11Z</time>
      </trkpt>
      <trkpt lat="62.632395414254" lon="17.803539323382">
        <ele>56</ele>
        <time>2018-05-04T17:33:12Z</time>
      </trkpt>
      <trkpt lat="62.632425002361" lon="17.80371886368">
        <ele>56</ele>
        <time>2018-05-04T17:33:13Z</time>
      </trkpt>
      <trkpt lat="62.632454925744" lon="17.803900583272">
        <ele>55.6</ele>
        <time>2018-05-04T17:33:14Z</time>
      </trkpt>
      <trkpt lat="62.63248459767" lon="17.804068305091">
        <ele>55.4</ele>
        <time>2018-05-04T17:33:15Z</time>
      </trkpt>
      <trkpt lat="62.632518712003" lon="17.804238792937">
        <ele>55</ele>
        <time>2018-05-04T17:33:16Z</time>
      </trkpt>
      <trkpt lat="62.632559531856" lon="17.804427050411">
        <ele>54.2</ele>
        <time>2018-05-04T17:33:17Z</time>
      </trkpt>
      <trkpt lat="62.632600100252" lon="17.80460902146">
        <ele>53.4</ele>
        <time>2018-05-04T17:33:18Z</time>
      </trkpt>
      <trkpt lat="62.632639998096" lon="17.804787723568">
        <ele>52.6</ele>
        <time>2018-05-04T17:33:19Z</time>
      </trkpt>
      <trkpt lat="62.632680063578" lon="17.804969526979">
        <ele>51.6</ele>
        <time>2018-05-04T17:33:20Z</time>
      </trkpt>
      <trkpt lat="62.632716860119" lon="17.805134482771">
        <ele>50.8</ele>
        <time>2018-05-04T17:33:21Z</time>
      </trkpt>
      <trkpt lat="62.632757763791" lon="17.805313771612">
        <ele>50.8</ele>
        <time>2018-05-04T17:33:22Z</time>
      </trkpt>
      <trkpt lat="62.632798583644" lon="17.8054857682">
        <ele>50.6</ele>
        <time>2018-05-04T17:33:23Z</time>
      </trkpt>
      <trkpt lat="62.632838816764" lon="17.805652819467">
        <ele>50.8</ele>
        <time>2018-05-04T17:33:24Z</time>
      </trkpt>
      <trkpt lat="62.632879971893" lon="17.805824313141">
        <ele>51</ele>
        <time>2018-05-04T17:33:25Z</time>
      </trkpt>
      <trkpt lat="62.632916014063" lon="17.805976528445">
        <ele>51</ele>
        <time>2018-05-04T17:33:26Z</time>
      </trkpt>
      <trkpt lat="62.632954403165" lon="17.806142406246">
        <ele>51</ele>
        <time>2018-05-04T17:33:27Z</time>
      </trkpt>
      <trkpt lat="62.632988517498" lon="17.806285485279">
        <ele>50.8</ele>
        <time>2018-05-04T17:33:28Z</time>
      </trkpt>
      <trkpt lat="62.633026822781" lon="17.806442645904">
        <ele>50.8</ele>
        <time>2018-05-04T17:33:29Z</time>
      </trkpt>
      <trkpt lat="62.633061942942" lon="17.806589077697">
        <ele>50.8</ele>
        <time>2018-05-04T17:33:30Z</time>
      </trkpt>
      <trkpt lat="62.633093039791" lon="17.806715895844">
        <ele>50.6</ele>
        <time>2018-05-04T17:33:31Z</time>
      </trkpt>
      <trkpt lat="62.633127237943" lon="17.806858639601">
        <ele>50.6</ele>
        <time>2018-05-04T17:33:32Z</time>
      </trkpt>
      <trkpt lat="62.633158586249" lon="17.806986715033">
        <ele>50.4</ele>
        <time>2018-05-04T17:33:33Z</time>
      </trkpt>
      <trkpt lat="62.633188593451" lon="17.807104732185">
        <ele>50.2</ele>
        <time>2018-05-04T17:33:34Z</time>
      </trkpt>
      <trkpt lat="62.63322052849" lon="17.807229538676">
        <ele>50.4</ele>
        <time>2018-05-04T17:33:35Z</time>
      </trkpt>
      <trkpt lat="62.633248691674" lon="17.807338587195">
        <ele>50.4</ele>
        <time>2018-05-04T17:33:36Z</time>
      </trkpt>
      <trkpt lat="62.633280459075" lon="17.807462806953">
        <ele>50.4</ele>
        <time>2018-05-04T17:33:37Z</time>
      </trkpt>
      <trkpt lat="62.633307029698" lon="17.807561713373">
        <ele>50.6</ele>
        <time>2018-05-04T17:33:38Z</time>
      </trkpt>
      <trkpt lat="62.633338126547" lon="17.807673108824">
        <ele>51</ele>
        <time>2018-05-04T17:33:39Z</time>
      </trkpt>
      <trkpt lat="62.633368133749" lon="17.807779642773">
        <ele>51.2</ele>
        <time>2018-05-04T17:33:40Z</time>
      </trkpt>
      <trkpt lat="62.633395794019" lon="17.807879135926">
        <ele>51.4</ele>
        <time>2018-05-04T17:33:41Z</time>
      </trkpt>
      <trkpt lat="62.63342839961" lon="17.807988854997">
        <ele>51.6</ele>
        <time>2018-05-04T17:33:42Z</time>
      </trkpt>
      <trkpt lat="62.633458239174" lon="17.808094131661">
        <ele>51.6</ele>
        <time>2018-05-04T17:33:43Z</time>
      </trkpt>
      <trkpt lat="62.633486821453" lon="17.80819563647">
        <ele>51.8</ele>
        <time>2018-05-04T17:33:44Z</time>
      </trkpt>
      <trkpt lat="62.633516158103" lon="17.808294039976">
        <ele>51.8</ele>
        <time>2018-05-04T17:33:45Z</time>
      </trkpt>
      <trkpt lat="62.633546835857" lon="17.808393281672">
        <ele>51.8</ele>
        <time>2018-05-04T17:33:46Z</time>
      </trkpt>
      <trkpt lat="62.633577932706" lon="17.808495037938">
        <ele>52</ele>
        <time>2018-05-04T17:33:47Z</time>
      </trkpt>
      <trkpt lat="62.633609616288" lon="17.80859293853">
        <ele>52.2</ele>
        <time>2018-05-04T17:33:48Z</time>
      </trkpt>
      <trkpt lat="62.633643562983" lon="17.808689833294">
        <ele>52.4</ele>
        <time>2018-05-04T17:33:49Z</time>
      </trkpt>
      <trkpt lat="62.633679521334" lon="17.80878907499">
        <ele>52.6</ele>
        <time>2018-05-04T17:33:50Z</time>
      </trkpt>
      <trkpt lat="62.63371170783" lon="17.808876749664">
        <ele>52.8</ele>
        <time>2018-05-04T17:33:51Z</time>
      </trkpt>
      <trkpt lat="62.633748169095" lon="17.808974734075">
        <ele>53</ele>
        <time>2018-05-04T17:33:52Z</time>
      </trkpt>
      <trkpt lat="62.633785720007" lon="17.809071461201">
        <ele>53.2</ele>
        <time>2018-05-04T17:33:53Z</time>
      </trkpt>
      <trkpt lat="62.633826623679" lon="17.809172714553">
        <ele>53.4</ele>
        <time>2018-05-04T17:33:54Z</time>
      </trkpt>
      <trkpt lat="62.633865767152" lon="17.80926768148">
        <ele>53.4</ele>
        <time>2018-05-04T17:33:55Z</time>
      </trkpt>
      <trkpt lat="62.633903569521" lon="17.809361894036">
        <ele>53.4</ele>
        <time>2018-05-04T17:33:56Z</time>
      </trkpt>
      <trkpt lat="62.633946568668" lon="17.809465159044">
        <ele>53.4</ele>
        <time>2018-05-04T17:33:57Z</time>
      </trkpt>
      <trkpt lat="62.633985628322" lon="17.809555096831">
        <ele>53.2</ele>
        <time>2018-05-04T17:33:58Z</time>
      </trkpt>
      <trkpt lat="62.634031561134" lon="17.809658780934">
        <ele>53.2</ele>
        <time>2018-05-04T17:33:59Z</time>
      </trkpt>
      <trkpt lat="62.63407548229" lon="17.809754250775">
        <ele>53.2</ele>
        <time>2018-05-04T17:34:00Z</time>
      </trkpt>
      <trkpt lat="62.634119571084" lon="17.809845697304">
        <ele>53.2</ele>
        <time>2018-05-04T17:34:01Z</time>
      </trkpt>
      <trkpt lat="62.634169527208" lon="17.809944687543">
        <ele>53</ele>
        <time>2018-05-04T17:34:02Z</time>
      </trkpt>
      <trkpt lat="62.634218645142" lon="17.810035547339">
        <ele>53</ele>
        <time>2018-05-04T17:34:03Z</time>
      </trkpt>
      <trkpt lat="62.634267092524" lon="17.810119701615">
        <ele>53.2</ele>
        <time>2018-05-04T17:34:04Z</time>
      </trkpt>
      <trkpt lat="62.63432191015" lon="17.810211651058">
        <ele>53</ele>
        <time>2018-05-04T17:34:05Z</time>
      </trkpt>
      <trkpt lat="62.63436968698" lon="17.810294128954">
        <ele>53</ele>
        <time>2018-05-04T17:34:06Z</time>
      </trkpt>
      <trkpt lat="62.634421319484" lon="17.810391023718">
        <ele>53</ele>
        <time>2018-05-04T17:34:07Z</time>
      </trkpt>
      <trkpt lat="62.634467168477" lon="17.810477860202">
        <ele>53</ele>
        <time>2018-05-04T17:34:08Z</time>
      </trkpt>
      <trkpt lat="62.634518633343" lon="17.810570647835">
        <ele>53</ele>
        <time>2018-05-04T17:34:09Z</time>
      </trkpt>
      <trkpt lat="62.634566074897" lon="17.810652287541">
        <ele>53</ele>
        <time>2018-05-04T17:34:10Z</time>
      </trkpt>
      <trkpt lat="62.634615360469" lon="17.81073535217">
        <ele>53</ele>
        <time>2018-05-04T17:34:11Z</time>
      </trkpt>
      <trkpt lat="62.634667831163" lon="17.810825373776">
        <ele>53.2</ele>
        <time>2018-05-04T17:34:12Z</time>
      </trkpt>
      <trkpt lat="62.634717703468" lon="17.810912545536">
        <ele>53</ele>
        <time>2018-05-04T17:34:13Z</time>
      </trkpt>
      <trkpt lat="62.634766821402" lon="17.810996699812">
        <ele>53</ele>
        <time>2018-05-04T17:34:14Z</time>
      </trkpt>
      <trkpt lat="62.634816023155" lon="17.811077920423">
        <ele>53</ele>
        <time>2018-05-04T17:34:15Z</time>
      </trkpt>
      <trkpt lat="62.634866482193" lon="17.811160985052">
        <ele>52.8</ele>
        <time>2018-05-04T17:34:16Z</time>
      </trkpt>
      <trkpt lat="62.634916773593" lon="17.81124664807">
        <ele>52.6</ele>
        <time>2018-05-04T17:34:17Z</time>
      </trkpt>
      <trkpt lat="62.634966142984" lon="17.811331975812">
        <ele>52.2</ele>
        <time>2018-05-04T17:34:18Z</time>
      </trkpt>
      <trkpt lat="62.63501593147" lon="17.811420404857">
        <ele>52.2</ele>
        <time>2018-05-04T17:34:19Z</time>
      </trkpt>
      <trkpt lat="62.635066558146" lon="17.81150900154">
        <ele>52</ele>
        <time>2018-05-04T17:34:20Z</time>
      </trkpt>
      <trkpt lat="62.635114502614" lon="17.811591060341">
        <ele>52</ele>
        <time>2018-05-04T17:34:21Z</time>
      </trkpt>
      <trkpt lat="62.635166051299" lon="17.811682674508">
        <ele>51.8</ele>
        <time>2018-05-04T17:34:22Z</time>
      </trkpt>
      <trkpt lat="62.635217348527" lon="17.811775797417">
        <ele>51.6</ele>
        <time>2018-05-04T17:34:23Z</time>
      </trkpt>
      <trkpt lat="62.635272082334" lon="17.811869590878">
        <ele>51.8</ele>
        <time>2018-05-04T17:34:24Z</time>
      </trkpt>
      <trkpt lat="62.635325307399" lon="17.811958774294">
        <ele>52</ele>
        <time>2018-05-04T17:34:25Z</time>
      </trkpt>
      <trkpt lat="62.635373251867" lon="17.812043096208">
        <ele>52</ele>
        <time>2018-05-04T17:34:26Z</time>
      </trkpt>
      <trkpt lat="62.635426476932" lon="17.812141248257">
        <ele>51.8</ele>
        <time>2018-05-04T17:34:27Z</time>
      </trkpt>
      <trkpt lat="62.635472828839" lon="17.812229090569">
        <ele>51.8</ele>
        <time>2018-05-04T17:34:28Z</time>
      </trkpt>
      <trkpt lat="62.635523623153" lon="17.812329505731">
        <ele>51.8</ele>
        <time>2018-05-04T17:34:29Z</time>
      </trkpt>
      <trkpt lat="62.635572321992" lon="17.812426484314">
        <ele>51.8</ele>
        <time>2018-05-04T17:34:30Z</time>
      </trkpt>
      <trkpt lat="62.635616494605" lon="17.812515583911">
        <ele>51.4</ele>
        <time>2018-05-04T17:34:31Z</time>
      </trkpt>
      <trkpt lat="62.635665612539" lon="17.81262127967">
        <ele>51</ele>
        <time>2018-05-04T17:34:32Z</time>
      </trkpt>
      <trkpt lat="62.63571079098" lon="17.812725047592">
        <ele>50.8</ele>
        <time>2018-05-04T17:34:33Z</time>
      </trkpt>
      <trkpt lat="62.635754209222" lon="17.812828899333">
        <ele>50.8</ele>
        <time>2018-05-04T17:34:34Z</time>
      </trkpt>
      <trkpt lat="62.635797543645" lon="17.812938618404">
        <ele>50.8</ele>
        <time>2018-05-04T17:34:35Z</time>
      </trkpt>
      <trkpt lat="62.635836268023" lon="17.813040039394">
        <ele>51</ele>
        <time>2018-05-04T17:34:36Z</time>
      </trkpt>
      <trkpt lat="62.63588010536" lon="17.813151183388">
        <ele>51.2</ele>
        <time>2018-05-04T17:34:37Z</time>
      </trkpt>
      <trkpt lat="62.635919835566" lon="17.813250927998">
        <ele>51.4</ele>
        <time>2018-05-04T17:34:38Z</time>
      </trkpt>
      <trkpt lat="62.635963421446" lon="17.813366262942">
        <ele>51.6</ele>
        <time>2018-05-04T17:34:39Z</time>
      </trkpt>
      <trkpt lat="62.636002564919" lon="17.813477406936">
        <ele>51.8</ele>
        <time>2018-05-04T17:34:40Z</time>
      </trkpt>
      <trkpt lat="62.63604019965" lon="17.813589137663">
        <ele>52</ele>
        <time>2018-05-04T17:34:41Z</time>
      </trkpt>
      <trkpt lat="62.636077750562" lon="17.813697012716">
        <ele>52.4</ele>
        <time>2018-05-04T17:34:42Z</time>
      </trkpt>
      <trkpt lat="62.636116139664" lon="17.813806228873">
        <ele>52.6</ele>
        <time>2018-05-04T17:34:43Z</time>
      </trkpt>
      <trkpt lat="62.636152098015" lon="17.813916115582">
        <ele>53</ele>
        <time>2018-05-04T17:34:44Z</time>
      </trkpt>
      <trkpt lat="62.636185709434" lon="17.81402273335">
        <ele>53</ele>
        <time>2018-05-04T17:34:45Z</time>
      </trkpt>
      <trkpt lat="62.636218901758" lon="17.814128093833">
        <ele>53.2</ele>
        <time>2018-05-04T17:34:46Z</time>
      </trkpt>
      <trkpt lat="62.636245975295" lon="17.814234208687">
        <ele>53.2</ele>
        <time>2018-05-04T17:34:47Z</time>
      </trkpt>
      <trkpt lat="62.636277072144" lon="17.814345687957">
        <ele>53.2</ele>
        <time>2018-05-04T17:34:48Z</time>
      </trkpt>
      <trkpt lat="62.636308168993" lon="17.814455407028">
        <ele>53.2</ele>
        <time>2018-05-04T17:34:49Z</time>
      </trkpt>
      <trkpt lat="62.636340439308" lon="17.81457258599">
        <ele>53.2</ele>
        <time>2018-05-04T17:34:50Z</time>
      </trkpt>
      <trkpt lat="62.636363238076" lon="17.814667720555">
        <ele>53.2</ele>
        <time>2018-05-04T17:34:51Z</time>
      </trkpt>
      <trkpt lat="62.636390227794" lon="17.814781714395">
        <ele>53.4</ele>
        <time>2018-05-04T17:34:52Z</time>
      </trkpt>
      <trkpt lat="62.636417636607" lon="17.814889337991">
        <ele>53.6</ele>
        <time>2018-05-04T17:34:53Z</time>
      </trkpt>
      <trkpt lat="62.636448733456" lon="17.815011378455">
        <ele>53.8</ele>
        <time>2018-05-04T17:34:54Z</time>
      </trkpt>
      <trkpt lat="62.636475723174" lon="17.815123695915">
        <ele>54</ele>
        <time>2018-05-04T17:34:55Z</time>
      </trkpt>
      <trkpt lat="62.636501455607" lon="17.815234923728">
        <ele>54</ele>
        <time>2018-05-04T17:34:56Z</time>
      </trkpt>
      <trkpt lat="62.636530876076" lon="17.815358137658">
        <ele>54.2</ele>
        <time>2018-05-04T17:34:57Z</time>
      </trkpt>
      <trkpt lat="62.636551411731" lon="17.815458636639">
        <ele>54.2</ele>
        <time>2018-05-04T17:34:58Z</time>
      </trkpt>
      <trkpt lat="62.636578904363" lon="17.815598698188">
        <ele>54.4</ele>
        <time>2018-05-04T17:34:59Z</time>
      </trkpt>
      <trkpt lat="62.636601451674" lon="17.815721660661">
        <ele>54.4</ele>
        <time>2018-05-04T17:35:00Z</time>
      </trkpt>
      <trkpt lat="62.636622322605" lon="17.81583238556">
        <ele>54.6</ele>
        <time>2018-05-04T17:35:01Z</time>
      </trkpt>
      <trkpt lat="62.63664872559" lon="17.815969932539">
        <ele>54.6</ele>
        <time>2018-05-04T17:35:02Z</time>
      </trkpt>
      <trkpt lat="62.6366730331" lon="17.816092392098">
        <ele>54.8</ele>
        <time>2018-05-04T17:35:03Z</time>
      </trkpt>
      <trkpt lat="62.636693401117" lon="17.816204458101">
        <ele>54.8</ele>
        <time>2018-05-04T17:35:04Z</time>
      </trkpt>
      <trkpt lat="62.636717540989" lon="17.81634284327">
        <ele>54.6</ele>
        <time>2018-05-04T17:35:05Z</time>
      </trkpt>
      <trkpt lat="62.636737992825" lon="17.816450802142">
        <ele>54.8</ele>
        <time>2018-05-04T17:35:06Z</time>
      </trkpt>
      <trkpt lat="62.636762384154" lon="17.816587343293">
        <ele>54.6</ele>
        <time>2018-05-04T17:35:07Z</time>
      </trkpt>
      <trkpt lat="62.63678283599" lon="17.816697313821">
        <ele>54.6</ele>
        <time>2018-05-04T17:35:08Z</time>
      </trkpt>
      <trkpt lat="62.636807478776" lon="17.816831340402">
        <ele>54.8</ele>
        <time>2018-05-04T17:35:09Z</time>
      </trkpt>
      <trkpt lat="62.63682474549" lon="17.816937539075">
        <ele>54.8</ele>
        <time>2018-05-04T17:35:10Z</time>
      </trkpt>
      <trkpt lat="62.63684486205" lon="17.817059747177">
        <ele>54.8</ele>
        <time>2018-05-04T17:35:11Z</time>
      </trkpt>
      <trkpt lat="62.636868415189" lon="17.817197545613">
        <ele>54.8</ele>
        <time>2018-05-04T17:35:12Z</time>
      </trkpt>
      <trkpt lat="62.636893141794" lon="17.817318580249">
        <ele>55</ele>
        <time>2018-05-04T17:35:13Z</time>
      </trkpt>
      <trkpt lat="62.636915689105" lon="17.817441039808">
        <ele>55.2</ele>
        <time>2018-05-04T17:35:14Z</time>
      </trkpt>
      <trkpt lat="62.636936308579" lon="17.817563499367">
        <ele>55.4</ele>
        <time>2018-05-04T17:35:15Z</time>
      </trkpt>
      <trkpt lat="62.636952737103" lon="17.817666512918">
        <ele>55.6</ele>
        <time>2018-05-04T17:35:16Z</time>
      </trkpt>
      <trkpt lat="62.636977379889" lon="17.817810597779">
        <ele>55.8</ele>
        <time>2018-05-04T17:35:17Z</time>
      </trkpt>
      <trkpt lat="62.636996993535" lon="17.817935823365">
        <ele>56</ele>
        <time>2018-05-04T17:35:18Z</time>
      </trkpt>
      <trkpt lat="62.637016691" lon="17.81806029458">
        <ele>56</ele>
        <time>2018-05-04T17:35:19Z</time>
      </trkpt>
      <trkpt lat="62.637037059017" lon="17.818187531822">
        <ele>56</ele>
        <time>2018-05-04T17:35:20Z</time>
      </trkpt>
      <trkpt lat="62.637054744826" lon="17.818296328884">
        <ele>56</ele>
        <time>2018-05-04T17:35:21Z</time>
      </trkpt>
      <trkpt lat="62.637076621585" lon="17.818427002705">
        <ele>55.8</ele>
        <time>2018-05-04T17:35:22Z</time>
      </trkpt>
      <trkpt lat="62.63709883362" lon="17.81855147392">
        <ele>55.6</ele>
        <time>2018-05-04T17:35:23Z</time>
      </trkpt>
      <trkpt lat="62.637123727863" lon="17.818691703107">
        <ele>55.4</ele>
        <time>2018-05-04T17:35:24Z</time>
      </trkpt>
      <trkpt lat="62.637145353165" lon="17.818819107987">
        <ele>55.4</ele>
        <time>2018-05-04T17:35:25Z</time>
      </trkpt>
      <trkpt lat="62.637166391734" lon="17.818945255582">
        <ele>55.4</ele>
        <time>2018-05-04T17:35:26Z</time>
      </trkpt>
      <trkpt lat="62.63718851995" lon="17.819078611611">
        <ele>55.4</ele>
        <time>2018-05-04T17:35:27Z</time>
      </trkpt>
      <trkpt lat="62.637207630682" lon="17.8191901747">
        <ele>55.6</ele>
        <time>2018-05-04T17:35:28Z</time>
      </trkpt>
      <trkpt lat="62.637232273468" lon="17.819342390004">
        <ele>55.6</ele>
        <time>2018-05-04T17:35:29Z</time>
      </trkpt>
      <trkpt lat="62.637253228218" lon="17.819476332766">
        <ele>55.6</ele>
        <time>2018-05-04T17:35:30Z</time>
      </trkpt>
      <trkpt lat="62.63727233895" lon="17.819589404597">
        <ele>55.6</ele>
        <time>2018-05-04T17:35:31Z</time>
      </trkpt>
      <trkpt lat="62.63729580827" lon="17.819742038996">
        <ele>55.6</ele>
        <time>2018-05-04T17:35:32Z</time>
      </trkpt>
      <trkpt lat="62.637316176287" lon="17.819871539351">
        <ele>55.8</ele>
        <time>2018-05-04T17:35:33Z</time>
      </trkpt>
      <trkpt lat="62.637337131037" lon="17.819998860412">
        <ele>55.8</ele>
        <time>2018-05-04T17:35:34Z</time>
      </trkpt>
      <trkpt lat="62.637363198746" lon="17.820150824259">
        <ele>55.8</ele>
        <time>2018-05-04T17:35:35Z</time>
      </trkpt>
      <trkpt lat="62.637382309478" lon="17.820266997393">
        <ele>55.6</ele>
        <time>2018-05-04T17:35:36Z</time>
      </trkpt>
      <trkpt lat="62.637404521513" lon="17.820413345367">
        <ele>55.6</ele>
        <time>2018-05-04T17:35:37Z</time>
      </trkpt>
      <trkpt lat="62.637424470435" lon="17.82054720431">
        <ele>55.4</ele>
        <time>2018-05-04T17:35:38Z</time>
      </trkpt>
      <trkpt lat="62.637447855936" lon="17.820702772374">
        <ele>55.2</ele>
        <time>2018-05-04T17:35:39Z</time>
      </trkpt>
      <trkpt lat="62.637468056315" lon="17.82083051253">
        <ele>55.2</ele>
        <time>2018-05-04T17:35:40Z</time>
      </trkpt>
      <trkpt lat="62.637487418504" lon="17.820968981518">
        <ele>55.2</ele>
        <time>2018-05-04T17:35:41Z</time>
      </trkpt>
      <trkpt lat="62.637511306919" lon="17.821128489075">
        <ele>55.4</ele>
        <time>2018-05-04T17:35:42Z</time>
      </trkpt>
      <trkpt lat="62.637529747099" lon="17.821272741574">
        <ele>55.4</ele>
        <time>2018-05-04T17:35:43Z</time>
      </trkpt>
      <trkpt lat="62.637548354917" lon="17.821409031268">
        <ele>55.2</ele>
        <time>2018-05-04T17:35:44Z</time>
      </trkpt>
      <trkpt lat="62.637568974391" lon="17.821543141668">
        <ele>55</ele>
        <time>2018-05-04T17:35:45Z</time>
      </trkpt>
      <trkpt lat="62.637588504218" lon="17.82167540805">
        <ele>55</ele>
        <time>2018-05-04T17:35:46Z</time>
      </trkpt>
      <trkpt lat="62.637612979366" lon="17.821842543136">
        <ele>55</ele>
        <time>2018-05-04T17:35:47Z</time>
      </trkpt>
      <trkpt lat="62.6376369516" lon="17.821993584974">
        <ele>54.8</ele>
        <time>2018-05-04T17:35:48Z</time>
      </trkpt>
      <trkpt lat="62.637659918006" lon="17.822139094758">
        <ele>55</ele>
        <time>2018-05-04T17:35:49Z</time>
      </trkpt>
      <trkpt lat="62.637679364014" lon="17.822278737212">
        <ele>55.2</ele>
        <time>2018-05-04T17:35:50Z</time>
      </trkpt>
      <trkpt lat="62.637697385099" lon="17.822409327214">
        <ele>55.2</ele>
        <time>2018-05-04T17:35:51Z</time>
      </trkpt>
      <trkpt lat="62.637720854419" lon="17.82256556583">
        <ele>55.2</ele>
        <time>2018-05-04T17:35:52Z</time>
      </trkpt>
      <trkpt lat="62.63774340173" lon="17.822715937116">
        <ele>55.2</ele>
        <time>2018-05-04T17:35:53Z</time>
      </trkpt>
      <trkpt lat="62.637767373964" lon="17.822886089686">
        <ele>55.2</ele>
        <time>2018-05-04T17:35:54Z</time>
      </trkpt>
      <trkpt lat="62.637787741981" lon="17.823044339958">
        <ele>55</ele>
        <time>2018-05-04T17:35:55Z</time>
      </trkpt>
      <trkpt lat="62.637806182161" lon="17.823180294376">
        <ele>55</ele>
        <time>2018-05-04T17:35:56Z</time>
      </trkpt>
      <trkpt lat="62.637828142739" lon="17.823352458602">
        <ele>55</ele>
        <time>2018-05-04T17:35:57Z</time>
      </trkpt>
      <trkpt lat="62.637845409453" lon="17.823502075517">
        <ele>55</ele>
        <time>2018-05-04T17:35:58Z</time>
      </trkpt>
      <trkpt lat="62.637865358375" lon="17.823665187291">
        <ele>55</ele>
        <time>2018-05-04T17:35:59Z</time>
      </trkpt>
      <trkpt lat="62.637883211822" lon="17.8238169835">
        <ele>54.8</ele>
        <time>2018-05-04T17:36:00Z</time>
      </trkpt>
      <trkpt lat="62.637901316726" lon="17.823961822732">
        <ele>54.6</ele>
        <time>2018-05-04T17:36:01Z</time>
      </trkpt>
      <trkpt lat="62.637920427458" lon="17.824122252298">
        <ele>54.6</ele>
        <time>2018-05-04T17:36:02Z</time>
      </trkpt>
      <trkpt lat="62.637935431059" lon="17.824257368526">
        <ele>54.4</ele>
        <time>2018-05-04T17:36:03Z</time>
      </trkpt>
      <trkpt lat="62.63794875828" lon="17.824408075088">
        <ele>54.4</ele>
        <time>2018-05-04T17:36:04Z</time>
      </trkpt>
      <trkpt lat="62.637964264795" lon="17.82457470726">
        <ele>54.2</ele>
        <time>2018-05-04T17:36:05Z</time>
      </trkpt>
      <trkpt lat="62.637976670007" lon="17.824706051633">
        <ele>54.4</ele>
        <time>2018-05-04T17:36:06Z</time>
      </trkpt>
      <trkpt lat="62.637991422151" lon="17.824870923606">
        <ele>54.6</ele>
        <time>2018-05-04T17:36:07Z</time>
      </trkpt>
      <trkpt lat="62.638002486259" lon="17.825002770893">
        <ele>54.6</ele>
        <time>2018-05-04T17:36:08Z</time>
      </trkpt>
      <trkpt lat="62.638017908955" lon="17.825166385581">
        <ele>54.8</ele>
        <time>2018-05-04T17:36:09Z</time>
      </trkpt>
      <trkpt lat="62.638029056882" lon="17.825304100198">
        <ele>55</ele>
        <time>2018-05-04T17:36:10Z</time>
      </trkpt>
      <trkpt lat="62.638041462094" lon="17.825466289963">
        <ele>55.2</ele>
        <time>2018-05-04T17:36:11Z</time>
      </trkpt>
      <trkpt lat="62.638053783487" lon="17.825627641538">
        <ele>55.2</ele>
        <time>2018-05-04T17:36:12Z</time>
      </trkpt>
      <trkpt lat="62.638064177043" lon="17.825771558761">
        <ele>55.2</ele>
        <time>2018-05-04T17:36:13Z</time>
      </trkpt>
      <trkpt lat="62.638074319142" lon="17.825929138481">
        <ele>55</ele>
        <time>2018-05-04T17:36:14Z</time>
      </trkpt>
      <trkpt lat="62.638082617223" lon="17.826080012681">
        <ele>55</ele>
        <time>2018-05-04T17:36:15Z</time>
      </trkpt>
      <trkpt lat="62.638089909476" lon="17.826210602683">
        <ele>55</ele>
        <time>2018-05-04T17:36:16Z</time>
      </trkpt>
      <trkpt lat="62.638100973584" lon="17.826392238456">
        <ele>54.8</ele>
        <time>2018-05-04T17:36:17Z</time>
      </trkpt>
      <trkpt lat="62.638107930561" lon="17.826546381597">
        <ele>54.8</ele>
        <time>2018-05-04T17:36:18Z</time>
      </trkpt>
      <trkpt lat="62.63811388171" lon="17.8267003571">
        <ele>54.8</ele>
        <time>2018-05-04T17:36:19Z</time>
      </trkpt>
      <trkpt lat="62.638120251954" lon="17.826856092802">
        <ele>54.8</ele>
        <time>2018-05-04T17:36:20Z</time>
      </trkpt>
      <trkpt lat="62.638125951646" lon="17.826986682804">
        <ele>54.8</ele>
        <time>2018-05-04T17:36:21Z</time>
      </trkpt>
      <trkpt lat="62.638132908623" lon="17.827146609456">
        <ele>54.8</ele>
        <time>2018-05-04T17:36:22Z</time>
      </trkpt>
      <trkpt lat="62.638137518668" lon="17.827299243855">
        <ele>54.6</ele>
        <time>2018-05-04T17:36:23Z</time>
      </trkpt>
      <trkpt lat="62.638140871428" lon="17.827470234615">
        <ele>54.6</ele>
        <time>2018-05-04T17:36:24Z</time>
      </trkpt>
      <trkpt lat="62.638144391826" lon="17.82762404248">
        <ele>54.4</ele>
        <time>2018-05-04T17:36:25Z</time>
      </trkpt>
      <trkpt lat="62.638148582776" lon="17.827760415993">
        <ele>54.4</ele>
        <time>2018-05-04T17:36:26Z</time>
      </trkpt>
      <trkpt lat="62.638153695735" lon="17.827928808364">
        <ele>54.6</ele>
        <time>2018-05-04T17:36:27Z</time>
      </trkpt>
      <trkpt lat="62.638155623572" lon="17.828070378655">
        <ele>54.6</ele>
        <time>2018-05-04T17:36:28Z</time>
      </trkpt>
      <trkpt lat="62.638156797038" lon="17.828238771026">
        <ele>54.4</ele>
        <time>2018-05-04T17:36:29Z</time>
      </trkpt>
      <trkpt lat="62.638156377943" lon="17.828389561407">
        <ele>54.4</ele>
        <time>2018-05-04T17:36:30Z</time>
      </trkpt>
      <trkpt lat="62.638156294124" lon="17.828526437834">
        <ele>54.4</ele>
        <time>2018-05-04T17:36:31Z</time>
      </trkpt>
      <trkpt lat="62.638157886685" lon="17.828695919852">
        <ele>54.2</ele>
        <time>2018-05-04T17:36:32Z</time>
      </trkpt>
      <trkpt lat="62.63815998216" lon="17.828853248115">
        <ele>54.2</ele>
        <time>2018-05-04T17:36:33Z</time>
      </trkpt>
      <trkpt lat="62.638159898341" lon="17.82900202684">
        <ele>54.2</ele>
        <time>2018-05-04T17:36:34Z</time>
      </trkpt>
      <trkpt lat="62.638158557237" lon="17.829158013999">
        <ele>54.2</ele>
        <time>2018-05-04T17:36:35Z</time>
      </trkpt>
      <trkpt lat="62.638155539753" lon="17.829300171023">
        <ele>54.2</ele>
        <time>2018-05-04T17:36:36Z</time>
      </trkpt>
      <trkpt lat="62.638150259156" lon="17.829475688009">
        <ele>54.2</ele>
        <time>2018-05-04T17:36:37Z</time>
      </trkpt>
      <trkpt lat="62.638145146197" lon="17.82962061106">
        <ele>54.2</ele>
        <time>2018-05-04T17:36:38Z</time>
      </trkpt>
      <trkpt lat="62.638139530324" lon="17.829798894073">
        <ele>54.2</ele>
        <time>2018-05-04T17:36:39Z</time>
      </trkpt>
      <trkpt lat="62.638135423193" lon="17.829952282843">
        <ele>54.2</ele>
        <time>2018-05-04T17:36:40Z</time>
      </trkpt>
      <trkpt lat="62.638131148424" lon="17.830108940554">
        <ele>54.2</ele>
        <time>2018-05-04T17:36:41Z</time>
      </trkpt>
      <trkpt lat="62.638125700189" lon="17.830280434228">
        <ele>54.2</ele>
        <time>2018-05-04T17:36:42Z</time>
      </trkpt>
      <trkpt lat="62.638120922506" lon="17.830441534346">
        <ele>54.2</ele>
        <time>2018-05-04T17:36:43Z</time>
      </trkpt>
      <trkpt lat="62.638114049348" lon="17.830597437686">
        <ele>54</ele>
        <time>2018-05-04T17:36:44Z</time>
      </trkpt>
      <trkpt lat="62.638104829258" lon="17.830771362111">
        <ele>54</ele>
        <time>2018-05-04T17:36:45Z</time>
      </trkpt>
      <trkpt lat="62.638097453186" lon="17.830902957941">
        <ele>54</ele>
        <time>2018-05-04T17:36:46Z</time>
      </trkpt>
      <trkpt lat="62.638087478725" lon="17.831095238727">
        <ele>54</ele>
        <time>2018-05-04T17:36:47Z</time>
      </trkpt>
      <trkpt lat="62.638077671902" lon="17.83125843432">
        <ele>54.2</ele>
        <time>2018-05-04T17:36:48Z</time>
      </trkpt>
      <trkpt lat="62.638066188699" lon="17.831422887198">
        <ele>54.2</ele>
        <time>2018-05-04T17:36:49Z</time>
      </trkpt>
      <trkpt lat="62.6380560466" lon="17.831584993144">
        <ele>54.4</ele>
        <time>2018-05-04T17:36:50Z</time>
      </trkpt>
      <trkpt lat="62.63804598832" lon="17.831727066349">
        <ele>54.4</ele>
        <time>2018-05-04T17:36:51Z</time>
      </trkpt>
      <trkpt lat="62.638032409642" lon="17.831904092077">
        <ele>54.2</ele>
        <time>2018-05-04T17:36:52Z</time>
      </trkpt>
      <trkpt lat="62.638018244231" lon="17.83206896405">
        <ele>54</ele>
        <time>2018-05-04T17:36:53Z</time>
      </trkpt>
      <trkpt lat="62.638003324449" lon="17.832234338937">
        <ele>53.8</ele>
        <time>2018-05-04T17:36:54Z</time>
      </trkpt>
      <trkpt lat="62.637990500142" lon="17.832383955852">
        <ele>53.6</ele>
        <time>2018-05-04T17:36:55Z</time>
      </trkpt>
      <trkpt lat="62.637975328903" lon="17.832546648531">
        <ele>53.2</ele>
        <time>2018-05-04T17:36:56Z</time>
      </trkpt>
      <trkpt lat="62.637956972542" lon="17.832723506621">
        <ele>53</ele>
        <time>2018-05-04T17:36:57Z</time>
      </trkpt>
      <trkpt lat="62.637939202914" lon="17.832891396078">
        <ele>52.8</ele>
        <time>2018-05-04T17:36:58Z</time>
      </trkpt>
      <trkpt lat="62.637919086354" lon="17.833074121498">
        <ele>52.8</ele>
        <time>2018-05-04T17:36:59Z</time>
      </trkpt>
      <trkpt lat="62.637896455224" lon="17.833273275442">
        <ele>52.6</ele>
        <time>2018-05-04T17:37:00Z</time>
      </trkpt>
      <trkpt lat="62.637879439967" lon="17.833427586221">
        <ele>52.6</ele>
        <time>2018-05-04T17:37:01Z</time>
      </trkpt>
      <trkpt lat="62.637859993959" lon="17.833604192854">
        <ele>52.4</ele>
        <time>2018-05-04T17:37:02Z</time>
      </trkpt>
      <trkpt lat="62.637839206847" lon="17.833789097568">
        <ele>52.4</ele>
        <time>2018-05-04T17:37:03Z</time>
      </trkpt>
      <trkpt lat="62.637818922649" lon="17.833966207115">
        <ele>52.2</ele>
        <time>2018-05-04T17:37:04Z</time>
      </trkpt>
      <trkpt lat="62.637796710614" lon="17.834160331919">
        <ele>52</ele>
        <time>2018-05-04T17:37:05Z</time>
      </trkpt>
      <trkpt lat="62.637775923502" lon="17.834345404271">
        <ele>52</ele>
        <time>2018-05-04T17:37:06Z</time>
      </trkpt>
      <trkpt lat="62.637752538001" lon="17.834555203228">
        <ele>51.8</ele>
        <time>2018-05-04T17:37:07Z</time>
      </trkpt>
      <trkpt lat="62.637734433097" lon="17.834714794604">
        <ele>51.6</ele>
        <time>2018-05-04T17:37:08Z</time>
      </trkpt>
      <trkpt lat="62.637709538854" lon="17.834913026539">
        <ele>51.4</ele>
        <time>2018-05-04T17:37:09Z</time>
      </trkpt>
      <trkpt lat="62.637686572448" lon="17.835091644828">
        <ele>51</ele>
        <time>2018-05-04T17:37:10Z</time>
      </trkpt>
      <trkpt lat="62.637665282422" lon="17.835279986121">
        <ele>50.4</ele>
        <time>2018-05-04T17:37:11Z</time>
      </trkpt>
      <trkpt lat="62.637643070387" lon="17.835482492825">
        <ele>50.2</ele>
        <time>2018-05-04T17:37:12Z</time>
      </trkpt>
      <trkpt lat="62.637620103981" lon="17.835679970389">
        <ele>49.6</ele>
        <time>2018-05-04T17:37:13Z</time>
      </trkpt>
      <trkpt lat="62.637597472851" lon="17.835878956695">
        <ele>49.6</ele>
        <time>2018-05-04T17:37:14Z</time>
      </trkpt>
      <trkpt lat="62.637575512273" lon="17.83608389415">
        <ele>49.4</ele>
        <time>2018-05-04T17:37:15Z</time>
      </trkpt>
      <trkpt lat="62.637556820636" lon="17.83625907586">
        <ele>49.2</ele>
        <time>2018-05-04T17:37:16Z</time>
      </trkpt>
      <trkpt lat="62.637529747099" lon="17.836503156788">
        <ele>49</ele>
        <time>2018-05-04T17:37:17Z</time>
      </trkpt>
      <trkpt lat="62.637507786521" lon="17.836694431746">
        <ele>48.6</ele>
        <time>2018-05-04T17:37:18Z</time>
      </trkpt>
      <trkpt lat="62.637483479011" lon="17.836902135228">
        <ele>48.2</ele>
        <time>2018-05-04T17:37:19Z</time>
      </trkpt>
      <trkpt lat="62.637457495121" lon="17.837128614166">
        <ele>47.6</ele>
        <time>2018-05-04T17:37:20Z</time>
      </trkpt>
      <trkpt lat="62.637436540371" lon="17.837312429233">
        <ele>47.4</ele>
        <time>2018-05-04T17:37:21Z</time>
      </trkpt>
      <trkpt lat="62.637412735775" lon="17.837522731104">
        <ele>47</ele>
        <time>2018-05-04T17:37:22Z</time>
      </trkpt>
      <trkpt lat="62.637390104645" lon="17.837727333283">
        <ele>46.8</ele>
        <time>2018-05-04T17:37:23Z</time>
      </trkpt>
      <trkpt lat="62.63736705442" lon="17.837931935462">
        <ele>46.4</ele>
        <time>2018-05-04T17:37:24Z</time>
      </trkpt>
      <trkpt lat="62.637344926204" lon="17.838137040555">
        <ele>46</ele>
        <time>2018-05-04T17:37:25Z</time>
      </trkpt>
      <trkpt lat="62.637324055273" lon="17.838334937214">
        <ele>45.8</ele>
        <time>2018-05-04T17:37:26Z</time>
      </trkpt>
      <trkpt lat="62.637299747763" lon="17.838556051736">
        <ele>45.4</ele>
        <time>2018-05-04T17:37:27Z</time>
      </trkpt>
      <trkpt lat="62.637279798841" lon="17.838733999473">
        <ele>45</ele>
        <time>2018-05-04T17:37:28Z</time>
      </trkpt>
      <trkpt lat="62.637257586806" lon="17.83894296024">
        <ele>44.6</ele>
        <time>2018-05-04T17:37:29Z</time>
      </trkpt>
      <trkpt lat="62.637237554065" lon="17.839154938491">
        <ele>44.4</ele>
        <time>2018-05-04T17:37:30Z</time>
      </trkpt>
      <trkpt lat="62.637221628455" lon="17.839335652255">
        <ele>44.2</ele>
        <time>2018-05-04T17:37:31Z</time>
      </trkpt>
      <trkpt lat="62.637201344257" lon="17.839567160333">
        <ele>43.8</ele>
        <time>2018-05-04T17:37:32Z</time>
      </trkpt>
      <trkpt lat="62.637183742267" lon="17.839768996485">
        <ele>43.4</ele>
        <time>2018-05-04T17:37:33Z</time>
      </trkpt>
      <trkpt lat="62.637169576856" lon="17.839951386629">
        <ele>43</ele>
        <time>2018-05-04T17:37:34Z</time>
      </trkpt>
      <trkpt lat="62.637155495264" lon="17.840149031831">
        <ele>42.4</ele>
        <time>2018-05-04T17:37:35Z</time>
      </trkpt>
      <trkpt lat="62.637142670957" lon="17.840338043676">
        <ele>42.2</ele>
        <time>2018-05-04T17:37:36Z</time>
      </trkpt>
      <trkpt lat="62.637128673184" lon="17.84056066694">
        <ele>42</ele>
        <time>2018-05-04T17:37:37Z</time>
      </trkpt>
      <trkpt lat="62.637119285456" lon="17.840742218894">
        <ele>41.6</ele>
        <time>2018-05-04T17:37:38Z</time>
      </trkpt>
      <trkpt lat="62.637110316823" lon="17.840963668692">
        <ele>41.4</ele>
        <time>2018-05-04T17:37:39Z</time>
      </trkpt>
      <trkpt lat="62.637102940751" lon="17.841131055235">
        <ele>41.2</ele>
        <time>2018-05-04T17:37:40Z</time>
      </trkpt>
      <trkpt lat="62.637094558851" lon="17.841327107876">
        <ele>41.2</ele>
        <time>2018-05-04T17:37:41Z</time>
      </trkpt>
      <trkpt lat="62.637085254942" lon="17.841547551846">
        <ele>41</ele>
        <time>2018-05-04T17:37:42Z</time>
      </trkpt>
      <trkpt lat="62.637079303793" lon="17.841747376342">
        <ele>40.8</ele>
        <time>2018-05-04T17:37:43Z</time>
      </trkpt>
      <trkpt lat="62.637073268825" lon="17.841937226377">
        <ele>40.6</ele>
        <time>2018-05-04T17:37:44Z</time>
      </trkpt>
      <trkpt lat="62.637067485314" lon="17.8421398169">
        <ele>40.4</ele>
        <time>2018-05-04T17:37:45Z</time>
      </trkpt>
      <trkpt lat="62.637062539993" lon="17.842323464329">
        <ele>40.4</ele>
        <time>2018-05-04T17:37:46Z</time>
      </trkpt>
      <trkpt lat="62.637064803106" lon="17.842515661296">
        <ele>40.2</ele>
        <time>2018-05-04T17:37:47Z</time>
      </trkpt>
      <trkpt lat="62.637064551649" lon="17.842703164399">
        <ele>40</ele>
        <time>2018-05-04T17:37:48Z</time>
      </trkpt>
      <trkpt lat="62.637064132554" lon="17.842895696642">
        <ele>40</ele>
        <time>2018-05-04T17:37:49Z</time>
      </trkpt>
      <trkpt lat="62.637063126726" lon="17.843073225284">
        <ele>39.8</ele>
        <time>2018-05-04T17:37:50Z</time>
      </trkpt>
      <trkpt lat="62.637063545821" lon="17.84322694933">
        <ele>39.4</ele>
        <time>2018-05-04T17:37:51Z</time>
      </trkpt>
      <trkpt lat="62.637063713459" lon="17.843406238171">
        <ele>39.4</ele>
        <time>2018-05-04T17:37:52Z</time>
      </trkpt>
      <trkpt lat="62.637063964916" lon="17.843589131229">
        <ele>39.2</ele>
        <time>2018-05-04T17:37:53Z</time>
      </trkpt>
      <trkpt lat="62.63706530602" lon="17.843785100051">
        <ele>39.2</ele>
        <time>2018-05-04T17:37:54Z</time>
      </trkpt>
      <trkpt lat="62.637068407323" lon="17.843955671716">
        <ele>39.2</ele>
        <time>2018-05-04T17:37:55Z</time>
      </trkpt>
      <trkpt lat="62.637071676264" lon="17.844102103509">
        <ele>39.2</ele>
        <time>2018-05-04T17:37:56Z</time>
      </trkpt>
      <trkpt lat="62.637076621585" lon="17.84428055416">
        <ele>39</ele>
        <time>2018-05-04T17:37:57Z</time>
      </trkpt>
      <trkpt lat="62.637081483087" lon="17.844442073373">
        <ele>39</ele>
        <time>2018-05-04T17:37:58Z</time>
      </trkpt>
      <trkpt lat="62.637088440064" lon="17.844629492657">
        <ele>38.8</ele>
        <time>2018-05-04T17:37:59Z</time>
      </trkpt>
      <trkpt lat="62.637097073421" lon="17.844814062095">
        <ele>38.6</ele>
        <time>2018-05-04T17:38:00Z</time>
      </trkpt>
      <trkpt lat="62.63710470095" lon="17.844974156385">
        <ele>38.4</ele>
        <time>2018-05-04T17:38:01Z</time>
      </trkpt>
      <trkpt lat="62.637113501945" lon="17.845166437171">
        <ele>38.4</ele>
        <time>2018-05-04T17:38:02Z</time>
      </trkpt>
      <trkpt lat="62.637120710379" lon="17.845348911134">
        <ele>38.2</ele>
        <time>2018-05-04T17:38:03Z</time>
      </trkpt>
      <trkpt lat="62.63712817027" lon="17.845525014853">
        <ele>38.2</ele>
        <time>2018-05-04T17:38:04Z</time>
      </trkpt>
      <trkpt lat="62.637136133075" lon="17.845722995331">
        <ele>38</ele>
        <time>2018-05-04T17:38:05Z</time>
      </trkpt>
      <trkpt lat="62.637142251862" lon="17.845895327195">
        <ele>37.8</ele>
        <time>2018-05-04T17:38:06Z</time>
      </trkpt>
      <trkpt lat="62.637149795572" lon="17.846088194714">
        <ele>37.6</ele>
        <time>2018-05-04T17:38:07Z</time>
      </trkpt>
      <trkpt lat="62.637157423101" lon="17.846268321745">
        <ele>37.4</ele>
        <time>2018-05-04T17:38:08Z</time>
      </trkpt>
      <trkpt lat="62.63716588882" lon="17.846467643327">
        <ele>37.2</ele>
        <time>2018-05-04T17:38:09Z</time>
      </trkpt>
      <trkpt lat="62.63717343253" lon="17.846656571353">
        <ele>37</ele>
        <time>2018-05-04T17:38:10Z</time>
      </trkpt>
      <trkpt lat="62.63717929986" lon="17.846834770547">
        <ele>36.8</ele>
        <time>2018-05-04T17:38:11Z</time>
      </trkpt>
      <trkpt lat="62.637188184674" lon="17.847033002482">
        <ele>36.6</ele>
        <time>2018-05-04T17:38:12Z</time>
      </trkpt>
      <trkpt lat="62.637196734212" lon="17.84722092468">
        <ele>36.4</ele>
        <time>2018-05-04T17:38:13Z</time>
      </trkpt>
      <trkpt lat="62.637204529379" lon="17.847408092507">
        <ele>36.2</ele>
        <time>2018-05-04T17:38:14Z</time>
      </trkpt>
      <trkpt lat="62.637212324546" lon="17.847625518993">
        <ele>36</ele>
        <time>2018-05-04T17:38:15Z</time>
      </trkpt>
      <trkpt lat="62.637217437505" lon="17.847768765664">
        <ele>35.8</ele>
        <time>2018-05-04T17:38:16Z</time>
      </trkpt>
      <trkpt lat="62.63722540031" lon="17.847983342304">
        <ele>35.6</ele>
        <time>2018-05-04T17:38:17Z</time>
      </trkpt>
      <trkpt lat="62.637231100002" lon="17.848173359977">
        <ele>35.4</ele>
        <time>2018-05-04T17:38:18Z</time>
      </trkpt>
      <trkpt lat="62.637239230445" lon="17.848357426501">
        <ele>35.2</ele>
        <time>2018-05-04T17:38:19Z</time>
      </trkpt>
      <trkpt lat="62.637245935965" lon="17.848517269334">
        <ele>35</ele>
        <time>2018-05-04T17:38:20Z</time>
      </trkpt>
      <trkpt lat="62.637251970933" lon="17.848689349741">
        <ele>35</ele>
        <time>2018-05-04T17:38:21Z</time>
      </trkpt>
      <trkpt lat="62.637258173539" lon="17.848880959975">
        <ele>34.8</ele>
        <time>2018-05-04T17:38:22Z</time>
      </trkpt>
      <trkpt lat="62.637263789412" lon="17.849062176653">
        <ele>34.8</ele>
        <time>2018-05-04T17:38:23Z</time>
      </trkpt>
      <trkpt lat="62.637268650914" lon="17.849267197927">
        <ele>34.8</ele>
        <time>2018-05-04T17:38:24Z</time>
      </trkpt>
      <trkpt lat="62.637273344778" lon="17.849444726569">
        <ele>34.8</ele>
        <time>2018-05-04T17:38:25Z</time>
      </trkpt>
      <trkpt lat="62.637277954823" lon="17.849594511122">
        <ele>34.4</ele>
        <time>2018-05-04T17:38:26Z</time>
      </trkpt>
      <trkpt lat="62.637284660343" lon="17.84978159513">
        <ele>34.2</ele>
        <time>2018-05-04T17:38:27Z</time>
      </trkpt>
      <trkpt lat="62.637291365863" lon="17.849960883971">
        <ele>33.8</ele>
        <time>2018-05-04T17:38:28Z</time>
      </trkpt>
      <trkpt lat="62.637299496306" lon="17.850151404558">
        <ele>33.6</ele>
        <time>2018-05-04T17:38:29Z</time>
      </trkpt>
      <trkpt lat="62.637307375292" lon="17.850332621236">
        <ele>33.2</ele>
        <time>2018-05-04T17:38:30Z</time>
      </trkpt>
      <trkpt lat="62.637314332269" lon="17.850507300032">
        <ele>33</ele>
        <time>2018-05-04T17:38:31Z</time>
      </trkpt>
      <trkpt lat="62.637321875979" lon="17.850705448148">
        <ele>32.8</ele>
        <time>2018-05-04T17:38:32Z</time>
      </trkpt>
      <trkpt lat="62.637328078585" lon="17.850891861604">
        <ele>32.4</ele>
        <time>2018-05-04T17:38:33Z</time>
      </trkpt>
      <trkpt lat="62.637331598983" lon="17.851075089938">
        <ele>32.2</ele>
        <time>2018-05-04T17:38:34Z</time>
      </trkpt>
      <trkpt lat="62.637337550132" lon="17.851275165891">
        <ele>31.8</ele>
        <time>2018-05-04T17:38:35Z</time>
      </trkpt>
      <trkpt lat="62.637343082186" lon="17.851462417537">
        <ele>31.6</ele>
        <time>2018-05-04T17:38:36Z</time>
      </trkpt>
      <trkpt lat="62.637349368611" lon="17.851682107136">
        <ele>31.2</ele>
        <time>2018-05-04T17:38:37Z</time>
      </trkpt>
      <trkpt lat="62.637354397751" lon="17.851852427344">
        <ele>30.6</ele>
        <time>2018-05-04T17:38:38Z</time>
      </trkpt>
      <trkpt lat="62.637360432719" lon="17.852045211044">
        <ele>30</ele>
        <time>2018-05-04T17:38:39Z</time>
      </trkpt>
      <trkpt lat="62.637367305877" lon="17.85224252097">
        <ele>29.8</ele>
        <time>2018-05-04T17:38:40Z</time>
      </trkpt>
      <trkpt lat="62.637374095216" lon="17.852432957738">
        <ele>29.4</ele>
        <time>2018-05-04T17:38:41Z</time>
      </trkpt>
      <trkpt lat="62.637381722745" lon="17.852644265437">
        <ele>29</ele>
        <time>2018-05-04T17:38:42Z</time>
      </trkpt>
      <trkpt lat="62.637388092989" lon="17.852847442693">
        <ele>28.6</ele>
        <time>2018-05-04T17:38:43Z</time>
      </trkpt>
      <trkpt lat="62.637394295595" lon="17.853047853922">
        <ele>28.4</ele>
        <time>2018-05-04T17:38:44Z</time>
      </trkpt>
      <trkpt lat="62.63740142021" lon="17.853246253495">
        <ele>28</ele>
        <time>2018-05-04T17:38:45Z</time>
      </trkpt>
      <trkpt lat="62.637408880101" lon="17.853426212888">
        <ele>27.6</ele>
        <time>2018-05-04T17:38:46Z</time>
      </trkpt>
      <trkpt lat="62.637421201494" lon="17.853657218052">
        <ele>27.2</ele>
        <time>2018-05-04T17:38:47Z</time>
      </trkpt>
      <trkpt lat="62.637431762688" lon="17.853864586258">
        <ele>26.8</ele>
        <time>2018-05-04T17:38:48Z</time>
      </trkpt>
      <trkpt lat="62.637440228407" lon="17.854072708835">
        <ele>26.4</ele>
        <time>2018-05-04T17:38:49Z</time>
      </trkpt>
      <trkpt lat="62.637449448497" lon="17.854279741765">
        <ele>25.8</ele>
        <time>2018-05-04T17:38:50Z</time>
      </trkpt>
      <trkpt lat="62.637461434614" lon="17.85447042999">
        <ele>25.6</ele>
        <time>2018-05-04T17:38:51Z</time>
      </trkpt>
      <trkpt lat="62.63747685731" lon="17.854675283626">
        <ele>25.4</ele>
        <time>2018-05-04T17:38:52Z</time>
      </trkpt>
      <trkpt lat="62.637494124024" lon="17.854880556357">
        <ele>25.2</ele>
        <time>2018-05-04T17:38:53Z</time>
      </trkpt>
      <trkpt lat="62.637513402394" lon="17.855087421649">
        <ele>24.6</ele>
        <time>2018-05-04T17:38:54Z</time>
      </trkpt>
      <trkpt lat="62.637532932221" lon="17.855284061023">
        <ele>24.6</ele>
        <time>2018-05-04T17:38:55Z</time>
      </trkpt>
      <trkpt lat="62.637550953306" lon="17.855466702624">
        <ele>24.4</ele>
        <time>2018-05-04T17:38:56Z</time>
      </trkpt>
      <trkpt lat="62.637571908056" lon="17.855667113853">
        <ele>24.2</ele>
        <time>2018-05-04T17:38:57Z</time>
      </trkpt>
      <trkpt lat="62.63759336572" lon="17.855855203689">
        <ele>23.8</ele>
        <time>2018-05-04T17:38:58Z</time>
      </trkpt>
      <trkpt lat="62.63761599685" lon="17.856050166683">
        <ele>23.8</ele>
        <time>2018-05-04T17:38:59Z</time>
      </trkpt>
      <trkpt lat="62.637638544161" lon="17.856235574311">
        <ele>23.6</ele>
        <time>2018-05-04T17:39:00Z</time>
      </trkpt>
      <trkpt lat="62.637660923834" lon="17.856413186772">
        <ele>23.4</ele>
        <time>2018-05-04T17:39:01Z</time>
      </trkpt>
      <trkpt lat="62.637685398982" lon="17.856615525838">
        <ele>23.4</ele>
        <time>2018-05-04T17:39:02Z</time>
      </trkpt>
      <trkpt lat="62.637704425895" lon="17.856767238228">
        <ele>23.2</ele>
        <time>2018-05-04T17:39:03Z</time>
      </trkpt>
      <trkpt lat="62.637726386473" lon="17.856942168481">
        <ele>23</ele>
        <time>2018-05-04T17:39:04Z</time>
      </trkpt>
      <trkpt lat="62.63775010725" lon="17.857127240833">
        <ele>22.8</ele>
        <time>2018-05-04T17:39:05Z</time>
      </trkpt>
      <trkpt lat="62.637768044516" lon="17.857263446708">
        <ele>22.8</ele>
        <time>2018-05-04T17:39:06Z</time>
      </trkpt>
      <trkpt lat="62.637788999266" lon="17.857426977577">
        <ele>23</ele>
        <time>2018-05-04T17:39:07Z</time>
      </trkpt>
      <trkpt lat="62.63780710417" lon="17.85757676213">
        <ele>23</ele>
        <time>2018-05-04T17:39:08Z</time>
      </trkpt>
      <trkpt lat="62.637826214902" lon="17.857729564167">
        <ele>23.2</ele>
        <time>2018-05-04T17:39:09Z</time>
      </trkpt>
      <trkpt lat="62.63784398453" lon="17.857870799182">
        <ele>23.2</ele>
        <time>2018-05-04T17:39:10Z</time>
      </trkpt>
      <trkpt lat="62.637861502701" lon="17.858011196007">
        <ele>23.2</ele>
        <time>2018-05-04T17:39:11Z</time>
      </trkpt>
      <trkpt lat="62.637880194338" lon="17.858164584777">
        <ele>23.2</ele>
        <time>2018-05-04T17:39:12Z</time>
      </trkpt>
      <trkpt lat="62.637897125776" lon="17.858308669638">
        <ele>23.4</ele>
        <time>2018-05-04T17:39:13Z</time>
      </trkpt>
      <trkpt lat="62.637914643947" lon="17.858449485558">
        <ele>23.4</ele>
        <time>2018-05-04T17:39:14Z</time>
      </trkpt>
      <trkpt lat="62.637931491566" lon="17.858589128012">
        <ele>23.4</ele>
        <time>2018-05-04T17:39:15Z</time>
      </trkpt>
      <trkpt lat="62.637946495167" lon="17.858720472385">
        <ele>23.2</ele>
        <time>2018-05-04T17:39:16Z</time>
      </trkpt>
      <trkpt lat="62.637963594243" lon="17.85887511844">
        <ele>23.2</ele>
        <time>2018-05-04T17:39:17Z</time>
      </trkpt>
      <trkpt lat="62.637978514025" lon="17.859015263808">
        <ele>23.2</ele>
        <time>2018-05-04T17:39:18Z</time>
      </trkpt>
      <trkpt lat="62.637992595617" lon="17.859155157719">
        <ele>23.2</ele>
        <time>2018-05-04T17:39:19Z</time>
      </trkpt>
      <trkpt lat="62.638006090476" lon="17.85929086068">
        <ele>23</ele>
        <time>2018-05-04T17:39:20Z</time>
      </trkpt>
      <trkpt lat="62.638018914783" lon="17.859416672999">
        <ele>23</ele>
        <time>2018-05-04T17:39:21Z</time>
      </trkpt>
      <trkpt lat="62.638031152357" lon="17.859556147815">
        <ele>23</ele>
        <time>2018-05-04T17:39:22Z</time>
      </trkpt>
      <trkpt lat="62.638041210637" lon="17.859694616803">
        <ele>23</ele>
        <time>2018-05-04T17:39:23Z</time>
      </trkpt>
      <trkpt lat="62.638051604193" lon="17.859835097447">
        <ele>23</ele>
        <time>2018-05-04T17:39:24Z</time>
      </trkpt>
      <trkpt lat="62.638061243378" lon="17.859969375485">
        <ele>23</ele>
        <time>2018-05-04T17:39:25Z</time>
      </trkpt>
      <trkpt lat="62.638069373821" lon="17.860097450917">
        <ele>23</ele>
        <time>2018-05-04T17:39:26Z</time>
      </trkpt>
      <trkpt lat="62.638078510092" lon="17.860245475271">
        <ele>23</ele>
        <time>2018-05-04T17:39:27Z</time>
      </trkpt>
      <trkpt lat="62.638085886164" lon="17.860377406377">
        <ele>23</ele>
        <time>2018-05-04T17:39:28Z</time>
      </trkpt>
      <trkpt lat="62.638092591684" lon="17.860520820686">
        <ele>23</ele>
        <time>2018-05-04T17:39:29Z</time>
      </trkpt>
      <trkpt lat="62.638098207557" lon="17.860655769276">
        <ele>22.8</ele>
        <time>2018-05-04T17:39:30Z</time>
      </trkpt>
      <trkpt lat="62.638103320516" lon="17.860785101993">
        <ele>23</ele>
        <time>2018-05-04T17:39:31Z</time>
      </trkpt>
      <trkpt lat="62.638108601113" lon="17.860930276501">
        <ele>22.8</ele>
        <time>2018-05-04T17:39:32Z</time>
      </trkpt>
      <trkpt lat="62.638112959701" lon="17.861064973634">
        <ele>22.6</ele>
        <time>2018-05-04T17:39:33Z</time>
      </trkpt>
      <trkpt lat="62.638116228642" lon="17.861198329663">
        <ele>22.6</ele>
        <time>2018-05-04T17:39:34Z</time>
      </trkpt>
      <trkpt lat="62.638118827031" lon="17.861341157239">
        <ele>22.6</ele>
        <time>2018-05-04T17:39:35Z</time>
      </trkpt>
      <trkpt lat="62.638121509239" lon="17.861466885739">
        <ele>22.6</ele>
        <time>2018-05-04T17:39:36Z</time>
      </trkpt>
      <trkpt lat="62.638124191447" lon="17.861609042763">
        <ele>22.6</ele>
        <time>2018-05-04T17:39:37Z</time>
      </trkpt>
      <trkpt lat="62.638124945818" lon="17.861737872566">
        <ele>22.8</ele>
        <time>2018-05-04T17:39:38Z</time>
      </trkpt>
      <trkpt lat="62.638125281094" lon="17.861872821156">
        <ele>23</ele>
        <time>2018-05-04T17:39:39Z</time>
      </trkpt>
      <trkpt lat="62.638125700189" lon="17.86199989076">
        <ele>23.2</ele>
        <time>2018-05-04T17:39:40Z</time>
      </trkpt>
      <trkpt lat="62.638125448732" lon="17.862128050011">
        <ele>23.2</ele>
        <time>2018-05-04T17:39:41Z</time>
      </trkpt>
      <trkpt lat="62.638124442904" lon="17.862281857876">
        <ele>23.2</ele>
        <time>2018-05-04T17:39:42Z</time>
      </trkpt>
      <trkpt lat="62.638122431248" lon="17.862414878629">
        <ele>23.2</ele>
        <time>2018-05-04T17:39:43Z</time>
      </trkpt>
      <trkpt lat="62.638120084316" lon="17.862527028451">
        <ele>23</ele>
        <time>2018-05-04T17:39:44Z</time>
      </trkpt>
      <trkpt lat="62.638117569746" lon="17.862657618453">
        <ele>23</ele>
        <time>2018-05-04T17:39:45Z</time>
      </trkpt>
      <trkpt lat="62.638115641909" lon="17.862788711369">
        <ele>23</ele>
        <time>2018-05-04T17:39:46Z</time>
      </trkpt>
      <trkpt lat="62.638107846742" lon="17.862921229208">
        <ele>23</ele>
        <time>2018-05-04T17:39:47Z</time>
      </trkpt>
      <trkpt lat="62.638101644136" lon="17.863049556097">
        <ele>23.2</ele>
        <time>2018-05-04T17:39:48Z</time>
      </trkpt>
      <trkpt lat="62.63809711791" lon="17.863179810823">
        <ele>23.2</ele>
        <time>2018-05-04T17:39:49Z</time>
      </trkpt>
      <trkpt lat="62.638092675503" lon="17.863310317006">
        <ele>23.4</ele>
        <time>2018-05-04T17:39:50Z</time>
      </trkpt>
      <trkpt lat="62.638087562544" lon="17.863429926719">
        <ele>23.4</ele>
        <time>2018-05-04T17:39:51Z</time>
      </trkpt>
      <trkpt lat="62.638081359938" lon="17.863566719327">
        <ele>23.4</ele>
        <time>2018-05-04T17:39:52Z</time>
      </trkpt>
      <trkpt lat="62.638074654418" lon="17.863698231338">
        <ele>23.4</ele>
        <time>2018-05-04T17:39:53Z</time>
      </trkpt>
      <trkpt lat="62.63806694307" lon="17.863829408073">
        <ele>23.4</ele>
        <time>2018-05-04T17:39:54Z</time>
      </trkpt>
      <trkpt lat="62.638059986093" lon="17.863958908428">
        <ele>23.4</ele>
        <time>2018-05-04T17:39:55Z</time>
      </trkpt>
      <trkpt lat="62.638054956953" lon="17.864082876729">
        <ele>23.2</ele>
        <time>2018-05-04T17:39:56Z</time>
      </trkpt>
      <trkpt lat="62.638048921985" lon="17.864223022097">
        <ele>23.2</ele>
        <time>2018-05-04T17:39:57Z</time>
      </trkpt>
      <trkpt lat="62.638042803198" lon="17.864343889095">
        <ele>23.4</ele>
        <time>2018-05-04T17:39:58Z</time>
      </trkpt>
      <trkpt lat="62.638034086022" lon="17.864486213757">
        <ele>23.4</ele>
        <time>2018-05-04T17:39:59Z</time>
      </trkpt>
      <trkpt lat="62.638027631959" lon="17.864619569786">
        <ele>23.4</ele>
        <time>2018-05-04T17:40:00Z</time>
      </trkpt>
      <trkpt lat="62.638022267543" lon="17.864746555571">
        <ele>23.4</ele>
        <time>2018-05-04T17:40:01Z</time>
      </trkpt>
      <trkpt lat="62.638015226747" lon="17.864889550785">
        <ele>23.4</ele>
        <time>2018-05-04T17:40:02Z</time>
      </trkpt>
      <trkpt lat="62.638008772684" lon="17.865022655357">
        <ele>23.6</ele>
        <time>2018-05-04T17:40:03Z</time>
      </trkpt>
      <trkpt lat="62.638002486259" lon="17.865149305866">
        <ele>23.6</ele>
        <time>2018-05-04T17:40:04Z</time>
      </trkpt>
      <trkpt lat="62.63799485873" lon="17.865291379071">
        <ele>23.6</ele>
        <time>2018-05-04T17:40:05Z</time>
      </trkpt>
      <trkpt lat="62.637987985572" lon="17.865415179734">
        <ele>23.6</ele>
        <time>2018-05-04T17:40:06Z</time>
      </trkpt>
      <trkpt lat="62.637980693319" lon="17.865556163292">
        <ele>23.6</ele>
        <time>2018-05-04T17:40:07Z</time>
      </trkpt>
      <trkpt lat="62.637974909808" lon="17.86568205943">
        <ele>23.6</ele>
        <time>2018-05-04T17:40:08Z</time>
      </trkpt>
      <trkpt lat="62.637968539564" lon="17.865814828726">
        <ele>23.6</ele>
        <time>2018-05-04T17:40:09Z</time>
      </trkpt>
      <trkpt lat="62.637961163492" lon="17.865937204466">
        <ele>23.6</ele>
        <time>2018-05-04T17:40:10Z</time>
      </trkpt>
      <trkpt lat="62.637952613954" lon="17.866062010957">
        <ele>23.6</ele>
        <time>2018-05-04T17:40:11Z</time>
      </trkpt>
      <trkpt lat="62.637944818787" lon="17.866195953719">
        <ele>23.6</ele>
        <time>2018-05-04T17:40:12Z</time>
      </trkpt>
      <trkpt lat="62.637938616181" lon="17.866318832373">
        <ele>23.6</ele>
        <time>2018-05-04T17:40:13Z</time>
      </trkpt>
      <trkpt lat="62.637932413575" lon="17.866441543389">
        <ele>23.8</ele>
        <time>2018-05-04T17:40:14Z</time>
      </trkpt>
      <trkpt lat="62.637926378607" lon="17.866559811998">
        <ele>23.8</ele>
        <time>2018-05-04T17:40:15Z</time>
      </trkpt>
      <trkpt lat="62.637921014191" lon="17.866666429766">
        <ele>24</ele>
        <time>2018-05-04T17:40:16Z</time>
      </trkpt>
      <trkpt lat="62.637914224852" lon="17.866799031424">
        <ele>24.2</ele>
        <time>2018-05-04T17:40:17Z</time>
      </trkpt>
      <trkpt lat="62.637907938427" lon="17.8669167133">
        <ele>24.2</ele>
        <time>2018-05-04T17:40:18Z</time>
      </trkpt>
      <trkpt lat="62.637902154916" lon="17.867027270561">
        <ele>24.4</ele>
        <time>2018-05-04T17:40:19Z</time>
      </trkpt>
      <trkpt lat="62.637896874319" lon="17.867137073451">
        <ele>24.4</ele>
        <time>2018-05-04T17:40:20Z</time>
      </trkpt>
      <trkpt lat="62.637892096636" lon="17.867236985699">
        <ele>24.6</ele>
        <time>2018-05-04T17:40:21Z</time>
      </trkpt>
      <trkpt lat="62.637886313125" lon="17.867341256535">
        <ele>25</ele>
        <time>2018-05-04T17:40:22Z</time>
      </trkpt>
      <trkpt lat="62.637879104691" lon="17.867450388873">
        <ele>25</ele>
        <time>2018-05-04T17:40:23Z</time>
      </trkpt>
      <trkpt lat="62.637871393343" lon="17.867555162623">
        <ele>25.2</ele>
        <time>2018-05-04T17:40:24Z</time>
      </trkpt>
      <trkpt lat="62.637865945108" lon="17.86765599688">
        <ele>25.2</ele>
        <time>2018-05-04T17:40:25Z</time>
      </trkpt>
      <trkpt lat="62.637862592348" lon="17.867750460893">
        <ele>25.4</ele>
        <time>2018-05-04T17:40:26Z</time>
      </trkpt>
      <trkpt lat="62.637858485217" lon="17.867856994842">
        <ele>25.4</ele>
        <time>2018-05-04T17:40:27Z</time>
      </trkpt>
      <trkpt lat="62.637853958991" lon="17.867953721968">
        <ele>25.4</ele>
        <time>2018-05-04T17:40:28Z</time>
      </trkpt>
      <trkpt lat="62.637849097489" lon="17.868056567881">
        <ele>25.8</ele>
        <time>2018-05-04T17:40:29Z</time>
      </trkpt>
      <trkpt lat="62.637845577091" lon="17.868151199532">
        <ele>26</ele>
        <time>2018-05-04T17:40:30Z</time>
      </trkpt>
      <trkpt lat="62.637841972874" lon="17.868241975509">
        <ele>26</ele>
        <time>2018-05-04T17:40:31Z</time>
      </trkpt>
      <trkpt lat="62.637838033381" lon="17.868341217205">
        <ele>26.2</ele>
        <time>2018-05-04T17:40:32Z</time>
      </trkpt>
      <trkpt lat="62.637835015897" lon="17.868431154992">
        <ele>26.4</ele>
        <time>2018-05-04T17:40:33Z</time>
      </trkpt>
      <trkpt lat="62.637831327861" lon="17.86851933258">
        <ele>26.6</ele>
        <time>2018-05-04T17:40:34Z</time>
      </trkpt>
      <trkpt lat="62.637827053092" lon="17.868614383326">
        <ele>27</ele>
        <time>2018-05-04T17:40:35Z</time>
      </trkpt>
      <trkpt lat="62.637822862142" lon="17.868701052172">
        <ele>27.2</ele>
        <time>2018-05-04T17:40:36Z</time>
      </trkpt>
      <trkpt lat="62.637819090287" lon="17.868799539497">
        <ele>27.4</ele>
        <time>2018-05-04T17:40:37Z</time>
      </trkpt>
      <trkpt lat="62.637816743355" lon="17.868878748452">
        <ele>27.6</ele>
        <time>2018-05-04T17:40:38Z</time>
      </trkpt>
      <trkpt lat="62.637814312604" lon="17.868974050655">
        <ele>28</ele>
        <time>2018-05-04T17:40:39Z</time>
      </trkpt>
      <trkpt lat="62.637812049491" lon="17.869062563519">
        <ele>28</ele>
        <time>2018-05-04T17:40:40Z</time>
      </trkpt>
      <trkpt lat="62.637808193817" lon="17.869140850465">
        <ele>28.2</ele>
        <time>2018-05-04T17:40:41Z</time>
      </trkpt>
      <trkpt lat="62.637807858541" lon="17.869236404125">
        <ele>28.4</ele>
        <time>2018-05-04T17:40:42Z</time>
      </trkpt>
      <trkpt lat="62.637809115826" lon="17.869319971668">
        <ele>28.6</ele>
        <time>2018-05-04T17:40:43Z</time>
      </trkpt>
      <trkpt lat="62.637809283464" lon="17.869404377401">
        <ele>28.8</ele>
        <time>2018-05-04T17:40:44Z</time>
      </trkpt>
      <trkpt lat="62.637807439446" lon="17.869481239424">
        <ele>29.2</ele>
        <time>2018-05-04T17:40:45Z</time>
      </trkpt>
      <trkpt lat="62.637807187989" lon="17.869558185266">
        <ele>29.2</ele>
        <time>2018-05-04T17:40:46Z</time>
      </trkpt>
      <trkpt lat="62.637809115826" lon="17.869653068374">
        <ele>29.4</ele>
        <time>2018-05-04T17:40:47Z</time>
      </trkpt>
      <trkpt lat="62.637809870197" lon="17.86972297342">
        <ele>29.6</ele>
        <time>2018-05-04T17:40:48Z</time>
      </trkpt>
      <trkpt lat="62.637809786378" lon="17.86981014518">
        <ele>29.8</ele>
        <time>2018-05-04T17:40:49Z</time>
      </trkpt>
      <trkpt lat="62.637810876025" lon="17.869889940868">
        <ele>30</ele>
        <time>2018-05-04T17:40:50Z</time>
      </trkpt>
      <trkpt lat="62.637812468586" lon="17.869957079887">
        <ele>30</ele>
        <time>2018-05-04T17:40:51Z</time>
      </trkpt>
      <trkpt lat="62.637814396423" lon="17.870041988534">
        <ele>30.4</ele>
        <time>2018-05-04T17:40:52Z</time>
      </trkpt>
      <trkpt lat="62.637816156622" lon="17.870123544421">
        <ele>30.4</ele>
        <time>2018-05-04T17:40:53Z</time>
      </trkpt>
      <trkpt lat="62.637818587373" lon="17.870215326226">
        <ele>30.8</ele>
        <time>2018-05-04T17:40:54Z</time>
      </trkpt>
      <trkpt lat="62.637821604857" lon="17.870295624828">
        <ele>30.8</ele>
        <time>2018-05-04T17:40:55Z</time>
      </trkpt>
      <trkpt lat="62.637824035608" lon="17.870366451883">
        <ele>31</ele>
        <time>2018-05-04T17:40:56Z</time>
      </trkpt>
      <trkpt lat="62.637827807463" lon="17.870446582847">
        <ele>31.2</ele>
        <time>2018-05-04T17:40:57Z</time>
      </trkpt>
      <trkpt lat="62.637831830775" lon="17.870524953612">
        <ele>31.4</ele>
        <time>2018-05-04T17:40:58Z</time>
      </trkpt>
      <trkpt lat="62.63783727901" lon="17.870610113716">
        <ele>31.6</ele>
        <time>2018-05-04T17:40:59Z</time>
      </trkpt>
      <trkpt lat="62.637841889055" lon="17.870687227196">
        <ele>31.8</ele>
        <time>2018-05-04T17:41:00Z</time>
      </trkpt>
      <trkpt lat="62.637847169652" lon="17.870756377871">
        <ele>32</ele>
        <time>2018-05-04T17:41:01Z</time>
      </trkpt>
      <trkpt lat="62.637851863516" lon="17.870846064201">
        <ele>32.2</ele>
        <time>2018-05-04T17:41:02Z</time>
      </trkpt>
      <trkpt lat="62.637855970647" lon="17.870916975075">
        <ele>32.4</ele>
        <time>2018-05-04T17:41:03Z</time>
      </trkpt>
      <trkpt lat="62.637861335063" lon="17.87099199308">
        <ele>32.6</ele>
        <time>2018-05-04T17:41:04Z</time>
      </trkpt>
      <trkpt lat="62.637868208221" lon="17.871076817908">
        <ele>32.8</ele>
        <time>2018-05-04T17:41:05Z</time>
      </trkpt>
      <trkpt lat="62.637874578465" lon="17.871144627479">
        <ele>33</ele>
        <time>2018-05-04T17:41:06Z</time>
      </trkpt>
      <trkpt lat="62.637883295641" lon="17.871232637429">
        <ele>33.2</ele>
        <time>2018-05-04T17:41:07Z</time>
      </trkpt>
      <trkpt lat="62.637888911514" lon="17.871304805588">
        <ele>33.2</ele>
        <time>2018-05-04T17:41:08Z</time>
      </trkpt>
      <trkpt lat="62.637896203767" lon="17.871384014543">
        <ele>33.2</ele>
        <time>2018-05-04T17:41:09Z</time>
      </trkpt>
      <trkpt lat="62.637904501848" lon="17.871463642593">
        <ele>33.4</ele>
        <time>2018-05-04T17:41:10Z</time>
      </trkpt>
      <trkpt lat="62.63791187792" lon="17.871542432453">
        <ele>33.4</ele>
        <time>2018-05-04T17:41:11Z</time>
      </trkpt>
      <trkpt lat="62.637920595096" lon="17.871635220086">
        <ele>33.6</ele>
        <time>2018-05-04T17:41:12Z</time>
      </trkpt>
      <trkpt lat="62.637928138806" lon="17.871716105421">
        <ele>33.8</ele>
        <time>2018-05-04T17:41:13Z</time>
      </trkpt>
      <trkpt lat="62.637937442715" lon="17.871793051263">
        <ele>34</ele>
        <time>2018-05-04T17:41:14Z</time>
      </trkpt>
      <trkpt lat="62.637947500995" lon="17.87186371068">
        <ele>34.2</ele>
        <time>2018-05-04T17:41:15Z</time>
      </trkpt>
      <trkpt lat="62.63795714018" lon="17.871934873011">
        <ele>34.6</ele>
        <time>2018-05-04T17:41:16Z</time>
      </trkpt>
      <trkpt lat="62.63796803665" lon="17.872024559341">
        <ele>34.8</ele>
        <time>2018-05-04T17:41:17Z</time>
      </trkpt>
      <trkpt lat="62.637978011111" lon="17.872099912622">
        <ele>35</ele>
        <time>2018-05-04T17:41:18Z</time>
      </trkpt>
      <trkpt lat="62.637990081047" lon="17.872175433541">
        <ele>35.2</ele>
        <time>2018-05-04T17:41:19Z</time>
      </trkpt>
      <trkpt lat="62.638001145155" lon="17.872255061591">
        <ele>35.4</ele>
        <time>2018-05-04T17:41:20Z</time>
      </trkpt>
      <trkpt lat="62.638009778512" lon="17.872322452067">
        <ele>35.6</ele>
        <time>2018-05-04T17:41:21Z</time>
      </trkpt>
      <trkpt lat="62.638020507344" lon="17.872407360714">
        <ele>35.8</ele>
        <time>2018-05-04T17:41:22Z</time>
      </trkpt>
      <trkpt lat="62.638032242004" lon="17.872488665144">
        <ele>36</ele>
        <time>2018-05-04T17:41:23Z</time>
      </trkpt>
      <trkpt lat="62.638046491234" lon="17.872577429465">
        <ele>36.2</ele>
        <time>2018-05-04T17:41:24Z</time>
      </trkpt>
      <trkpt lat="62.638059818455" lon="17.872660410275">
        <ele>36.4</ele>
        <time>2018-05-04T17:41:25Z</time>
      </trkpt>
      <trkpt lat="62.638071720753" lon="17.872733165167">
        <ele>36.6</ele>
        <time>2018-05-04T17:41:26Z</time>
      </trkpt>
      <trkpt lat="62.63808538325" lon="17.872823019135">
        <ele>36.8</ele>
        <time>2018-05-04T17:41:27Z</time>
      </trkpt>
      <trkpt lat="62.638098207557" lon="17.872907508687">
        <ele>37</ele>
        <time>2018-05-04T17:41:28Z</time>
      </trkpt>
      <trkpt lat="62.638113797891" lon="17.87300113451">
        <ele>37.2</ele>
        <time>2018-05-04T17:41:29Z</time>
      </trkpt>
      <trkpt lat="62.63812729275" lon="17.873083193311">
        <ele>37.2</ele>
        <time>2018-05-04T17:41:30Z</time>
      </trkpt>
      <trkpt lat="62.638139111229" lon="17.873154104185">
        <ele>37.4</ele>
        <time>2018-05-04T17:41:31Z</time>
      </trkpt>
      <trkpt lat="62.638154031011" lon="17.873244628705">
        <ele>37.4</ele>
        <time>2018-05-04T17:41:32Z</time>
      </trkpt>
      <trkpt lat="62.638167106775" lon="17.873316545407">
        <ele>37.6</ele>
        <time>2018-05-04T17:41:33Z</time>
      </trkpt>
      <trkpt lat="62.638182361833" lon="17.873396173457">
        <ele>37.8</ele>
        <time>2018-05-04T17:41:34Z</time>
      </trkpt>
      <trkpt lat="62.638198119805" lon="17.87348309376">
        <ele>38</ele>
        <time>2018-05-04T17:41:35Z</time>
      </trkpt>
      <trkpt lat="62.638209016275" lon="17.873552998806">
        <ele>38</ele>
        <time>2018-05-04T17:41:36Z</time>
      </trkpt>
      <trkpt lat="62.638224103695" lon="17.873638075091">
        <ele>38.2</ele>
        <time>2018-05-04T17:41:37Z</time>
      </trkpt>
      <trkpt lat="62.638237682373" lon="17.873704878834">
        <ele>38.2</ele>
        <time>2018-05-04T17:41:38Z</time>
      </trkpt>
      <trkpt lat="62.638251847784" lon="17.873779561563">
        <ele>38.4</ele>
        <time>2018-05-04T17:41:39Z</time>
      </trkpt>
      <trkpt lat="62.638265929376" lon="17.873855082482">
        <ele>38.4</ele>
        <time>2018-05-04T17:41:40Z</time>
      </trkpt>
      <trkpt lat="62.638281687348" lon="17.873930100487">
        <ele>38.6</ele>
        <time>2018-05-04T17:41:41Z</time>
      </trkpt>
      <trkpt lat="62.638299792252" lon="17.874017356066">
        <ele>38.8</ele>
        <time>2018-05-04T17:41:42Z</time>
      </trkpt>
      <trkpt lat="62.6383158855" lon="17.874096397383">
        <ele>38.8</ele>
        <time>2018-05-04T17:41:43Z</time>
      </trkpt>
      <trkpt lat="62.638331224377" lon="17.874176193071">
        <ele>39</ele>
        <time>2018-05-04T17:41:44Z</time>
      </trkpt>
      <trkpt lat="62.638345473607" lon="17.874250624343">
        <ele>39</ele>
        <time>2018-05-04T17:41:45Z</time>
      </trkpt>
      <trkpt lat="62.638360728665" lon="17.874326731995">
        <ele>39</ele>
        <time>2018-05-04T17:41:46Z</time>
      </trkpt>
      <trkpt lat="62.638381515777" lon="17.874423375302">
        <ele>39.2</ele>
        <time>2018-05-04T17:41:47Z</time>
      </trkpt>
      <trkpt lat="62.638400794147" lon="17.874507529578">
        <ele>39</ele>
        <time>2018-05-04T17:41:48Z</time>
      </trkpt>
      <trkpt lat="62.638417055033" lon="17.874585062153">
        <ele>39.2</ele>
        <time>2018-05-04T17:41:49Z</time>
      </trkpt>
      <trkpt lat="62.638436249584" lon="17.874676005768">
        <ele>39.2</ele>
        <time>2018-05-04T17:41:50Z</time>
      </trkpt>
      <trkpt lat="62.638454354488" lon="17.874754711809">
        <ele>39.4</ele>
        <time>2018-05-04T17:41:51Z</time>
      </trkpt>
      <trkpt lat="62.638475225419" lon="17.874846996528">
        <ele>39.6</ele>
        <time>2018-05-04T17:41:52Z</time>
      </trkpt>
      <trkpt lat="62.638494671427" lon="17.874936347582">
        <ele>39.8</ele>
        <time>2018-05-04T17:41:53Z</time>
      </trkpt>
      <trkpt lat="62.638515123263" lon="17.87502871612">
        <ele>40</ele>
        <time>2018-05-04T17:41:54Z</time>
      </trkpt>
      <trkpt lat="62.638537000022" lon="17.875124437418">
        <ele>40.2</ele>
        <time>2018-05-04T17:41:55Z</time>
      </trkpt>
      <trkpt lat="62.638554434374" lon="17.875204149287">
        <ele>40.4</ele>
        <time>2018-05-04T17:41:56Z</time>
      </trkpt>
      <trkpt lat="62.638576059676" lon="17.875300541137">
        <ele>40.6</ele>
        <time>2018-05-04T17:41:57Z</time>
      </trkpt>
      <trkpt lat="62.638596595331" lon="17.875390562743">
        <ele>40.6</ele>
        <time>2018-05-04T17:41:58Z</time>
      </trkpt>
      <trkpt lat="62.638619561737" lon="17.875487038412">
        <ele>40.8</ele>
        <time>2018-05-04T17:41:59Z</time>
      </trkpt>
      <trkpt lat="62.638641270858" lon="17.875578317303">
        <ele>40.8</ele>
        <time>2018-05-04T17:42:00Z</time>
      </trkpt>
      <trkpt lat="62.638661555056" lon="17.875665405244">
        <ele>40.8</ele>
        <time>2018-05-04T17:42:01Z</time>
      </trkpt>
      <trkpt lat="62.638685611109" lon="17.875758947248">
        <ele>41</ele>
        <time>2018-05-04T17:42:02Z</time>
      </trkpt>
      <trkpt lat="62.638707236411" lon="17.87584595137">
        <ele>41</ele>
        <time>2018-05-04T17:42:03Z</time>
      </trkpt>
      <trkpt lat="62.638728777894" lon="17.875936811166">
        <ele>41</ele>
        <time>2018-05-04T17:42:04Z</time>
      </trkpt>
      <trkpt lat="62.638751325205" lon="17.876033370654">
        <ele>41</ele>
        <time>2018-05-04T17:42:05Z</time>
      </trkpt>
      <trkpt lat="62.638771357946" lon="17.876120793871">
        <ele>41.2</ele>
        <time>2018-05-04T17:42:06Z</time>
      </trkpt>
      <trkpt lat="62.638792983248" lon="17.876218443006">
        <ele>41</ele>
        <time>2018-05-04T17:42:07Z</time>
      </trkpt>
      <trkpt lat="62.638813267446" lon="17.876305698585">
        <ele>41.2</ele>
        <time>2018-05-04T17:42:08Z</time>
      </trkpt>
      <trkpt lat="62.638833132549" lon="17.876396893657">
        <ele>41.2</ele>
        <time>2018-05-04T17:42:09Z</time>
      </trkpt>
      <trkpt lat="62.638851656548" lon="17.876488675462">
        <ele>41.4</ele>
        <time>2018-05-04T17:42:10Z</time>
      </trkpt>
      <trkpt lat="62.638871018737" lon="17.876578697068">
        <ele>41.6</ele>
        <time>2018-05-04T17:42:11Z</time>
      </trkpt>
      <trkpt lat="62.638893482229" lon="17.876681962076">
        <ele>41.8</ele>
        <time>2018-05-04T17:42:12Z</time>
      </trkpt>
      <trkpt lat="62.638912592961" lon="17.876773408605">
        <ele>42</ele>
        <time>2018-05-04T17:42:13Z</time>
      </trkpt>
      <trkpt lat="62.638929105304" lon="17.876853204293">
        <ele>42.2</ele>
        <time>2018-05-04T17:42:14Z</time>
      </trkpt>
      <trkpt lat="62.638947545484" lon="17.876939873139">
        <ele>42.4</ele>
        <time>2018-05-04T17:42:15Z</time>
      </trkpt>
      <trkpt lat="62.638963638732" lon="17.877024278872">
        <ele>42.6</ele>
        <time>2018-05-04T17:42:16Z</time>
      </trkpt>
      <trkpt lat="62.638982833283" lon="17.877123855844">
        <ele>42.6</ele>
        <time>2018-05-04T17:42:17Z</time>
      </trkpt>
      <trkpt lat="62.639000267635" lon="17.877213374536">
        <ele>42.8</ele>
        <time>2018-05-04T17:42:18Z</time>
      </trkpt>
      <trkpt lat="62.63901661234" lon="17.87730356378">
        <ele>43</ele>
        <time>2018-05-04T17:42:19Z</time>
      </trkpt>
      <trkpt lat="62.639033292321" lon="17.877401212915">
        <ele>43</ele>
        <time>2018-05-04T17:42:20Z</time>
      </trkpt>
      <trkpt lat="62.639045446076" lon="17.877479499861">
        <ele>43.2</ele>
        <time>2018-05-04T17:42:21Z</time>
      </trkpt>
      <trkpt lat="62.6390618746" lon="17.877577484272">
        <ele>43.2</ele>
        <time>2018-05-04T17:42:22Z</time>
      </trkpt>
      <trkpt lat="62.639079225133" lon="17.877671696828">
        <ele>43.2</ele>
        <time>2018-05-04T17:42:23Z</time>
      </trkpt>
      <trkpt lat="62.639096491847" lon="17.877772363447">
        <ele>43.4</ele>
        <time>2018-05-04T17:42:24Z</time>
      </trkpt>
      <trkpt lat="62.639110405801" lon="17.877871353686">
        <ele>43.4</ele>
        <time>2018-05-04T17:42:25Z</time>
      </trkpt>
      <trkpt lat="62.639123984479" lon="17.87796741026">
        <ele>43.4</ele>
        <time>2018-05-04T17:42:26Z</time>
      </trkpt>
      <trkpt lat="62.63913898808" lon="17.87807218401">
        <ele>43.6</ele>
        <time>2018-05-04T17:42:27Z</time>
      </trkpt>
      <trkpt lat="62.639152985853" lon="17.878172012439">
        <ele>43.6</ele>
        <time>2018-05-04T17:42:28Z</time>
      </trkpt>
      <trkpt lat="62.639167989454" lon="17.87827921694">
        <ele>43.8</ele>
        <time>2018-05-04T17:42:29Z</time>
      </trkpt>
      <trkpt lat="62.639181903408" lon="17.878379213007">
        <ele>44</ele>
        <time>2018-05-04T17:42:30Z</time>
      </trkpt>
      <trkpt lat="62.639194057163" lon="17.878472419735">
        <ele>44.2</ele>
        <time>2018-05-04T17:42:31Z</time>
      </trkpt>
      <trkpt lat="62.639207803479" lon="17.87858264172">
        <ele>44.2</ele>
        <time>2018-05-04T17:42:32Z</time>
      </trkpt>
      <trkpt lat="62.639219119044" lon="17.878682302511">
        <ele>44.4</ele>
        <time>2018-05-04T17:42:33Z</time>
      </trkpt>
      <trkpt lat="62.639230183152" lon="17.878783555863">
        <ele>44.2</ele>
        <time>2018-05-04T17:42:34Z</time>
      </trkpt>
      <trkpt lat="62.639240828165" lon="17.878900148092">
        <ele>44.2</ele>
        <time>2018-05-04T17:42:35Z</time>
      </trkpt>
      <trkpt lat="62.639249712979" lon="17.878991091707">
        <ele>44.2</ele>
        <time>2018-05-04T17:42:36Z</time>
      </trkpt>
      <trkpt lat="62.639262285829" lon="17.879101146054">
        <ele>44.2</ele>
        <time>2018-05-04T17:42:37Z</time>
      </trkpt>
      <trkpt lat="62.639272511747" lon="17.879200639207">
        <ele>44.4</ele>
        <time>2018-05-04T17:42:38Z</time>
      </trkpt>
      <trkpt lat="62.639281731837" lon="17.879305748233">
        <ele>44.6</ele>
        <time>2018-05-04T17:42:39Z</time>
      </trkpt>
      <trkpt lat="62.639290029918" lon="17.879409516155">
        <ele>44.8</ele>
        <time>2018-05-04T17:42:40Z</time>
      </trkpt>
      <trkpt lat="62.639297070714" lon="17.879510015136">
        <ele>45</ele>
        <time>2018-05-04T17:42:41Z</time>
      </trkpt>
      <trkpt lat="62.639305871709" lon="17.879623422243">
        <ele>45.2</ele>
        <time>2018-05-04T17:42:42Z</time>
      </trkpt>
      <trkpt lat="62.639315343256" lon="17.879730040011">
        <ele>45.4</ele>
        <time>2018-05-04T17:42:43Z</time>
      </trkpt>
      <trkpt lat="62.63932338988" lon="17.87983908853">
        <ele>45.4</ele>
        <time>2018-05-04T17:42:44Z</time>
      </trkpt>
      <trkpt lat="62.639331604142" lon="17.879942437357">
        <ele>45.4</ele>
        <time>2018-05-04T17:42:45Z</time>
      </trkpt>
      <trkpt lat="62.639339650766" lon="17.880043942166">
        <ele>45.4</ele>
        <time>2018-05-04T17:42:46Z</time>
      </trkpt>
      <trkpt lat="62.639349792865" lon="17.880166485544">
        <ele>45.4</ele>
        <time>2018-05-04T17:42:47Z</time>
      </trkpt>
      <trkpt lat="62.639358761498" lon="17.880277042805">
        <ele>45.6</ele>
        <time>2018-05-04T17:42:48Z</time>
      </trkpt>
      <trkpt lat="62.639366472846" lon="17.880389276446">
        <ele>46</ele>
        <time>2018-05-04T17:42:49Z</time>
      </trkpt>
      <trkpt lat="62.639374351832" lon="17.880508215607">
        <ele>46.2</ele>
        <time>2018-05-04T17:42:50Z</time>
      </trkpt>
      <trkpt lat="62.639381308809" lon="17.880601422335">
        <ele>46.8</ele>
        <time>2018-05-04T17:42:51Z</time>
      </trkpt>
      <trkpt lat="62.639391199451" lon="17.880720277677">
        <ele>47</ele>
        <time>2018-05-04T17:42:52Z</time>
      </trkpt>
      <trkpt lat="62.639400419541" lon="17.880829996748">
        <ele>47.2</ele>
        <time>2018-05-04T17:42:53Z</time>
      </trkpt>
      <trkpt lat="62.639410729278" lon="17.880948684452">
        <ele>47.4</ele>
        <time>2018-05-04T17:42:54Z</time>
      </trkpt>
      <trkpt lat="62.639420787558" lon="17.881055134582">
        <ele>47.4</ele>
        <time>2018-05-04T17:42:55Z</time>
      </trkpt>
      <trkpt lat="62.639429504734" lon="17.881149011862">
        <ele>47.6</ele>
        <time>2018-05-04T17:42:56Z</time>
      </trkpt>
      <trkpt lat="62.639438724824" lon="17.881257138372">
        <ele>47.8</ele>
        <time>2018-05-04T17:42:57Z</time>
      </trkpt>
      <trkpt lat="62.639448531647" lon="17.881359062276">
        <ele>48</ele>
        <time>2018-05-04T17:42:58Z</time>
      </trkpt>
      <trkpt lat="62.639460266307" lon="17.881464925673">
        <ele>48.2</ele>
        <time>2018-05-04T17:42:59Z</time>
      </trkpt>
      <trkpt lat="62.639473090614" lon="17.881565508473">
        <ele>48.2</ele>
        <time>2018-05-04T17:43:00Z</time>
      </trkpt>
      <trkpt lat="62.639485663464" lon="17.881661229771">
        <ele>48.2</ele>
        <time>2018-05-04T17:43:01Z</time>
      </trkpt>
      <trkpt lat="62.639498990685" lon="17.881769523919">
        <ele>48.2</ele>
        <time>2018-05-04T17:43:02Z</time>
      </trkpt>
      <trkpt lat="62.639512401725" lon="17.881866251045">
        <ele>48.4</ele>
        <time>2018-05-04T17:43:03Z</time>
      </trkpt>
      <trkpt lat="62.639528494973" lon="17.881964654551">
        <ele>48.6</ele>
        <time>2018-05-04T17:43:04Z</time>
      </trkpt>
      <trkpt lat="62.639546599877" lon="17.882065824084">
        <ele>48.6</ele>
        <time>2018-05-04T17:43:05Z</time>
      </trkpt>
      <trkpt lat="62.639564034229" lon="17.882157689708">
        <ele>48.8</ele>
        <time>2018-05-04T17:43:06Z</time>
      </trkpt>
      <trkpt lat="62.639584486065" lon="17.882263720743">
        <ele>49</ele>
        <time>2018-05-04T17:43:07Z</time>
      </trkpt>
      <trkpt lat="62.639602590969" lon="17.882358771489">
        <ele>49</ele>
        <time>2018-05-04T17:43:08Z</time>
      </trkpt>
      <trkpt lat="62.63962430009" lon="17.882458599918">
        <ele>49.2</ele>
        <time>2018-05-04T17:43:09Z</time>
      </trkpt>
      <trkpt lat="62.639647601772" lon="17.882553063931">
        <ele>49.4</ele>
        <time>2018-05-04T17:43:10Z</time>
      </trkpt>
      <trkpt lat="62.639669981445" lon="17.882648114677">
        <ele>49.4</ele>
        <time>2018-05-04T17:43:11Z</time>
      </trkpt>
      <trkpt lat="62.639694959507" lon="17.882755319178">
        <ele>49.8</ele>
        <time>2018-05-04T17:43:12Z</time>
      </trkpt>
      <trkpt lat="62.639720105207" lon="17.882854644693">
        <ele>49.8</ele>
        <time>2018-05-04T17:43:13Z</time>
      </trkpt>
      <trkpt lat="62.639747849296" lon="17.882955981864">
        <ele>49.8</ele>
        <time>2018-05-04T17:43:14Z</time>
      </trkpt>
      <trkpt lat="62.639775258109" lon="17.883055810293">
        <ele>49.8</ele>
        <time>2018-05-04T17:43:15Z</time>
      </trkpt>
      <trkpt lat="62.639800906723" lon="17.883149687573">
        <ele>49.8</ele>
        <time>2018-05-04T17:43:16Z</time>
      </trkpt>
      <trkpt lat="62.63983384759" lon="17.883260999205">
        <ele>49.8</ele>
        <time>2018-05-04T17:43:17Z</time>
      </trkpt>
      <trkpt lat="62.639861926955" lon="17.883348087146">
        <ele>49.6</ele>
        <time>2018-05-04T17:43:18Z</time>
      </trkpt>
      <trkpt lat="62.639901070428" lon="17.883466104298">
        <ele>49.8</ele>
        <time>2018-05-04T17:43:19Z</time>
      </trkpt>
      <trkpt lat="62.63993526858" lon="17.883563082881">
        <ele>49.8</ele>
        <time>2018-05-04T17:43:20Z</time>
      </trkpt>
      <trkpt lat="62.639970388741" lon="17.883657630713">
        <ele>49.8</ele>
        <time>2018-05-04T17:43:21Z</time>
      </trkpt>
      <trkpt lat="62.640007604377" lon="17.883759889893">
        <ele>49.8</ele>
        <time>2018-05-04T17:43:22Z</time>
      </trkpt>
      <trkpt lat="62.640044903832" lon="17.883860305055">
        <ele>49.8</ele>
        <time>2018-05-04T17:43:23Z</time>
      </trkpt>
      <trkpt lat="62.640085639866" lon="17.883960217303">
        <ele>50</ele>
        <time>2018-05-04T17:43:24Z</time>
      </trkpt>
      <trkpt lat="62.640127297909" lon="17.884056692972">
        <ele>50</ele>
        <time>2018-05-04T17:43:25Z</time>
      </trkpt>
      <trkpt lat="62.640165854649" lon="17.884147301311">
        <ele>50</ele>
        <time>2018-05-04T17:43:26Z</time>
      </trkpt>
      <trkpt lat="62.640210949271" lon="17.884249225215">
        <ele>50</ele>
        <time>2018-05-04T17:43:27Z</time>
      </trkpt>
      <trkpt lat="62.640255876255" lon="17.884343605409">
        <ele>50</ele>
        <time>2018-05-04T17:43:28Z</time>
      </trkpt>
      <trkpt lat="62.640303150171" lon="17.884436979775">
        <ele>50</ele>
        <time>2018-05-04T17:43:29Z</time>
      </trkpt>
      <trkpt lat="62.64035184901" lon="17.88452540882">
        <ele>49.8</ele>
        <time>2018-05-04T17:43:30Z</time>
      </trkpt>
      <trkpt lat="62.640401050763" lon="17.884608305811">
        <ele>49.8</ele>
        <time>2018-05-04T17:43:31Z</time>
      </trkpt>
      <trkpt lat="62.640457880045" lon="17.884700841987">
        <ele>49.8</ele>
        <time>2018-05-04T17:43:32Z</time>
      </trkpt>
      <trkpt lat="62.640512613852" lon="17.884787343195">
        <ele>49.8</ele>
        <time>2018-05-04T17:43:33Z</time>
      </trkpt>
      <trkpt lat="62.640567599116" lon="17.884872503299">
        <ele>49.6</ele>
        <time>2018-05-04T17:43:34Z</time>
      </trkpt>
      <trkpt lat="62.640628200253" lon="17.884962357267">
        <ele>49.6</ele>
        <time>2018-05-04T17:43:35Z</time>
      </trkpt>
      <trkpt lat="62.640683604612" lon="17.885039973661">
        <ele>49.2</ele>
        <time>2018-05-04T17:43:36Z</time>
      </trkpt>
      <trkpt lat="62.640750240717" lon="17.88512722924">
        <ele>49.2</ele>
        <time>2018-05-04T17:43:37Z</time>
      </trkpt>
      <trkpt lat="62.640811344768" lon="17.885204677996">
        <ele>49</ele>
        <time>2018-05-04T17:43:38Z</time>
      </trkpt>
      <trkpt lat="62.640877226502" lon="17.885286652978">
        <ele>48.8</ele>
        <time>2018-05-04T17:43:39Z</time>
      </trkpt>
      <trkpt lat="62.640941180399" lon="17.885367622132">
        <ele>48.6</ele>
        <time>2018-05-04T17:43:40Z</time>
      </trkpt>
      <trkpt lat="62.641003457916" lon="17.885447082544">
        <ele>48.2</ele>
        <time>2018-05-04T17:43:41Z</time>
      </trkpt>
      <trkpt lat="62.641072860048" lon="17.885533667571">
        <ele>47.8</ele>
        <time>2018-05-04T17:43:42Z</time>
      </trkpt>
      <trkpt lat="62.641137735954" lon="17.885615223458">
        <ele>47.4</ele>
        <time>2018-05-04T17:43:43Z</time>
      </trkpt>
      <trkpt lat="62.641202947136" lon="17.885700132105">
        <ele>47</ele>
        <time>2018-05-04T17:43:44Z</time>
      </trkpt>
      <trkpt lat="62.641266649576" lon="17.885789315521">
        <ele>46.6</ele>
        <time>2018-05-04T17:43:45Z</time>
      </trkpt>
      <trkpt lat="62.641326580161" lon="17.885876654919">
        <ele>46.4</ele>
        <time>2018-05-04T17:43:46Z</time>
      </trkpt>
      <trkpt lat="62.641398832139" lon="17.885985116705">
        <ele>46.2</ele>
        <time>2018-05-04T17:43:47Z</time>
      </trkpt>
      <trkpt lat="62.641467647538" lon="17.886093410853">
        <ele>45.6</ele>
        <time>2018-05-04T17:43:48Z</time>
      </trkpt>
      <trkpt lat="62.641531769073" lon="17.886197011137">
        <ele>45.2</ele>
        <time>2018-05-04T17:43:49Z</time>
      </trkpt>
      <trkpt lat="62.641586838156" lon="17.88629398972">
        <ele>45</ele>
        <time>2018-05-04T17:43:50Z</time>
      </trkpt>
      <trkpt lat="62.641642242515" lon="17.886399350203">
        <ele>44.6</ele>
        <time>2018-05-04T17:43:51Z</time>
      </trkpt>
      <trkpt lat="62.641702508376" lon="17.886521558305">
        <ele>44.4</ele>
        <time>2018-05-04T17:43:52Z</time>
      </trkpt>
      <trkpt lat="62.64175917002" lon="17.886643263493">
        <ele>44</ele>
        <time>2018-05-04T17:43:53Z</time>
      </trkpt>
      <trkpt lat="62.641815831664" lon="17.886777876807">
        <ele>43.6</ele>
        <time>2018-05-04T17:43:54Z</time>
      </trkpt>
      <trkpt lat="62.641874253507" lon="17.886923554229">
        <ele>43.4</ele>
        <time>2018-05-04T17:43:55Z</time>
      </trkpt>
      <trkpt lat="62.64191926431" lon="17.887042828666">
        <ele>43.4</ele>
        <time>2018-05-04T17:43:56Z</time>
      </trkpt>
      <trkpt lat="62.641970058624" lon="17.887185069509">
        <ele>43.2</ele>
        <time>2018-05-04T17:43:57Z</time>
      </trkpt>
      <trkpt lat="62.642013476866" lon="17.887317084434">
        <ele>43</ele>
        <time>2018-05-04T17:43:58Z</time>
      </trkpt>
      <trkpt lat="62.642058236212" lon="17.887462761856">
        <ele>43.2</ele>
        <time>2018-05-04T17:43:59Z</time>
      </trkpt>
      <trkpt lat="62.642103414653" lon="17.887616737359">
        <ele>43</ele>
        <time>2018-05-04T17:44:00Z</time>
      </trkpt>
      <trkpt lat="62.642137864262" lon="17.887740202746">
        <ele>43</ele>
        <time>2018-05-04T17:44:01Z</time>
      </trkpt>
      <trkpt lat="62.642173990251" lon="17.887875402793">
        <ele>42.8</ele>
        <time>2018-05-04T17:44:02Z</time>
      </trkpt>
      <trkpt lat="62.642209613326" lon="17.888016553989">
        <ele>42.6</ele>
        <time>2018-05-04T17:44:03Z</time>
      </trkpt>
      <trkpt lat="62.642240793994" lon="17.888151921674">
        <ele>42.6</ele>
        <time>2018-05-04T17:44:04Z</time>
      </trkpt>
      <trkpt lat="62.642270968834" lon="17.888297180001">
        <ele>42.4</ele>
        <time>2018-05-04T17:44:05Z</time>
      </trkpt>
      <trkpt lat="62.642296114534" lon="17.888425339252">
        <ele>42.4</ele>
        <time>2018-05-04T17:44:06Z</time>
      </trkpt>
      <trkpt lat="62.642323439528" lon="17.88857135195">
        <ele>42.4</ele>
        <time>2018-05-04T17:44:07Z</time>
      </trkpt>
      <trkpt lat="62.642345567744" lon="17.888700936124">
        <ele>42.2</ele>
        <time>2018-05-04T17:44:08Z</time>
      </trkpt>
      <trkpt lat="62.642367444503" lon="17.888834208334">
        <ele>42</ele>
        <time>2018-05-04T17:44:09Z</time>
      </trkpt>
      <trkpt lat="62.64238865071" lon="17.888958344273">
        <ele>41.8</ele>
        <time>2018-05-04T17:44:10Z</time>
      </trkpt>
      <trkpt lat="62.642408934908" lon="17.889078037805">
        <ele>41.6</ele>
        <time>2018-05-04T17:44:11Z</time>
      </trkpt>
      <trkpt lat="62.642430644029" lon="17.889213740766">
        <ele>41.4</ele>
        <time>2018-05-04T17:44:12Z</time>
      </trkpt>
      <trkpt lat="62.642448916571" lon="17.889327818425">
        <ele>41.4</ele>
        <time>2018-05-04T17:44:13Z</time>
      </trkpt>
      <trkpt lat="62.642465931828" lon="17.889431167252">
        <ele>41.4</ele>
        <time>2018-05-04T17:44:14Z</time>
      </trkpt>
      <trkpt lat="62.642483198542" lon="17.889538371753">
        <ele>41.6</ele>
        <time>2018-05-04T17:44:15Z</time>
      </trkpt>
      <trkpt lat="62.642501471084" lon="17.889650437756">
        <ele>41.8</ele>
        <time>2018-05-04T17:44:16Z</time>
      </trkpt>
      <trkpt lat="62.642517983427" lon="17.889779267559">
        <ele>42</ele>
        <time>2018-05-04T17:44:17Z</time>
      </trkpt>
      <trkpt lat="62.642534160494" lon="17.889895189236">
        <ele>42.2</ele>
        <time>2018-05-04T17:44:18Z</time>
      </trkpt>
      <trkpt lat="62.64254958319" lon="17.890003315746">
        <ele>42.4</ele>
        <time>2018-05-04T17:44:19Z</time>
      </trkpt>
      <trkpt lat="62.642566933723" lon="17.890130720626">
        <ele>42.8</ele>
        <time>2018-05-04T17:44:20Z</time>
      </trkpt>
      <trkpt lat="62.642580763858" lon="17.890231051969">
        <ele>43.2</ele>
        <time>2018-05-04T17:44:21Z</time>
      </trkpt>
      <trkpt lat="62.642599204038" lon="17.890362396342">
        <ele>43.4</ele>
        <time>2018-05-04T17:44:22Z</time>
      </trkpt>
      <trkpt lat="62.642616135476" lon="17.890487035195">
        <ele>43.6</ele>
        <time>2018-05-04T17:44:23Z</time>
      </trkpt>
      <trkpt lat="62.642632731638" lon="17.89061150641">
        <ele>44</ele>
        <time>2018-05-04T17:44:24Z</time>
      </trkpt>
      <trkpt lat="62.642650501266" lon="17.890748466656">
        <ele>44.2</ele>
        <time>2018-05-04T17:44:25Z</time>
      </trkpt>
      <trkpt lat="62.64266357703" lon="17.8908554197">
        <ele>44.2</ele>
        <time>2018-05-04T17:44:26Z</time>
      </trkpt>
      <trkpt lat="62.642680676106" lon="17.89099288286">
        <ele>44.4</ele>
        <time>2018-05-04T17:44:27Z</time>
      </trkpt>
      <trkpt lat="62.642697775182" lon="17.891121209749">
        <ele>44.8</ele>
        <time>2018-05-04T17:44:28Z</time>
      </trkpt>
      <trkpt lat="62.64271470662" lon="17.891257247986">
        <ele>44.8</ele>
        <time>2018-05-04T17:44:29Z</time>
      </trkpt>
      <trkpt lat="62.642729291126" lon="17.891389765825">
        <ele>45</ele>
        <time>2018-05-04T17:44:30Z</time>
      </trkpt>
      <trkpt lat="62.64274404327" lon="17.891516081058">
        <ele>45</ele>
        <time>2018-05-04T17:44:31Z</time>
      </trkpt>
      <trkpt lat="62.642761309984" lon="17.891660249738">
        <ele>45</ele>
        <time>2018-05-04T17:44:32Z</time>
      </trkpt>
      <trkpt lat="62.64277673268" lon="17.891793438129">
        <ele>45</ele>
        <time>2018-05-04T17:44:33Z</time>
      </trkpt>
      <trkpt lat="62.642792155376" lon="17.891931739479">
        <ele>45</ele>
        <time>2018-05-04T17:44:34Z</time>
      </trkpt>
      <trkpt lat="62.642810092642" lon="17.89208672081">
        <ele>45</ele>
        <time>2018-05-04T17:44:35Z</time>
      </trkpt>
      <trkpt lat="62.642823755139" lon="17.892198283899">
        <ele>45</ele>
        <time>2018-05-04T17:44:36Z</time>
      </trkpt>
      <trkpt lat="62.642843201147" lon="17.892361311854">
        <ele>45</ele>
        <time>2018-05-04T17:44:37Z</time>
      </trkpt>
      <trkpt lat="62.642857869472" lon="17.892482681766">
        <ele>45</ele>
        <time>2018-05-04T17:44:38Z</time>
      </trkpt>
      <trkpt lat="62.642875555281" lon="17.892631460491">
        <ele>45</ele>
        <time>2018-05-04T17:44:39Z</time>
      </trkpt>
      <trkpt lat="62.642891313253" lon="17.892772444049">
        <ele>45</ele>
        <time>2018-05-04T17:44:40Z</time>
      </trkpt>
      <trkpt lat="62.642907574139" lon="17.892917953833">
        <ele>45</ele>
        <time>2018-05-04T17:44:41Z</time>
      </trkpt>
      <trkpt lat="62.642919308799" lon="17.893073773354">
        <ele>45</ele>
        <time>2018-05-04T17:44:42Z</time>
      </trkpt>
      <trkpt lat="62.642935821142" lon="17.893223641726">
        <ele>44.8</ele>
        <time>2018-05-04T17:44:43Z</time>
      </trkpt>
      <trkpt lat="62.642952584942" lon="17.893375186478">
        <ele>44.6</ele>
        <time>2018-05-04T17:44:44Z</time>
      </trkpt>
      <trkpt lat="62.642968007638" lon="17.893526060678">
        <ele>44.6</ele>
        <time>2018-05-04T17:44:45Z</time>
      </trkpt>
      <trkpt lat="62.642982340687" lon="17.893665786951">
        <ele>44.4</ele>
        <time>2018-05-04T17:44:46Z</time>
      </trkpt>
      <trkpt lat="62.642999104487" lon="17.893833676408">
        <ele>44.4</ele>
        <time>2018-05-04T17:44:47Z</time>
      </trkpt>
      <trkpt lat="62.64301310226" lon="17.893989160653">
        <ele>44.4</ele>
        <time>2018-05-04T17:44:48Z</time>
      </trkpt>
      <trkpt lat="62.643025842748" lon="17.894146740373">
        <ele>44.4</ele>
        <time>2018-05-04T17:44:49Z</time>
      </trkpt>
      <trkpt lat="62.643040175797" lon="17.894318904599">
        <ele>44.4</ele>
        <time>2018-05-04T17:44:50Z</time>
      </trkpt>
      <trkpt lat="62.643052748647" lon="17.89444957842">
        <ele>44.4</ele>
        <time>2018-05-04T17:44:51Z</time>
      </trkpt>
      <trkpt lat="62.643067919886" lon="17.894616210592">
        <ele>44.4</ele>
        <time>2018-05-04T17:44:52Z</time>
      </trkpt>
      <trkpt lat="62.643080660374" lon="17.894779992918">
        <ele>44.4</ele>
        <time>2018-05-04T17:44:53Z</time>
      </trkpt>
      <trkpt lat="62.643092897948" lon="17.894947211823">
        <ele>44.4</ele>
        <time>2018-05-04T17:44:54Z</time>
      </trkpt>
      <trkpt lat="62.643104045875" lon="17.89511426309">
        <ele>44.4</ele>
        <time>2018-05-04T17:44:55Z</time>
      </trkpt>
      <trkpt lat="62.64311368506" lon="17.895271591353">
        <ele>44.2</ele>
        <time>2018-05-04T17:44:56Z</time>
      </trkpt>
      <trkpt lat="62.643123659521" lon="17.895453478583">
        <ele>44.2</ele>
        <time>2018-05-04T17:44:57Z</time>
      </trkpt>
      <trkpt lat="62.643131119412" lon="17.895622290049">
        <ele>44</ele>
        <time>2018-05-04T17:44:58Z</time>
      </trkpt>
      <trkpt lat="62.643137741113" lon="17.895798309949">
        <ele>44</ele>
        <time>2018-05-04T17:44:59Z</time>
      </trkpt>
      <trkpt lat="62.643143776081" lon="17.895969635985">
        <ele>43.6</ele>
        <time>2018-05-04T17:45:00Z</time>
      </trkpt>
      <trkpt lat="62.643147547936" lon="17.896134172682">
        <ele>43.4</ele>
        <time>2018-05-04T17:45:01Z</time>
      </trkpt>
      <trkpt lat="62.643151235972" lon="17.89632209488">
        <ele>43</ele>
        <time>2018-05-04T17:45:02Z</time>
      </trkpt>
      <trkpt lat="62.643152996171" lon="17.896472885261">
        <ele>42.8</ele>
        <time>2018-05-04T17:45:03Z</time>
      </trkpt>
      <trkpt lat="62.643153499085" lon="17.896640942356">
        <ele>42.6</ele>
        <time>2018-05-04T17:45:04Z</time>
      </trkpt>
      <trkpt lat="62.64315391818" lon="17.896822997224">
        <ele>42.6</ele>
        <time>2018-05-04T17:45:05Z</time>
      </trkpt>
      <trkpt lat="62.643154169637" lon="17.896968171732">
        <ele>42.4</ele>
        <time>2018-05-04T17:45:06Z</time>
      </trkpt>
      <trkpt lat="62.643153750542" lon="17.897150645695">
        <ele>42.4</ele>
        <time>2018-05-04T17:45:07Z</time>
      </trkpt>
      <trkpt lat="62.643151655067" lon="17.897293808547">
        <ele>42.4</ele>
        <time>2018-05-04T17:45:08Z</time>
      </trkpt>
      <trkpt lat="62.643147045022" lon="17.897455579217">
        <ele>42.4</ele>
        <time>2018-05-04T17:45:09Z</time>
      </trkpt>
      <trkpt lat="62.643142518796" lon="17.897609387082">
        <ele>42.4</ele>
        <time>2018-05-04T17:45:10Z</time>
      </trkpt>
      <trkpt lat="62.643138327846" lon="17.897761770024">
        <ele>42.2</ele>
        <time>2018-05-04T17:45:11Z</time>
      </trkpt>
      <trkpt lat="62.64313296343" lon="17.897918763011">
        <ele>42</ele>
        <time>2018-05-04T17:45:12Z</time>
      </trkpt>
      <trkpt lat="62.643126593186" lon="17.898074079618">
        <ele>41.8</ele>
        <time>2018-05-04T17:45:13Z</time>
      </trkpt>
      <trkpt lat="62.643121731684" lon="17.898227636026">
        <ele>41.8</ele>
        <time>2018-05-04T17:45:14Z</time>
      </trkpt>
      <trkpt lat="62.643117792191" lon="17.898378342588">
        <ele>41.8</ele>
        <time>2018-05-04T17:45:15Z</time>
      </trkpt>
      <trkpt lat="62.643114439431" lon="17.898532821005">
        <ele>41.6</ele>
        <time>2018-05-04T17:45:16Z</time>
      </trkpt>
      <trkpt lat="62.643110080843" lon="17.898686377413">
        <ele>41.6</ele>
        <time>2018-05-04T17:45:17Z</time>
      </trkpt>
      <trkpt lat="62.643106057531" lon="17.898836078147">
        <ele>41.6</ele>
        <time>2018-05-04T17:45:18Z</time>
      </trkpt>
      <trkpt lat="62.643100357839" lon="17.898986784709">
        <ele>41.8</ele>
        <time>2018-05-04T17:45:19Z</time>
      </trkpt>
      <trkpt lat="62.643093065586" lon="17.89913589871">
        <ele>41.8</ele>
        <time>2018-05-04T17:45:20Z</time>
      </trkpt>
      <trkpt lat="62.643087030618" lon="17.899275960259">
        <ele>41.8</ele>
        <time>2018-05-04T17:45:21Z</time>
      </trkpt>
      <trkpt lat="62.64308267203" lon="17.899431947418">
        <ele>41.8</ele>
        <time>2018-05-04T17:45:22Z</time>
      </trkpt>
      <trkpt lat="62.643078732537" lon="17.899581229057">
        <ele>41.8</ele>
        <time>2018-05-04T17:45:23Z</time>
      </trkpt>
      <trkpt lat="62.643074038673" lon="17.899735623655">
        <ele>41.8</ele>
        <time>2018-05-04T17:45:24Z</time>
      </trkpt>
      <trkpt lat="62.64306926099" lon="17.899883061276">
        <ele>41.8</ele>
        <time>2018-05-04T17:45:25Z</time>
      </trkpt>
      <trkpt lat="62.643064902402" lon="17.900022452273">
        <ele>41.6</ele>
        <time>2018-05-04T17:45:26Z</time>
      </trkpt>
      <trkpt lat="62.643059454167" lon="17.900178439432">
        <ele>41.4</ele>
        <time>2018-05-04T17:45:27Z</time>
      </trkpt>
      <trkpt lat="62.643053838294" lon="17.900326547605">
        <ele>41.4</ele>
        <time>2018-05-04T17:45:28Z</time>
      </trkpt>
      <trkpt lat="62.643048809154" lon="17.900482115669">
        <ele>41.6</ele>
        <time>2018-05-04T17:45:29Z</time>
      </trkpt>
      <trkpt lat="62.643044450566" lon="17.900634079516">
        <ele>41.8</ele>
        <time>2018-05-04T17:45:30Z</time>
      </trkpt>
      <trkpt lat="62.643039002331" lon="17.900777326187">
        <ele>42</ele>
        <time>2018-05-04T17:45:31Z</time>
      </trkpt>
      <trkpt lat="62.643032045354" lon="17.900941862884">
        <ele>42.2</ele>
        <time>2018-05-04T17:45:32Z</time>
      </trkpt>
      <trkpt lat="62.643027100033" lon="17.901096006025">
        <ele>42.4</ele>
        <time>2018-05-04T17:45:33Z</time>
      </trkpt>
      <trkpt lat="62.643023831092" lon="17.901248556605">
        <ele>42.4</ele>
        <time>2018-05-04T17:45:34Z</time>
      </trkpt>
      <trkpt lat="62.643019556323" lon="17.901407980343">
        <ele>42.4</ele>
        <time>2018-05-04T17:45:35Z</time>
      </trkpt>
      <trkpt lat="62.643015197735" lon="17.901554412136">
        <ele>42.4</ele>
        <time>2018-05-04T17:45:36Z</time>
      </trkpt>
      <trkpt lat="62.643010168595" lon="17.901722469231">
        <ele>42.2</ele>
        <time>2018-05-04T17:45:37Z</time>
      </trkpt>
      <trkpt lat="62.643006229102" lon="17.901872840517">
        <ele>42.2</ele>
        <time>2018-05-04T17:45:38Z</time>
      </trkpt>
      <trkpt lat="62.643002624885" lon="17.902035030282">
        <ele>42.4</ele>
        <time>2018-05-04T17:45:39Z</time>
      </trkpt>
      <trkpt lat="62.642997931021" lon="17.902186742672">
        <ele>42.6</ele>
        <time>2018-05-04T17:45:40Z</time>
      </trkpt>
      <trkpt lat="62.642992734243" lon="17.902336191949">
        <ele>42.6</ele>
        <time>2018-05-04T17:45:41Z</time>
      </trkpt>
      <trkpt lat="62.642987537465" lon="17.902496789153">
        <ele>42.8</ele>
        <time>2018-05-04T17:45:42Z</time>
      </trkpt>
      <trkpt lat="62.64298292742" lon="17.902647663353">
        <ele>42.8</ele>
        <time>2018-05-04T17:45:43Z</time>
      </trkpt>
      <trkpt lat="62.642980831945" lon="17.902795939164">
        <ele>42.8</ele>
        <time>2018-05-04T17:45:44Z</time>
      </trkpt>
      <trkpt lat="62.642981502497" lon="17.902943376785">
        <ele>42.8</ele>
        <time>2018-05-04T17:45:45Z</time>
      </trkpt>
      <trkpt lat="62.642982508325" lon="17.903079079746">
        <ele>42.6</ele>
        <time>2018-05-04T17:45:46Z</time>
      </trkpt>
      <trkpt lat="62.642984268524" lon="17.903248310307">
        <ele>42.6</ele>
        <time>2018-05-04T17:45:47Z</time>
      </trkpt>
      <trkpt lat="62.642988459474" lon="17.903396753756">
        <ele>42.6</ele>
        <time>2018-05-04T17:45:48Z</time>
      </trkpt>
      <trkpt lat="62.642996422279" lon="17.903546705947">
        <ele>42.6</ele>
        <time>2018-05-04T17:45:49Z</time>
      </trkpt>
      <trkpt lat="62.643008576034" lon="17.903697999242">
        <ele>42.6</ele>
        <time>2018-05-04T17:45:50Z</time>
      </trkpt>
      <trkpt lat="62.643022992902" lon="17.903833702203">
        <ele>42.6</ele>
        <time>2018-05-04T17:45:51Z</time>
      </trkpt>
      <trkpt lat="62.64304076253" lon="17.903987258611">
        <ele>42.6</ele>
        <time>2018-05-04T17:45:52Z</time>
      </trkpt>
      <trkpt lat="62.643058615977" lon="17.9041323493">
        <ele>42.8</ele>
        <time>2018-05-04T17:45:53Z</time>
      </trkpt>
      <trkpt lat="62.643080073641" lon="17.904276853256">
        <ele>42.8</ele>
        <time>2018-05-04T17:45:54Z</time>
      </trkpt>
      <trkpt lat="62.643104213513" lon="17.904414903149">
        <ele>42.8</ele>
        <time>2018-05-04T17:45:55Z</time>
      </trkpt>
      <trkpt lat="62.643128353385" lon="17.904541805115">
        <ele>43</ele>
        <time>2018-05-04T17:45:56Z</time>
      </trkpt>
      <trkpt lat="62.643158528225" lon="17.904682956311">
        <ele>43</ele>
        <time>2018-05-04T17:45:57Z</time>
      </trkpt>
      <trkpt lat="62.64318912216" lon="17.904809942096">
        <ele>43</ele>
        <time>2018-05-04T17:45:58Z</time>
      </trkpt>
      <trkpt lat="62.643223404131" lon="17.904939023356">
        <ele>43</ele>
        <time>2018-05-04T17:45:59Z</time>
      </trkpt>
      <trkpt lat="62.643257686102" lon="17.905059471259">
        <ele>43</ele>
        <time>2018-05-04T17:46:00Z</time>
      </trkpt>
      <trkpt lat="62.643291884254" lon="17.905173884194">
        <ele>42.8</ele>
        <time>2018-05-04T17:46:01Z</time>
      </trkpt>
      <trkpt lat="62.643332536469" lon="17.905302211083">
        <ele>42.6</ele>
        <time>2018-05-04T17:46:02Z</time>
      </trkpt>
      <trkpt lat="62.643371763761" lon="17.905420228235">
        <ele>42.6</ele>
        <time>2018-05-04T17:46:03Z</time>
      </trkpt>
      <trkpt lat="62.643411410148" lon="17.90553547936">
        <ele>42.6</ele>
        <time>2018-05-04T17:46:04Z</time>
      </trkpt>
      <trkpt lat="62.643458767883" lon="17.905670092674">
        <ele>42.4</ele>
        <time>2018-05-04T17:46:05Z</time>
      </trkpt>
      <trkpt lat="62.643495480605" lon="17.90577436351">
        <ele>42.6</ele>
        <time>2018-05-04T17:46:06Z</time>
      </trkpt>
      <trkpt lat="62.643541413417" lon="17.905906378435">
        <ele>42.8</ele>
        <time>2018-05-04T17:46:07Z</time>
      </trkpt>
      <trkpt lat="62.643578796691" lon="17.906013582936">
        <ele>42.8</ele>
        <time>2018-05-04T17:46:08Z</time>
      </trkpt>
      <trkpt lat="62.643620538553" lon="17.906134198477">
        <ele>42.8</ele>
        <time>2018-05-04T17:46:09Z</time>
      </trkpt>
      <trkpt lat="62.643663705338" lon="17.906246767394">
        <ele>42.8</ele>
        <time>2018-05-04T17:46:10Z</time>
      </trkpt>
      <trkpt lat="62.64370628539" lon="17.906361515605">
        <ele>42.8</ele>
        <time>2018-05-04T17:46:11Z</time>
      </trkpt>
      <trkpt lat="62.643752218202" lon="17.906488836666">
        <ele>43</ele>
        <time>2018-05-04T17:46:12Z</time>
      </trkpt>
      <trkpt lat="62.643795468806" lon="17.906611547682">
        <ele>43</ele>
        <time>2018-05-04T17:46:13Z</time>
      </trkpt>
      <trkpt lat="62.643837629763" lon="17.906736018897">
        <ele>43</ele>
        <time>2018-05-04T17:46:14Z</time>
      </trkpt>
      <trkpt lat="62.643880796548" lon="17.906857137352">
        <ele>43.2</ele>
        <time>2018-05-04T17:46:15Z</time>
      </trkpt>
      <trkpt lat="62.643925136799" lon="17.906975405961">
        <ele>43</ele>
        <time>2018-05-04T17:46:16Z</time>
      </trkpt>
      <trkpt lat="62.643977691312" lon="17.90712217303">
        <ele>42.8</ele>
        <time>2018-05-04T17:46:17Z</time>
      </trkpt>
      <trkpt lat="62.644015493681" lon="17.907231640644">
        <ele>42.4</ele>
        <time>2018-05-04T17:46:18Z</time>
      </trkpt>
      <trkpt lat="62.644066874728" lon="17.907373965306">
        <ele>42.2</ele>
        <time>2018-05-04T17:46:19Z</time>
      </trkpt>
      <trkpt lat="62.644112723721" lon="17.907500699634">
        <ele>41.8</ele>
        <time>2018-05-04T17:46:20Z</time>
      </trkpt>
      <trkpt lat="62.64415136428" lon="17.907609077601">
        <ele>41.2</ele>
        <time>2018-05-04T17:46:21Z</time>
      </trkpt>
      <trkpt lat="62.644196123626" lon="17.907740002879">
        <ele>41</ele>
        <time>2018-05-04T17:46:22Z</time>
      </trkpt>
      <trkpt lat="62.644246834121" lon="17.90790168973">
        <ele>40.8</ele>
        <time>2018-05-04T17:46:23Z</time>
      </trkpt>
      <trkpt lat="62.644287905431" lon="17.908052983025">
        <ele>40.6</ele>
        <time>2018-05-04T17:46:24Z</time>
      </trkpt>
      <trkpt lat="62.644314140778" lon="17.908188015434">
        <ele>40.8</ele>
        <time>2018-05-04T17:46:25Z</time>
      </trkpt>
      <trkpt lat="62.644339705573" lon="17.908333106123">
        <ele>40.8</ele>
        <time>2018-05-04T17:46:26Z</time>
      </trkpt>
      <trkpt lat="62.644362755798" lon="17.908490769662">
        <ele>40.8</ele>
        <time>2018-05-04T17:46:27Z</time>
      </trkpt>
      <trkpt lat="62.6443759992" lon="17.90861750399">
        <ele>40.8</ele>
        <time>2018-05-04T17:46:28Z</time>
      </trkpt>
      <trkpt lat="62.644385889842" lon="17.908774999891">
        <ele>41</ele>
        <time>2018-05-04T17:46:29Z</time>
      </trkpt>
      <trkpt lat="62.644389242602" lon="17.908901147486">
        <ele>41</ele>
        <time>2018-05-04T17:46:30Z</time>
      </trkpt>
      <trkpt lat="62.64438941024" lon="17.90903240804">
        <ele>41.2</ele>
        <time>2018-05-04T17:46:31Z</time>
      </trkpt>
      <trkpt lat="62.644384716376" lon="17.909172553408">
        <ele>41.6</ele>
        <time>2018-05-04T17:46:32Z</time>
      </trkpt>
      <trkpt lat="62.644377591761" lon="17.90927715952">
        <ele>41.8</ele>
        <time>2018-05-04T17:46:33Z</time>
      </trkpt>
      <trkpt lat="62.644365689463" lon="17.909394589939">
        <ele>42</ele>
        <time>2018-05-04T17:46:34Z</time>
      </trkpt>
      <trkpt lat="62.644349009482" lon="17.909510846892">
        <ele>42.4</ele>
        <time>2018-05-04T17:46:35Z</time>
      </trkpt>
      <trkpt lat="62.644329479655" lon="17.909611681149">
        <ele>42.6</ele>
        <time>2018-05-04T17:46:36Z</time>
      </trkpt>
      <trkpt lat="62.644305339783" lon="17.90972223841">
        <ele>42.8</ele>
        <time>2018-05-04T17:46:37Z</time>
      </trkpt>
      <trkpt lat="62.644280696997" lon="17.909819216993">
        <ele>43</ele>
        <time>2018-05-04T17:46:38Z</time>
      </trkpt>
      <trkpt lat="62.644248761958" lon="17.909931450634">
        <ele>43.4</ele>
        <time>2018-05-04T17:46:39Z</time>
      </trkpt>
      <trkpt lat="62.644217916566" lon="17.910026417561">
        <ele>43.8</ele>
        <time>2018-05-04T17:46:40Z</time>
      </trkpt>
      <trkpt lat="62.644187993183" lon="17.910113086407">
        <ele>44</ele>
        <time>2018-05-04T17:46:41Z</time>
      </trkpt>
      <trkpt lat="62.644148514434" lon="17.910217692519">
        <ele>44</ele>
        <time>2018-05-04T17:46:42Z</time>
      </trkpt>
      <trkpt lat="62.644114400101" lon="17.910299583682">
        <ele>44.2</ele>
        <time>2018-05-04T17:46:43Z</time>
      </trkpt>
      <trkpt lat="62.644070730402" lon="17.910398825378">
        <ele>44.2</ele>
        <time>2018-05-04T17:46:44Z</time>
      </trkpt>
      <trkpt lat="62.64403317949" lon="17.910480967998">
        <ele>44.2</ele>
        <time>2018-05-04T17:46:45Z</time>
      </trkpt>
      <trkpt lat="62.643992443456" lon="17.91056881031">
        <ele>44.4</ele>
        <time>2018-05-04T17:46:46Z</time>
      </trkpt>
      <trkpt lat="62.643943157884" lon="17.910675344259">
        <ele>44.4</ele>
        <time>2018-05-04T17:46:47Z</time>
      </trkpt>
      <trkpt lat="62.643900242556" lon="17.910768634806">
        <ele>44.4</ele>
        <time>2018-05-04T17:46:48Z</time>
      </trkpt>
      <trkpt lat="62.64385548321" lon="17.910861673896">
        <ele>44.4</ele>
        <time>2018-05-04T17:46:49Z</time>
      </trkpt>
      <trkpt lat="62.643808376932" lon="17.91095940685">
        <ele>44.2</ele>
        <time>2018-05-04T17:46:50Z</time>
      </trkpt>
      <trkpt lat="62.643767305622" lon="17.911046075696">
        <ele>44.2</ele>
        <time>2018-05-04T17:46:51Z</time>
      </trkpt>
      <trkpt lat="62.643713661462" lon="17.911160656269">
        <ele>44.2</ele>
        <time>2018-05-04T17:46:52Z</time>
      </trkpt>
      <trkpt lat="62.643660855492" lon="17.911271297349">
        <ele>44</ele>
        <time>2018-05-04T17:46:53Z</time>
      </trkpt>
      <trkpt lat="62.643601427821" lon="17.911394595098">
        <ele>43.8</ele>
        <time>2018-05-04T17:46:54Z</time>
      </trkpt>
      <trkpt lat="62.643547196928" lon="17.911505152359">
        <ele>43.8</ele>
        <time>2018-05-04T17:46:55Z</time>
      </trkpt>
      <trkpt lat="62.64349757608" lon="17.911600538381">
        <ele>43.4</ele>
        <time>2018-05-04T17:46:56Z</time>
      </trkpt>
      <trkpt lat="62.643436723486" lon="17.911712352927">
        <ele>43.2</ele>
        <time>2018-05-04T17:46:57Z</time>
      </trkpt>
      <trkpt lat="62.643377631091" lon="17.91181603703">
        <ele>43</ele>
        <time>2018-05-04T17:46:58Z</time>
      </trkpt>
      <trkpt lat="62.6433114979" lon="17.911932713078">
        <ele>42.6</ele>
        <time>2018-05-04T17:46:59Z</time>
      </trkpt>
      <trkpt lat="62.643248466012" lon="17.912044276167">
        <ele>42.2</ele>
        <time>2018-05-04T17:47:00Z</time>
      </trkpt>
      <trkpt lat="62.643190379445" lon="17.912141422388">
        <ele>41.8</ele>
        <time>2018-05-04T17:47:01Z</time>
      </trkpt>
      <trkpt lat="62.643114020336" lon="17.912265055413">
        <ele>41.4</ele>
        <time>2018-05-04T17:47:02Z</time>
      </trkpt>
      <trkpt lat="62.643051239905" lon="17.912364380928">
        <ele>41.2</ele>
        <time>2018-05-04T17:47:03Z</time>
      </trkpt>
      <trkpt lat="62.642980999583" lon="17.912477452759">
        <ele>40.8</ele>
        <time>2018-05-04T17:47:04Z</time>
      </trkpt>
      <trkpt lat="62.642901371533" lon="17.912606031105">
        <ele>40.6</ele>
        <time>2018-05-04T17:47:05Z</time>
      </trkpt>
      <trkpt lat="62.64283875874" lon="17.912706949181">
        <ele>40.6</ele>
        <time>2018-05-04T17:47:06Z</time>
      </trkpt>
      <trkpt lat="62.642754604464" lon="17.912841646314">
        <ele>40.6</ele>
        <time>2018-05-04T17:47:07Z</time>
      </trkpt>
      <trkpt lat="62.642685453789" lon="17.912949353729">
        <ele>40.6</ele>
        <time>2018-05-04T17:47:08Z</time>
      </trkpt>
      <trkpt lat="62.642607837395" lon="17.913069298718">
        <ele>40.6</ele>
        <time>2018-05-04T17:47:09Z</time>
      </trkpt>
      <trkpt lat="62.64253114301" lon="17.913184717481">
        <ele>40.4</ele>
        <time>2018-05-04T17:47:10Z</time>
      </trkpt>
      <trkpt lat="62.642453945711" lon="17.913300387701">
        <ele>40.4</ele>
        <time>2018-05-04T17:47:11Z</time>
      </trkpt>
      <trkpt lat="62.642370126711" lon="17.91343290554">
        <ele>40</ele>
        <time>2018-05-04T17:47:12Z</time>
      </trkpt>
      <trkpt lat="62.642291588308" lon="17.91356114861">
        <ele>39.8</ele>
        <time>2018-05-04T17:47:13Z</time>
      </trkpt>
      <trkpt lat="62.642207685489" lon="17.913698779408">
        <ele>39.4</ele>
        <time>2018-05-04T17:47:14Z</time>
      </trkpt>
      <trkpt lat="62.642131158742" lon="17.913818221483">
        <ele>38.8</ele>
        <time>2018-05-04T17:47:15Z</time>
      </trkpt>
      <trkpt lat="62.642065444646" lon="17.913916624989">
        <ele>38.2</ele>
        <time>2018-05-04T17:47:16Z</time>
      </trkpt>
      <trkpt lat="62.641974165755" lon="17.914053669054">
        <ele>37.6</ele>
        <time>2018-05-04T17:47:17Z</time>
      </trkpt>
      <trkpt lat="62.641897555189" lon="17.914172272939">
        <ele>37</ele>
        <time>2018-05-04T17:47:18Z</time>
      </trkpt>
      <trkpt lat="62.641820944623" lon="17.914293223756">
        <ele>36.6</ele>
        <time>2018-05-04T17:47:19Z</time>
      </trkpt>
      <trkpt lat="62.641744669333" lon="17.914416521505">
        <ele>36.4</ele>
        <time>2018-05-04T17:47:20Z</time>
      </trkpt>
      <trkpt lat="62.641683146187" lon="17.914521881988">
        <ele>36.2</ele>
        <time>2018-05-04T17:47:21Z</time>
      </trkpt>
      <trkpt lat="62.641606870897" lon="17.914648700135">
        <ele>35.8</ele>
        <time>2018-05-04T17:47:22Z</time>
      </trkpt>
      <trkpt lat="62.641536630575" lon="17.914768058391">
        <ele>35.6</ele>
        <time>2018-05-04T17:47:23Z</time>
      </trkpt>
      <trkpt lat="62.641466222615" lon="17.914892613425">
        <ele>35.6</ele>
        <time>2018-05-04T17:47:24Z</time>
      </trkpt>
      <trkpt lat="62.641390114963" lon="17.915039212856">
        <ele>35.4</ele>
        <time>2018-05-04T17:47:25Z</time>
      </trkpt>
      <trkpt lat="62.641331274025" lon="17.915164773718">
        <ele>35.2</ele>
        <time>2018-05-04T17:47:26Z</time>
      </trkpt>
      <trkpt lat="62.641265727567" lon="17.915314725909">
        <ele>35</ele>
        <time>2018-05-04T17:47:27Z</time>
      </trkpt>
      <trkpt lat="62.641203701507" lon="17.915461995892">
        <ele>34.8</ele>
        <time>2018-05-04T17:47:28Z</time>
      </trkpt>
      <trkpt lat="62.641133796461" lon="17.915629298616">
        <ele>34.6</ele>
        <time>2018-05-04T17:47:29Z</time>
      </trkpt>
      <trkpt lat="62.641072860048" lon="17.915775478952">
        <ele>34.2</ele>
        <time>2018-05-04T17:47:30Z</time>
      </trkpt>
      <trkpt lat="62.641021227544" lon="17.915901207452">
        <ele>33.8</ele>
        <time>2018-05-04T17:47:31Z</time>
      </trkpt>
      <trkpt lat="62.640959369122" lon="17.916051662557">
        <ele>33.4</ele>
        <time>2018-05-04T17:47:32Z</time>
      </trkpt>
      <trkpt lat="62.64091175993" lon="17.916166410768">
        <ele>33</ele>
        <time>2018-05-04T17:47:33Z</time>
      </trkpt>
      <trkpt lat="62.640862139082" lon="17.916287110128">
        <ele>32.4</ele>
        <time>2018-05-04T17:47:34Z</time>
      </trkpt>
      <trkpt lat="62.640810003664" lon="17.916419041234">
        <ele>32</ele>
        <time>2018-05-04T17:47:35Z</time>
      </trkpt>
      <trkpt lat="62.640770524915" lon="17.9165207975">
        <ele>31.6</ele>
        <time>2018-05-04T17:47:36Z</time>
      </trkpt>
      <trkpt lat="62.64072232899" lon="17.916654488805">
        <ele>31</ele>
        <time>2018-05-04T17:47:37Z</time>
      </trkpt>
      <trkpt lat="62.640683353155" lon="17.916762447677">
        <ele>30.8</ele>
        <time>2018-05-04T17:47:38Z</time>
      </trkpt>
      <trkpt lat="62.640638426171" lon="17.916881554476">
        <ele>30.6</ele>
        <time>2018-05-04T17:47:39Z</time>
      </trkpt>
      <trkpt lat="62.640594505015" lon="17.916993871936">
        <ele>30.2</ele>
        <time>2018-05-04T17:47:40Z</time>
      </trkpt>
      <trkpt lat="62.640551841144" lon="17.917100322066">
        <ele>30</ele>
        <time>2018-05-04T17:47:41Z</time>
      </trkpt>
      <trkpt lat="62.640504986323" lon="17.917210124956">
        <ele>29.6</ele>
        <time>2018-05-04T17:47:42Z</time>
      </trkpt>
      <trkpt lat="62.640460562253" lon="17.917283885676">
        <ele>29.6</ele>
        <time>2018-05-04T17:47:43Z</time>
      </trkpt>
      <trkpt lat="62.640411947233" lon="17.917320682217">
        <ele>29.4</ele>
        <time>2018-05-04T17:47:44Z</time>
      </trkpt>
      <trkpt lat="62.640369199543" lon="17.9173254599">
        <ele>29.2</ele>
        <time>2018-05-04T17:47:45Z</time>
      </trkpt>
      <trkpt lat="62.640321757989" lon="17.91732462171">
        <ele>29.2</ele>
        <time>2018-05-04T17:47:46Z</time>
      </trkpt>
      <trkpt lat="62.640272053322" lon="17.917278018346">
        <ele>29.4</ele>
        <time>2018-05-04T17:47:47Z</time>
      </trkpt>
      <trkpt lat="62.640233412763" lon="17.917240048339">
        <ele>29.4</ele>
        <time>2018-05-04T17:47:48Z</time>
      </trkpt>
      <trkpt lat="62.640192089996" lon="17.917193528794">
        <ele>29.6</ele>
        <time>2018-05-04T17:47:49Z</time>
      </trkpt>
      <trkpt lat="62.640149090849" lon="17.917135526046">
        <ele>30</ele>
        <time>2018-05-04T17:47:50Z</time>
      </trkpt>
      <trkpt lat="62.640116652896" lon="17.917082720076">
        <ele>30.4</ele>
        <time>2018-05-04T17:47:51Z</time>
      </trkpt>
      <trkpt lat="62.640078850527" lon="17.917014323772">
        <ele>30.6</ele>
        <time>2018-05-04T17:47:52Z</time>
      </trkpt>
      <trkpt lat="62.640045574384" lon="17.916949364047">
        <ele>31.2</ele>
        <time>2018-05-04T17:47:53Z</time>
      </trkpt>
      <trkpt lat="62.640007269101" lon="17.91687702825">
        <ele>31.4</ele>
        <time>2018-05-04T17:47:54Z</time>
      </trkpt>
      <trkpt lat="62.639968879999" lon="17.916808129032">
        <ele>31.6</ele>
        <time>2018-05-04T17:47:55Z</time>
      </trkpt>
      <trkpt lat="62.639933089286" lon="17.916741073832">
        <ele>32</ele>
        <time>2018-05-04T17:47:56Z</time>
      </trkpt>
      <trkpt lat="62.639893191442" lon="17.916663457438">
        <ele>32.2</ele>
        <time>2018-05-04T17:47:57Z</time>
      </trkpt>
      <trkpt lat="62.639853377417" lon="17.91658869089">
        <ele>32.6</ele>
        <time>2018-05-04T17:47:58Z</time>
      </trkpt>
      <trkpt lat="62.639811887012" lon="17.916507218822">
        <ele>33</ele>
        <time>2018-05-04T17:47:59Z</time>
      </trkpt>
      <trkpt lat="62.639772408263" lon="17.916425662935">
        <ele>33</ele>
        <time>2018-05-04T17:48:00Z</time>
      </trkpt>
      <trkpt lat="62.639735192627" lon="17.916346956894">
        <ele>33.2</ele>
        <time>2018-05-04T17:48:01Z</time>
      </trkpt>
      <trkpt lat="62.639697306439" lon="17.916262551161">
        <ele>33.2</ele>
        <time>2018-05-04T17:48:02Z</time>
      </trkpt>
      <trkpt lat="62.63966453321" lon="17.916178396885">
        <ele>33.2</ele>
        <time>2018-05-04T17:48:03Z</time>
      </trkpt>
      <trkpt lat="62.639635950931" lon="17.916094494066">
        <ele>33.2</ele>
        <time>2018-05-04T17:48:04Z</time>
      </trkpt>
      <trkpt lat="62.639602088055" lon="17.91600195789">
        <ele>33.4</ele>
        <time>2018-05-04T17:48:05Z</time>
      </trkpt>
      <trkpt lat="62.639572248491" lon="17.915941105296">
        <ele>33.4</ele>
        <time>2018-05-04T17:48:06Z</time>
      </trkpt>
      <trkpt lat="62.639525980403" lon="17.915885868575">
        <ele>33.6</ele>
        <time>2018-05-04T17:48:07Z</time>
      </trkpt>
      <trkpt lat="62.63948432236" lon="17.915869020956">
        <ele>33.6</ele>
        <time>2018-05-04T17:48:08Z</time>
      </trkpt>
      <trkpt lat="62.639433695684" lon="17.915877738132">
        <ele>33.8</ele>
        <time>2018-05-04T17:48:09Z</time>
      </trkpt>
      <trkpt lat="62.639381644085" lon="17.915908332067">
        <ele>33.6</ele>
        <time>2018-05-04T17:48:10Z</time>
      </trkpt>
      <trkpt lat="62.639329843943" lon="17.915951331214">
        <ele>33.6</ele>
        <time>2018-05-04T17:48:11Z</time>
      </trkpt>
      <trkpt lat="62.63926723115" lon="17.916003298994">
        <ele>33.2</ele>
        <time>2018-05-04T17:48:12Z</time>
      </trkpt>
      <trkpt lat="62.639209563678" lon="17.916049399444">
        <ele>32.8</ele>
        <time>2018-05-04T17:48:13Z</time>
      </trkpt>
      <trkpt lat="62.639154829871" lon="17.916094074971">
        <ele>32.6</ele>
        <time>2018-05-04T17:48:14Z</time>
      </trkpt>
      <trkpt lat="62.639095653657" lon="17.916140594516">
        <ele>32.2</ele>
        <time>2018-05-04T17:48:15Z</time>
      </trkpt>
      <trkpt lat="62.639036477443" lon="17.916182001102">
        <ele>32</ele>
        <time>2018-05-04T17:48:16Z</time>
      </trkpt>
      <trkpt lat="62.638961627076" lon="17.91623246014">
        <ele>32</ele>
        <time>2018-05-04T17:48:17Z</time>
      </trkpt>
      <trkpt lat="62.638895829161" lon="17.916275794563">
        <ele>32</ele>
        <time>2018-05-04T17:48:18Z</time>
      </trkpt>
      <trkpt lat="62.63882801959" lon="17.91631544095">
        <ele>32</ele>
        <time>2018-05-04T17:48:19Z</time>
      </trkpt>
      <trkpt lat="62.638758617458" lon="17.916355254975">
        <ele>32</ele>
        <time>2018-05-04T17:48:20Z</time>
      </trkpt>
      <trkpt lat="62.638699189787" lon="17.916389620765">
        <ele>32</ele>
        <time>2018-05-04T17:48:21Z</time>
      </trkpt>
      <trkpt lat="62.638625512886" lon="17.916429350971">
        <ele>31.8</ele>
        <time>2018-05-04T17:48:22Z</time>
      </trkpt>
      <trkpt lat="62.63855476965" lon="17.916466482788">
        <ele>31.8</ele>
        <time>2018-05-04T17:48:23Z</time>
      </trkpt>
      <trkpt lat="62.638474806324" lon="17.916509984849">
        <ele>31.8</ele>
        <time>2018-05-04T17:48:24Z</time>
      </trkpt>
      <trkpt lat="62.638405404192" lon="17.916541416974">
        <ele>31.6</ele>
        <time>2018-05-04T17:48:25Z</time>
      </trkpt>
      <trkpt lat="62.638343629589" lon="17.91656773614">
        <ele>31.6</ele>
        <time>2018-05-04T17:48:26Z</time>
      </trkpt>
      <trkpt lat="62.638262660435" lon="17.916602353387">
        <ele>31.6</ele>
        <time>2018-05-04T17:48:27Z</time>
      </trkpt>
      <trkpt lat="62.638196778701" lon="17.916633282598">
        <ele>31.6</ele>
        <time>2018-05-04T17:48:28Z</time>
      </trkpt>
      <trkpt lat="62.638114971357" lon="17.916673683356">
        <ele>31.6</ele>
        <time>2018-05-04T17:48:29Z</time>
      </trkpt>
      <trkpt lat="62.638042132646" lon="17.916708971155">
        <ele>31.4</ele>
        <time>2018-05-04T17:48:30Z</time>
      </trkpt>
      <trkpt lat="62.637976921464" lon="17.916740487099">
        <ele>31.2</ele>
        <time>2018-05-04T17:48:31Z</time>
      </trkpt>
      <trkpt lat="62.637895868491" lon="17.916780133486">
        <ele>31.2</ele>
        <time>2018-05-04T17:48:32Z</time>
      </trkpt>
      <trkpt lat="62.637829902938" lon="17.91681081124">
        <ele>31</ele>
        <time>2018-05-04T17:48:33Z</time>
      </trkpt>
      <trkpt lat="62.637755639304" lon="17.91684182427">
        <ele>30.6</ele>
        <time>2018-05-04T17:48:34Z</time>
      </trkpt>
      <trkpt lat="62.637671652666" lon="17.916874178404">
        <ele>30.4</ele>
        <time>2018-05-04T17:48:35Z</time>
      </trkpt>
      <trkpt lat="62.637604429828" lon="17.916896138982">
        <ele>30.2</ele>
        <time>2018-05-04T17:48:36Z</time>
      </trkpt>
      <trkpt lat="62.637516000783" lon="17.916928409297">
        <ele>30</ele>
        <time>2018-05-04T17:48:37Z</time>
      </trkpt>
      <trkpt lat="62.637433019973" lon="17.916954728463">
        <ele>29.6</ele>
        <time>2018-05-04T17:48:38Z</time>
      </trkpt>
      <trkpt lat="62.637351799362" lon="17.916982724009">
        <ele>29.2</ele>
        <time>2018-05-04T17:48:39Z</time>
      </trkpt>
      <trkpt lat="62.637271584579" lon="17.917012563573">
        <ele>28.8</ele>
        <time>2018-05-04T17:48:40Z</time>
      </trkpt>
      <trkpt lat="62.637188100855" lon="17.917042067861">
        <ele>28.4</ele>
        <time>2018-05-04T17:48:41Z</time>
      </trkpt>
      <trkpt lat="62.63708458439" lon="17.917077523298">
        <ele>27.8</ele>
        <time>2018-05-04T17:48:42Z</time>
      </trkpt>
      <trkpt lat="62.63699322168" lon="17.9171075305">
        <ele>27.2</ele>
        <time>2018-05-04T17:48:43Z</time>
      </trkpt>
      <trkpt lat="62.63690185897" lon="17.917134771675">
        <ele>26.4</ele>
        <time>2018-05-04T17:48:44Z</time>
      </trkpt>
      <trkpt lat="62.636828684983" lon="17.917160755565">
        <ele>26</ele>
        <time>2018-05-04T17:48:45Z</time>
      </trkpt>
      <trkpt lat="62.636741010309" lon="17.917198809391">
        <ele>25.6</ele>
        <time>2018-05-04T17:48:46Z</time>
      </trkpt>
      <trkpt lat="62.636654090006" lon="17.917250274257">
        <ele>25.2</ele>
        <time>2018-05-04T17:48:47Z</time>
      </trkpt>
      <trkpt lat="62.636568091712" lon="17.917314311973">
        <ele>24.8</ele>
        <time>2018-05-04T17:48:48Z</time>
      </trkpt>
      <trkpt lat="62.636493828078" lon="17.917378098232">
        <ele>24.2</ele>
        <time>2018-05-04T17:48:49Z</time>
      </trkpt>
      <trkpt lat="62.636426689059" lon="17.917446243079">
        <ele>24</ele>
        <time>2018-05-04T17:48:50Z</time>
      </trkpt>
      <trkpt lat="62.636376397659" lon="17.917510280795">
        <ele>23.6</ele>
        <time>2018-05-04T17:48:51Z</time>
      </trkpt>
      <trkpt lat="62.636321244757" lon="17.917594854166">
        <ele>23.2</ele>
        <time>2018-05-04T17:48:52Z</time>
      </trkpt>
      <trkpt lat="62.63627237828" lon="17.91768001427">
        <ele>23</ele>
        <time>2018-05-04T17:48:53Z</time>
      </trkpt>
      <trkpt lat="62.636233150988" lon="17.917747572384">
        <ele>22.8</ele>
        <time>2018-05-04T17:48:54Z</time>
      </trkpt>
      <trkpt lat="62.636193672239" lon="17.917804653123">
        <ele>22.6</ele>
        <time>2018-05-04T17:48:55Z</time>
      </trkpt>
      <trkpt lat="62.636157210974" lon="17.917843880415">
        <ele>22.6</ele>
        <time>2018-05-04T17:48:56Z</time>
      </trkpt>
      <trkpt lat="62.636111948714" lon="17.917873133246">
        <ele>22.6</ele>
        <time>2018-05-04T17:48:57Z</time>
      </trkpt>
      <trkpt lat="62.63607037449" lon="17.91787363616">
        <ele>22.4</ele>
        <time>2018-05-04T17:48:58Z</time>
      </trkpt>
      <trkpt lat="62.636034751415" lon="17.917848406641">
        <ele>22.4</ele>
        <time>2018-05-04T17:48:59Z</time>
      </trkpt>
      <trkpt lat="62.635996362313" lon="17.917797193232">
        <ele>22.4</ele>
        <time>2018-05-04T17:49:00Z</time>
      </trkpt>
      <trkpt lat="62.635967109482" lon="17.917746650375">
        <ele>22.6</ele>
        <time>2018-05-04T17:49:01Z</time>
      </trkpt>
      <trkpt lat="62.635928804199" lon="17.917684121401">
        <ele>22.6</ele>
        <time>2018-05-04T17:49:02Z</time>
      </trkpt>
      <trkpt lat="62.635897372074" lon="17.917634332915">
        <ele>23</ele>
        <time>2018-05-04T17:49:03Z</time>
      </trkpt>
      <trkpt lat="62.635860910809" lon="17.917581526945">
        <ele>23.2</ele>
        <time>2018-05-04T17:49:04Z</time>
      </trkpt>
      <trkpt lat="62.635822437888" lon="17.917523105102">
        <ele>23.4</ele>
        <time>2018-05-04T17:49:05Z</time>
      </trkpt>
      <trkpt lat="62.635791424858" lon="17.917478178118">
        <ele>23.6</ele>
        <time>2018-05-04T17:49:06Z</time>
      </trkpt>
      <trkpt lat="62.63575186229" lon="17.917419169542">
        <ele>23.8</ele>
        <time>2018-05-04T17:49:07Z</time>
      </trkpt>
      <trkpt lat="62.635719089061" lon="17.917366866486">
        <ele>24.2</ele>
        <time>2018-05-04T17:49:08Z</time>
      </trkpt>
      <trkpt lat="62.635685477642" lon="17.917312384136">
        <ele>24.6</ele>
        <time>2018-05-04T17:49:09Z</time>
      </trkpt>
      <trkpt lat="62.635649267834" lon="17.917255973949">
        <ele>25</ele>
        <time>2018-05-04T17:49:10Z</time>
      </trkpt>
      <trkpt lat="62.635615572596" lon="17.917204341445">
        <ele>25.6</ele>
        <time>2018-05-04T17:49:11Z</time>
      </trkpt>
      <trkpt lat="62.635575255657" lon="17.917142231566">
        <ele>26.2</ele>
        <time>2018-05-04T17:49:12Z</time>
      </trkpt>
      <trkpt lat="62.635541308962" lon="17.917090347605">
        <ele>26.6</ele>
        <time>2018-05-04T17:49:13Z</time>
      </trkpt>
      <trkpt lat="62.635508284276" lon="17.917038128368">
        <ele>27</ele>
        <time>2018-05-04T17:49:14Z</time>
      </trkpt>
      <trkpt lat="62.635484898775" lon="17.916986160588">
        <ele>27.4</ele>
        <time>2018-05-04T17:49:15Z</time>
      </trkpt>
      <trkpt lat="62.635464530758" lon="17.916913238058">
        <ele>27.4</ele>
        <time>2018-05-04T17:49:16Z</time>
      </trkpt>
      <trkpt lat="62.635457070867" lon="17.916824557556">
        <ele>27.8</ele>
        <time>2018-05-04T17:49:17Z</time>
      </trkpt>
      <trkpt lat="62.635467045328" lon="17.916749371913">
        <ele>28.2</ele>
        <time>2018-05-04T17:49:18Z</time>
      </trkpt>
      <trkpt lat="62.635488167716" lon="17.916679047772">
        <ele>28.6</ele>
        <time>2018-05-04T17:49:19Z</time>
      </trkpt>
      <trkpt lat="62.63551046357" lon="17.916617859902">
        <ele>28.8</ele>
        <time>2018-05-04T17:49:20Z</time>
      </trkpt>
      <trkpt lat="62.635528317017" lon="17.916572010909">
        <ele>29</ele>
        <time>2018-05-04T17:49:21Z</time>
      </trkpt>
      <trkpt lat="62.635546924835" lon="17.916513589066">
        <ele>29.2</ele>
        <time>2018-05-04T17:49:22Z</time>
      </trkpt>
      <trkpt lat="62.635561760798" lon="17.916453239386">
        <ele>29.2</ele>
        <time>2018-05-04T17:49:23Z</time>
      </trkpt>
      <trkpt lat="62.635575423295" lon="17.916390291317">
        <ele>29.4</ele>
        <time>2018-05-04T17:49:24Z</time>
      </trkpt>
      <trkpt lat="62.635590175439" lon="17.916331450379">
        <ele>29.4</ele>
        <time>2018-05-04T17:49:25Z</time>
      </trkpt>
      <trkpt lat="62.63560517904" lon="17.916282080988">
        <ele>29.6</ele>
        <time>2018-05-04T17:49:26Z</time>
      </trkpt>
      <trkpt lat="62.635624541229" lon="17.916224581154">
        <ele>29.8</ele>
        <time>2018-05-04T17:49:27Z</time>
      </trkpt>
      <trkpt lat="62.635642143219" lon="17.91616540494">
        <ele>30</ele>
        <time>2018-05-04T17:49:28Z</time>
      </trkpt>
      <trkpt lat="62.635659745209" lon="17.916102959785">
        <ele>30.2</ele>
        <time>2018-05-04T17:49:29Z</time>
      </trkpt>
      <trkpt lat="62.635674413534" lon="17.916046130503">
        <ele>30.4</ele>
        <time>2018-05-04T17:49:30Z</time>
      </trkpt>
      <trkpt lat="62.635689668592" lon="17.915984188262">
        <ele>30.6</ele>
        <time>2018-05-04T17:49:31Z</time>
      </trkpt>
      <trkpt lat="62.635705929478" lon="17.915918055071">
        <ele>30.8</ele>
        <time>2018-05-04T17:49:32Z</time>
      </trkpt>
      <trkpt lat="62.635718837604" lon="17.915862650712">
        <ele>31</ele>
        <time>2018-05-04T17:49:33Z</time>
      </trkpt>
      <trkpt lat="62.635733254472" lon="17.915803474498">
        <ele>31.4</ele>
        <time>2018-05-04T17:49:34Z</time>
      </trkpt>
      <trkpt lat="62.635751610833" lon="17.915744046827">
        <ele>31.8</ele>
        <time>2018-05-04T17:49:35Z</time>
      </trkpt>
      <trkpt lat="62.635764854235" lon="17.915699203662">
        <ele>32</ele>
        <time>2018-05-04T17:49:36Z</time>
      </trkpt>
      <trkpt lat="62.635777929999" lon="17.915644134579">
        <ele>32</ele>
        <time>2018-05-04T17:49:37Z</time>
      </trkpt>
      <trkpt lat="62.635787653003" lon="17.915595268102">
        <ele>32.2</ele>
        <time>2018-05-04T17:49:38Z</time>
      </trkpt>
      <trkpt lat="62.635796034903" lon="17.915558806837">
        <ele>32.4</ele>
        <time>2018-05-04T17:49:39Z</time>
      </trkpt>
      <trkpt lat="62.635799890577" lon="17.915540366657">
        <ele>32.4</ele>
        <time>2018-05-04T17:49:40Z</time>
      </trkpt>
      <trkpt lat="62.635800225853" lon="17.915541288666">
        <ele>32.4</ele>
        <time>2018-05-04T17:49:41Z</time>
      </trkpt>
      <trkpt lat="62.635799136206" lon="17.915541623942">
        <ele>32.6</ele>
        <time>2018-05-04T17:49:42Z</time>
      </trkpt>
    </trkseg>
  </trk>
</gpx>